GFSGBSN_sfc_wetblb_000.txt.gz
Wetbulb
61.02 60.47 59.53 59.30 58.29 57.13 56.38 56.40 56.26 55.96 55.88 55.68 55.46 55.94 55.93 55.87 55.95 55.90 55.95 56.57 56.99 57.44 57.66 57.91 58.14 57.72 53.59 47.26 45.12 52.04 58.14 56.80 57.80 56.74 55.67 56.52 50.75 48.47 46.24 46.91 47.59 44.97 47.22 49.10 49.88 49.88 48.97
60.64 60.26 60.29 59.43 59.01 58.32 57.17 56.36 56.27 56.24 56.28 56.26 56.00 55.98 55.59 55.66 55.99 55.91 56.13 55.97 56.64 57.29 57.46 57.66 57.76 57.35 48.92 41.39 50.68 53.29 52.62 51.70 54.56 54.63 55.38 56.83 52.99 50.82 48.66 47.82 47.65 48.47 48.98 49.10 48.71 48.82 47.12
60.43 59.83 59.76 59.06 58.85 58.39 57.53 56.23 56.10 56.21 56.39 56.20 56.46 56.17 55.97 55.44 55.27 55.65 56.08 56.06 56.08 56.79 56.87 57.05 57.33 53.46 47.83 44.35 50.53 52.04 53.42 50.94 53.14 54.91 53.35 57.54 57.91 52.85 51.71 48.78 50.01 48.65 44.86 46.56 46.19 46.62 46.83
60.55 59.44 59.05 58.57 58.42 58.25 57.49 56.41 56.15 56.31 56.63 56.55 56.58 56.30 55.75 55.60 55.38 55.62 55.89 56.28 56.20 56.84 56.35 56.53 56.70 50.23 42.76 52.27 52.77 51.07 51.30 52.22 53.23 55.91 55.90 59.90 59.31 53.94 51.67 50.87 46.44 43.59 41.55 38.09 43.74 44.27 45.45
60.74 60.13 59.06 58.70 58.49 58.39 58.15 57.49 56.22 56.12 56.26 56.18 56.25 55.77 55.61 55.81 55.86 56.29 55.86 56.01 56.16 55.90 55.94 55.69 50.88 47.70 42.00 53.82 48.83 50.69 50.76 48.32 51.89 53.83 56.99 60.41 56.08 51.65 51.60 45.80 42.27 42.16 38.33 36.44 39.99 43.68 43.03
59.97 60.06 59.86 58.98 58.79 58.44 58.28 58.13 56.63 55.99 55.94 56.12 56.44 55.70 54.84 55.27 55.87 56.08 56.22 55.29 55.30 53.68 52.65 52.34 50.63 43.27 44.43 44.00 48.64 50.45 51.12 50.53 50.77 51.44 52.25 54.97 52.33 48.02 46.29 42.72 38.78 38.74 38.35 35.81 36.50 40.49 40.30
59.45 59.24 59.45 59.24 58.71 58.51 57.66 57.87 56.62 55.96 55.99 56.08 56.60 56.41 55.24 54.92 55.15 56.53 55.47 51.70 44.61 42.96 46.15 42.51 42.32 42.60 45.30 47.83 51.09 49.04 50.25 48.69 49.58 48.38 45.77 51.71 46.86 43.64 44.20 47.23 43.40 40.77 37.47 37.80 38.39 41.09 38.00
58.95 59.07 59.00 58.93 58.41 58.29 57.42 57.09 56.40 55.61 55.83 55.93 56.86 56.55 55.26 54.75 55.93 56.81 53.28 45.20 44.61 46.84 39.62 45.05 46.48 44.53 47.86 49.73 44.94 47.02 50.76 45.73 46.06 38.40 46.98 47.56 43.02 47.48 46.83 46.24 45.29 40.68 39.55 35.91 40.14 41.06 38.29
58.64 58.92 58.68 58.73 58.47 57.80 57.20 56.50 56.39 55.56 55.45 55.64 56.70 56.02 55.34 55.36 56.32 55.16 49.48 46.84 53.36 50.71 40.59 41.82 44.55 44.88 45.46 47.80 43.89 44.48 48.48 46.51 43.37 38.27 43.81 43.29 46.39 49.51 47.68 43.10 42.75 39.81 38.96 37.26 38.24 39.82 39.33
58.91 59.04 58.82 58.56 58.49 58.07 57.46 56.67 55.98 55.98 55.82 56.27 56.36 55.79 54.65 55.52 52.18 52.23 48.67 51.95 53.54 51.37 34.57 36.93 39.68 43.37 46.38 46.66 41.96 49.43 50.16 48.13 44.57 38.34 44.18 45.78 48.40 47.79 46.48 44.10 43.97 40.05 41.43 42.23 39.14 35.91 31.88
59.23 59.26 59.50 59.08 58.29 58.39 57.87 57.35 56.51 55.96 56.18 56.33 56.39 55.81 55.68 55.50 51.93 49.83 52.20 52.93 53.11 48.85 21.35 37.50 40.15 48.84 46.77 42.52 43.87 45.74 50.32 47.97 42.19 41.32 45.32 43.50 45.44 45.68 45.00 45.51 45.51 42.30 43.57 41.76 40.52 34.50 30.36
59.43 59.31 59.55 59.20 58.91 58.50 58.23 57.79 57.31 56.62 56.35 55.83 55.98 56.06 55.72 53.83 53.48 53.51 54.25 53.21 49.03 33.97 23.47 34.61 41.45 39.81 40.04 41.73 43.80 46.64 47.20 50.66 49.20 43.87 43.44 42.83 47.87 47.53 46.98 47.36 46.11 45.05 41.47 39.23 36.63 32.78 28.05
59.44 59.28 59.40 59.30 59.04 58.67 58.34 58.08 57.65 56.94 56.46 55.97 55.58 55.38 54.13 54.99 50.13 55.11 53.19 47.83 33.09 27.70 37.08 34.53 35.94 39.52 39.41 38.40 41.16 42.93 41.73 41.31 39.93 36.33 37.81 39.64 43.99 44.74 47.12 41.61 42.56 42.01 38.91 32.16 29.56 27.67 27.68
59.20 59.00 58.82 58.63 58.60 58.82 58.27 58.04 57.62 57.31 56.53 55.82 55.22 54.89 54.00 53.98 55.74 54.14 50.07 38.87 29.42 35.02 33.51 40.63 39.26 38.80 36.44 39.70 40.64 41.10 41.74 40.76 44.13 38.51 38.94 36.18 35.62 39.34 41.26 42.98 40.03 39.33 36.81 30.03 26.00 25.74 27.62
58.66 58.40 58.52 58.39 57.98 58.54 58.31 57.53 57.21 57.20 56.43 55.66 54.67 51.02 51.46 53.60 55.74 52.77 42.45 32.43 33.80 37.59 40.29 39.49 38.99 34.64 36.30 39.18 41.18 42.18 40.28 40.47 43.75 42.05 36.68 36.50 35.82 37.58 41.25 40.19 44.06 35.60 35.05 36.63 31.70 27.75 27.88
58.49 58.08 57.94 57.82 57.65 58.20 58.29 57.11 56.84 56.94 56.25 55.45 49.29 46.09 47.75 54.44 55.59 49.69 39.39 35.30 39.99 44.72 42.98 40.89 34.33 37.88 35.68 36.97 39.52 39.11 40.11 44.47 43.84 44.62 41.70 37.14 30.28 38.43 37.69 41.19 39.64 38.03 39.76 32.70 31.46 26.97 25.14
58.16 57.75 57.63 57.62 57.55 57.56 57.53 56.71 56.60 56.72 56.19 54.37 47.63 42.46 51.42 54.71 54.01 46.10 36.53 36.52 43.75 45.95 44.62 41.52 39.03 37.71 38.80 36.82 39.92 38.11 38.84 43.20 45.23 41.83 40.98 37.47 34.41 34.91 37.38 35.84 35.21 34.72 32.95 32.42 33.66 30.59 26.70
57.83 57.53 57.11 57.51 56.97 56.91 57.04 56.39 56.31 56.40 55.11 48.93 43.69 39.66 52.92 53.81 44.34 45.34 40.24 45.61 45.75 46.02 48.25 45.85 44.67 42.55 40.11 38.69 39.34 39.43 39.52 41.38 45.97 44.77 39.98 39.80 34.49 31.31 34.72 36.99 37.64 34.76 34.53 34.24 30.63 27.23 26.85
57.68 57.08 56.79 56.96 56.20 56.09 56.36 56.29 55.83 55.98 53.93 43.91 40.90 47.02 52.64 52.02 41.48 42.06 45.73 44.97 46.43 45.62 46.25 45.81 41.23 43.66 42.59 38.80 38.39 41.63 42.64 44.68 45.83 44.42 41.87 41.55 34.97 31.12 34.05 35.77 36.26 34.69 34.13 33.76 32.87 31.15 26.65
57.39 56.80 56.60 56.51 55.84 55.58 55.78 55.81 55.14 55.51 54.71 45.04 42.87 41.05 46.80 48.28 46.48 42.91 43.19 42.99 43.78 47.88 46.50 46.47 43.00 43.34 42.45 40.43 41.48 39.11 40.34 43.13 45.48 44.59 47.47 45.57 36.90 33.37 31.33 32.55 35.92 33.09 34.17 33.48 34.15 28.91 28.60
57.01 56.70 56.48 56.31 55.96 55.36 55.48 55.25 54.85 55.19 54.98 46.50 40.58 41.25 43.56 38.74 40.94 41.29 43.21 44.41 43.02 42.33 45.93 46.03 42.98 42.50 40.77 37.89 38.23 38.25 39.60 40.40 42.64 45.75 41.96 42.22 35.55 34.29 33.40 35.80 36.50 35.81 35.92 33.92 33.25 34.81 32.54
56.73 56.61 56.26 55.98 55.80 55.44 55.14 54.81 54.59 54.81 53.10 44.19 39.46 38.68 40.75 37.93 39.75 40.62 40.13 40.26 40.12 40.71 42.51 42.98 41.82 42.17 41.58 40.02 39.39 38.36 39.83 39.39 39.14 39.94 39.35 40.62 34.09 33.54 29.92 33.56 32.70 32.30 34.85 34.28 33.95 33.38 32.02
56.57 56.35 56.01 55.54 55.14 54.93 54.42 54.45 54.47 54.38 51.01 42.44 41.32 43.21 41.81 39.22 37.70 38.04 39.38 40.51 40.44 41.55 42.09 42.82 42.62 41.92 38.80 39.80 39.67 40.92 40.13 39.75 41.15 40.57 37.74 36.31 33.76 32.45 28.85 31.33 30.89 28.96 32.48 34.24 33.88 33.95 35.57
56.33 56.05 55.69 55.06 54.64 54.35 54.02 54.43 54.59 54.13 50.34 44.00 42.96 41.95 37.61 36.22 37.88 37.90 39.65 40.15 39.47 40.09 39.43 39.33 41.13 41.47 39.77 41.64 42.02 42.04 41.36 40.08 39.21 37.13 37.76 34.61 32.64 31.06 26.49 28.74 22.42 31.51 35.99 35.25 34.42 34.50 36.15
56.11 55.84 55.59 54.92 54.43 53.92 53.96 54.52 54.64 54.13 52.42 43.49 43.44 41.50 37.52 33.66 35.46 35.66 36.70 36.27 36.31 36.69 37.16 37.81 38.13 39.42 41.48 40.11 37.54 38.18 36.08 36.07 36.08 36.22 36.15 36.71 34.12 30.13 28.73 26.28 30.35 33.74 34.89 35.79 35.65 34.83 38.38
55.75 55.94 55.44 54.79 53.95 53.41 53.91 54.39 54.49 54.07 52.76 44.27 43.67 43.63 38.81 36.06 34.98 37.17 35.66 34.91 33.67 32.83 33.36 35.49 37.86 39.14 39.77 38.87 36.67 33.38 32.11 34.20 31.27 32.61 35.92 35.74 35.38 32.68 26.00 25.41 25.83 32.90 37.49 39.64 39.80 32.93 39.49
55.91 55.63 55.02 54.21 53.61 53.49 54.14 54.01 54.14 53.95 52.69 47.04 44.31 45.35 41.57 36.65 37.79 36.98 35.31 35.84 35.78 33.66 32.07 32.71 34.37 35.75 37.66 34.91 33.12 31.40 31.05 32.86 30.03 30.10 30.41 31.02 30.89 29.65 30.50 28.55 31.13 36.82 39.24 39.94 31.37 32.63 38.68
54.53 55.21 54.44 53.61 53.39 53.76 53.95 53.74 53.79 53.73 52.56 49.03 45.58 45.56 44.52 38.67 38.90 41.73 41.03 37.26 36.70 36.49 34.22 34.91 36.78 36.62 35.03 34.03 33.22 31.45 31.06 32.43 31.34 31.38 29.91 30.00 27.97 28.11 28.93 27.39 27.43 37.67 38.31 35.06 36.38 36.82 37.98
53.28 54.67 53.77 52.92 52.96 53.46 53.35 53.54 53.63 53.55 53.08 50.73 44.88 46.54 46.59 42.13 41.39 43.78 43.91 43.39 42.11 41.93 36.87 35.37 37.12 35.55 37.28 34.26 33.02 32.51 31.27 30.15 31.70 30.39 33.40 31.25 33.24 31.23 32.39 32.09 37.48 36.91 37.47 38.35 38.93 37.75 37.21

GFSGBSN_sfc_wetblb_003.txt.gz
Wetbulb
62.04 60.53 60.52 60.76 59.94 59.01 57.78 56.67 56.27 56.44 56.33 56.37 56.12 55.66 55.85 55.69 56.05 56.07 56.06 56.10 56.96 57.54 57.97 58.00 58.18 58.19 54.00 48.46 46.94 53.10 57.63 56.19 55.93 57.53 53.92 54.26 53.63 50.71 49.36 49.75 49.05 47.04 49.44 50.46 50.99 51.11 50.76
61.70 60.72 60.05 60.58 59.77 59.70 59.17 57.94 56.49 56.31 56.22 56.45 56.50 56.11 56.18 55.81 55.66 56.18 56.10 56.37 56.43 57.12 57.85 57.70 57.82 57.37 50.12 42.37 51.65 54.15 52.57 51.82 52.28 55.15 53.72 54.83 54.14 52.65 50.54 49.62 50.05 50.25 50.67 51.16 51.14 51.44 49.99
60.88 60.92 59.79 59.70 59.23 58.91 59.19 58.25 56.73 56.23 56.16 56.79 56.58 56.62 56.70 56.39 56.22 55.65 55.91 56.38 56.46 56.71 57.45 57.59 57.38 53.53 48.15 45.11 51.59 52.09 52.87 51.20 51.75 54.78 52.27 55.61 57.22 52.98 52.35 49.47 51.37 50.43 48.05 49.08 49.20 50.02 49.89
60.65 60.88 60.45 59.38 59.28 58.75 58.44 58.07 57.15 56.28 56.43 56.74 57.06 57.00 56.96 56.18 55.98 55.81 56.08 56.39 56.93 57.35 57.09 56.36 55.52 50.84 43.58 52.96 53.59 51.39 51.19 50.28 52.69 54.78 55.23 56.36 58.23 54.42 52.22 52.27 49.05 48.23 46.57 43.79 48.47 47.71 48.01
60.33 60.33 60.67 60.06 59.33 59.14 58.67 58.37 57.91 56.77 56.25 56.41 56.60 56.74 56.81 56.37 56.08 56.12 56.37 56.73 56.89 56.69 56.44 55.11 50.62 48.10 41.85 53.71 49.19 50.58 50.67 47.80 51.04 54.63 55.60 56.59 56.80 53.41 51.70 46.19 43.45 43.92 41.01 41.17 44.12 47.38 47.32
59.35 59.75 60.12 59.95 59.51 59.27 59.17 58.14 58.25 57.12 56.16 56.03 56.41 57.36 57.35 56.27 55.49 55.64 56.27 56.70 56.18 55.12 53.32 52.72 50.22 43.28 45.70 44.34 49.02 50.36 50.58 50.28 48.48 51.92 51.30 52.20 52.71 48.69 48.32 45.54 39.40 38.13 40.66 40.72 40.42 44.67 43.75
59.01 59.91 59.83 59.95 59.44 58.75 58.80 58.11 57.73 57.04 55.91 56.09 56.80 56.91 57.19 56.41 54.73 55.21 54.75 53.52 46.77 45.03 46.76 41.52 41.95 41.77 45.28 47.78 50.87 48.91 49.90 48.02 47.76 49.11 42.14 48.34 45.94 43.59 45.52 47.33 45.55 42.07 42.26 41.64 42.89 44.23 42.29
58.72 59.72 59.50 59.64 59.12 58.63 58.02 57.82 56.84 56.52 55.44 55.58 56.49 56.77 57.16 56.17 55.29 55.44 54.74 46.15 45.36 46.13 39.04 44.87 45.13 44.86 47.01 49.31 44.52 47.01 49.78 43.37 44.05 40.44 43.73 44.97 43.13 47.85 47.65 47.06 44.59 42.19 40.67 39.82 42.15 43.32 42.23
58.84 59.06 59.83 59.46 58.83 58.52 58.01 57.35 56.45 55.81 55.66 55.24 56.17 56.55 55.45 53.99 54.83 54.54 51.14 48.68 52.03 50.46 39.14 41.73 43.44 44.04 45.29 46.25 43.12 44.39 46.57 44.97 43.57 39.22 40.94 41.17 45.06 49.36 47.47 45.25 44.78 42.05 40.39 39.71 41.01 42.12 42.16
59.21 59.56 59.97 59.41 58.79 58.36 58.35 57.68 56.89 55.91 55.50 56.05 56.40 56.57 55.57 53.99 52.50 52.64 49.07 52.47 51.50 49.31 33.35 36.34 39.18 41.98 45.62 46.58 41.14 48.23 48.41 45.99 43.89 37.96 40.47 43.93 48.04 47.04 46.13 43.84 45.06 41.32 43.04 43.70 41.17 40.32 36.63
58.81 59.30 59.53 59.37 59.24 58.69 58.18 58.15 57.67 56.89 56.30 55.97 55.96 55.87 55.77 54.12 51.34 49.27 50.73 52.47 50.95 45.85 22.49 37.86 39.24 48.31 46.15 41.67 43.07 44.15 49.38 46.38 41.36 39.58 42.16 42.29 44.82 44.68 44.10 44.78 45.88 43.11 45.58 44.00 42.47 39.06 35.56
58.76 59.36 59.43 59.24 59.05 58.85 58.49 58.04 58.13 57.85 57.06 56.37 55.86 55.25 55.45 53.19 52.63 53.00 53.12 52.56 48.92 32.03 22.55 35.20 40.31 39.48 39.39 41.43 42.44 45.12 44.48 47.77 48.42 41.91 42.57 44.51 48.38 48.84 47.21 47.05 47.22 42.65 41.73 40.66 38.26 35.94 31.33
58.20 58.99 59.22 59.16 58.75 58.66 58.30 58.12 58.13 58.05 57.49 56.52 55.82 55.45 53.46 53.82 49.64 54.01 52.42 46.70 31.97 26.55 36.25 33.97 35.49 38.52 37.36 36.22 38.45 40.97 39.51 39.05 38.87 34.36 34.65 41.72 44.84 46.82 49.23 42.72 43.66 42.94 41.31 34.52 31.06 29.87 30.62
58.53 58.69 58.57 58.76 58.63 58.31 58.27 58.18 58.01 57.86 57.56 56.54 55.56 54.94 53.57 52.39 54.53 52.94 49.58 38.30 27.80 33.93 31.82 39.04 37.66 37.56 34.61 36.87 38.60 39.46 37.98 35.12 42.09 39.58 35.65 36.12 36.00 41.66 45.77 43.80 40.47 41.97 41.08 34.32 28.69 28.19 30.62
58.03 58.47 58.44 58.29 58.32 58.10 58.06 58.20 57.55 57.23 56.81 56.17 54.91 50.31 50.30 52.10 54.48 52.39 41.28 31.15 31.91 35.47 36.04 36.75 36.43 32.59 33.85 37.14 38.58 38.24 36.98 36.31 40.18 41.50 35.15 34.86 36.07 40.36 43.64 43.09 44.66 38.00 37.90 40.13 33.00 31.87 31.00
57.88 57.92 58.08 58.18 57.63 57.62 57.58 57.85 57.14 56.86 56.51 55.57 48.85 47.11 48.26 53.54 53.53 47.95 36.39 34.18 37.07 40.20 41.45 38.18 31.20 34.31 30.04 34.51 34.83 36.27 37.18 41.09 41.27 43.54 41.79 39.04 32.12 38.65 38.95 42.57 40.34 41.35 42.00 35.63 34.00 29.16 27.59
57.94 57.71 57.92 58.03 57.56 57.15 57.17 57.27 56.60 56.44 56.50 54.26 48.23 40.94 50.89 54.95 51.72 44.19 34.35 35.03 39.92 45.30 42.61 37.98 36.97 35.55 36.01 34.22 35.78 36.29 35.96 43.22 45.29 43.41 41.42 37.60 35.49 34.29 38.03 37.35 35.13 36.69 36.35 35.78 35.78 33.17 29.93
57.21 57.68 57.71 57.48 56.92 56.72 56.52 56.73 56.27 55.90 54.03 50.52 42.06 40.16 52.90 53.46 41.92 42.15 38.63 39.93 44.08 43.42 45.03 42.34 41.58 41.53 38.03 36.83 34.98 37.49 37.98 41.31 47.59 45.92 38.02 38.53 35.26 31.10 33.53 37.88 39.76 38.67 37.40 37.40 32.46 29.52 29.38
56.19 57.43 57.47 56.91 56.37 55.88 55.83 56.08 55.86 55.02 54.07 43.15 39.80 45.61 53.40 51.70 39.28 39.75 43.54 42.87 45.22 44.31 44.85 43.65 40.58 42.19 41.17 38.32 37.80 40.99 42.20 45.29 46.35 45.42 40.51 40.90 35.09 31.06 34.50 37.28 38.00 35.85 35.80 36.05 34.55 33.08 28.64
54.99 57.15 57.16 56.47 56.09 55.54 55.23 55.34 55.40 54.63 54.30 44.92 41.00 41.63 46.84 47.40 46.81 43.37 43.30 42.34 42.87 48.09 46.58 47.14 41.60 43.24 40.78 39.02 40.49 39.15 41.43 44.30 46.21 46.21 47.63 44.99 36.44 34.19 31.88 33.51 35.96 33.56 33.94 34.13 36.06 31.08 30.40
52.76 56.64 56.91 56.33 56.21 55.76 55.03 54.87 54.95 54.48 54.68 46.92 39.59 38.64 42.88 38.95 42.11 42.69 44.20 43.56 41.93 42.31 46.42 46.77 43.30 40.48 41.21 37.53 38.04 38.31 41.92 41.39 44.19 46.64 43.81 43.10 36.08 34.71 33.50 36.51 36.95 36.27 35.87 34.13 34.07 36.78 34.70
52.12 55.21 56.61 56.20 56.05 55.69 54.84 54.52 54.39 54.10 54.02 45.74 38.65 36.99 38.77 39.28 38.36 42.04 41.93 42.81 41.80 42.10 43.24 42.84 41.96 40.74 42.18 40.22 39.66 37.64 39.74 40.29 40.41 40.29 40.03 40.71 34.97 34.33 31.02 34.56 35.32 34.70 35.62 36.16 35.55 34.05 34.89
51.20 53.06 56.44 56.26 55.87 55.39 54.60 53.91 53.96 54.08 51.42 42.28 40.90 40.84 39.26 40.07 37.62 38.39 39.46 41.68 41.83 42.37 43.23 41.47 42.99 41.32 41.39 40.74 41.24 42.66 42.43 42.09 43.06 39.19 36.76 38.20 34.58 33.33 31.64 32.62 32.71 30.40 33.41 34.47 35.55 35.16 37.58
51.06 51.98 54.94 56.23 55.38 54.83 54.12 53.53 53.71 54.07 50.31 43.13 41.69 40.70 37.07 37.18 37.60 38.41 39.50 40.92 41.35 40.96 41.31 38.60 40.81 40.88 39.87 41.46 40.94 42.06 40.89 40.29 43.17 37.98 39.30 36.16 35.20 33.32 28.09 31.40 23.92 34.02 36.22 37.01 36.03 34.98 35.97
50.36 51.75 53.33 56.04 55.08 54.33 53.73 53.35 53.84 54.20 53.11 43.93 42.57 41.35 36.47 35.04 37.08 37.19 38.25 37.36 37.59 38.80 36.55 37.41 37.86 38.93 40.34 40.44 39.88 37.20 37.29 36.98 36.68 36.37 36.56 36.83 35.62 31.27 28.78 26.72 30.81 34.17 34.90 34.63 35.09 34.45 37.83
50.01 50.88 52.00 55.76 54.70 53.87 53.34 53.17 53.89 54.20 53.80 44.22 42.52 42.93 37.66 35.53 34.94 36.93 35.95 35.68 35.60 35.59 35.64 36.34 38.77 40.86 40.92 39.15 36.98 34.33 33.12 33.48 31.95 33.31 35.93 36.36 36.22 35.32 28.03 25.99 26.57 34.18 37.74 40.01 39.63 32.83 39.38
49.41 50.62 51.38 55.44 54.51 53.50 52.98 53.00 53.73 53.91 53.30 46.11 43.44 44.20 40.08 36.79 37.23 35.67 34.99 36.04 36.70 34.25 34.25 34.92 36.54 38.05 40.51 37.20 33.36 31.73 31.34 33.61 31.22 30.73 31.47 32.13 31.67 30.65 31.42 28.61 31.76 37.56 39.23 39.63 31.82 34.19 38.94
47.65 48.66 50.17 54.84 53.95 53.21 53.04 53.39 53.53 53.69 53.14 48.32 44.71 44.77 42.78 39.01 38.95 40.03 39.67 36.22 36.43 35.40 34.45 34.64 37.68 37.67 36.70 36.22 35.24 32.90 32.46 31.99 31.03 31.59 31.23 31.83 29.74 29.08 29.85 28.24 27.84 38.80 38.95 35.68 37.38 37.21 37.92
47.58 48.60 49.38 53.45 53.29 52.94 53.12 53.38 53.43 53.60 53.13 50.33 43.81 45.29 45.36 40.99 41.18 43.23 43.03 42.17 40.90 40.89 35.64 34.93 36.49 34.98 36.66 34.02 32.48 31.92 31.11 31.37 31.65 30.42 33.47 31.20 33.72 31.90 32.56 32.10 37.06 36.97 37.90 38.03 38.55 37.47 37.64

GFSGBSN_sfc_wetblb_006.txt.gz
Wetbulb
61.21 62.55 61.03 60.64 60.91 60.33 59.81 58.36 57.32 56.92 57.08 56.99 57.08 56.64 55.98 56.17 55.71 55.72 55.73 55.87 56.17 57.23 57.83 58.26 58.33 58.39 56.18 49.43 49.19 57.76 57.24 56.77 57.39 58.45 55.88 52.93 52.81 54.10 52.24 53.97 54.33 51.89 53.31 54.46 55.29 54.93 54.68
60.64 61.51 61.66 60.36 60.19 60.13 59.54 59.94 58.60 57.30 56.96 56.80 57.19 56.94 56.38 56.40 56.01 55.62 55.90 56.01 56.55 56.59 57.36 58.19 58.11 57.99 52.26 43.52 55.40 56.87 56.93 55.61 54.17 56.31 54.67 54.24 54.08 56.30 53.43 54.07 53.08 54.36 53.86 53.93 54.92 54.72 55.14
59.69 60.67 61.53 60.62 60.05 59.68 59.23 59.31 58.92 57.62 56.94 56.78 57.29 56.99 56.78 56.83 56.77 56.51 55.48 55.94 56.50 56.74 56.85 57.60 57.51 55.42 49.35 46.85 54.63 55.17 54.20 53.68 54.74 54.55 53.74 55.82 56.02 55.29 55.07 52.86 56.59 55.01 51.01 53.16 53.88 54.34 53.74
59.51 60.37 61.16 61.04 60.27 59.69 59.32 58.82 58.77 57.94 57.15 56.80 57.06 57.62 57.79 57.43 56.68 56.23 55.75 56.08 56.60 57.50 56.70 56.13 56.02 53.38 44.55 53.89 56.31 53.96 54.60 52.84 55.20 54.87 55.26 56.86 55.99 53.56 54.15 56.29 54.36 51.54 51.72 46.84 52.41 53.92 54.25
59.50 60.52 60.58 60.32 60.46 60.11 59.67 59.48 59.37 58.63 57.69 56.83 56.74 57.30 57.21 57.62 56.78 56.55 56.39 56.47 56.89 56.80 56.62 55.85 52.12 49.66 43.02 54.05 50.22 53.54 54.15 50.18 52.26 53.65 54.08 55.71 53.86 51.44 53.75 47.78 47.04 49.96 44.81 45.93 48.15 53.62 52.77
59.35 59.69 60.20 60.16 60.23 59.87 59.52 59.54 58.90 58.33 58.26 57.02 56.92 57.18 57.47 57.63 57.01 56.36 55.58 55.92 56.81 55.56 54.05 52.98 51.79 44.80 46.77 45.18 50.25 51.44 53.50 52.00 49.94 51.51 50.68 50.41 48.33 47.65 49.19 46.22 40.31 42.59 44.56 46.74 46.47 50.57 49.25
59.30 59.72 59.85 59.81 59.72 59.85 59.22 58.97 58.68 57.72 57.97 57.27 56.94 57.00 57.29 57.55 56.98 55.05 53.83 52.85 46.55 45.77 47.34 42.72 43.58 43.17 45.86 49.87 52.64 49.86 52.06 49.42 49.33 47.82 42.02 47.41 41.38 40.64 46.33 47.63 48.45 47.65 47.11 45.87 48.49 50.20 47.76
59.44 59.34 59.64 59.46 59.41 59.69 59.10 58.51 58.28 57.38 57.18 56.58 56.54 56.69 57.06 57.38 57.13 55.61 53.87 48.66 47.14 48.28 41.27 45.91 45.65 45.49 48.71 49.82 44.64 47.85 51.85 44.48 43.38 39.19 44.36 42.27 38.53 46.37 48.55 49.00 47.96 48.06 45.37 44.87 49.01 48.33 47.38
59.23 59.25 59.44 59.53 59.67 59.47 58.89 58.45 57.96 57.20 56.41 56.47 56.09 56.27 56.68 56.27 54.46 53.00 51.45 50.37 52.14 50.66 39.68 41.75 44.44 44.11 45.18 47.45 44.13 45.37 48.43 45.31 41.43 38.58 40.96 38.86 42.54 47.88 47.69 47.03 46.10 46.63 44.26 45.15 45.61 46.88 47.30
58.95 59.21 59.46 59.79 59.34 59.19 59.15 58.83 58.22 57.53 56.84 56.28 56.27 56.22 56.49 54.60 50.66 52.91 50.33 50.69 51.09 49.98 33.16 35.99 40.03 42.51 45.93 47.00 41.38 48.77 49.81 45.51 42.96 37.96 41.02 40.40 45.75 46.51 45.94 45.28 47.78 43.42 49.11 47.82 45.84 43.97 41.92
59.08 59.18 59.07 59.11 58.91 58.89 58.83 58.88 58.46 58.13 57.57 56.51 56.28 55.79 56.21 54.58 52.03 48.94 50.43 50.74 50.11 46.45 24.52 38.46 39.58 48.17 45.90 42.11 43.65 43.92 50.44 45.67 40.27 40.22 39.62 37.99 42.63 42.11 44.35 45.91 49.00 45.58 49.33 48.00 46.36 44.21 43.81
58.54 58.36 58.69 59.00 58.67 58.46 58.53 58.54 58.40 58.31 58.06 57.06 56.36 55.80 55.57 53.75 53.45 52.40 51.63 50.78 47.62 31.98 24.10 35.64 40.24 38.96 39.18 41.57 42.59 45.15 45.12 47.35 46.63 41.73 41.39 41.62 47.94 45.23 48.01 48.95 49.59 48.46 46.67 45.30 44.30 43.09 38.31
57.48 57.95 58.20 58.65 58.82 58.24 58.13 58.07 58.24 58.16 57.91 57.58 56.72 55.88 54.33 53.57 48.90 53.89 51.82 45.81 32.54 27.87 36.77 34.69 35.84 39.02 37.33 36.28 38.37 40.38 40.35 38.62 36.23 35.16 34.50 37.00 37.67 48.21 50.45 45.30 44.98 47.79 44.21 36.36 35.54 34.80 36.86
56.28 57.28 58.00 58.52 58.27 58.15 58.06 58.01 58.12 58.25 57.74 56.97 56.54 55.44 53.88 52.49 54.91 53.81 48.27 38.50 29.01 33.77 34.04 38.43 38.35 38.14 34.28 38.00 37.78 38.98 38.25 35.47 39.45 39.98 35.56 33.22 34.94 44.85 49.42 46.73 41.73 43.29 45.15 39.24 32.04 34.35 37.54
54.34 57.10 57.45 57.74 58.04 57.97 58.01 57.80 57.77 57.70 57.00 56.43 55.14 52.20 50.81 52.44 55.01 51.36 41.46 31.52 32.74 36.12 36.94 36.25 37.31 33.88 34.25 37.42 37.63 37.74 37.61 36.18 39.16 39.67 34.79 33.98 34.61 45.11 48.08 47.22 46.75 41.45 39.87 45.50 38.70 38.62 38.01
52.42 54.23 56.92 57.35 57.76 57.85 57.88 57.46 57.39 57.39 56.54 55.84 49.64 47.86 48.19 52.57 53.89 47.96 36.46 34.87 36.46 40.68 38.78 39.79 32.66 36.20 32.74 35.10 36.12 37.02 36.39 39.78 38.82 42.74 45.41 39.76 34.77 41.99 42.54 47.66 43.52 45.29 47.72 38.00 40.20 33.22 32.26
51.71 53.63 56.76 57.17 57.40 57.20 57.29 57.09 57.11 56.88 56.51 55.01 49.48 43.99 50.98 53.66 51.67 42.10 33.69 35.92 39.37 43.26 42.04 38.30 36.46 35.05 36.50 35.52 36.37 36.80 36.87 41.31 42.38 43.60 45.11 43.97 42.14 35.69 43.44 40.45 40.81 43.12 40.43 42.33 42.57 39.72 36.91
52.00 53.07 55.69 56.75 56.81 56.71 56.90 56.59 56.89 56.45 54.58 51.81 48.03 42.67 52.28 52.37 40.40 40.44 36.80 38.64 42.68 43.34 44.09 41.00 41.57 39.44 37.35 38.35 35.16 35.83 37.48 41.59 44.75 46.37 41.38 45.19 43.16 36.72 37.45 41.93 46.56 46.25 43.64 43.72 39.50 35.31 38.47
51.51 51.96 54.03 56.45 56.36 56.25 56.30 56.21 56.26 56.09 53.39 47.94 45.31 46.34 52.08 49.68 37.46 37.29 41.42 40.95 41.86 42.89 42.34 41.11 41.45 42.85 42.13 38.79 34.58 38.07 40.96 44.76 46.44 45.71 44.45 45.38 41.76 35.94 35.97 39.43 40.69 41.04 43.80 45.90 44.78 41.17 38.15
51.30 51.55 52.11 55.14 56.10 55.85 55.70 55.59 55.64 55.57 55.11 49.36 45.89 41.92 46.50 47.29 46.12 42.68 40.81 40.05 41.19 46.57 44.40 46.16 44.58 45.44 41.75 38.63 41.15 39.05 41.44 45.91 48.38 46.43 47.82 46.49 42.96 40.55 36.37 39.53 43.15 40.01 41.52 44.41 44.25 39.35 39.75
51.48 50.97 51.68 52.71 56.05 55.94 55.47 55.05 55.15 55.16 54.32 49.24 45.09 44.32 46.14 39.54 40.80 42.19 43.13 42.58 40.03 42.04 46.11 47.13 43.99 44.02 41.63 38.51 39.84 40.20 43.30 44.12 46.41 47.91 47.54 45.90 40.08 42.20 41.38 42.26 43.26 42.12 41.39 41.03 40.72 43.05 39.73
50.45 51.12 51.46 51.99 54.87 55.92 55.39 54.61 54.71 54.74 54.06 47.42 43.30 42.83 44.55 45.21 44.73 43.45 42.38 41.94 40.18 43.18 42.88 41.54 42.66 44.12 44.60 41.41 42.21 41.01 43.22 44.23 43.35 45.93 45.59 46.59 40.24 39.85 38.09 40.28 42.01 40.10 42.20 42.94 43.09 43.77 43.50
49.40 50.23 51.10 52.19 52.72 55.72 55.16 54.29 54.29 54.37 52.17 46.49 47.15 45.88 44.44 43.76 41.39 42.34 41.11 43.12 42.02 43.45 44.13 44.83 45.48 43.93 43.05 44.90 48.18 48.58 48.96 48.80 47.59 45.24 44.25 43.66 41.67 39.44 36.52 38.20 38.61 36.44 40.73 41.34 42.54 44.07 43.56
48.68 50.23 50.50 51.27 52.51 55.44 54.92 54.16 53.89 54.18 52.06 47.78 47.24 46.27 42.62 40.30 41.68 40.14 42.05 43.57 42.93 43.94 43.25 41.60 43.55 44.98 45.38 46.32 47.87 49.01 47.34 45.64 47.18 44.52 48.39 43.52 41.08 39.59 34.82 35.62 30.35 41.40 41.87 45.24 43.38 44.73 45.60
48.22 49.19 50.04 51.55 51.94 55.28 54.69 54.03 53.69 53.96 53.12 48.41 47.06 46.66 43.49 39.97 42.16 39.96 41.00 41.40 39.96 39.45 38.53 39.88 39.54 41.23 46.56 44.16 43.66 40.53 39.16 40.18 39.04 38.74 40.68 46.49 40.81 36.96 34.12 33.77 38.24 38.46 39.32 39.81 40.55 42.25 44.10
47.90 49.02 48.55 49.22 50.04 54.20 54.06 53.66 53.53 53.84 54.02 48.69 46.70 48.27 44.37 39.80 40.99 40.57 38.79 41.83 40.26 39.14 38.23 38.35 40.74 43.40 43.48 42.52 43.52 36.76 35.35 38.63 34.87 35.72 38.59 40.30 43.05 39.22 34.00 32.35 32.13 38.72 41.52 43.77 44.21 38.08 43.15
47.64 48.17 48.10 49.18 49.71 52.56 53.74 53.26 53.26 53.64 53.41 48.94 47.32 48.79 45.69 40.94 43.06 41.34 40.72 40.99 41.08 39.08 37.03 39.38 38.78 40.83 44.04 40.53 38.03 37.75 37.80 39.83 35.57 35.35 35.50 35.82 36.86 36.20 36.75 35.82 38.42 41.85 43.25 44.68 36.95 39.68 43.55
46.92 47.66 48.10 48.99 49.62 50.76 53.57 52.97 53.03 53.55 53.34 49.90 48.55 48.70 48.05 43.19 44.32 44.45 43.37 39.79 39.21 41.30 39.25 39.65 41.95 40.77 40.44 39.98 39.21 36.84 37.10 37.77 37.33 39.23 38.93 37.69 36.06 35.49 36.69 34.45 32.27 42.51 41.42 40.02 42.81 44.22 44.24
46.61 47.11 47.50 48.37 48.70 49.77 53.27 52.90 53.22 53.57 53.37 51.21 47.63 48.34 48.96 45.64 45.18 46.59 46.92 46.44 44.40 44.04 40.14 37.74 42.40 41.36 42.63 39.59 39.80 38.66 36.46 36.58 38.02 34.74 37.87 36.51 41.12 39.11 39.98 39.28 40.87 42.03 42.75 43.27 45.89 43.67 43.24

GFSGBSN_sfc_wetblb_009.txt.gz
Wetbulb
60.60 61.38 61.52 62.03 61.05 60.76 61.11 60.34 58.83 57.93 57.51 57.34 57.41 57.55 57.14 56.41 56.70 56.47 56.43 56.07 55.80 55.90 57.15 57.82 58.26 58.16 56.40 49.68 49.98 58.69 57.83 56.75 58.47 59.63 56.50 54.98 51.23 51.64 50.39 53.11 53.62 51.70 53.68 54.98 55.71 55.51 55.29
60.78 60.60 61.22 61.58 61.60 60.52 60.46 60.06 60.31 58.86 58.09 57.49 57.30 57.41 57.31 56.85 56.91 56.55 56.38 56.22 56.50 56.08 55.93 57.21 58.12 58.00 53.11 43.46 56.65 58.47 58.18 57.29 55.93 56.72 55.45 56.23 52.63 53.53 51.53 51.24 51.73 54.47 54.65 54.36 55.20 55.01 55.23
60.36 59.53 60.72 61.44 61.58 61.18 60.20 59.63 59.68 60.19 58.63 57.71 57.23 57.09 57.62 56.99 57.10 57.22 56.77 56.10 56.41 55.99 56.00 56.54 57.10 55.89 49.93 47.69 55.41 57.18 56.43 54.90 55.91 54.94 53.85 56.68 56.51 53.22 53.45 50.17 53.75 53.93 50.35 53.19 53.45 54.40 53.56
59.74 59.44 60.37 61.05 61.32 61.23 60.88 60.34 59.68 59.46 58.84 57.92 57.20 57.06 57.81 57.66 57.55 57.22 56.97 56.49 56.35 56.24 56.21 55.96 55.94 54.14 46.21 55.23 56.89 54.71 55.21 53.51 55.04 55.29 54.20 56.49 57.02 53.00 51.16 54.54 51.14 48.95 50.14 45.02 51.80 53.69 54.30
58.74 59.69 60.30 60.64 60.80 60.77 60.92 60.62 59.95 59.14 58.98 58.38 57.67 57.01 57.31 58.16 57.99 57.49 56.81 56.52 56.55 56.85 56.34 55.72 53.06 51.11 44.31 55.02 50.85 54.15 54.86 51.14 52.63 53.89 54.16 54.87 54.28 49.94 50.63 46.58 45.07 47.36 43.48 45.02 48.39 53.89 52.96
58.55 59.48 60.20 60.40 60.47 60.00 60.49 60.69 60.22 59.96 59.02 59.22 58.33 57.69 57.54 57.74 57.91 57.49 56.93 55.51 55.95 56.19 55.04 54.05 52.43 45.88 48.45 46.02 51.12 52.57 54.65 52.91 49.76 50.45 49.48 49.39 48.38 44.81 45.54 43.52 37.68 42.65 43.06 45.67 45.74 50.95 52.12
58.65 59.32 59.78 59.81 59.78 59.94 60.00 60.23 59.88 59.65 58.84 59.04 58.27 57.39 57.30 57.25 57.30 57.00 53.99 52.48 47.75 45.63 48.31 43.88 44.83 45.17 46.91 50.78 53.06 50.50 52.22 50.36 49.44 46.79 41.35 45.80 41.12 38.43 42.66 45.93 45.81 46.76 45.72 45.89 48.76 51.51 50.82
59.49 59.42 59.34 59.43 59.55 59.51 59.78 59.97 59.46 59.41 58.61 58.53 57.80 57.05 57.08 56.96 56.89 56.78 53.75 47.28 47.88 48.92 42.08 46.88 47.42 47.34 49.33 50.80 45.06 48.29 52.40 45.18 43.62 39.73 42.86 40.98 37.42 43.87 45.86 46.11 45.47 46.05 45.28 46.09 48.48 50.42 49.52
59.44 59.18 59.17 59.37 59.25 59.53 59.68 59.61 59.21 58.80 58.27 57.79 57.26 56.61 56.50 56.25 55.43 55.06 51.65 48.31 52.25 51.32 41.07 41.32 45.66 45.07 46.11 47.49 43.73 45.83 48.96 46.32 42.33 39.04 39.38 37.52 40.79 45.34 44.12 41.41 44.36 45.78 44.60 45.47 45.15 49.04 49.28
59.09 58.94 58.97 59.12 59.25 58.85 58.93 58.95 59.17 58.99 58.28 57.37 56.93 56.53 56.11 55.64 50.84 52.24 49.15 53.34 52.29 51.35 33.11 37.01 40.26 43.42 45.02 45.54 40.60 48.43 50.52 46.74 42.04 38.41 39.99 39.41 42.66 42.18 42.52 40.67 44.10 42.32 47.83 47.80 46.43 45.55 40.90
56.54 56.89 57.85 58.37 58.62 58.64 58.45 58.51 58.83 58.90 58.26 57.48 56.68 56.45 56.40 55.06 52.99 49.91 50.29 51.57 51.05 47.49 25.72 40.17 40.38 48.18 45.82 40.97 43.43 43.58 50.03 46.88 39.54 39.20 38.07 35.45 39.28 40.03 40.03 42.47 45.73 44.42 49.69 47.99 47.07 46.09 44.74
54.36 54.07 56.95 57.39 57.75 58.36 58.09 58.19 58.50 58.46 58.00 57.58 56.79 56.43 56.07 54.41 53.29 52.91 51.49 50.77 48.00 32.46 25.82 35.75 39.99 38.69 38.85 41.11 41.68 44.73 44.55 47.93 45.97 40.03 40.52 38.72 45.04 43.82 43.03 46.36 47.79 49.25 47.61 46.95 46.94 44.63 37.77
52.24 52.61 54.34 57.05 57.01 57.72 57.63 57.86 58.09 58.15 57.84 57.47 57.36 56.29 54.64 53.76 48.88 53.48 50.89 46.16 32.09 28.61 37.21 34.72 35.47 38.47 37.96 37.33 39.05 40.65 39.78 37.96 36.12 31.59 32.95 36.77 36.47 41.58 45.67 41.67 45.66 46.81 42.90 37.15 34.74 35.60 36.20
51.69 51.94 51.53 53.13 56.89 56.98 57.35 57.71 57.89 58.16 57.74 57.09 57.05 56.14 54.26 52.46 55.59 52.71 48.19 37.77 28.24 34.92 33.98 38.59 37.74 37.44 34.42 37.05 38.03 39.07 37.49 35.14 39.35 36.87 34.35 33.28 31.30 38.33 42.13 44.08 41.75 43.32 43.49 38.03 31.51 33.21 37.61
50.33 52.35 51.17 51.54 52.46 56.84 57.18 57.61 57.61 57.50 57.04 56.65 56.26 54.08 51.74 52.09 54.69 51.41 42.02 30.82 32.97 36.52 38.14 36.64 38.11 34.42 34.49 36.19 37.36 36.52 37.14 36.87 38.72 38.07 34.31 33.29 34.48 42.40 44.05 48.03 46.60 41.89 41.64 45.64 41.14 42.63 40.01
50.48 51.91 52.15 52.14 54.26 56.83 56.96 57.41 57.43 57.12 56.77 55.92 50.20 48.23 48.23 54.28 54.25 48.21 38.23 33.88 37.19 40.96 39.08 38.60 33.48 36.82 32.69 34.87 35.47 36.10 36.08 40.41 39.03 40.30 40.35 37.59 33.40 38.85 44.61 47.47 45.39 45.30 48.47 40.06 42.19 34.19 33.90
50.45 51.39 51.63 51.82 53.36 56.23 56.62 57.01 57.19 57.16 56.85 55.03 48.76 43.97 51.98 53.72 52.07 42.54 32.72 34.87 39.06 42.81 41.17 38.56 37.68 35.91 37.07 35.72 36.89 35.87 36.82 40.67 41.72 41.01 40.85 40.39 35.81 35.26 41.15 42.16 40.58 42.47 42.03 44.09 44.92 42.29 37.57
50.24 50.74 51.99 51.62 51.94 52.42 56.46 56.67 56.96 57.10 56.47 52.19 47.87 41.31 51.73 52.37 39.96 39.58 35.55 37.25 41.31 41.12 42.72 42.37 41.70 40.13 38.75 38.63 37.06 37.49 37.35 39.84 43.95 43.25 38.45 42.50 38.71 33.23 37.27 42.61 47.83 46.59 44.06 45.37 40.57 37.58 41.15
49.62 50.45 51.39 50.93 51.28 52.10 56.21 56.47 56.64 56.73 54.16 49.05 44.68 46.91 51.32 49.10 36.33 36.16 39.03 39.09 40.30 39.93 41.77 41.62 40.32 41.87 42.26 39.48 35.78 38.98 40.35 44.71 45.06 42.70 42.70 45.15 39.33 34.86 36.20 39.98 43.69 41.75 45.14 46.78 46.30 44.92 40.70
48.97 50.04 51.38 51.33 51.51 52.10 55.44 55.96 56.01 56.27 54.38 49.14 45.39 41.84 44.29 45.76 44.75 41.48 37.87 38.79 38.66 43.61 43.40 43.36 42.28 43.29 41.37 39.71 41.57 38.63 40.12 44.52 46.82 44.52 47.54 47.84 42.36 40.22 37.31 40.31 42.80 40.42 42.76 45.53 44.08 40.09 40.87
48.44 49.64 50.28 50.93 51.40 52.84 55.14 55.48 55.43 55.82 54.96 49.58 45.08 43.35 45.23 38.05 39.70 41.10 42.11 41.56 38.58 39.63 44.34 43.77 42.99 42.71 40.83 37.34 38.82 39.28 41.30 44.22 45.42 46.54 46.45 45.95 40.86 43.09 43.49 44.51 44.51 43.55 43.05 43.39 42.99 44.08 41.10
48.14 49.09 49.53 50.36 50.32 50.68 53.47 55.00 54.89 55.22 54.98 47.66 42.91 43.05 46.01 44.75 43.61 42.27 41.33 39.84 39.23 40.25 43.41 41.53 42.05 44.46 43.69 40.85 40.35 38.25 42.38 43.45 42.72 45.89 44.24 45.69 40.78 42.48 40.77 42.91 43.91 42.25 44.09 44.67 44.37 45.10 44.95
47.67 48.56 49.25 48.81 50.56 51.62 51.85 54.64 54.42 54.76 53.22 47.25 47.84 49.43 45.79 45.40 45.46 42.55 42.28 41.31 41.60 42.84 44.77 46.21 45.15 44.44 43.87 44.42 47.16 49.24 48.40 48.57 48.04 45.34 44.61 42.89 42.15 40.64 36.97 41.36 41.38 37.89 42.68 43.55 44.33 45.59 45.50
47.12 48.02 48.71 48.72 49.23 49.98 50.61 54.60 54.21 54.47 53.14 48.98 47.53 48.05 43.85 39.02 43.16 42.92 42.40 43.44 42.74 42.57 41.21 44.99 45.93 43.66 48.71 51.07 51.20 50.79 48.54 43.86 47.65 47.98 47.96 42.95 42.70 41.59 37.02 38.86 31.25 42.42 44.95 46.72 45.00 46.32 47.72
46.78 47.80 48.23 49.18 48.46 49.46 50.24 53.68 54.28 54.31 53.94 48.91 47.82 46.61 45.58 40.39 43.69 43.87 41.81 43.94 40.22 42.59 42.52 40.74 43.49 45.60 49.06 48.79 44.21 40.52 39.85 39.32 38.87 38.81 45.87 46.46 43.16 39.10 35.89 36.38 41.03 43.79 41.70 43.13 43.57 43.32 47.98
46.48 47.48 47.79 48.52 48.17 49.01 50.13 52.29 54.12 54.00 54.20 50.62 47.63 48.45 47.12 42.42 42.75 43.80 43.72 44.10 39.96 38.95 37.29 38.89 42.20 46.06 46.08 43.09 42.24 36.82 34.57 37.01 35.04 36.27 40.17 44.11 44.84 40.91 38.13 33.49 32.45 40.45 43.50 45.72 47.49 39.40 48.71
46.14 47.08 47.43 48.19 47.53 48.87 49.42 49.95 53.74 53.54 53.72 50.70 48.42 48.88 47.28 42.76 45.87 44.00 42.51 43.11 44.05 41.38 40.23 39.43 41.92 43.04 45.90 40.66 39.51 40.06 38.14 42.69 35.92 35.45 34.06 37.55 38.96 36.49 36.11 35.67 40.67 44.04 44.66 46.17 37.10 40.94 44.99
45.48 46.66 47.02 47.84 47.46 48.37 49.51 49.67 53.44 53.20 53.35 50.92 48.57 48.71 48.50 45.75 46.77 45.72 45.11 41.48 41.20 42.04 41.76 39.99 43.15 43.97 43.15 41.03 40.60 40.20 40.31 41.75 41.37 41.99 37.72 36.99 34.74 35.45 36.83 34.92 33.79 45.58 43.60 40.84 44.25 46.14 46.54
45.26 46.50 46.75 47.38 47.38 48.18 49.48 49.95 53.28 53.13 53.21 52.13 47.92 48.97 51.11 47.69 47.07 48.41 48.24 47.68 45.20 44.05 41.79 43.15 42.60 43.91 46.50 41.87 42.46 40.98 39.05 40.14 41.43 36.69 42.52 38.98 43.22 40.84 41.95 41.26 43.78 45.97 44.40 46.07 47.82 46.38 46.66

GFSGBSN_sfc_wetblb_012.txt.gz
Wetbulb
59.82 61.32 61.73 60.89 61.06 62.19 61.98 62.02 61.02 59.63 58.91 58.27 57.74 57.65 57.56 57.33 56.74 56.80 56.45 56.47 56.42 56.68 57.01 57.77 58.22 58.20 55.58 48.62 48.68 58.01 58.27 57.99 57.79 58.15 55.81 53.95 51.41 49.18 47.00 50.77 52.21 50.46 52.52 53.79 54.19 54.10 53.80
59.31 60.13 61.33 61.01 61.05 61.64 61.93 61.06 61.08 60.92 59.66 58.92 58.27 57.69 57.65 57.53 57.06 56.98 56.50 56.21 56.37 56.71 56.82 56.92 57.87 58.07 52.00 42.86 55.34 56.70 57.42 56.73 56.03 55.49 54.79 54.73 52.55 52.45 48.55 48.93 49.27 52.40 52.98 53.25 53.92 53.60 53.41
59.63 59.22 60.17 60.66 60.71 61.07 61.47 61.20 60.64 60.42 60.15 59.76 58.75 58.10 58.08 57.81 57.19 57.15 57.18 56.78 56.10 56.54 56.71 56.91 57.25 55.73 49.27 46.27 55.20 55.99 56.97 55.68 55.82 54.14 51.43 55.35 54.96 52.21 50.81 47.08 52.26 51.58 47.25 51.59 52.24 52.78 52.29
59.77 59.49 59.29 60.24 60.47 60.74 60.96 61.02 60.85 60.15 59.38 59.86 58.84 58.39 58.05 58.17 57.79 57.55 57.39 56.87 56.40 56.66 56.73 56.70 56.63 53.61 45.36 55.32 56.14 54.39 54.49 53.09 54.39 54.12 53.37 54.19 55.12 52.31 50.25 50.96 49.14 47.63 47.33 41.72 50.05 52.31 52.37
60.05 59.50 59.28 59.94 59.80 60.50 60.71 60.80 60.69 60.32 59.47 59.26 59.02 58.60 57.80 58.03 58.27 58.28 57.72 56.28 56.26 56.57 56.95 56.17 52.54 50.37 43.07 55.99 50.91 53.52 54.13 50.42 51.98 52.48 53.04 53.46 51.79 48.63 49.00 43.77 42.15 44.59 39.58 41.71 45.21 51.87 50.73
60.18 59.81 59.68 59.84 60.15 60.09 60.42 60.41 60.63 60.53 60.25 59.78 59.52 58.86 58.05 57.72 57.90 57.79 57.35 55.40 54.75 54.71 55.16 54.66 52.16 44.75 47.77 45.80 50.82 52.08 53.72 52.84 49.31 49.14 47.96 47.89 46.27 43.03 44.01 41.27 33.76 37.73 40.36 42.06 42.75 48.19 49.81
58.14 59.17 59.75 59.65 59.81 60.04 59.87 60.00 60.04 60.31 60.20 59.55 59.14 58.77 57.76 57.60 57.30 57.18 55.04 52.40 47.73 46.05 49.04 43.33 44.70 44.15 47.04 50.82 52.68 50.04 52.01 49.93 48.71 46.01 39.59 44.30 39.55 36.73 39.69 41.55 42.42 42.90 42.12 42.59 45.21 49.92 47.67
56.86 57.27 59.52 59.36 59.47 59.67 59.72 59.55 59.66 59.76 59.64 59.43 58.78 58.21 57.50 57.30 57.04 56.65 54.71 47.12 47.78 48.43 41.87 47.58 47.21 46.94 49.62 50.57 44.63 47.72 51.74 44.51 43.13 38.24 41.18 39.72 35.64 40.75 43.16 43.04 41.81 41.55 40.91 41.75 46.23 49.25 47.85
54.16 55.89 58.08 58.71 58.71 59.26 59.49 59.23 59.50 59.39 59.35 59.02 58.31 57.65 57.09 56.62 56.21 54.45 50.93 49.33 53.48 51.30 41.41 43.43 46.08 45.18 46.75 48.30 43.71 45.22 48.30 45.24 40.96 38.02 38.07 35.77 38.49 42.64 41.38 40.35 39.68 39.76 39.94 41.68 42.64 47.14 47.43
53.27 53.52 54.52 55.50 56.32 57.92 58.29 58.56 58.58 58.85 58.50 58.24 57.79 57.33 56.60 55.88 50.99 51.69 49.63 54.03 53.79 51.70 34.63 36.53 40.42 44.39 46.30 45.72 40.47 48.68 49.85 45.88 41.45 36.94 38.51 37.94 41.73 39.81 39.50 38.14 40.37 36.31 44.12 44.14 44.25 43.12 38.45
52.07 53.28 52.60 53.76 53.55 54.80 57.46 57.75 58.10 58.20 57.91 57.71 57.32 57.15 56.42 55.06 52.53 49.03 51.09 52.60 51.78 48.08 24.65 38.52 40.42 48.41 46.31 41.51 42.47 42.77 49.09 45.63 38.98 38.37 39.00 35.17 37.70 37.49 36.78 38.91 41.57 38.69 45.14 43.10 44.89 43.12 40.35
51.52 52.18 52.00 52.90 52.79 53.04 54.68 57.24 57.54 57.79 57.65 57.37 57.11 56.69 56.18 53.89 52.52 52.26 52.72 51.53 48.39 32.84 24.02 35.76 39.98 39.46 39.62 40.55 41.02 43.47 43.17 46.84 45.19 39.79 39.69 37.92 42.94 40.96 39.38 41.40 41.78 44.10 41.35 42.69 44.58 42.68 36.19
50.74 51.32 51.86 52.42 51.75 51.57 52.48 56.65 57.00 57.40 57.46 57.21 57.24 56.50 54.90 53.93 48.26 52.97 51.46 46.50 32.17 27.71 37.93 35.13 35.87 38.44 37.40 37.28 38.01 38.72 38.07 36.95 34.48 30.72 30.81 36.26 36.66 40.21 40.69 39.39 41.31 42.11 39.60 34.75 33.08 34.28 33.43
50.43 51.12 51.41 51.74 50.67 51.01 53.43 55.58 56.96 57.46 57.30 56.86 56.90 56.61 54.58 52.38 52.82 51.69 48.62 38.04 27.20 34.66 34.36 38.71 37.75 37.28 35.29 37.43 37.67 37.31 36.47 33.55 38.02 36.05 32.41 29.52 27.33 37.00 39.21 38.84 38.16 39.76 39.11 32.95 29.02 31.16 32.91
49.65 50.66 50.98 51.53 50.32 50.68 53.06 56.06 56.85 56.77 56.61 56.48 56.35 54.86 51.85 51.57 52.59 50.77 42.73 29.99 31.52 35.92 38.86 36.56 36.90 33.98 33.28 36.85 37.28 36.17 35.42 34.71 36.91 37.85 31.48 32.03 30.94 39.87 42.27 41.21 43.14 38.32 33.63 40.39 37.55 39.07 34.50
49.49 50.01 50.76 51.12 51.50 50.68 52.01 54.73 56.72 56.63 56.42 56.24 51.08 50.01 49.28 53.26 52.29 47.91 38.71 33.40 35.74 40.79 39.82 38.69 34.10 35.07 30.74 33.21 32.88 33.62 34.00 38.34 37.53 40.47 40.27 34.83 31.53 39.68 41.05 44.16 44.80 42.39 45.10 37.20 37.87 31.40 28.36
48.95 49.83 49.81 50.59 51.15 50.29 51.96 52.43 56.42 56.98 56.63 54.55 48.58 44.52 50.00 53.24 50.99 42.98 33.35 34.39 37.46 41.69 41.09 37.38 36.04 35.09 35.34 33.67 34.10 33.45 34.09 38.34 40.90 40.34 39.32 36.76 33.76 35.59 38.34 40.90 39.03 40.43 40.51 41.57 41.30 38.84 32.24
48.44 49.04 49.62 50.53 50.67 51.09 51.86 52.16 54.39 56.64 56.22 52.76 47.38 40.42 50.98 52.44 40.27 40.14 35.83 38.11 40.87 40.50 42.45 40.72 39.87 38.16 36.60 37.58 34.45 34.44 34.06 38.29 43.57 41.49 36.03 37.74 36.03 32.94 35.14 40.89 45.74 44.67 41.90 42.57 37.13 34.63 35.72
47.70 48.48 49.26 50.09 50.87 51.24 51.48 52.68 54.94 56.60 54.68 49.76 44.24 45.23 51.30 48.94 35.28 36.05 38.64 39.08 39.52 38.96 41.47 40.27 39.12 40.85 40.72 37.82 33.58 36.49 38.49 44.11 43.16 40.97 38.13 38.30 34.93 31.83 32.86 39.42 43.72 42.07 43.42 43.65 41.96 40.38 35.24
46.86 47.94 48.60 49.80 50.38 50.49 50.68 51.27 55.92 56.34 54.98 50.44 44.84 40.42 44.50 45.12 43.97 39.76 37.20 38.02 36.96 41.81 40.53 42.36 41.28 41.35 39.40 37.33 39.14 37.36 38.15 43.45 44.08 42.66 45.35 46.03 40.15 34.14 33.25 36.73 40.42 39.47 41.68 42.98 40.94 35.37 35.71
46.44 47.41 48.10 49.28 49.45 50.05 51.11 51.55 54.43 55.84 54.24 50.35 44.67 42.08 43.07 36.84 38.43 40.12 40.97 39.52 37.94 36.69 42.85 43.14 39.99 39.58 38.52 35.52 37.40 36.84 39.69 42.08 44.34 44.55 43.49 40.47 38.23 39.75 41.42 42.68 42.65 41.89 41.36 41.83 40.53 40.84 35.17
45.89 46.90 47.87 48.92 49.23 49.04 49.80 49.77 51.06 55.40 53.78 48.15 42.50 40.99 44.31 43.44 41.43 40.00 39.67 38.76 38.77 38.55 41.20 40.35 38.72 42.87 41.97 37.79 38.33 36.22 39.46 39.90 39.71 42.93 40.96 42.50 37.57 40.35 38.31 41.38 42.04 40.54 42.46 42.47 42.19 41.66 40.82
45.51 46.17 47.60 48.61 49.04 48.98 49.27 49.85 50.59 54.95 52.80 47.40 48.02 47.68 43.97 43.70 43.23 40.32 40.66 40.54 40.99 42.11 41.68 43.31 42.95 40.57 42.02 42.08 44.83 44.20 44.05 44.55 45.20 42.97 41.35 39.98 39.47 37.57 32.13 38.42 38.84 34.31 39.66 41.81 42.10 43.11 43.08
45.33 45.92 47.22 48.24 48.60 48.09 48.81 49.79 50.68 54.68 53.65 49.53 47.49 46.64 42.76 37.95 39.91 41.45 43.41 43.64 42.52 43.01 40.68 44.23 45.89 42.37 46.82 49.70 49.50 48.57 46.08 43.28 42.33 43.47 45.02 39.61 39.24 38.89 32.83 34.03 26.34 36.92 40.65 42.93 42.45 43.59 44.07
45.19 45.77 46.86 47.82 48.34 47.86 47.99 49.45 50.25 53.53 54.25 48.81 47.38 46.63 44.09 39.40 41.76 41.20 41.79 42.87 42.03 42.03 42.97 43.12 45.66 45.38 47.90 45.73 42.86 39.91 39.26 40.31 38.83 39.22 40.57 44.26 41.48 36.85 33.21 31.88 37.09 39.26 38.77 38.86 39.44 40.08 44.42
45.02 45.55 46.61 47.43 47.88 47.95 47.88 48.83 50.28 53.09 54.46 51.29 47.74 48.98 45.44 40.47 39.68 42.89 40.49 44.30 41.05 38.74 38.53 39.92 42.40 44.21 45.12 41.92 41.49 34.78 33.29 36.55 34.98 36.94 41.26 44.09 42.90 39.51 32.77 29.53 27.48 35.69 40.03 43.13 43.16 34.47 41.97
44.71 45.39 46.21 47.22 47.62 47.93 47.85 49.01 50.01 51.92 54.10 51.44 48.80 50.02 46.87 41.92 44.40 42.65 39.66 40.57 44.85 40.72 38.64 38.88 39.59 41.12 44.95 41.04 38.39 35.30 37.11 39.75 35.12 34.80 35.47 37.92 38.69 36.27 35.38 32.91 35.62 40.79 41.29 42.70 33.22 35.44 41.63
44.43 45.07 46.00 46.95 47.32 47.70 48.04 49.11 49.69 52.27 53.54 51.66 48.49 49.61 47.56 43.82 44.70 45.59 45.39 40.88 42.81 42.11 38.53 40.07 40.44 42.25 42.41 38.90 39.39 38.76 36.85 39.38 37.64 38.44 38.11 37.08 35.89 35.37 36.00 33.84 31.40 43.12 40.93 36.94 40.51 41.18 42.44
44.44 44.90 45.60 46.58 46.94 47.58 47.92 49.23 49.80 50.59 53.25 52.49 47.41 48.91 49.96 45.75 45.88 47.95 47.80 47.65 46.17 45.27 42.56 41.53 42.22 43.53 45.32 41.93 41.38 39.06 36.54 37.11 37.90 35.08 41.67 36.62 39.43 38.02 38.41 37.45 42.10 41.85 41.17 42.80 44.32 42.37 42.57

GFSGBSN_sfc_wetblb_015.txt.gz
Wetbulb
60.59 60.80 60.33 59.95 60.87 61.25 61.53 61.99 61.58 61.39 60.30 59.30 58.44 57.89 57.73 57.59 57.32 56.46 56.52 56.14 56.21 56.26 56.22 57.07 57.78 58.07 55.57 48.39 47.74 56.85 58.70 58.72 57.88 57.94 55.16 53.71 49.89 47.72 43.35 46.27 48.03 47.44 49.93 52.59 53.65 53.45 52.79
61.22 60.73 60.78 59.81 60.52 61.08 60.95 61.09 61.41 61.71 60.87 59.91 59.21 58.51 58.03 57.57 57.48 56.90 56.83 56.23 56.17 56.09 56.10 56.20 56.61 57.52 51.64 42.50 53.22 55.08 55.85 54.67 55.02 55.67 53.72 53.65 51.34 51.23 47.06 44.98 45.32 47.89 49.52 51.08 52.87 52.74 52.49
60.52 61.07 60.57 60.23 60.42 60.95 60.66 61.00 61.07 61.02 60.63 60.54 59.88 59.28 58.67 57.73 57.40 57.13 57.10 57.26 56.51 56.02 56.16 56.22 56.39 54.97 49.26 45.09 53.12 52.98 56.14 54.27 54.43 52.82 50.73 54.96 53.79 51.14 50.39 45.36 48.51 49.52 45.71 48.04 49.44 51.53 51.13
58.58 59.27 60.70 60.20 60.39 60.14 60.40 60.60 60.59 61.15 60.74 59.88 60.24 59.69 58.80 58.25 57.49 57.36 57.41 57.18 56.98 56.38 56.56 56.57 56.11 52.26 44.34 54.42 54.56 53.18 52.92 52.23 52.38 52.29 51.80 52.64 53.87 49.54 49.28 49.28 45.94 43.95 46.32 40.43 46.49 48.96 51.19
56.03 56.95 58.59 59.57 59.81 60.09 60.22 60.33 60.50 60.48 60.84 60.22 60.10 59.79 58.86 58.27 58.13 58.20 58.18 56.97 56.12 56.16 56.51 56.25 51.77 48.63 42.09 55.73 50.40 52.43 52.20 49.46 50.27 50.40 50.65 52.48 49.76 46.54 46.95 43.19 39.79 40.23 36.80 39.17 42.37 48.62 49.00
54.61 55.45 56.46 57.87 58.46 59.45 59.90 60.08 60.25 60.38 60.47 59.97 59.91 59.50 58.72 58.14 57.90 57.73 57.53 56.51 54.92 53.87 54.55 54.90 52.16 44.07 46.51 44.61 50.39 51.80 51.90 51.51 48.07 47.78 47.07 46.60 43.25 39.89 40.15 40.51 32.12 34.49 36.65 39.25 39.68 44.87 47.45
53.12 53.57 54.60 55.33 58.67 59.49 58.97 59.56 59.69 59.93 60.06 59.50 59.21 58.75 58.37 57.78 57.49 57.01 54.22 50.26 46.15 44.44 49.21 43.41 44.41 42.64 46.50 50.13 51.97 49.89 50.99 48.81 48.13 44.07 38.87 41.99 36.93 34.55 36.98 39.91 39.90 38.19 37.41 38.44 42.27 46.45 45.27
52.55 52.56 52.76 54.08 55.19 56.20 57.94 58.87 58.85 59.23 59.45 59.24 58.82 58.47 58.40 57.67 57.40 57.02 52.66 47.23 45.34 46.79 41.64 47.77 46.92 46.59 48.85 50.50 44.38 47.40 50.74 43.77 42.42 37.66 39.09 36.97 34.60 38.98 41.06 40.92 40.30 38.92 36.83 36.71 40.90 45.52 45.04
51.42 52.00 52.44 52.92 54.02 54.07 55.33 58.38 58.39 58.40 58.81 58.80 58.52 58.09 57.78 57.32 57.03 53.37 49.51 48.62 50.73 50.40 40.10 43.16 46.28 45.31 46.36 48.24 43.53 44.56 47.99 44.48 39.91 37.20 36.88 33.74 37.09 41.40 39.83 38.12 37.37 37.70 36.14 36.41 37.47 42.80 45.22
50.73 51.53 51.69 51.84 52.98 53.22 54.70 54.90 56.39 57.67 57.58 57.56 57.70 57.78 57.04 56.56 50.61 49.90 47.83 51.74 51.39 50.64 34.54 37.04 40.32 44.79 46.29 46.19 41.29 48.81 49.57 45.01 41.10 36.14 37.48 35.98 39.60 38.08 37.79 36.54 37.83 33.38 40.22 39.91 39.09 38.43 35.90
50.14 50.41 51.02 51.32 51.95 52.58 53.58 53.50 54.49 55.58 56.91 56.86 57.16 57.37 56.73 54.23 48.38 46.73 49.98 51.93 51.97 48.62 22.74 37.48 40.50 48.62 46.45 41.82 42.67 43.13 49.39 45.86 38.58 37.86 38.19 33.84 36.18 35.85 34.82 36.55 39.31 35.50 40.96 39.45 39.37 37.80 38.69
49.72 50.02 50.43 50.97 51.58 51.84 52.79 52.88 53.15 54.90 56.66 56.53 56.86 56.86 56.05 52.60 51.68 51.66 51.67 50.44 46.91 33.01 20.72 35.36 40.06 39.45 39.53 41.70 41.69 43.82 43.26 46.35 45.15 39.86 39.27 36.78 41.50 39.62 38.07 39.81 40.02 41.53 38.72 38.51 39.13 38.50 32.31
48.92 49.27 49.99 50.41 51.61 51.36 52.06 52.06 52.05 53.61 56.43 56.53 56.86 56.64 54.80 53.17 46.52 52.16 50.86 44.83 31.03 26.00 36.28 34.39 35.30 38.35 37.15 36.76 38.05 39.51 38.21 37.70 35.43 30.60 31.19 36.53 36.47 39.42 41.02 36.88 39.59 38.16 34.12 28.14 27.93 29.26 29.10
48.17 48.71 49.84 50.26 50.45 51.61 51.88 51.63 51.02 52.88 56.43 56.29 56.34 56.16 54.58 52.78 52.43 51.19 47.72 38.33 24.81 31.90 32.53 39.08 37.70 36.67 35.06 36.70 37.52 37.93 36.07 33.86 38.78 35.30 31.37 26.97 21.98 35.36 39.15 37.00 34.01 35.02 33.82 29.34 21.95 26.33 31.87
47.80 48.43 49.58 49.84 50.21 50.79 51.96 51.46 50.41 52.04 55.83 56.21 56.20 54.49 51.54 52.04 52.20 50.45 41.82 29.90 27.28 33.13 38.59 36.68 36.75 33.63 34.36 36.32 35.73 36.23 34.81 34.09 35.09 36.28 26.93 27.37 28.35 38.93 39.19 39.62 39.27 34.70 31.17 37.07 34.21 36.37 32.75
47.54 47.97 48.64 49.45 49.62 50.73 49.95 49.49 49.99 51.25 55.53 56.03 53.12 50.07 48.35 52.24 52.08 47.10 37.90 31.97 33.61 39.88 40.15 39.04 33.68 35.51 30.99 32.75 32.52 34.51 33.43 36.75 35.83 37.80 38.47 34.42 28.09 36.40 37.86 39.98 39.78 38.13 40.56 32.16 32.94 29.40 28.48
47.23 47.66 48.63 48.93 48.70 51.14 49.53 50.60 51.61 53.80 55.76 55.58 49.69 45.10 50.05 52.40 50.77 42.49 32.86 34.19 37.21 41.58 41.50 37.43 36.25 35.59 34.38 31.92 32.75 31.34 31.96 36.81 39.25 38.36 38.88 36.79 33.40 32.55 34.31 36.23 33.77 36.25 36.75 37.21 37.60 35.14 31.78
47.28 47.56 47.98 48.48 48.11 50.25 50.83 51.24 51.50 51.97 54.00 53.44 47.65 41.14 50.62 51.10 40.23 39.75 35.96 37.89 41.28 39.65 42.30 40.25 39.31 38.31 35.91 34.78 32.28 30.83 31.69 35.86 42.04 40.41 35.39 37.74 35.05 30.22 32.70 40.01 42.61 39.88 38.34 38.07 32.85 32.89 35.81
47.03 47.26 47.59 48.58 48.41 49.82 50.19 50.99 52.03 52.05 54.89 50.08 44.75 44.88 50.42 48.81 34.47 36.09 38.99 38.62 40.24 39.25 39.91 39.75 38.52 39.62 39.59 36.51 32.74 34.16 36.50 42.03 41.37 40.22 37.01 38.14 33.75 28.06 31.67 37.69 41.72 38.23 41.04 40.84 40.05 39.13 35.69
46.87 46.89 46.98 48.36 48.31 49.88 49.56 50.21 50.33 51.16 54.90 50.95 45.30 39.16 44.39 45.49 43.79 38.92 37.09 37.20 37.26 41.33 39.92 41.47 40.80 41.22 38.08 35.21 37.32 35.15 35.71 41.94 42.61 41.66 43.08 40.38 36.63 34.04 31.41 36.09 40.58 37.44 38.78 40.94 38.98 35.22 34.59
46.42 46.24 46.67 47.70 48.40 49.59 48.80 49.96 50.29 51.22 54.78 49.59 44.62 41.50 42.46 36.52 38.11 40.21 40.11 39.09 37.54 36.02 40.30 41.88 39.63 39.21 36.65 32.59 34.35 34.27 37.85 39.72 41.52 43.37 41.51 37.85 33.41 35.58 35.92 37.12 40.13 40.54 39.76 38.21 36.14 40.02 36.40
46.25 45.85 46.35 47.12 48.32 48.97 48.40 48.74 50.28 51.24 54.25 48.42 41.20 41.92 43.41 40.41 40.65 39.20 39.58 38.89 38.24 38.72 39.16 40.20 38.61 39.94 38.97 34.86 35.15 34.19 38.27 37.95 38.49 40.56 38.04 39.39 34.65 38.08 38.12 41.26 41.45 39.80 41.48 41.86 41.54 42.04 40.97
45.92 45.38 46.16 47.11 48.01 48.40 48.69 48.49 49.71 50.77 53.14 47.74 47.59 47.68 44.84 43.01 39.83 38.47 38.60 38.55 39.28 41.35 41.66 41.88 41.89 40.38 38.78 40.14 42.93 42.73 42.34 41.70 42.84 39.87 37.83 38.41 37.66 37.88 32.29 40.39 39.16 35.86 40.28 40.61 40.93 41.49 40.90
45.65 45.28 45.99 46.44 47.70 48.17 48.77 48.64 49.44 50.01 50.91 49.99 48.06 46.39 41.90 39.05 40.39 40.17 41.20 41.07 40.24 42.10 40.37 42.46 42.37 40.01 44.38 48.26 45.97 45.78 45.13 40.87 43.04 44.10 42.33 36.94 37.18 38.77 32.58 33.07 25.57 36.43 39.93 43.31 42.00 42.50 42.62
45.51 45.26 45.58 46.46 47.35 47.98 48.60 48.40 49.52 49.73 50.73 49.24 47.65 47.19 44.29 39.41 41.16 40.83 40.35 38.63 41.51 43.13 43.01 43.43 45.32 42.96 46.63 45.07 41.23 39.42 38.84 39.16 37.44 39.08 41.53 42.12 39.16 36.37 31.85 30.40 34.36 36.25 37.53 38.09 38.47 38.62 42.49
45.63 45.27 45.25 46.16 46.99 47.63 48.21 48.36 49.43 49.79 50.78 50.25 47.56 49.30 46.14 41.06 40.11 42.77 38.79 39.86 38.81 39.81 39.02 42.50 42.76 44.44 46.98 41.85 39.87 34.78 31.36 36.25 34.97 35.88 40.12 42.45 40.83 37.48 27.99 25.89 26.42 34.82 38.87 40.35 40.27 33.35 39.99
45.47 45.30 45.06 45.65 46.62 47.39 48.12 48.15 49.19 50.06 50.50 50.98 48.69 50.21 47.18 41.57 44.04 42.97 37.22 36.51 43.20 41.12 39.14 39.20 40.02 42.07 45.45 40.43 38.17 35.47 34.10 37.29 34.67 34.28 36.33 38.10 38.23 31.54 32.20 31.50 33.27 39.82 39.64 40.50 32.34 33.90 39.82
45.28 45.14 44.95 45.33 46.12 47.19 47.85 47.92 49.02 50.02 50.81 51.25 48.26 50.05 47.90 43.44 44.39 45.22 43.52 39.27 42.41 42.27 38.39 40.51 40.89 41.88 41.94 38.40 38.54 38.55 35.34 36.88 34.79 36.05 38.05 36.95 35.65 35.46 36.04 33.16 29.16 40.57 38.50 35.26 38.61 39.38 39.96
45.05 44.84 44.81 45.12 45.61 46.70 47.53 47.86 48.80 49.76 50.56 51.99 46.87 49.27 50.42 45.81 45.05 48.05 47.33 46.20 45.52 46.74 44.25 42.39 42.07 42.71 43.85 40.98 38.83 40.25 36.40 36.39 35.38 34.30 40.00 36.59 39.04 37.14 37.49 37.35 41.23 41.10 39.45 41.65 42.09 40.55 39.19

GFSGBSN_sfc_wetblb_018.txt.gz
Wetbulb
59.60 60.65 61.19 61.27 60.53 60.15 60.63 61.43 61.34 61.65 61.18 61.11 59.74 58.92 58.23 57.82 57.90 57.04 56.61 56.03 55.91 56.07 56.18 56.40 57.46 58.00 55.12 47.72 47.49 55.18 58.66 59.36 58.25 58.81 55.76 53.31 49.10 47.35 42.83 44.16 45.55 44.25 47.14 50.62 52.30 52.72 52.43
57.45 58.16 58.74 60.00 60.89 60.71 59.87 60.40 60.78 61.18 61.48 61.46 60.25 59.30 58.82 58.01 57.80 57.58 56.83 56.58 56.02 55.90 55.74 56.05 56.34 57.25 50.42 40.73 52.50 53.95 55.84 53.74 54.06 55.45 53.89 53.57 50.82 50.22 46.08 44.29 43.14 45.55 46.41 47.72 50.42 50.90 51.37
55.52 56.27 56.53 57.58 59.99 60.48 60.27 60.28 60.74 60.70 61.22 61.10 60.96 60.15 59.55 58.61 57.65 57.64 57.19 57.25 56.82 56.03 55.82 56.07 56.28 54.79 48.95 44.63 51.97 52.22 52.96 52.66 53.44 53.30 51.29 53.92 53.61 50.16 48.80 45.10 47.46 46.23 43.08 45.53 46.56 48.28 48.59
54.57 54.97 55.12 55.84 56.58 58.36 59.16 60.05 60.15 60.36 61.00 61.09 60.83 60.33 59.76 58.85 57.76 57.73 57.39 57.62 57.56 56.67 56.23 56.25 56.20 51.89 42.99 53.32 53.45 51.99 52.08 50.50 53.31 51.94 51.35 51.71 53.66 50.81 48.13 49.62 45.30 41.76 41.08 37.39 44.16 47.46 48.44
53.15 53.58 53.72 54.05 54.74 56.03 58.49 59.15 59.70 60.02 60.22 60.73 60.49 60.12 59.61 58.96 58.43 58.22 58.14 57.76 56.62 56.22 56.09 56.19 51.37 47.83 40.81 54.36 49.93 51.33 51.48 48.90 49.24 49.48 49.94 52.49 50.23 46.06 44.98 43.60 39.20 38.21 32.84 35.66 40.68 47.15 46.89
52.01 51.94 52.85 53.23 53.57 54.12 56.16 56.45 59.01 59.42 59.59 59.70 59.69 59.80 59.45 58.83 58.23 57.75 57.91 57.13 55.85 53.67 53.45 54.81 52.01 45.28 46.18 44.18 49.82 50.93 50.89 50.80 47.08 46.75 45.75 45.80 43.97 38.37 39.85 40.18 32.43 34.79 33.37 35.13 35.55 43.03 45.08
52.10 51.94 51.94 52.54 52.70 53.16 54.41 54.92 56.38 58.72 58.92 58.90 59.02 58.73 58.76 58.39 57.85 57.52 55.22 50.08 44.95 44.65 48.29 43.90 44.91 43.43 44.78 49.23 51.40 49.59 50.54 48.05 46.65 42.88 36.54 40.46 36.21 33.62 35.50 38.77 38.79 37.49 35.02 34.28 37.94 43.78 42.24
50.41 51.44 51.37 51.63 52.14 52.73 53.05 54.17 54.87 55.60 58.50 58.52 58.12 58.27 58.06 58.22 57.67 57.26 50.91 44.64 44.32 45.37 39.90 46.98 47.00 46.28 48.27 49.82 44.13 47.42 50.03 42.73 41.51 37.21 38.45 37.60 34.14 38.27 39.03 38.69 38.52 37.55 35.63 35.17 38.30 41.79 42.47
49.82 49.56 50.98 50.98 51.42 51.97 52.46 53.14 53.75 55.01 56.84 57.89 57.55 57.74 57.73 57.77 56.98 53.95 48.47 47.72 49.88 47.97 39.57 42.63 45.80 45.24 45.97 48.03 43.57 44.54 47.13 43.76 39.50 37.81 38.18 34.16 35.84 39.91 38.57 37.04 35.89 35.77 34.52 34.65 34.81 39.08 40.79
49.73 49.79 49.35 50.44 50.85 51.04 51.48 52.36 52.84 54.33 53.84 56.65 56.94 57.24 57.28 56.67 50.95 49.34 47.90 50.49 49.88 50.14 33.81 36.05 40.11 44.88 46.34 47.33 41.78 48.82 49.26 45.08 40.92 36.48 36.98 36.24 39.29 37.47 37.23 35.91 36.55 32.30 38.76 38.40 37.13 35.11 29.84
49.38 49.21 49.21 49.45 49.85 50.82 51.09 51.54 52.51 53.70 53.49 55.19 56.27 57.03 56.81 54.86 46.57 46.73 48.19 50.75 50.43 48.46 12.80 36.61 40.06 48.43 46.66 42.62 43.08 43.24 49.75 45.56 38.78 37.52 37.10 34.06 35.22 35.45 33.96 35.13 38.29 34.33 39.39 37.57 37.49 35.05 33.39
49.01 48.96 48.61 49.31 49.64 50.75 50.59 51.08 51.74 52.50 52.87 53.72 56.10 56.74 55.97 51.99 50.95 51.09 51.66 51.04 47.49 27.46 15.96 35.11 39.98 38.80 39.05 41.84 42.15 44.11 43.57 46.73 45.39 39.77 39.17 36.41 41.68 38.93 37.00 38.73 39.65 40.24 36.98 36.28 35.60 35.77 28.28
48.82 48.49 48.34 48.78 49.56 50.03 50.24 50.51 50.90 51.44 52.47 53.38 55.63 56.38 54.26 51.38 47.65 52.21 51.13 45.39 28.69 16.58 34.82 34.28 35.16 38.12 37.23 37.19 38.47 39.71 38.51 37.77 35.97 31.63 29.94 35.19 36.32 39.14 40.70 36.72 38.92 37.28 32.91 24.77 22.62 23.75 22.95
48.53 48.35 48.11 48.33 48.97 49.68 49.92 50.00 49.95 51.55 51.86 51.51 53.97 55.93 53.89 50.94 52.39 51.51 47.60 38.12 20.05 29.42 31.63 38.99 37.31 37.30 33.84 36.47 37.22 37.88 36.89 33.91 37.66 35.63 32.47 29.28 26.54 34.84 39.19 37.54 34.93 34.69 33.46 25.34 16.79 17.94 23.32
48.59 48.16 47.85 48.31 49.10 49.38 49.32 49.40 51.77 51.67 51.60 51.46 52.09 53.84 51.29 51.52 52.39 50.33 41.74 30.28 27.89 31.11 37.05 35.57 36.01 32.60 33.07 35.93 36.06 36.08 34.89 33.91 35.15 37.58 30.17 28.57 28.25 37.86 38.49 39.33 38.94 33.34 31.18 35.49 29.06 30.59 29.63
48.02 47.95 47.72 48.34 48.52 48.78 49.08 50.66 50.39 50.64 50.70 52.76 51.24 51.10 49.03 52.34 51.88 47.30 37.68 32.71 32.81 39.45 39.74 38.30 31.81 34.65 30.61 32.37 32.54 33.24 32.27 34.63 35.45 37.99 37.20 32.67 24.35 34.83 37.49 38.93 38.87 35.47 37.28 28.46 28.72 22.51 20.54
47.89 47.73 47.66 47.91 48.36 48.34 48.59 50.74 51.29 50.35 50.89 50.90 48.78 45.52 49.99 52.35 50.69 42.21 32.37 33.98 36.55 41.63 40.90 37.28 35.31 35.05 34.26 31.41 32.05 31.18 31.02 35.40 37.21 36.51 37.70 34.79 30.63 31.24 34.70 32.82 32.16 33.76 32.14 33.38 31.77 29.86 29.81
47.74 47.49 47.77 47.23 48.13 48.28 49.02 49.61 50.38 50.63 50.76 51.18 48.23 37.08 50.19 50.96 39.18 38.35 35.15 37.57 40.87 39.95 41.72 39.44 39.26 38.15 36.45 34.75 31.79 30.35 30.73 34.23 39.95 38.54 33.04 36.15 33.33 27.64 30.37 37.32 39.05 36.53 33.43 33.31 28.47 27.25 31.35
47.78 47.43 47.34 46.76 48.74 48.64 48.89 49.36 49.75 50.82 51.13 49.96 44.77 43.92 49.82 48.75 33.32 34.62 38.78 38.31 40.01 38.94 39.44 39.14 38.23 39.44 39.13 35.11 31.16 32.54 34.05 40.12 41.42 39.36 36.26 37.54 33.65 27.12 28.70 33.23 37.17 35.55 35.71 37.24 36.54 35.52 32.80
47.40 47.11 46.92 46.30 48.36 49.14 49.42 49.21 49.23 50.41 51.09 50.47 44.33 38.27 43.23 45.02 42.98 38.46 36.57 36.94 36.77 41.83 40.24 41.00 39.70 40.69 38.54 35.12 35.80 33.63 34.78 40.53 41.86 41.49 43.04 40.65 35.27 31.85 27.14 33.88 37.12 34.60 34.65 37.79 35.99 31.24 32.07
47.03 46.79 46.35 46.26 47.22 48.75 49.35 49.38 49.08 50.16 51.18 50.04 45.84 40.19 41.88 35.41 38.53 39.02 39.51 39.13 36.64 36.83 40.47 41.32 38.04 38.98 38.19 32.88 32.79 32.53 36.00 38.62 40.93 43.09 41.35 37.63 31.93 33.76 34.69 35.89 37.20 37.95 36.09 37.94 36.65 36.75 32.88
46.79 46.64 46.33 46.24 46.63 48.03 48.74 49.13 48.70 50.17 50.97 48.81 42.66 41.22 42.77 39.28 40.62 39.85 39.14 37.72 37.76 39.02 39.58 38.27 36.88 39.92 38.87 35.15 33.58 31.30 36.39 37.18 36.85 40.42 39.11 38.62 31.87 34.48 35.12 38.58 37.63 38.04 38.84 39.83 39.06 36.83 35.69
46.60 46.37 45.95 46.03 46.56 47.59 48.20 48.86 48.85 49.99 50.00 47.57 46.18 45.21 43.55 40.48 39.40 38.20 38.41 38.55 38.97 40.98 41.39 41.89 40.79 39.97 38.08 39.02 40.94 40.17 41.65 40.79 41.20 39.15 37.59 37.10 34.85 34.05 33.30 39.30 38.70 36.08 38.67 38.92 38.96 38.59 36.81
46.39 46.06 46.14 45.73 46.06 47.28 48.53 49.10 48.61 50.02 50.03 48.14 47.83 44.93 42.83 38.22 39.45 38.71 40.42 40.52 39.36 39.94 39.17 42.26 42.49 40.72 42.78 45.84 44.88 43.57 42.90 40.37 40.51 40.87 41.76 37.26 35.84 37.53 33.55 36.17 26.16 36.50 44.05 43.10 40.19 40.25 42.42
46.14 46.09 46.15 45.71 45.47 46.53 47.52 48.54 48.57 49.75 50.50 49.60 47.12 45.50 42.00 39.47 40.54 40.76 40.85 40.66 39.41 40.73 40.66 42.26 44.41 44.70 45.46 44.47 39.46 37.47 36.10 37.75 36.05 39.45 41.80 41.17 38.60 33.00 30.14 28.84 33.36 35.71 37.35 39.38 39.98 39.29 42.35
46.09 46.22 45.81 45.71 45.27 46.42 47.43 48.32 48.53 49.75 50.06 50.00 47.61 49.27 45.37 41.40 40.06 43.33 40.90 39.79 39.04 38.38 39.45 41.55 44.03 45.07 45.73 42.66 40.73 34.57 32.59 33.58 33.25 36.88 38.63 38.93 39.39 35.42 27.33 26.07 26.82 34.81 37.18 38.86 39.07 32.48 39.00
45.98 46.10 45.55 45.13 45.23 45.98 47.13 48.53 48.17 49.38 49.72 49.90 47.68 50.38 46.94 41.95 43.87 43.55 39.86 37.84 40.91 38.90 39.01 39.69 40.95 42.31 45.67 41.09 37.15 34.83 33.08 35.83 32.78 32.39 36.24 37.00 35.86 31.02 30.22 31.30 32.19 38.53 38.90 38.92 31.33 33.29 38.35
45.77 45.70 45.48 44.86 45.05 45.74 46.24 47.87 48.55 48.92 49.45 49.35 48.39 50.05 48.12 43.56 44.24 44.36 43.23 41.34 41.88 41.75 38.52 40.87 40.81 41.79 42.25 37.95 37.84 37.84 36.89 34.69 33.27 34.35 34.72 35.51 34.50 34.64 34.48 28.92 25.97 39.51 38.16 34.01 37.50 38.12 38.25
45.56 45.61 45.37 44.85 45.02 45.29 45.71 47.28 48.37 48.66 49.57 50.04 46.83 49.73 50.81 46.13 44.84 47.60 47.48 46.37 45.32 46.09 43.70 42.47 41.53 42.19 43.71 40.52 39.52 39.74 38.09 36.08 34.61 33.24 36.49 34.69 37.83 35.95 35.79 34.93 39.56 38.72 38.56 40.40 40.33 39.29 37.84

GFSGBSN_sfc_wetblb_021.txt.gz
Wetbulb
55.65 56.07 56.44 56.91 57.40 58.52 59.55 60.81 60.90 60.70 60.40 61.03 61.32 60.35 59.10 58.33 57.94 58.00 57.12 56.92 56.39 56.32 56.10 56.31 57.29 57.83 54.32 46.73 46.73 54.07 59.66 58.35 59.02 58.64 55.26 52.70 47.94 45.97 41.85 43.02 44.45 42.67 45.38 48.57 49.97 51.14 51.05
54.62 54.69 55.00 55.20 55.89 56.70 57.75 58.43 60.54 60.54 60.33 60.30 60.91 60.61 59.91 59.01 58.25 58.18 57.49 57.03 56.48 56.27 55.87 55.95 56.22 57.04 49.76 39.46 51.08 53.08 52.93 53.54 54.66 56.51 54.56 53.71 50.02 49.52 45.90 43.65 42.27 43.97 44.53 45.17 47.30 47.96 49.27
53.01 53.32 53.66 54.09 54.12 54.41 55.34 56.96 58.19 59.86 59.91 59.83 60.81 60.66 60.04 59.54 58.33 57.83 57.79 57.25 56.95 56.34 56.09 55.93 56.18 54.35 48.13 44.30 51.05 51.69 52.57 50.83 51.98 54.35 51.86 53.82 53.22 49.95 49.13 44.52 46.81 45.11 41.29 43.55 44.45 45.92 46.42
52.74 52.70 53.23 53.17 53.30 53.56 54.10 54.83 56.53 56.78 59.38 59.52 59.90 60.26 59.70 59.43 58.86 58.03 57.77 57.44 57.71 56.99 55.97 55.84 56.09 51.08 41.91 52.17 52.39 51.51 51.23 49.92 51.20 52.03 50.64 52.32 54.97 50.61 48.98 48.52 45.48 40.52 38.88 35.05 41.37 45.12 46.72
51.60 51.90 52.14 52.14 52.63 53.28 53.31 53.74 54.39 56.10 56.68 59.29 59.54 59.75 60.19 59.37 58.71 58.18 58.15 57.90 57.18 56.36 55.82 56.13 50.75 46.55 39.85 52.93 49.51 51.07 51.14 48.34 48.68 49.35 49.18 52.58 50.14 45.83 45.95 42.63 39.96 40.67 33.52 34.08 38.34 45.41 45.43
51.31 50.91 50.76 51.45 51.75 52.18 52.92 53.26 53.27 54.24 55.33 56.91 58.89 58.82 58.78 58.81 58.34 57.99 58.01 57.11 56.22 54.06 52.84 54.18 51.95 44.57 45.61 43.82 49.31 50.30 50.44 50.38 46.19 45.97 44.96 45.63 44.47 40.67 41.40 39.86 30.60 32.37 31.87 32.39 34.25 40.97 42.44
51.00 50.49 50.81 49.99 51.11 51.56 51.97 51.98 52.96 53.46 54.24 55.82 57.26 58.17 58.23 58.37 58.09 57.83 55.28 51.28 46.20 44.69 47.47 44.08 45.14 43.98 44.69 48.58 50.90 49.05 49.71 47.80 46.01 42.18 35.80 39.60 37.38 34.37 37.00 37.06 37.53 36.28 35.79 35.30 36.18 41.06 38.84
50.22 50.18 50.08 50.00 49.96 51.03 51.24 51.69 51.74 52.42 53.62 54.25 55.02 57.69 57.62 58.05 57.93 57.50 52.06 46.02 43.89 44.99 39.64 45.88 46.51 45.96 48.23 49.72 44.03 46.91 49.71 42.77 41.19 36.26 37.72 36.13 32.47 36.86 37.91 37.17 36.42 36.12 35.36 35.04 37.29 40.38 38.91
50.10 50.07 49.90 50.07 49.79 49.83 50.76 51.04 51.06 51.81 52.77 53.54 54.59 55.35 57.09 57.47 57.51 54.57 50.12 46.78 49.34 47.18 37.70 41.45 45.16 44.80 45.45 47.55 43.40 44.29 46.79 42.74 38.55 36.24 35.98 33.36 34.75 39.30 37.43 35.36 34.05 33.94 32.74 33.25 33.63 37.23 38.72
49.77 49.81 49.76 49.56 49.16 49.68 50.10 50.05 51.33 51.35 52.15 52.61 53.89 53.42 56.73 56.94 52.74 51.30 48.14 49.84 49.20 48.34 25.74 33.73 39.73 43.81 46.19 47.08 41.29 48.04 48.63 44.76 40.64 36.85 37.32 36.86 39.85 36.71 35.26 33.97 35.16 30.74 36.81 36.41 35.13 33.18 27.54
49.76 49.60 49.54 48.85 48.87 48.95 49.65 50.15 50.80 50.99 51.05 51.07 52.47 53.29 56.00 55.93 49.29 47.09 47.74 49.52 49.53 44.26 12.17 35.63 40.57 48.26 47.03 42.28 43.13 42.50 48.74 45.36 38.53 37.47 36.73 33.95 34.77 34.51 33.25 34.99 37.39 33.86 38.08 36.55 36.31 33.24 31.12
49.86 49.43 49.21 49.10 48.54 48.53 49.00 49.88 50.10 50.50 50.18 49.84 50.49 52.99 54.06 51.09 50.29 49.45 50.52 50.57 48.53 27.39 14.80 34.02 39.78 39.17 39.86 41.73 42.20 43.76 43.45 46.90 45.05 39.91 38.95 35.49 39.46 37.95 36.28 38.16 38.27 39.40 36.09 34.78 35.59 33.15 25.64
49.38 49.34 48.73 48.89 48.44 48.85 49.14 49.25 49.57 49.50 50.04 50.78 50.99 52.53 51.84 51.98 46.87 50.97 51.11 46.27 30.39 19.13 33.62 33.24 34.05 37.42 36.10 36.30 38.38 39.83 38.15 38.24 35.48 31.69 30.36 35.45 36.43 38.87 39.40 35.14 38.12 37.12 33.86 26.08 24.41 24.09 22.15
49.20 49.01 48.46 48.48 48.43 48.75 48.92 48.83 48.77 49.31 51.59 51.37 51.51 50.90 51.09 51.87 52.07 51.51 48.24 37.06 17.00 28.43 30.20 37.70 36.33 36.70 32.57 35.47 36.56 37.88 36.57 33.48 38.56 36.54 32.45 28.40 25.82 36.12 38.49 35.78 33.37 33.65 33.37 26.42 18.60 18.11 20.68
48.98 48.82 48.36 48.22 48.28 48.28 48.56 49.10 48.81 51.32 50.54 50.96 51.03 49.77 50.72 51.37 52.21 50.96 41.78 29.38 25.65 29.32 35.52 34.83 35.90 32.89 32.94 35.83 36.11 35.75 35.47 33.34 35.37 36.61 30.08 28.56 26.46 36.92 37.91 38.73 38.13 34.29 30.28 34.92 28.70 29.16 26.41
48.66 48.45 48.34 48.06 48.30 47.92 48.26 49.14 50.04 50.71 50.21 50.65 46.75 46.01 48.06 52.06 52.28 47.69 37.64 28.92 31.13 38.15 38.09 36.72 29.85 33.41 30.25 32.91 32.92 32.96 31.29 33.80 34.70 36.45 38.46 33.65 23.44 33.61 36.27 39.03 38.81 35.63 36.87 29.16 30.01 20.41 17.78
48.35 48.24 48.26 47.99 47.51 47.28 48.09 49.42 49.99 49.99 50.24 50.13 45.67 40.55 49.25 52.03 50.41 42.47 32.40 33.51 35.18 40.72 40.19 36.10 33.77 33.53 33.90 31.81 33.26 30.94 30.38 33.79 36.33 35.74 38.43 36.30 31.91 28.03 34.98 33.45 31.60 33.54 31.71 32.59 30.37 27.27 20.77
48.14 48.07 47.88 47.53 46.67 47.25 48.21 49.27 49.70 50.41 50.78 48.84 43.96 34.78 49.78 50.90 39.99 38.63 34.83 36.16 40.16 39.15 40.67 39.06 38.82 37.39 35.78 34.68 32.48 29.86 29.55 32.86 38.00 37.56 33.72 36.06 32.86 26.94 29.50 36.15 38.14 35.47 32.45 32.12 26.65 21.80 25.97
47.85 47.79 47.63 47.25 46.87 48.35 48.63 49.16 49.78 49.80 50.44 46.20 41.97 42.60 49.61 48.08 31.55 34.02 38.31 38.03 39.06 38.89 38.88 38.64 37.47 38.71 39.30 36.48 31.94 31.92 32.82 38.44 39.34 36.91 34.36 36.67 32.50 25.61 29.04 31.49 35.22 33.55 34.06 34.12 32.87 32.09 26.09
47.45 47.36 47.23 46.80 46.51 47.74 48.56 49.01 49.49 49.58 50.55 47.83 42.40 34.08 42.65 43.87 42.04 36.87 36.19 36.28 36.38 41.11 39.81 40.52 39.59 40.30 38.26 35.19 36.57 32.29 33.14 39.03 39.52 39.41 42.68 40.14 34.40 30.78 25.74 30.69 33.31 30.67 32.60 33.85 32.77 27.34 27.89
47.14 46.95 46.82 46.56 46.17 46.95 48.11 49.09 49.50 49.22 50.57 49.35 42.74 37.98 39.93 34.70 37.13 37.35 38.05 38.47 36.15 36.90 40.38 41.39 38.73 38.19 37.82 34.33 33.68 32.69 35.07 36.95 40.34 42.77 41.47 37.71 30.75 32.69 33.29 34.31 34.40 34.43 33.11 33.71 31.56 31.99 28.09
46.80 46.58 46.72 46.36 46.07 46.40 47.55 48.36 49.36 49.18 50.86 47.90 41.96 40.47 42.09 39.07 39.82 38.32 38.40 37.27 37.15 38.05 38.77 37.51 37.30 38.86 38.56 36.73 34.34 29.79 34.08 34.36 36.46 40.59 39.12 38.65 30.04 33.07 31.16 35.67 35.01 33.71 34.93 34.16 33.80 34.41 34.08
46.65 46.64 46.74 46.49 46.34 45.71 47.11 48.61 49.50 49.21 49.92 44.21 47.27 46.36 41.33 40.43 39.07 38.07 37.83 38.82 38.32 40.90 41.37 42.11 39.74 38.85 38.52 39.86 41.19 40.99 38.91 39.17 40.40 39.23 37.87 35.03 33.32 33.30 31.79 36.84 35.13 31.98 36.18 34.83 36.03 37.55 37.71
46.52 46.49 46.64 46.10 46.07 45.35 46.68 48.04 49.20 48.96 49.56 47.18 46.91 45.50 41.49 36.00 38.66 38.48 39.73 39.90 39.31 40.18 39.16 41.63 42.47 40.44 43.09 45.25 43.47 41.38 40.47 40.48 38.68 39.97 41.07 36.77 35.55 35.38 32.68 34.88 27.89 37.45 43.14 40.86 37.90 40.18 40.31
46.46 46.56 46.45 46.18 45.45 45.22 46.34 47.29 48.65 48.89 49.78 47.03 48.32 45.46 41.80 38.51 39.87 39.13 39.82 40.28 40.91 40.52 40.04 40.29 43.25 44.86 46.77 43.88 37.50 35.38 33.65 33.82 35.69 37.61 39.00 40.47 37.83 34.78 32.01 29.86 34.18 35.33 40.84 40.44 38.71 37.94 42.62
46.33 46.47 46.22 46.07 45.16 45.01 46.14 46.61 48.00 48.97 49.62 47.75 48.14 46.46 45.11 40.59 39.67 43.22 40.46 41.78 38.59 38.23 39.42 41.03 44.81 45.46 45.16 41.76 37.94 32.08 29.49 33.01 32.16 33.02 37.48 38.27 39.16 36.54 32.86 28.47 26.55 33.09 36.96 43.05 43.33 35.78 42.60
46.32 46.31 46.06 45.95 45.31 45.17 45.82 46.12 47.98 48.46 49.22 48.25 48.26 48.74 45.00 39.95 42.63 41.33 37.61 37.36 42.43 39.28 36.34 39.31 41.14 41.76 44.93 39.58 36.14 34.15 30.64 34.70 31.88 31.82 34.48 33.43 36.55 34.26 32.40 31.07 31.01 37.36 38.07 40.46 31.03 32.57 37.46
45.87 46.03 45.88 45.76 45.62 45.20 45.43 45.72 47.46 48.05 48.80 48.34 47.43 49.93 47.90 42.74 44.11 44.85 43.73 40.96 42.57 41.03 38.40 40.53 40.03 41.64 41.60 37.96 36.92 36.71 34.52 35.66 31.36 32.29 32.97 34.83 33.86 33.48 34.01 28.22 24.92 37.65 36.73 33.36 36.26 37.06 37.62
45.66 45.72 45.68 45.62 45.47 45.40 45.03 45.53 46.87 47.62 48.37 49.02 47.09 49.88 51.00 45.86 44.31 47.75 47.47 46.11 45.40 45.85 43.28 42.47 41.42 41.79 43.54 39.61 39.01 38.37 37.95 35.72 32.65 29.20 34.37 32.75 35.67 33.61 34.22 32.96 38.37 38.31 37.61 39.39 39.18 38.40 36.22

GFSGBSN_sfc_wetblb_024.txt.gz
Wetbulb
53.64 53.57 53.70 54.16 54.47 54.85 55.16 55.84 56.86 57.96 58.95 60.12 60.45 60.70 60.48 59.57 58.55 57.57 57.81 56.99 56.61 56.24 56.15 56.27 57.26 57.67 53.43 44.92 46.47 53.35 59.34 57.19 57.74 58.98 55.83 52.12 46.66 44.91 41.03 41.76 42.88 41.85 44.25 47.31 47.71 47.53 48.66
53.16 53.38 53.47 53.34 53.67 53.90 54.38 54.56 54.91 55.51 57.73 58.44 59.72 60.19 60.22 59.86 59.17 58.41 58.13 57.16 56.86 56.31 56.08 56.06 56.01 56.63 49.05 37.09 49.00 52.16 51.51 52.36 56.62 57.16 55.12 52.75 49.39 48.55 44.20 42.93 41.38 42.86 43.67 43.87 45.54 45.95 46.34
52.42 52.32 52.25 52.32 52.73 52.66 52.97 53.63 53.82 54.41 55.41 57.53 58.32 59.66 59.83 59.59 59.14 58.39 58.03 57.68 57.05 56.37 56.28 55.85 56.10 53.90 47.27 43.78 50.45 50.63 51.89 49.31 51.04 54.83 53.28 53.79 52.52 48.75 47.38 42.90 46.07 44.65 40.31 42.36 43.14 44.27 43.94
52.05 52.01 51.84 52.14 52.12 51.63 52.74 52.62 52.70 53.51 54.27 55.14 56.84 58.25 59.12 59.31 59.25 58.71 57.95 57.79 57.44 57.12 56.10 55.69 56.08 50.10 40.48 51.16 51.12 50.98 50.10 48.69 50.13 51.31 50.33 53.75 54.35 50.48 48.70 46.97 44.72 41.89 42.11 34.62 40.12 42.84 44.49
51.94 51.50 51.49 51.28 51.43 51.35 51.02 52.21 52.49 52.74 53.34 54.06 55.21 56.61 58.41 58.87 58.68 58.55 58.27 57.82 57.34 57.10 56.27 55.98 49.84 45.62 39.32 52.08 49.07 50.00 50.02 47.17 47.99 49.10 48.86 52.18 50.32 44.04 43.56 39.56 37.86 40.39 33.47 35.59 36.83 42.65 43.20
51.25 50.83 50.58 50.64 51.05 50.92 51.14 51.17 51.84 52.24 52.61 53.12 53.76 54.81 56.21 58.11 58.30 57.87 57.95 57.10 56.18 54.73 52.86 53.61 52.04 43.36 44.81 43.59 48.38 49.56 49.76 49.68 45.56 45.73 45.04 44.36 44.40 40.37 39.57 36.75 28.15 30.38 34.01 35.92 35.64 38.77 39.73
50.76 50.49 50.30 50.57 50.74 50.57 50.49 50.40 51.00 51.71 52.09 52.00 52.77 54.15 55.35 57.53 57.79 57.58 55.84 51.89 46.61 45.29 47.53 41.49 43.54 43.36 44.68 48.13 50.08 48.25 49.01 47.12 45.26 41.76 36.70 39.52 37.49 34.77 37.50 36.74 35.93 34.00 35.85 35.31 38.54 41.97 39.06
50.65 50.79 50.58 50.51 50.22 50.18 50.05 50.10 50.43 50.90 51.47 51.89 52.27 53.28 54.70 55.40 57.59 57.52 52.85 47.23 46.14 44.13 38.44 45.03 45.78 46.28 48.02 49.01 43.49 46.30 49.03 42.23 40.49 35.62 37.03 35.34 32.48 37.38 38.29 38.69 37.57 36.29 34.00 33.41 36.31 38.80 37.59
51.00 51.06 50.62 50.36 50.25 50.11 49.45 49.43 50.00 50.70 51.31 51.36 51.88 52.36 54.17 53.35 56.79 54.64 49.87 47.18 48.99 46.72 36.59 40.07 44.08 43.74 45.17 47.26 43.17 43.65 45.85 42.04 38.01 35.03 34.96 32.06 33.73 38.51 37.32 34.50 34.19 34.30 31.80 30.79 30.88 34.98 36.98
50.80 50.49 50.49 50.10 49.92 49.55 49.56 49.24 49.60 50.15 50.39 50.45 50.87 51.04 52.11 53.81 52.90 51.91 48.13 49.27 49.58 46.16 23.92 31.44 39.56 43.03 45.36 46.73 41.02 48.13 48.15 43.10 39.40 35.05 35.54 35.69 38.70 36.40 34.37 33.21 33.67 29.71 35.26 34.97 33.74 31.62 25.83
50.55 50.47 50.10 49.95 49.60 49.06 49.14 49.34 49.77 49.69 49.49 50.34 50.64 50.66 50.78 52.28 50.43 48.37 49.45 49.74 49.39 40.63 11.53 34.85 40.10 48.13 46.91 40.96 42.48 41.89 48.12 45.20 38.34 37.57 37.68 33.93 34.40 34.44 33.85 34.11 35.52 32.51 36.68 34.90 34.52 31.92 30.87
50.37 50.18 49.94 49.51 49.16 48.92 49.03 49.48 49.34 49.29 49.22 49.64 49.99 49.82 50.49 50.50 51.75 50.59 50.90 50.93 45.31 22.98 15.71 34.08 39.75 39.47 40.05 41.51 41.92 43.22 43.67 46.55 44.38 39.52 38.97 36.42 38.84 37.63 35.10 37.34 37.34 38.55 35.00 34.80 34.56 32.67 25.46
49.95 49.81 49.43 49.22 49.02 48.79 48.77 48.90 49.21 49.60 49.39 49.15 49.87 50.93 49.95 50.88 47.54 51.45 51.18 44.56 28.28 19.33 32.75 32.05 34.18 37.41 37.19 36.79 38.23 40.19 38.78 38.28 35.62 31.38 30.52 35.84 36.38 39.34 39.73 34.05 37.13 36.62 33.58 25.55 23.53 24.04 21.28
49.34 49.36 49.16 48.93 48.99 48.63 48.46 48.58 49.52 49.49 49.54 50.75 51.05 51.14 50.72 50.04 52.37 51.62 47.68 32.82 19.53 28.21 29.56 37.44 35.36 35.83 32.64 35.58 36.57 37.64 36.68 34.15 38.85 37.11 32.41 26.54 23.53 34.97 38.89 35.22 31.99 33.12 32.28 26.01 19.45 17.10 19.05
49.37 49.14 48.85 48.64 48.66 48.54 47.83 48.40 49.71 50.85 50.05 50.74 50.55 48.07 47.83 48.93 51.94 50.56 39.97 27.61 25.68 28.71 35.05 34.71 35.26 30.49 31.88 35.53 35.62 35.85 35.39 33.41 35.85 37.41 31.01 29.59 26.90 35.95 38.33 37.91 37.33 33.81 30.14 34.18 29.02 29.90 25.98
48.88 48.71 48.51 48.44 48.43 48.13 47.54 48.58 49.72 50.17 50.24 50.42 46.46 45.16 45.36 50.93 52.24 46.66 35.33 28.94 30.68 36.45 37.39 35.86 29.22 32.54 29.46 32.99 32.62 33.89 32.90 32.58 34.67 37.97 36.19 30.48 27.01 32.37 35.42 38.47 38.52 36.20 36.48 28.28 29.13 20.95 19.47
48.35 48.43 48.25 48.16 47.96 47.21 47.17 48.68 49.68 50.29 50.11 49.96 44.58 39.49 47.73 52.37 50.16 41.58 32.06 29.79 34.34 39.89 39.26 34.94 32.31 31.77 32.21 32.54 33.86 31.90 29.54 32.83 35.76 34.53 36.53 35.57 31.91 27.86 35.09 33.27 30.84 34.14 32.56 33.44 31.72 29.12 18.92
47.92 48.07 47.99 47.80 47.35 46.91 47.11 48.51 49.57 50.27 50.31 48.11 42.73 34.19 49.29 50.77 36.95 38.36 34.60 35.26 40.26 38.64 39.95 38.04 37.46 36.31 33.75 34.02 32.35 31.46 29.27 32.05 36.79 36.54 33.11 36.52 33.21 27.20 28.13 35.85 37.81 35.45 32.34 32.20 25.48 20.90 25.23
47.82 47.88 47.60 47.48 47.03 46.78 47.03 48.36 49.26 50.20 50.26 46.66 40.95 40.37 49.94 47.17 31.69 33.92 37.54 37.06 38.58 38.32 38.11 37.59 36.35 38.15 39.35 35.78 31.88 32.97 32.09 37.41 38.02 36.65 34.07 36.03 31.96 25.69 26.92 31.43 35.53 32.76 33.96 33.84 32.88 30.75 23.05
47.60 47.64 47.28 47.33 46.88 46.93 47.59 47.71 48.67 50.13 50.37 47.69 40.37 33.47 41.91 43.21 41.36 37.24 34.65 35.94 35.04 40.17 39.60 40.13 39.27 40.14 36.98 36.51 37.13 33.00 32.10 37.12 38.31 38.27 41.06 39.68 34.59 29.88 25.26 29.11 31.90 30.23 32.34 33.98 32.02 27.17 26.05
47.34 47.46 47.12 47.27 46.73 46.74 47.40 47.95 48.45 50.02 49.98 48.14 42.13 35.51 38.22 32.45 36.46 37.34 36.93 36.11 34.72 35.53 39.28 40.90 38.55 38.11 37.21 35.15 34.67 33.79 33.99 35.57 37.99 40.04 39.45 37.86 30.50 32.50 33.14 34.03 32.87 32.88 32.22 33.27 31.12 30.54 25.88
47.13 47.33 47.26 47.21 46.87 46.59 46.14 47.94 48.89 49.65 50.08 46.91 40.08 40.02 41.64 37.69 39.25 36.91 37.74 34.96 34.91 37.56 38.54 37.05 37.15 38.28 38.93 36.32 35.49 31.49 33.88 33.70 33.87 39.63 38.76 39.47 30.55 33.27 30.74 34.36 34.50 31.70 34.69 34.17 32.65 32.52 32.18
46.98 47.05 47.24 47.02 46.82 45.89 45.67 47.45 48.52 49.17 49.29 44.00 45.31 46.63 42.15 39.74 38.00 36.52 36.30 36.92 37.85 39.87 40.65 41.49 39.39 38.89 37.97 39.50 41.55 42.31 38.26 37.82 37.35 38.10 37.83 36.50 32.69 32.59 29.10 34.10 33.45 30.78 32.98 34.02 34.10 35.06 33.85
46.91 46.85 47.11 46.72 46.53 45.62 45.53 46.56 47.68 48.86 49.15 46.55 46.03 46.18 41.07 36.49 37.79 37.13 38.98 39.69 38.77 40.28 38.95 41.44 42.09 39.86 42.81 46.42 45.52 42.57 39.21 38.93 38.63 38.73 40.43 36.84 34.46 34.05 30.88 34.28 28.04 36.79 42.66 38.48 35.91 36.91 37.47
46.75 46.80 47.01 46.73 46.50 45.74 45.47 46.23 47.00 48.56 49.24 46.64 47.98 45.68 42.66 35.81 39.43 39.54 39.00 38.81 39.61 41.28 40.61 41.05 41.85 43.62 46.68 44.27 38.95 33.40 34.56 33.30 35.18 37.98 38.29 39.89 37.35 33.83 31.71 30.65 34.50 36.01 40.05 38.17 35.39 35.29 39.02
46.61 46.60 46.63 46.46 46.26 46.00 45.56 46.02 46.54 48.12 48.84 47.09 47.42 48.54 45.12 39.20 37.10 41.78 38.65 40.77 39.16 38.75 39.66 41.45 44.17 45.88 45.59 41.91 37.94 30.82 27.98 30.02 30.96 32.58 35.57 38.29 38.27 35.22 32.78 28.82 26.73 33.06 36.92 43.42 42.71 35.11 42.62
46.50 46.41 46.21 46.40 46.21 46.02 45.84 45.51 46.12 47.72 48.30 46.93 47.02 49.45 45.68 39.03 41.46 42.91 39.04 39.40 42.40 40.14 37.84 39.11 40.02 41.28 44.00 38.67 35.52 30.55 32.06 33.55 31.13 30.16 33.58 34.93 35.60 33.16 33.66 30.55 31.40 36.69 36.96 42.86 32.69 33.24 37.89
46.34 46.01 45.78 46.15 46.10 45.92 45.99 45.18 45.86 47.60 48.17 46.49 45.98 49.07 46.57 42.45 43.39 43.77 43.62 41.11 41.52 40.11 36.86 38.12 40.01 40.73 40.01 37.04 36.58 35.41 33.16 33.16 30.24 31.53 31.81 31.74 31.69 32.94 33.60 29.71 24.31 37.26 37.09 32.18 36.05 36.80 37.63
46.32 45.97 45.95 45.97 45.79 45.83 45.46 44.97 46.11 47.18 48.01 47.54 45.30 50.10 50.69 45.29 43.09 47.26 47.45 46.43 45.29 44.95 42.35 40.83 41.23 41.29 42.24 40.00 38.45 39.76 37.71 35.91 31.89 28.82 33.38 31.50 34.64 32.35 33.31 31.93 37.32 38.61 38.44 39.99 38.68 37.38 36.06

GFSGBSN_sfc_wetblb_027.txt.gz
Wetbulb
53.32 53.32 53.18 53.09 53.10 52.89 53.08 53.20 53.38 54.14 54.70 56.46 57.99 58.89 59.85 60.14 60.21 59.11 58.03 57.61 57.06 56.44 56.04 55.96 56.72 57.51 53.31 45.92 46.84 53.90 58.49 56.02 57.25 58.84 55.51 51.96 48.06 46.27 43.08 43.96 45.41 44.76 45.65 47.79 48.81 47.52 47.61
53.12 53.00 52.70 52.70 52.61 52.64 52.34 52.30 52.97 52.69 53.61 54.83 55.98 57.20 57.93 59.17 59.92 59.57 58.76 58.03 57.21 56.67 56.26 55.85 55.87 56.17 48.58 37.13 48.58 51.76 51.67 52.49 57.47 57.92 55.61 53.50 49.94 48.91 45.63 44.68 43.64 44.92 44.91 45.27 46.28 46.48 47.22
52.87 52.67 52.04 52.17 52.15 51.79 52.12 52.42 51.91 52.33 53.00 53.55 54.21 55.44 56.51 57.49 59.02 59.47 58.62 58.40 57.53 56.65 56.42 55.74 56.21 53.45 47.29 43.56 51.31 51.32 51.93 50.17 52.34 57.07 54.06 54.94 53.34 49.83 48.08 44.96 47.74 46.31 42.64 44.04 44.51 45.50 45.20
52.45 51.83 51.79 51.67 51.52 51.77 51.14 51.05 50.67 51.28 52.11 53.05 52.85 54.02 55.07 56.45 58.08 59.08 58.77 58.33 57.69 57.28 56.62 56.19 56.41 50.05 40.33 50.71 51.44 51.07 51.31 49.81 51.54 52.82 53.33 55.46 55.16 51.67 49.13 48.30 45.11 42.67 42.19 36.86 42.19 44.24 45.17
51.32 51.60 51.52 51.74 52.07 52.00 51.78 51.31 51.10 50.48 51.59 52.52 52.85 52.95 53.47 55.55 56.92 58.27 58.50 58.32 57.73 57.10 56.66 56.42 50.18 45.45 39.99 51.77 48.73 50.54 50.36 47.63 49.34 50.36 50.44 54.29 51.47 46.20 46.23 41.86 38.07 39.79 33.28 35.83 38.41 44.15 43.99
51.78 51.98 51.25 51.38 51.44 51.45 51.37 50.87 50.66 50.60 50.99 51.46 51.97 52.40 52.70 54.13 55.61 57.42 58.25 57.80 56.62 55.52 53.79 54.17 51.77 43.84 44.33 43.65 48.19 49.21 50.46 49.45 46.53 46.84 46.40 45.98 44.12 40.07 40.42 38.41 29.12 32.24 33.85 35.66 35.53 40.54 41.09
52.48 52.31 51.62 51.40 51.10 51.04 50.76 50.65 50.37 50.34 50.49 51.02 51.59 51.77 52.44 53.91 54.67 56.70 56.40 51.80 46.18 44.87 47.40 40.80 42.36 42.11 44.72 48.50 50.44 47.84 49.50 47.28 45.61 43.34 38.50 41.69 38.01 34.09 37.31 37.94 37.81 36.82 35.52 34.60 38.18 41.54 37.84
51.78 51.41 51.51 51.42 51.14 51.04 50.57 50.30 50.39 50.02 50.09 50.55 50.82 51.19 51.78 52.65 54.48 55.02 53.40 46.75 45.45 46.04 39.12 44.88 45.31 46.10 47.96 49.01 43.24 46.20 49.04 42.63 41.00 36.47 38.03 37.50 33.69 38.36 40.51 39.88 38.24 37.20 35.15 34.55 37.53 39.34 37.79
51.14 51.41 51.62 51.35 50.91 50.86 50.57 50.08 49.68 49.93 50.03 50.37 50.15 50.82 51.17 51.47 52.33 52.75 50.27 48.16 48.81 47.68 36.64 39.53 43.62 43.30 45.23 47.08 42.88 43.35 45.84 42.45 38.81 35.74 35.63 33.33 35.42 38.79 37.93 35.96 35.06 34.85 33.68 33.89 33.09 35.91 37.22
51.47 51.32 51.11 50.80 50.51 50.24 50.10 49.78 49.60 49.95 49.82 49.75 49.81 50.19 50.84 50.81 48.66 51.89 48.56 49.80 48.79 46.86 24.80 31.29 38.94 42.51 45.21 46.50 40.30 47.82 47.40 43.39 39.31 35.95 35.92 35.28 39.11 36.77 35.03 34.24 35.20 30.75 35.93 35.27 33.72 31.96 26.38
51.16 50.47 50.62 50.45 49.97 49.91 49.74 49.73 49.49 49.71 49.66 49.75 49.72 49.87 50.29 49.71 45.76 46.04 49.80 50.51 47.42 43.12 10.89 34.34 39.38 48.15 46.30 40.84 41.47 42.37 48.01 44.93 37.87 37.10 37.18 33.81 35.39 34.92 33.85 34.56 35.70 32.99 36.71 34.72 34.37 32.21 30.81
50.73 50.54 50.10 49.82 49.65 49.49 49.37 49.41 49.06 48.86 49.79 49.52 49.42 49.31 49.43 47.30 47.85 48.38 51.78 50.43 44.71 27.73 12.68 34.30 39.67 39.82 39.98 40.90 41.88 42.99 43.69 46.54 44.32 39.44 39.21 35.61 39.52 37.87 36.26 37.80 37.59 38.78 35.19 35.04 34.90 32.77 26.04
50.05 49.90 49.77 49.45 49.32 49.22 49.12 49.32 48.37 49.37 50.09 50.14 50.39 50.95 48.38 48.01 42.56 52.44 51.57 45.04 28.73 17.94 32.52 32.47 34.49 38.72 37.93 36.66 38.71 40.04 38.87 37.85 35.19 31.53 30.56 34.99 36.93 39.63 39.50 34.92 37.12 36.43 33.64 26.10 24.55 24.99 22.96
49.49 48.97 49.13 49.15 49.03 48.86 48.90 48.57 48.19 49.51 50.23 49.35 50.47 50.82 49.76 48.18 49.78 48.96 46.91 35.89 19.09 28.02 29.78 36.79 36.02 36.71 33.41 36.66 36.63 37.57 36.78 34.84 38.64 36.95 33.19 29.44 23.98 35.58 39.31 36.25 33.16 33.60 32.70 26.81 19.29 20.10 22.61
48.74 48.62 48.70 48.76 48.66 48.64 48.57 47.76 48.55 50.09 50.63 50.23 50.44 48.44 47.41 48.67 49.75 47.15 40.46 28.55 25.58 29.11 34.99 34.20 34.85 31.63 31.57 34.58 34.70 35.76 35.04 33.84 36.70 38.67 31.75 28.76 27.33 35.90 37.95 38.24 37.31 33.43 29.74 34.71 28.57 29.00 25.91
48.83 48.66 48.58 48.54 48.36 48.26 47.98 47.91 48.67 50.14 50.30 50.61 46.11 44.66 42.56 48.90 48.99 44.41 34.06 30.44 30.20 35.75 37.29 35.96 29.96 32.17 28.76 32.09 31.98 33.29 32.27 33.70 35.22 38.34 39.81 33.08 25.68 32.11 35.56 38.65 38.29 36.02 36.48 28.61 29.25 20.61 19.73
48.71 48.47 48.43 48.22 47.97 47.71 47.67 47.63 48.48 49.59 50.45 50.20 44.28 39.22 45.72 50.09 47.24 39.50 31.26 31.22 34.77 38.65 38.48 34.50 32.40 31.48 31.98 32.05 32.73 32.82 30.38 33.05 35.57 34.77 37.66 34.52 30.36 28.38 34.95 32.52 31.39 33.82 32.30 33.11 31.48 29.03 22.06
48.66 48.22 48.26 48.01 47.73 47.41 47.42 47.43 48.08 49.27 50.00 47.82 42.62 35.05 47.80 50.31 34.49 34.53 34.40 34.99 40.55 37.73 39.49 37.95 37.16 35.15 32.83 33.33 32.33 32.61 30.31 31.85 36.52 36.16 33.45 35.89 32.06 25.29 27.55 35.05 37.58 35.39 33.08 32.29 27.28 25.02 27.99
48.14 48.07 48.03 47.66 47.62 47.40 47.22 47.15 47.79 49.14 49.76 45.52 39.09 40.29 47.94 45.03 31.50 33.53 37.37 36.74 38.97 37.59 37.12 37.02 35.99 38.13 38.03 33.65 30.70 32.40 32.03 37.02 37.55 36.02 33.57 35.69 31.49 24.17 25.69 31.14 34.99 32.66 34.10 34.28 33.25 32.14 26.78
47.84 47.98 47.83 47.65 47.41 47.24 46.90 47.14 47.85 49.01 49.73 47.94 39.67 34.78 39.36 42.16 40.66 36.87 34.72 34.95 35.59 39.74 38.72 39.85 38.63 39.29 36.69 35.82 36.74 33.16 32.74 36.65 37.54 37.72 40.98 39.40 33.32 29.07 25.19 29.55 33.48 30.73 32.88 33.93 31.90 27.42 27.42
47.69 47.81 47.69 47.70 47.32 47.19 46.22 47.09 48.46 48.54 50.69 48.09 41.31 35.40 37.66 32.27 35.51 36.96 37.04 36.41 34.38 34.20 38.78 40.18 38.12 38.08 36.49 33.67 33.79 33.57 34.32 34.86 36.98 39.40 38.75 37.14 30.75 32.60 33.10 33.71 33.57 32.22 32.12 32.82 30.91 31.01 27.49
47.65 47.63 47.61 47.56 47.24 47.15 46.05 46.69 47.86 48.02 50.53 44.97 40.39 39.14 40.22 37.46 39.17 36.80 37.06 33.12 34.46 36.93 37.05 36.52 35.93 37.83 38.33 36.30 35.46 31.11 33.41 33.48 33.31 35.75 35.93 38.61 31.68 33.54 30.99 34.39 34.35 31.89 35.28 34.39 33.18 33.06 32.25
47.50 47.43 47.42 47.46 47.16 47.03 46.27 46.39 47.43 48.44 48.93 43.24 44.60 45.70 41.69 38.35 37.37 36.27 34.60 34.67 35.24 39.09 39.39 40.37 39.49 38.16 37.72 38.30 41.34 41.17 42.20 39.29 38.43 37.09 36.14 36.98 33.66 32.39 28.80 34.59 34.81 31.48 35.31 34.31 34.28 35.03 34.02
47.22 47.14 47.23 47.30 46.97 46.84 46.49 46.23 46.73 47.98 48.39 45.61 45.10 43.97 40.81 36.30 37.19 36.77 37.37 38.85 38.05 38.44 38.51 40.79 41.69 39.51 42.56 45.83 45.66 44.25 42.18 40.97 38.06 38.19 39.04 35.65 34.96 33.97 29.80 34.15 28.03 37.73 41.35 40.57 35.96 36.86 37.53
47.24 47.10 46.91 47.04 47.01 46.78 46.52 46.46 46.04 47.10 48.51 45.58 46.36 45.41 42.57 36.83 38.84 37.63 38.57 38.72 40.38 40.98 40.87 41.15 42.59 43.94 46.06 44.21 38.08 34.58 33.65 34.65 34.14 36.98 37.12 38.11 36.36 33.63 31.06 30.37 33.98 35.47 36.87 38.10 34.84 35.76 39.36
47.17 47.06 46.59 46.65 46.71 46.58 46.40 46.40 45.77 47.00 48.34 46.34 45.87 48.90 45.06 37.75 37.18 40.50 38.50 40.07 37.72 36.56 38.59 41.04 44.57 45.34 45.59 41.77 37.76 31.59 24.41 29.18 28.93 31.19 35.60 38.32 38.54 35.36 32.18 29.11 26.43 33.72 37.77 43.14 42.28 34.49 41.61
47.31 46.94 46.44 46.75 46.57 46.38 46.42 45.81 45.58 46.97 48.13 46.43 45.26 49.12 46.22 39.97 40.34 40.29 37.69 38.53 42.16 40.84 38.76 40.32 41.03 40.38 43.54 38.50 34.25 32.13 28.99 32.69 28.73 28.62 31.57 34.42 34.82 31.45 32.28 32.22 31.39 36.65 37.83 42.19 31.95 33.73 38.24
46.62 46.69 46.39 46.32 46.14 46.14 46.16 45.08 45.73 46.94 47.80 46.22 44.14 47.38 47.31 41.63 40.74 43.68 42.76 40.16 39.96 40.19 37.85 39.47 39.64 40.28 39.70 35.39 35.55 33.90 30.64 32.16 29.86 31.35 31.96 30.86 30.51 33.44 33.49 30.26 25.19 37.21 38.78 34.36 36.67 37.93 38.22
45.81 45.67 45.69 45.87 45.91 45.82 45.03 44.71 45.69 46.72 47.25 47.17 42.62 46.82 49.01 43.64 41.39 45.70 46.75 45.51 45.84 45.29 42.73 42.06 40.20 41.08 41.68 38.94 38.57 37.64 35.85 33.81 31.05 29.01 33.01 31.14 33.77 31.95 33.26 32.26 37.62 38.31 38.04 38.97 38.91 37.37 37.47

GFSGBSN_sfc_wetblb_030.txt.gz
Wetbulb
53.47 53.41 52.94 53.07 52.89 52.59 52.86 52.72 52.76 52.40 53.01 53.61 53.85 54.61 56.05 57.57 58.61 59.66 59.91 58.65 58.02 57.38 56.84 56.24 56.29 57.34 54.76 48.98 49.94 56.62 57.30 56.79 59.99 60.70 57.21 53.97 51.82 50.43 47.03 47.84 48.91 47.51 48.65 49.87 51.37 51.36 51.13
53.10 52.81 52.24 52.54 52.68 52.52 52.87 52.33 51.78 51.36 51.66 52.47 53.21 53.71 53.92 55.55 57.00 58.42 59.45 59.14 58.21 57.60 57.01 56.48 56.04 56.49 50.46 41.31 52.40 54.68 54.38 56.41 59.31 58.37 57.24 55.68 52.74 52.10 48.98 47.70 47.34 48.16 48.43 48.89 49.81 49.74 50.15
51.89 52.39 52.44 52.39 52.50 52.56 52.73 52.49 52.14 51.69 51.64 51.16 52.09 53.32 53.40 53.81 55.09 56.96 58.85 58.77 58.41 57.59 57.04 56.39 56.47 54.44 49.10 46.86 54.13 54.84 54.19 54.61 57.32 59.08 55.04 56.39 54.61 50.98 51.12 47.35 50.36 48.79 45.33 47.67 48.39 48.89 48.08
52.12 52.38 52.25 52.49 52.37 52.18 52.26 51.92 51.82 51.59 51.35 51.33 51.61 52.31 52.90 53.28 53.70 55.92 57.65 59.15 58.80 58.00 57.24 56.72 56.78 52.28 45.32 52.27 55.27 52.18 53.88 53.44 56.16 56.85 57.65 58.41 56.51 52.80 50.62 50.90 47.63 44.44 44.84 41.07 46.05 46.89 48.11
52.16 53.22 52.96 52.62 52.30 52.24 52.12 51.65 51.49 51.18 51.20 50.98 51.08 51.86 52.53 52.81 53.03 54.70 56.08 58.42 58.45 57.63 57.23 56.77 52.62 49.14 44.31 52.67 49.38 52.12 53.57 51.87 53.59 53.56 55.09 57.42 55.26 48.49 49.05 44.89 41.76 42.90 38.92 39.62 42.51 47.36 46.65
53.30 52.43 52.39 52.50 52.45 52.07 51.94 51.48 51.37 51.04 51.15 50.46 51.02 51.12 51.84 52.52 52.84 54.49 54.62 57.89 57.82 56.47 55.25 54.74 52.29 45.31 47.63 45.54 49.48 50.92 53.04 52.87 50.34 51.01 49.52 48.64 47.57 43.74 43.70 41.90 35.77 37.42 38.02 40.19 39.47 43.56 44.54
52.19 52.25 52.24 52.12 52.19 51.89 51.73 51.47 51.12 50.75 50.51 50.22 50.23 50.73 51.11 51.70 52.46 53.09 53.72 54.75 47.12 45.35 47.88 44.97 45.21 43.76 45.84 49.78 52.39 49.34 51.74 49.97 49.90 47.98 42.27 45.57 40.55 37.36 40.41 41.67 42.42 39.87 38.77 37.71 40.39 43.97 41.97
51.90 52.44 52.10 51.87 51.75 51.49 51.33 50.95 51.04 50.75 50.08 50.39 50.28 50.46 50.81 51.21 52.02 52.01 51.06 47.37 47.40 49.41 41.78 47.13 47.63 47.01 49.03 50.01 44.42 47.55 51.57 45.35 44.99 40.78 43.29 40.35 36.10 41.84 42.46 42.00 39.93 38.53 37.07 37.23 40.56 42.91 40.93
52.08 52.12 51.52 51.43 51.31 51.25 51.02 50.80 50.56 50.39 50.31 50.23 50.19 50.18 50.51 50.62 51.44 49.96 47.82 48.84 51.63 52.06 42.38 42.72 46.04 45.27 46.89 48.56 44.25 45.31 48.18 45.88 42.72 39.95 40.35 38.06 38.82 41.34 40.49 39.43 37.10 36.69 34.18 35.03 36.12 40.64 41.26
51.75 50.85 51.43 51.23 50.94 50.55 50.35 50.18 50.22 50.21 49.84 49.54 49.61 50.00 50.15 50.17 47.69 47.15 46.67 52.42 51.52 50.02 36.38 36.27 40.52 44.38 46.70 47.87 42.31 49.50 49.73 46.10 42.22 39.09 39.89 39.33 42.38 38.86 38.41 37.22 38.79 34.53 39.53 38.06 36.81 34.80 30.06
50.44 50.54 50.54 50.26 50.26 49.87 49.89 49.85 50.03 50.06 49.72 50.07 49.92 50.11 50.04 49.52 46.18 43.74 46.46 52.12 49.93 45.67 26.47 37.30 39.48 49.26 47.01 42.72 43.89 44.13 49.93 45.74 39.95 39.31 39.75 36.71 37.79 37.80 35.70 37.04 39.48 35.61 39.71 37.57 37.07 34.34 32.71
50.36 50.12 49.99 49.60 49.41 49.56 49.42 49.49 49.55 49.08 49.26 50.33 49.84 50.55 50.47 47.64 47.01 46.98 50.82 50.04 46.21 32.06 24.68 34.37 40.18 40.14 39.54 41.30 42.39 44.51 44.15 47.20 45.48 40.56 40.48 39.51 42.50 40.44 39.76 40.69 40.63 40.39 37.70 36.73 36.95 34.33 27.44
50.20 49.80 49.47 49.39 49.28 49.17 49.06 49.15 48.87 48.69 49.87 50.22 50.15 50.82 49.18 49.33 43.27 50.80 51.26 43.55 30.78 29.08 35.99 32.95 34.67 39.29 38.14 36.63 39.20 40.69 39.99 38.33 36.73 32.39 32.79 37.04 38.18 40.80 40.90 36.69 39.53 37.77 34.07 27.61 26.15 26.13 26.27
49.81 49.60 49.40 49.12 49.10 48.87 48.78 48.71 48.50 48.90 49.52 50.25 51.49 50.98 50.27 49.35 50.55 50.52 47.32 35.71 27.67 31.73 33.26 37.92 37.82 38.29 35.16 36.97 37.74 38.27 37.38 35.54 39.88 37.78 34.56 31.86 30.37 37.69 40.99 37.99 35.22 34.71 34.30 28.99 22.13 25.18 28.65
49.68 49.55 49.08 48.82 48.93 48.68 48.63 48.44 48.37 49.07 50.07 50.38 49.60 48.84 47.89 49.25 50.06 48.65 39.42 29.57 31.50 33.30 36.64 34.92 36.25 32.84 32.82 35.92 36.72 36.35 36.16 35.56 38.29 39.14 32.29 32.14 30.44 38.50 40.52 41.13 39.25 34.34 31.30 37.59 29.82 31.93 27.27
49.38 49.00 48.66 48.78 48.62 48.62 48.30 48.13 48.31 49.08 49.99 49.82 45.06 45.09 45.01 50.15 50.05 43.31 34.43 32.76 33.30 38.92 39.07 38.31 32.15 34.10 29.72 32.69 34.12 34.52 35.00 38.27 37.55 40.89 41.41 36.31 29.90 35.96 37.72 40.54 40.25 36.94 38.90 29.71 30.82 21.78 21.41
48.85 48.73 48.71 48.63 48.46 48.22 47.99 47.72 48.15 48.87 49.68 49.49 44.19 38.83 46.39 50.09 47.39 38.07 32.71 33.56 37.19 40.87 40.98 37.19 34.88 33.61 34.74 33.71 35.53 34.41 34.82 36.71 39.67 39.21 41.78 38.41 33.17 31.95 35.98 33.72 33.93 33.82 32.38 34.03 33.14 30.73 23.89
48.52 48.68 48.69 48.41 48.27 47.84 47.84 47.06 47.84 48.90 49.44 47.63 42.02 34.19 46.83 48.03 35.41 36.58 35.44 37.73 40.70 39.32 41.71 39.73 39.77 37.80 36.08 36.46 34.54 35.15 34.10 35.84 40.37 40.25 36.01 38.67 33.85 27.93 31.33 38.56 40.08 38.35 34.85 33.66 28.05 26.45 29.13
48.55 48.58 48.53 48.21 47.98 47.73 47.78 46.74 47.74 48.93 49.04 45.89 37.92 40.08 47.19 46.67 33.57 35.09 37.48 38.84 40.25 39.16 38.96 38.93 38.05 40.01 39.42 36.62 33.54 36.24 36.29 39.63 40.30 39.34 37.51 38.80 32.65 27.47 30.70 34.85 37.65 33.86 35.61 35.63 34.71 33.24 28.52
48.59 48.45 48.29 48.04 47.82 47.66 47.45 46.55 47.61 48.28 49.57 48.61 41.25 34.07 39.69 41.71 42.02 37.74 36.72 36.61 36.73 41.85 40.48 41.48 39.56 40.90 38.96 36.56 37.80 34.87 35.41 38.84 40.45 40.50 41.53 41.09 35.14 31.58 28.54 32.95 36.72 32.21 34.42 35.24 32.80 28.52 29.96
48.15 48.12 48.04 47.94 47.81 47.60 47.43 47.22 48.02 49.20 50.09 48.09 42.87 35.97 39.00 33.72 36.93 38.14 38.88 38.08 36.41 36.09 40.89 41.81 38.82 39.17 37.78 34.34 34.70 34.29 36.65 37.82 39.24 40.50 40.51 39.09 31.24 33.69 34.22 35.16 35.30 34.17 33.79 34.12 31.66 32.52 29.06
47.94 47.74 47.64 47.69 47.75 47.53 47.34 47.26 48.11 48.82 49.74 45.83 39.92 39.32 41.04 38.84 39.22 38.53 38.61 37.53 37.28 37.54 39.10 37.60 37.84 39.29 39.29 36.14 35.93 34.96 36.62 37.63 36.88 39.32 38.94 39.95 32.03 34.38 31.65 35.64 35.92 33.89 36.08 36.62 35.70 34.54 33.89
47.40 47.81 47.73 47.70 47.57 47.44 47.16 47.51 47.58 48.03 48.41 42.95 44.23 44.99 43.19 38.90 38.24 37.47 37.53 37.85 38.12 40.74 40.61 41.82 40.46 39.57 38.21 39.60 41.77 42.61 41.79 40.83 39.19 38.79 37.35 37.27 34.22 32.22 29.74 35.18 35.10 33.11 36.58 36.97 36.33 36.91 36.32
47.89 47.74 47.52 47.06 47.24 47.21 47.03 47.01 46.39 47.39 48.33 45.55 44.48 43.64 41.22 35.68 38.27 37.81 39.44 40.01 38.96 39.93 38.35 41.92 42.71 40.42 43.33 46.86 45.98 44.45 43.21 42.22 41.61 40.80 41.01 36.98 35.05 33.15 29.52 33.30 27.99 37.96 41.41 40.00 39.13 38.86 39.77
47.73 47.65 47.40 46.96 47.25 47.09 46.89 46.99 46.06 47.19 48.37 45.64 45.80 43.86 43.25 37.27 39.69 39.74 40.01 40.73 41.62 41.97 40.65 41.16 43.03 44.74 47.11 44.54 38.85 35.53 36.27 35.59 38.07 40.06 40.77 40.99 36.85 32.65 29.82 31.29 34.04 37.53 39.52 38.87 35.92 37.87 41.53
47.04 47.04 47.08 46.81 46.62 46.51 46.84 46.28 45.78 47.20 48.13 46.16 45.16 48.27 46.17 41.19 38.89 42.33 40.69 41.09 38.97 39.17 39.96 41.31 45.25 47.02 46.14 41.63 37.78 32.37 30.90 33.32 33.74 36.34 39.32 39.29 39.01 33.96 31.89 29.15 27.46 36.40 40.24 43.76 43.38 35.89 41.54
46.39 46.07 45.96 46.28 46.39 46.41 46.19 45.41 45.46 46.59 47.52 45.72 44.71 48.40 46.14 43.41 44.14 43.76 40.78 40.63 43.66 41.36 40.15 41.44 42.15 42.12 44.83 38.78 34.14 33.47 31.88 36.75 33.43 33.44 32.88 34.82 34.48 31.36 31.52 31.20 35.99 41.64 41.79 44.53 34.67 36.32 42.22
45.88 45.61 45.41 45.48 45.48 45.19 44.88 44.80 45.04 45.88 46.94 45.39 43.80 47.33 44.82 44.38 45.18 46.22 45.63 43.63 43.78 43.61 39.25 41.75 40.76 41.01 39.92 35.75 35.32 35.41 34.80 37.62 36.26 37.64 36.04 35.08 33.84 32.73 33.67 31.65 30.50 43.25 43.37 39.43 42.28 44.00 42.72
45.59 45.30 44.75 44.21 44.04 44.06 44.01 44.27 44.84 45.19 45.56 45.97 41.86 45.88 46.16 44.99 45.46 48.31 48.78 48.56 48.24 48.01 44.71 44.08 42.45 41.67 42.34 38.34 38.57 38.45 36.72 37.92 37.28 34.30 39.52 35.61 39.47 38.04 38.96 39.25 43.83 43.95 44.58 45.63 43.99 42.83 42.43

GFSGBSN_sfc_wetblb_033.txt.gz
Wetbulb
52.96 52.92 53.15 53.07 53.39 53.15 53.37 53.25 52.89 52.69 52.45 52.34 52.36 52.29 53.01 54.02 54.70 56.05 57.92 59.33 59.28 58.43 57.72 57.01 56.59 57.32 54.81 50.60 51.22 59.15 57.65 58.64 60.74 61.21 57.85 55.24 52.47 51.49 47.89 49.76 50.16 48.41 50.10 51.33 52.41 52.89 52.66
52.73 53.12 53.14 53.13 53.04 53.28 52.84 53.11 52.87 52.66 52.60 52.50 52.14 52.20 52.40 53.57 53.86 54.61 55.58 58.11 59.40 58.53 57.67 57.15 56.43 56.91 52.05 43.17 54.43 56.96 56.66 57.45 58.82 59.33 56.99 55.96 53.49 54.01 50.97 49.84 48.52 50.52 50.23 50.28 51.36 51.07 51.59
53.08 52.99 53.90 53.57 53.10 52.79 53.11 52.86 52.59 52.34 52.40 52.39 52.01 51.74 51.83 52.60 53.28 54.10 54.64 56.99 59.02 58.56 57.75 57.37 56.76 55.15 50.18 48.47 54.91 55.69 55.29 56.98 59.53 58.69 55.95 57.22 56.06 52.50 52.09 48.49 51.30 50.03 46.52 49.01 49.64 50.19 49.27
53.92 54.31 53.69 53.30 52.89 53.19 52.71 52.62 52.51 52.36 52.40 52.01 51.99 51.38 51.66 51.99 52.84 53.47 53.81 55.52 57.67 58.47 57.68 57.03 57.03 53.34 46.18 53.93 56.48 54.02 54.90 55.94 58.68 60.35 58.70 58.98 57.34 53.05 50.96 51.43 48.93 45.84 46.69 42.19 48.30 49.23 50.03
53.52 53.27 53.16 53.00 53.43 53.21 53.07 52.38 51.82 51.84 51.91 51.81 51.39 51.14 51.05 51.53 52.20 52.89 53.29 54.83 56.12 58.57 57.66 57.05 53.68 51.39 46.02 53.60 49.89 53.23 54.79 53.61 55.39 56.78 58.36 58.42 55.49 50.19 50.43 45.53 42.14 44.37 40.20 42.77 45.04 49.57 48.06
52.94 52.54 53.00 53.40 53.13 53.05 52.41 52.24 51.77 51.54 51.25 51.02 51.02 50.89 50.82 50.91 51.64 52.18 53.08 54.02 56.06 57.59 55.50 55.04 52.87 46.86 48.73 46.77 51.04 52.20 54.90 55.58 52.58 52.59 52.38 51.91 49.84 44.32 43.48 42.47 37.82 41.03 41.26 42.75 42.31 46.23 46.15
52.92 53.39 53.22 52.79 52.59 52.39 52.18 52.03 51.48 51.40 51.19 50.84 50.75 50.53 50.80 50.78 51.29 51.48 51.51 49.74 49.64 47.81 49.84 46.18 46.39 45.47 47.57 51.23 52.97 50.24 53.29 52.94 51.54 49.55 42.86 46.11 41.47 39.17 43.38 45.57 45.32 43.44 40.90 40.70 44.02 46.34 43.84
53.06 52.97 51.96 52.12 51.96 51.71 51.46 51.18 51.06 50.88 50.81 50.55 50.44 50.24 50.58 50.82 51.00 51.23 50.16 42.45 46.55 48.58 41.48 48.24 48.41 48.34 50.34 51.36 45.48 48.25 53.01 46.90 45.32 41.25 44.31 41.26 38.14 44.11 45.29 44.20 42.40 41.35 39.47 39.37 42.79 44.44 42.73
51.93 51.49 51.43 51.40 51.11 50.83 50.64 50.56 50.63 50.64 50.57 50.48 49.95 49.49 49.99 50.43 50.59 49.53 47.24 43.95 49.50 50.56 42.86 44.37 47.67 46.86 47.50 49.64 45.38 45.47 49.47 47.38 43.98 41.23 40.51 39.44 41.27 43.47 42.60 40.87 39.34 39.82 37.78 37.59 37.11 41.07 42.88
50.82 51.20 51.18 50.87 50.63 50.51 50.35 50.21 50.15 50.19 49.95 49.60 49.37 49.89 50.33 50.02 46.96 47.99 45.81 49.84 51.23 49.03 35.18 37.90 42.01 45.45 47.89 48.56 43.52 50.38 50.55 47.23 43.68 39.70 41.14 40.54 44.25 40.49 40.22 39.02 40.58 36.18 42.18 40.10 38.25 36.15 33.48
50.47 50.93 50.87 50.43 50.28 50.03 50.04 49.83 49.68 49.68 49.27 49.75 49.73 50.33 50.06 49.74 45.92 44.50 47.58 50.94 50.50 46.16 27.11 39.99 41.22 50.40 48.21 43.98 45.19 45.31 50.65 46.71 40.69 41.47 41.12 38.39 39.29 39.38 37.22 38.77 41.37 37.28 41.01 38.94 38.45 36.03 33.82
50.31 50.77 50.63 50.19 49.83 49.67 49.54 49.31 49.29 49.32 49.01 49.55 49.84 50.36 50.81 48.71 47.79 48.16 50.46 50.45 46.94 30.53 27.66 34.77 40.48 39.79 40.06 42.67 43.32 45.48 45.02 47.90 46.64 41.32 41.43 41.17 44.08 41.92 41.19 41.98 41.94 41.56 38.48 37.19 37.05 34.25 27.49
49.88 50.37 49.95 49.76 49.56 49.35 49.18 49.11 48.90 48.85 49.22 49.58 50.36 49.81 50.64 49.17 43.87 50.29 50.04 43.62 30.37 27.62 37.85 33.70 35.06 38.91 38.58 37.10 39.25 41.19 39.35 38.45 37.25 32.90 33.19 37.89 38.34 41.45 42.71 38.25 40.77 39.26 34.43 29.76 27.05 26.47 26.58
49.90 49.97 49.64 49.45 49.40 49.13 49.06 48.84 48.80 49.11 49.15 49.55 49.86 49.81 50.30 49.69 50.56 50.85 45.61 34.73 27.85 33.55 34.27 38.97 38.24 37.98 34.54 37.16 38.10 38.94 37.33 34.99 39.89 38.61 35.04 31.02 31.78 39.19 41.29 38.55 36.48 35.31 34.95 29.83 23.92 27.00 30.70
49.53 49.52 49.37 49.32 49.19 49.18 48.91 48.70 48.30 48.55 50.03 50.01 49.62 48.37 47.92 49.66 50.66 48.93 40.00 29.30 32.53 35.86 37.69 36.32 37.12 34.11 34.18 36.95 37.70 37.94 37.58 36.26 39.48 39.71 33.99 33.26 32.06 40.66 42.12 42.22 40.30 35.37 31.36 37.87 30.96 32.27 27.78
49.23 49.46 49.25 49.27 49.10 48.99 48.73 48.70 47.84 48.54 50.05 49.69 45.26 44.41 44.79 49.95 50.45 45.01 36.43 30.72 34.96 40.21 40.13 39.86 33.01 35.00 31.18 33.89 35.07 35.54 35.04 40.11 37.96 41.70 43.27 37.92 31.31 38.09 40.04 41.60 40.91 38.21 40.39 29.90 31.26 22.74 23.36
49.52 49.41 49.25 49.12 48.90 48.61 48.52 48.08 47.76 48.92 49.51 49.79 43.81 40.33 46.04 49.81 48.15 39.28 33.35 34.60 37.56 41.72 42.20 38.83 36.47 34.24 34.41 33.83 36.51 34.90 35.59 39.20 42.25 41.20 42.66 38.99 35.23 33.38 36.44 34.81 35.19 34.71 32.84 34.15 34.51 32.25 26.29
49.35 49.21 49.05 48.79 48.56 48.34 48.31 47.88 48.12 49.01 49.82 48.75 42.33 33.56 46.88 49.30 37.08 37.91 35.76 37.99 41.29 40.36 42.66 40.77 41.46 39.44 37.24 37.65 37.03 37.25 36.74 38.55 42.81 42.60 36.89 39.83 34.70 29.84 32.62 39.50 41.09 39.77 34.84 34.37 29.19 28.45 30.62
48.83 48.93 48.72 48.45 48.30 48.12 48.22 47.91 48.28 48.79 50.03 46.87 39.18 38.73 47.57 46.74 34.34 35.88 38.18 38.85 40.58 39.37 40.28 40.33 39.48 40.94 41.46 38.83 35.04 38.54 39.00 41.55 42.24 41.11 38.70 39.34 33.26 28.61 31.18 36.17 39.30 35.39 37.09 36.96 35.86 34.35 29.44
48.59 48.84 48.34 48.00 48.38 48.50 47.94 47.75 47.91 48.94 50.37 49.58 41.59 33.23 39.36 42.25 42.54 38.86 37.43 37.39 37.32 42.79 42.19 42.79 41.50 42.47 40.42 38.41 40.22 37.30 37.13 40.00 41.83 41.51 42.22 42.63 35.48 31.83 29.52 33.95 37.26 32.51 35.12 36.58 34.02 29.92 30.60
48.36 48.48 48.54 47.89 48.18 48.05 47.83 47.71 47.70 49.57 50.57 49.61 44.11 37.44 40.11 35.37 39.25 39.63 40.28 38.77 37.13 37.39 42.20 43.27 40.40 40.92 39.58 35.96 36.78 35.89 38.40 39.19 40.97 42.11 40.96 39.55 32.26 33.76 34.97 36.15 36.02 35.06 34.74 35.92 33.04 33.54 29.58
48.54 48.65 48.42 47.57 47.87 47.84 47.60 47.64 47.25 49.32 50.00 46.02 39.36 39.94 42.03 39.76 41.20 40.03 39.18 37.16 37.93 39.25 40.55 39.06 39.42 40.65 40.58 37.96 37.94 35.56 37.37 37.75 37.85 40.55 39.00 39.84 32.99 35.11 31.99 35.86 37.11 35.50 37.56 37.77 37.39 37.14 36.43
48.13 48.14 48.17 47.56 47.94 47.64 47.37 47.43 46.66 48.57 48.69 43.13 44.16 45.02 42.92 39.44 39.85 39.12 38.46 39.69 39.73 41.63 42.07 42.96 42.11 41.07 39.38 40.68 42.30 42.97 43.35 42.93 41.76 38.51 37.30 36.80 34.83 32.98 29.47 35.84 35.61 34.28 36.83 37.28 37.87 39.14 38.03
47.43 47.28 47.61 47.57 47.20 47.01 47.30 47.02 46.43 47.87 48.32 45.67 44.83 43.16 40.83 36.73 39.34 39.22 40.46 41.40 40.17 40.83 39.82 42.60 43.48 41.37 44.03 47.72 46.59 45.15 43.06 42.09 41.45 40.43 40.40 36.54 35.69 34.72 29.91 33.70 28.43 39.15 43.51 41.92 38.67 39.86 40.46
46.90 46.75 46.47 46.62 46.99 46.97 47.05 46.38 46.02 47.05 48.11 45.88 45.82 43.14 42.80 38.15 40.13 39.61 40.88 41.39 42.60 42.90 41.89 42.48 43.76 45.66 47.93 44.65 40.21 36.23 37.20 36.73 38.58 40.46 40.41 40.14 36.67 32.55 29.91 29.53 34.61 39.30 41.73 40.06 38.28 37.99 42.02
46.50 46.35 46.14 45.93 46.24 46.17 45.91 45.61 45.64 46.30 47.18 45.51 45.44 47.23 44.24 41.10 40.73 43.99 41.90 43.03 41.02 40.89 41.04 42.51 46.42 47.82 46.17 41.75 37.69 32.64 31.12 34.91 34.46 35.36 40.64 40.06 39.91 34.19 32.96 28.02 27.19 37.87 42.56 43.92 44.29 36.16 43.64
46.37 46.11 45.72 45.16 44.75 44.57 44.65 44.76 45.06 45.69 46.05 44.92 44.46 46.66 44.12 42.85 46.50 45.35 41.31 41.43 44.33 43.03 41.12 42.38 42.90 42.78 45.36 39.28 35.17 33.07 32.25 38.18 33.32 34.09 33.79 35.08 35.23 31.62 31.81 30.12 34.99 43.69 44.36 46.20 35.90 37.58 44.63
46.17 45.83 45.39 44.91 44.50 44.37 44.33 44.36 45.04 45.21 45.28 44.60 43.26 46.82 42.81 42.54 46.47 47.02 47.09 44.78 45.11 44.73 40.79 43.08 41.39 41.31 40.39 36.26 35.87 35.60 35.21 37.66 36.83 39.30 37.41 35.56 33.22 32.26 33.03 31.58 29.59 45.66 45.30 40.02 44.31 45.80 45.66
45.89 45.73 45.14 44.79 44.49 44.37 44.38 44.42 44.74 44.62 45.18 45.53 41.14 45.35 45.29 42.13 46.49 50.21 49.77 50.32 49.86 49.14 46.17 45.33 43.58 42.68 42.90 38.29 38.94 38.65 36.95 38.49 38.08 33.97 42.50 36.09 40.74 38.02 38.73 38.40 47.19 48.02 45.72 47.83 47.48 44.76 44.38

GFSGBSN_sfc_wetblb_036.txt.gz
Wetbulb
53.84 54.00 53.85 54.37 54.38 53.85 53.70 54.08 53.54 53.53 53.61 53.50 53.49 53.39 52.57 52.53 52.95 53.31 54.68 55.86 57.44 59.51 59.01 57.97 57.29 57.44 54.34 49.49 50.19 59.88 61.19 60.67 60.86 60.66 57.29 55.43 50.55 49.38 45.76 47.31 48.98 46.85 48.55 50.58 51.18 51.11 50.58
54.27 54.34 55.06 54.71 54.24 53.62 53.74 53.94 53.64 53.32 53.58 53.51 53.40 52.93 52.73 52.14 52.31 53.00 53.71 54.92 56.03 58.18 59.06 57.90 57.19 57.45 51.31 42.32 55.24 57.90 56.92 56.50 56.90 57.82 56.87 56.37 52.41 52.38 49.59 48.29 46.59 48.81 48.83 48.82 49.76 49.14 49.66
55.52 54.52 54.39 54.03 53.74 53.79 54.22 54.14 53.16 53.10 53.03 53.10 53.07 52.74 52.34 51.98 52.03 52.46 53.34 54.38 55.08 56.35 58.90 58.00 57.26 54.67 49.28 47.41 54.85 55.37 55.74 55.33 58.55 57.41 55.65 57.35 55.95 52.17 51.78 47.22 50.84 48.87 44.37 46.89 47.70 48.17 47.40
54.63 54.04 53.57 53.71 54.10 53.91 53.28 53.39 52.94 52.77 52.68 52.43 52.60 52.35 51.97 51.63 51.61 51.85 52.72 53.64 53.97 55.19 57.88 58.10 57.34 52.44 45.47 54.89 56.22 53.94 54.27 54.21 57.76 59.20 58.00 58.68 57.35 53.12 50.66 50.97 48.44 44.65 44.64 39.13 46.04 47.68 48.38
54.28 53.53 53.88 54.51 54.09 53.62 53.38 52.97 52.65 52.43 52.09 52.03 51.68 51.77 51.78 51.60 51.36 51.30 51.95 52.90 53.59 54.60 57.13 57.81 52.93 50.04 44.15 53.29 49.70 53.57 53.81 51.92 54.72 57.45 57.76 58.78 55.60 49.82 49.63 44.12 41.52 42.60 35.97 38.76 42.40 47.15 46.29
53.54 54.39 54.10 52.71 52.70 52.69 52.57 52.25 51.74 51.55 51.73 51.46 51.25 51.11 51.30 51.23 51.28 51.22 51.53 52.36 53.14 53.52 55.85 54.96 52.81 46.02 48.15 46.45 50.47 51.84 53.77 55.13 52.09 52.54 52.60 52.09 48.69 44.95 44.44 42.08 33.46 36.40 37.07 38.91 39.37 44.20 44.20
53.84 52.70 51.99 52.36 52.19 52.04 51.94 51.75 51.22 51.25 51.24 50.97 50.87 50.94 50.91 50.61 51.08 51.01 50.16 48.92 46.83 46.33 50.19 44.97 44.94 45.44 46.81 51.27 52.67 49.87 52.95 52.46 51.56 49.20 43.73 48.13 42.25 38.84 40.57 42.48 42.72 42.97 39.75 37.51 40.61 44.77 41.14
52.19 51.74 51.78 52.08 51.86 51.56 51.51 51.16 50.95 50.90 50.75 50.72 50.59 50.41 50.05 50.33 50.58 50.98 49.21 42.66 42.94 46.58 42.20 48.00 48.66 48.34 50.21 50.69 44.90 48.06 53.03 47.08 45.67 41.98 44.02 41.21 36.07 42.73 44.95 44.92 42.59 40.06 36.77 36.16 40.21 43.20 40.17
51.78 52.02 52.00 51.88 51.57 51.35 51.06 50.74 50.60 50.43 50.28 50.35 49.90 49.75 50.27 50.31 50.10 47.91 45.82 44.47 48.52 46.64 41.23 43.27 47.47 46.66 47.22 49.26 44.67 45.20 49.59 47.04 43.56 40.98 40.29 38.04 40.14 44.52 42.75 40.66 38.31 37.40 35.12 35.36 35.29 38.91 39.57
51.72 51.55 51.62 51.32 50.99 50.66 50.42 50.19 50.02 49.95 49.75 49.73 49.60 50.20 50.28 50.09 45.88 46.40 43.92 49.30 49.70 47.80 32.89 38.78 41.92 45.64 47.62 48.57 43.00 49.78 50.56 47.28 43.50 39.34 40.66 39.55 43.40 40.78 39.09 38.55 39.20 34.06 40.22 39.34 37.76 33.75 27.97
51.48 51.56 51.18 50.82 50.50 50.26 50.03 49.90 49.88 49.65 49.46 49.37 50.02 50.44 50.66 50.82 44.58 41.87 46.50 50.20 49.82 45.98 23.85 39.37 41.52 50.78 48.13 43.86 44.54 44.58 50.26 46.99 40.53 40.72 40.93 37.12 38.89 38.59 36.84 38.28 40.49 35.90 40.66 37.95 37.29 33.04 31.72
51.28 50.92 50.65 50.37 50.19 49.94 49.85 49.62 49.42 49.24 49.33 49.55 49.92 50.46 50.60 48.40 48.10 46.13 48.78 49.55 44.59 30.09 23.82 35.96 40.57 40.44 40.76 43.43 43.46 44.88 44.83 48.02 46.66 41.73 41.53 40.14 44.13 40.91 39.67 41.51 41.05 41.29 37.27 36.92 35.81 33.41 24.45
50.10 50.27 50.38 50.16 50.06 49.78 49.62 49.38 49.08 48.98 49.05 49.47 49.75 50.29 49.05 49.83 43.32 49.17 49.34 42.49 28.63 24.81 36.46 33.81 35.96 39.47 38.81 38.24 39.90 40.77 39.46 38.15 35.49 31.86 32.63 37.20 37.91 41.38 42.27 37.80 40.80 39.17 34.51 23.06 22.34 24.33 20.63
49.96 50.39 50.28 50.06 49.92 49.76 49.58 49.38 49.09 48.64 49.13 49.80 50.18 50.14 49.94 48.80 50.59 49.82 45.33 35.13 25.57 33.23 34.03 38.31 38.18 38.55 34.93 38.34 38.39 38.82 37.86 35.00 39.48 37.02 33.85 30.02 29.21 37.69 40.52 37.93 35.54 35.41 34.06 23.81 18.69 20.04 23.79
49.96 50.31 50.00 49.90 49.68 49.55 49.50 49.48 48.60 48.31 49.87 50.45 50.01 47.87 47.83 48.90 50.22 48.85 40.08 27.24 30.00 33.86 37.18 36.10 37.25 33.47 33.71 37.06 37.62 36.98 35.74 35.12 37.55 39.16 32.48 31.62 31.61 40.52 40.91 41.39 39.97 34.51 29.73 34.35 26.44 27.59 20.52
49.71 49.96 49.76 49.71 49.64 49.46 49.20 49.29 48.72 49.35 50.15 51.04 46.78 44.26 44.89 49.54 50.20 45.30 36.20 31.17 33.87 39.32 39.97 38.79 32.19 35.46 30.41 33.33 34.25 35.27 34.96 38.99 37.57 40.67 40.67 37.27 30.21 37.55 40.16 41.41 40.39 36.42 38.21 29.21 28.36 16.90 17.44
49.64 49.70 49.63 49.19 49.03 49.08 48.88 48.87 48.91 49.35 50.65 50.39 44.84 39.97 45.73 49.84 48.39 39.55 30.99 33.42 37.23 40.85 41.91 38.03 35.33 34.04 34.54 33.52 35.58 34.08 34.15 39.08 40.52 39.95 41.39 38.69 34.47 32.08 35.83 33.59 32.73 33.36 31.95 33.16 32.00 29.49 21.82
49.29 49.06 49.65 49.12 48.76 48.81 48.78 48.63 48.60 49.41 51.48 48.23 41.22 33.85 46.62 49.20 34.89 36.27 34.99 38.05 40.84 39.69 43.34 41.50 40.61 37.99 35.75 36.07 35.10 34.73 34.82 38.20 42.45 41.47 36.69 39.00 34.48 25.66 29.88 37.45 39.08 37.80 33.40 32.07 25.80 22.44 27.85
49.21 49.54 49.56 48.70 48.69 48.86 48.49 48.61 48.23 49.50 51.06 47.66 40.02 39.39 47.50 45.97 32.79 35.29 37.21 38.34 40.01 39.78 40.82 40.63 39.29 40.84 39.96 37.25 33.51 37.98 38.18 41.08 41.92 40.09 38.02 38.89 30.64 22.80 26.76 32.78 36.21 32.50 35.17 35.88 34.13 32.36 26.73
49.24 49.40 49.30 48.45 48.52 48.88 48.48 48.43 48.32 49.99 50.89 49.88 42.06 33.33 40.19 42.41 41.75 37.15 36.66 36.80 36.84 43.26 42.20 42.96 40.82 42.18 39.57 37.47 39.95 36.66 36.44 39.83 41.01 41.20 43.22 41.32 35.09 27.96 22.95 29.83 35.01 29.98 33.44 34.97 33.69 28.87 28.22
48.78 48.83 48.65 48.42 48.31 48.20 47.98 48.04 48.17 50.20 50.79 49.60 44.11 37.58 40.28 35.10 38.31 38.90 39.68 38.78 36.40 37.61 42.61 43.45 40.82 41.01 39.14 35.25 36.16 35.72 37.86 38.12 40.04 41.39 39.66 37.68 30.25 30.66 32.40 33.83 32.89 32.27 33.12 34.34 32.43 33.51 29.86
48.20 48.12 48.03 48.02 47.63 47.47 47.92 47.40 48.02 49.67 50.21 45.03 39.62 39.08 42.28 39.09 41.34 39.65 38.72 37.84 37.97 39.80 40.56 39.52 38.63 40.27 40.35 37.29 36.60 35.37 37.04 37.28 36.63 39.42 37.58 38.76 30.41 31.25 27.74 33.77 33.72 31.18 34.64 35.72 36.75 37.41 37.08
47.81 47.63 47.34 47.10 47.41 47.60 47.65 46.97 46.65 48.47 48.53 43.20 44.15 44.79 42.05 39.65 39.03 38.44 38.61 38.37 39.63 41.39 41.96 42.87 41.73 40.33 39.20 40.04 41.73 41.69 41.86 41.73 40.76 37.61 36.54 36.66 32.76 32.02 23.75 33.46 32.90 31.09 35.27 37.75 38.06 39.59 38.82
47.63 47.27 47.02 46.83 46.65 46.96 46.84 46.45 46.31 46.67 47.43 44.95 44.65 43.13 39.56 36.51 38.70 38.27 40.63 41.48 40.52 40.81 39.39 42.18 43.06 41.17 43.45 46.35 45.14 43.35 42.06 41.36 40.56 39.53 40.35 36.96 35.22 34.15 26.80 31.11 24.74 37.34 42.13 41.00 39.04 40.13 40.89
47.55 47.17 46.93 46.42 45.80 45.36 45.24 45.53 45.69 46.25 46.60 43.87 45.19 43.40 41.52 38.11 39.49 39.83 40.43 41.12 41.68 42.09 41.60 42.00 43.68 45.28 46.08 43.24 38.99 35.13 36.34 35.81 37.23 39.10 39.00 39.59 36.57 32.21 26.93 28.09 31.70 36.04 39.57 39.13 36.85 37.12 42.01
47.61 46.94 46.79 46.20 45.53 45.09 44.83 44.81 45.24 46.00 46.01 44.03 45.07 46.81 43.54 40.43 38.61 42.60 40.00 41.63 38.76 39.23 39.99 42.41 45.85 46.99 44.80 40.98 37.28 31.12 29.13 34.32 33.19 34.80 40.19 39.39 38.60 33.38 30.73 26.81 24.15 34.04 39.98 42.48 42.57 35.27 40.96
47.73 46.60 46.43 46.04 45.46 45.04 44.87 44.75 45.06 45.60 45.52 44.11 43.90 46.41 42.98 41.15 44.58 44.22 39.83 39.99 43.25 41.75 39.91 41.69 42.72 42.68 44.67 38.79 34.48 31.08 30.86 36.32 30.87 32.88 32.18 34.37 34.60 30.93 31.38 29.61 31.41 39.03 41.45 43.81 33.17 33.98 41.96
46.88 46.19 46.28 45.98 45.38 45.14 44.99 44.77 44.84 44.99 45.31 44.13 42.59 46.21 41.81 41.13 44.45 47.05 47.00 43.35 43.45 42.69 39.41 41.99 40.54 41.25 39.70 36.27 34.80 34.43 34.04 36.08 33.99 36.80 34.30 32.75 31.55 31.08 32.50 30.03 26.06 41.66 40.97 37.23 40.34 41.35 41.46
46.61 45.58 46.09 45.88 45.31 45.11 45.00 44.85 44.67 44.66 44.90 45.14 40.65 44.91 44.81 40.48 44.55 49.96 49.39 49.39 48.24 47.85 45.26 43.73 42.84 41.33 41.67 38.30 37.40 38.15 36.01 36.94 34.39 31.75 39.07 32.49 36.64 34.93 33.96 33.22 41.20 43.67 42.36 43.93 42.54 40.53 40.03

GFSGBSN_sfc_wetblb_039.txt.gz
Wetbulb
54.93 56.19 55.31 55.16 54.86 54.55 54.80 54.88 54.83 54.32 54.35 54.10 53.96 53.77 53.48 53.62 52.82 52.85 52.93 52.84 54.35 56.50 57.70 59.39 58.23 57.47 54.76 48.19 48.56 59.10 62.61 64.40 61.78 60.17 56.77 54.74 50.36 47.28 44.05 44.89 46.18 43.28 45.64 48.73 49.24 49.15 48.31
56.44 55.41 54.84 54.29 54.45 54.59 55.22 54.62 54.28 53.87 53.78 53.80 53.62 53.14 52.85 52.81 52.85 52.32 52.29 52.86 53.68 55.33 56.20 58.27 58.22 57.68 51.04 42.26 54.78 58.18 57.57 57.85 58.20 58.19 56.02 55.52 50.84 49.36 46.06 45.12 43.61 46.06 46.35 46.36 47.93 47.59 47.65
54.82 54.84 54.10 54.61 54.93 54.27 54.05 53.53 53.55 53.63 53.48 53.28 52.71 52.50 52.74 52.54 52.30 52.27 52.20 52.48 53.37 54.30 55.25 57.23 58.20 54.68 48.72 46.19 52.40 54.17 55.43 53.81 55.56 56.53 54.80 56.32 55.23 49.86 48.54 45.00 48.55 46.52 42.61 44.67 45.54 46.52 45.68
53.94 54.41 55.73 54.84 53.34 52.78 53.22 53.06 52.87 52.63 52.51 52.34 52.09 51.82 52.21 52.01 51.75 51.87 51.97 51.99 52.60 53.23 54.44 56.22 58.34 52.64 44.55 54.90 54.56 53.30 52.69 52.38 55.70 56.59 57.49 58.47 56.92 52.74 50.02 48.29 46.10 42.76 41.71 36.76 44.03 46.23 46.80
53.66 54.35 53.46 52.85 53.26 53.34 52.99 52.60 52.28 52.12 51.92 51.75 51.69 51.59 51.68 51.73 51.25 51.34 51.46 51.80 52.36 53.04 54.28 55.44 53.36 49.42 42.95 55.28 50.49 52.43 51.85 50.50 53.42 56.85 56.62 58.51 55.13 49.46 49.52 43.62 40.50 39.91 33.27 36.34 40.29 45.98 45.34
54.42 53.28 52.49 52.89 53.19 53.00 52.64 52.26 51.82 51.55 51.50 51.37 51.10 51.06 51.02 51.39 51.15 50.73 51.28 51.56 51.80 51.92 51.92 54.01 52.48 44.26 47.23 45.57 49.91 52.09 52.10 52.18 51.11 53.24 52.81 52.17 48.88 44.60 43.73 41.25 32.60 34.08 34.46 35.43 36.66 42.38 42.69
53.08 52.89 52.79 52.62 52.71 52.37 52.08 51.68 51.39 51.27 50.99 50.79 50.74 50.78 50.76 50.48 50.63 50.60 48.86 45.91 41.67 42.24 47.05 44.49 44.43 44.68 47.18 50.82 51.90 50.11 51.33 51.88 50.03 47.98 42.74 48.62 42.19 38.89 39.34 40.84 40.40 40.60 39.56 35.27 37.67 42.38 38.14
52.70 52.85 52.08 52.49 52.13 51.78 51.52 51.22 50.98 50.75 50.62 50.32 50.39 50.28 50.18 50.65 50.66 50.67 47.00 40.99 41.49 42.95 37.95 47.31 47.56 47.43 49.42 50.38 44.28 47.33 51.71 46.48 44.86 40.90 42.20 40.57 37.29 43.59 45.41 44.06 42.52 39.21 36.38 33.24 37.56 40.44 37.65
52.12 52.62 52.32 51.99 51.64 51.52 51.21 50.84 50.61 50.53 50.54 50.21 50.06 50.07 50.42 50.82 50.35 47.54 43.49 42.42 47.79 46.03 37.59 43.54 47.37 46.19 46.33 48.82 44.01 44.24 49.47 46.88 43.33 40.75 40.14 35.73 39.01 43.96 41.67 40.31 39.34 36.51 32.59 32.80 33.28 36.87 36.40
52.49 51.28 51.54 51.50 51.22 51.04 50.69 50.50 50.31 50.16 49.84 49.74 49.86 50.37 50.66 50.66 46.27 45.72 42.56 47.06 48.15 46.23 31.90 37.32 42.38 45.46 47.54 48.09 42.21 48.94 50.28 46.67 43.79 39.90 40.92 39.69 42.15 40.77 38.87 37.86 37.55 31.75 38.05 37.42 35.94 31.67 25.73
51.32 51.24 51.36 51.25 50.99 50.77 50.46 50.41 50.12 49.85 49.40 49.49 49.77 50.27 50.48 50.65 45.50 41.98 45.73 48.25 48.79 43.34 20.96 38.45 42.14 50.66 47.74 43.30 43.41 44.03 49.91 47.25 39.46 40.07 39.78 36.34 38.71 38.59 35.81 37.32 39.14 34.98 39.16 36.35 35.29 30.45 28.12
50.83 51.35 51.31 51.12 50.79 50.41 50.29 50.27 50.22 49.66 48.87 49.29 49.65 50.12 50.79 48.02 47.30 46.63 46.90 48.23 44.19 28.32 20.31 35.96 41.26 40.86 40.00 42.28 42.89 43.90 45.00 47.31 46.12 41.33 40.68 38.44 42.92 39.90 38.50 40.08 39.59 39.77 35.70 33.82 32.82 29.45 19.15
50.29 50.83 51.06 50.77 50.49 50.18 50.12 49.92 50.01 49.40 49.25 49.56 50.11 50.66 49.59 49.27 43.11 48.30 46.76 41.89 26.10 22.17 34.93 33.66 37.04 39.69 38.64 38.76 38.90 39.92 39.68 37.38 33.90 31.03 31.53 37.31 37.98 40.60 40.68 35.69 38.13 38.52 29.53 17.38 21.15 23.41 18.80
49.79 50.09 50.62 50.36 50.24 50.10 49.97 49.81 49.56 49.74 50.18 50.45 50.32 51.28 48.35 48.86 47.94 48.10 42.11 31.86 18.58 32.53 33.14 39.59 38.91 38.84 35.79 38.65 37.55 38.85 37.48 32.70 37.58 34.95 28.80 25.98 23.14 35.98 38.86 35.93 33.28 33.10 30.91 19.30 15.84 17.41 21.59
49.93 49.97 50.26 50.31 49.76 49.93 49.91 49.74 49.49 49.64 50.27 51.11 51.32 45.58 46.85 46.66 48.07 45.05 38.60 23.46 27.16 32.83 37.45 36.94 37.08 34.21 34.44 37.38 37.27 37.09 36.30 34.27 35.77 36.08 28.50 26.70 29.09 39.81 40.20 39.76 38.25 32.43 24.94 32.41 23.45 23.69 15.72
49.58 49.83 49.80 50.06 49.42 49.73 49.65 49.51 49.39 50.65 51.66 50.80 44.24 42.65 44.71 47.67 46.99 42.97 34.46 30.78 30.98 37.86 39.72 38.99 32.42 34.43 31.63 34.12 33.72 33.33 34.54 37.11 37.03 38.55 37.87 35.60 29.57 37.36 39.79 41.42 40.07 34.62 35.83 26.02 22.25 11.50 15.03
49.26 50.11 50.29 50.05 48.77 49.23 49.26 49.37 48.91 50.72 52.30 50.39 40.62 38.95 44.78 48.07 45.31 38.91 28.20 32.15 34.03 41.01 41.14 37.90 34.89 33.72 33.98 33.61 34.46 33.68 33.04 37.79 38.77 37.70 39.92 38.25 34.25 32.14 37.70 33.23 30.98 32.37 32.43 33.24 28.68 25.50 19.27
49.73 49.90 49.94 49.56 48.45 49.22 48.77 49.27 48.84 50.55 52.15 45.92 37.51 31.23 43.57 46.52 33.77 36.38 34.05 37.41 36.83 38.01 42.28 40.40 37.63 35.66 34.09 35.18 33.85 33.65 32.08 35.27 40.58 40.30 34.58 38.70 33.62 26.83 28.10 35.17 37.60 34.64 31.49 29.81 19.65 19.21 23.32
49.45 49.24 48.97 49.34 49.20 48.60 48.39 48.91 48.54 49.92 50.98 44.95 35.31 35.30 46.22 45.63 31.84 33.73 37.87 36.68 38.04 40.29 41.18 40.60 37.87 38.25 38.02 35.29 30.72 35.83 35.45 39.82 41.79 40.05 37.81 37.44 28.43 17.87 25.53 29.84 33.64 31.63 33.85 33.43 31.21 30.09 22.18
48.52 48.67 48.49 48.04 48.17 48.47 48.38 48.35 48.19 49.50 50.44 44.96 36.01 27.85 36.26 41.67 41.16 35.12 35.82 35.36 35.83 43.37 41.43 41.21 38.83 39.62 38.76 36.93 37.12 35.44 35.11 38.55 40.22 41.08 44.39 40.33 31.85 24.27 20.44 27.20 31.45 25.25 31.70 32.67 31.45 27.66 26.64
48.57 48.30 48.03 47.67 48.10 48.31 48.13 47.65 47.87 49.37 50.31 47.69 40.95 33.30 36.98 30.82 37.04 38.09 39.39 37.95 37.80 37.48 42.20 42.95 40.41 39.64 38.51 35.05 35.61 35.15 36.98 36.14 38.65 41.87 38.25 35.43 23.95 27.76 30.69 32.81 30.07 29.66 30.91 32.44 30.97 31.98 29.12
48.26 48.00 47.78 47.45 47.07 47.00 47.19 47.04 46.93 48.40 49.09 41.89 38.29 38.74 39.38 35.31 40.74 37.71 38.78 38.20 38.30 38.75 39.61 37.54 37.35 39.01 38.40 36.28 35.24 34.80 36.94 35.45 34.29 36.03 34.86 35.92 26.61 27.17 24.47 32.23 32.57 29.85 32.83 33.03 33.18 33.50 33.92
47.71 48.05 47.48 47.37 46.59 45.97 45.51 45.71 46.28 47.01 46.66 41.99 43.76 44.16 41.63 36.91 36.39 35.98 35.78 37.72 38.34 39.24 41.15 41.18 40.48 39.48 38.03 38.92 40.03 39.05 39.02 38.72 38.50 35.08 33.99 34.34 29.42 23.60 18.66 30.68 30.62 29.11 32.80 33.93 36.48 39.09 38.59
47.35 48.13 47.40 46.95 46.39 45.75 45.37 45.19 45.56 46.48 46.05 43.25 43.43 42.65 38.87 34.00 35.06 35.83 39.88 39.70 38.92 39.05 37.88 41.19 42.65 39.54 41.84 44.78 43.48 42.43 40.67 39.92 38.52 36.95 37.36 34.79 31.45 30.13 23.73 28.64 23.82 35.69 41.16 40.33 37.71 38.69 39.99
47.09 48.25 47.35 46.86 46.38 45.71 45.24 45.21 45.21 46.12 46.24 42.79 44.20 42.53 40.69 34.74 35.74 37.02 38.75 39.31 39.38 40.18 40.35 41.41 42.54 43.11 43.97 41.72 38.46 33.32 34.18 35.01 36.01 37.28 38.73 39.68 35.92 27.96 26.53 25.34 30.43 35.74 38.73 39.00 36.49 35.84 40.97
46.96 48.20 46.65 46.60 46.28 45.65 45.24 45.27 45.01 45.49 45.76 43.64 43.81 45.92 42.88 38.11 35.76 42.13 39.30 41.34 38.16 38.46 38.79 41.38 44.70 45.11 43.19 39.46 34.67 30.26 27.79 31.97 31.63 34.38 39.70 38.82 38.52 34.18 29.92 25.87 23.17 32.40 39.12 41.21 41.28 32.55 40.67
46.86 47.65 45.94 46.56 46.32 45.64 45.31 44.85 44.80 44.94 45.49 43.60 43.03 45.71 41.93 40.20 42.14 43.81 38.80 38.91 42.75 40.87 39.09 41.46 42.25 41.82 41.86 35.76 32.28 28.83 28.88 33.75 29.36 30.93 31.41 34.87 34.67 30.64 29.57 28.02 29.53 37.13 40.61 43.10 31.49 33.37 39.60
46.26 47.53 45.91 46.10 46.17 45.69 45.14 44.44 44.91 44.41 44.81 43.28 42.07 45.48 41.28 40.07 42.44 46.66 46.67 42.60 42.52 41.96 38.93 39.75 39.74 40.87 38.23 36.23 32.66 31.52 30.78 33.46 32.89 34.01 33.27 32.09 31.47 32.00 32.78 29.68 24.14 40.17 41.16 37.40 39.49 40.54 40.03
46.01 47.25 45.41 45.97 45.90 45.45 44.89 44.66 44.71 44.60 44.29 44.62 40.21 44.70 44.71 39.79 42.07 46.57 47.68 48.72 45.88 47.12 42.73 40.74 42.03 38.97 41.61 36.57 34.67 35.86 34.58 33.24 32.21 28.60 36.66 32.38 34.22 33.20 32.04 31.47 38.34 41.67 41.29 40.82 40.95 39.61 38.49

GFSGBSN_sfc_wetblb_042.txt.gz
Wetbulb
55.90 55.28 55.21 54.78 55.02 55.79 54.86 54.24 54.11 54.25 54.43 54.33 54.16 53.86 53.49 53.39 53.26 53.03 53.03 52.45 52.53 52.76 54.34 56.48 57.65 58.33 54.72 47.31 47.61 56.89 62.31 63.15 61.11 59.15 55.07 53.52 50.45 47.33 43.59 44.52 45.39 41.56 43.67 47.06 48.36 48.39 46.79
55.04 54.78 55.28 55.69 54.53 53.92 54.17 54.18 53.77 53.59 53.61 53.64 53.30 52.91 52.67 52.75 52.74 52.62 52.43 52.59 52.44 52.62 53.53 55.28 56.97 57.75 50.89 41.18 54.25 57.65 58.40 59.91 59.38 57.77 55.59 54.97 51.78 49.43 45.47 44.55 43.76 44.85 45.68 45.61 46.86 46.71 46.55
54.42 54.59 54.83 53.47 53.56 54.14 54.16 53.76 53.24 53.04 52.85 52.79 52.64 52.26 52.19 52.31 52.09 52.26 52.31 52.40 52.51 52.32 53.16 54.39 56.03 54.88 48.21 44.75 52.88 56.27 57.32 56.54 57.83 57.65 54.29 55.46 54.64 49.02 47.65 44.32 47.73 45.66 41.85 43.46 44.60 45.32 44.68
53.79 55.10 53.69 53.37 53.43 53.72 53.54 53.09 52.66 52.46 52.34 52.18 51.98 51.88 51.84 51.83 51.54 51.70 51.96 51.85 51.78 52.08 52.78 53.72 54.99 53.76 43.79 53.94 53.52 52.52 52.18 51.65 54.07 56.49 57.18 58.03 56.34 50.91 47.89 47.26 45.02 42.03 40.83 36.33 42.57 44.60 45.45
54.82 53.30 53.68 53.00 53.56 53.37 53.03 52.53 52.07 51.94 51.85 51.61 51.27 51.38 51.37 51.29 51.30 51.29 51.27 51.61 52.05 52.20 52.62 53.31 50.16 49.82 41.94 55.86 49.97 52.45 51.57 50.20 52.32 54.92 55.66 58.10 55.43 49.98 47.78 41.47 37.51 38.17 32.31 35.43 38.99 45.00 44.21
53.18 53.26 53.61 53.22 53.08 52.83 52.44 52.08 51.73 51.58 51.46 51.22 50.81 50.81 50.90 50.93 50.70 50.80 51.07 51.30 51.36 51.07 50.03 51.04 50.49 43.96 46.42 45.06 50.23 51.67 51.13 51.28 50.70 52.98 52.05 51.92 50.15 45.72 44.84 40.41 32.54 33.94 33.09 33.91 35.57 40.35 41.16
52.84 53.20 52.59 52.78 52.50 52.20 52.00 51.80 51.43 51.39 51.01 50.73 50.70 50.48 50.58 50.46 50.74 50.79 48.52 44.18 39.10 40.06 43.90 43.10 44.36 43.69 45.37 50.05 51.71 50.04 50.74 49.04 50.64 48.82 42.78 48.07 42.44 39.18 42.37 43.00 40.14 38.29 38.21 37.99 37.37 40.84 37.13
52.75 53.07 52.04 52.32 52.21 51.96 51.79 51.45 51.17 50.84 50.70 50.58 50.16 50.20 50.32 50.72 51.03 50.84 47.47 40.08 39.88 42.27 35.23 44.23 45.50 46.37 49.12 49.65 44.05 47.85 51.30 46.13 44.27 41.49 44.38 43.63 39.46 42.29 44.25 43.96 41.59 39.30 37.56 34.77 36.75 39.43 36.84
51.91 51.76 52.21 52.24 52.05 51.79 51.43 51.13 50.99 50.86 50.50 50.14 50.10 50.09 50.37 50.79 50.79 46.82 44.53 41.82 46.49 45.80 36.28 39.85 45.26 44.83 46.39 48.20 43.23 44.18 48.76 46.81 42.96 40.74 38.42 38.40 40.17 44.35 43.23 41.49 40.37 37.74 32.50 32.06 33.21 36.19 35.11
51.79 51.22 52.31 52.03 51.80 51.31 50.97 50.85 50.83 50.68 50.37 49.48 49.48 49.99 50.41 50.77 46.75 46.07 42.38 46.22 47.39 46.63 30.01 34.45 40.60 45.44 47.23 47.57 41.58 48.45 50.74 46.96 43.35 39.81 39.85 37.82 41.15 40.95 40.20 38.76 36.55 32.90 37.03 36.51 34.75 31.25 25.49
51.19 50.74 51.85 51.53 51.20 50.97 50.83 50.76 50.41 50.47 49.81 49.60 49.66 49.89 50.59 50.77 46.08 42.54 45.42 47.82 47.64 42.64 12.24 37.75 40.69 50.94 47.50 43.31 43.01 44.36 49.80 46.86 39.83 40.52 40.29 35.87 37.86 36.99 35.73 37.30 39.30 34.33 38.01 35.35 33.89 29.27 26.57
50.47 50.65 51.07 51.31 50.87 50.21 50.65 50.54 50.36 49.90 50.36 50.52 50.59 50.80 50.86 48.60 46.27 46.56 48.67 47.36 43.06 27.49 16.39 35.75 41.84 41.12 40.58 41.71 42.09 44.11 45.17 46.79 46.34 41.43 40.43 37.48 41.58 39.49 37.89 39.18 38.79 38.89 34.64 32.22 31.37 26.97 17.68
50.22 50.57 50.32 51.02 50.51 49.95 50.37 50.27 49.96 50.41 50.96 51.09 51.20 51.10 50.08 49.08 43.63 48.71 47.82 42.96 23.12 20.89 32.89 32.70 36.63 39.70 38.33 37.52 38.99 41.11 40.00 36.61 34.60 32.68 32.66 37.16 36.67 39.36 40.42 35.32 37.80 35.29 28.50 18.46 15.77 14.33 17.71
49.96 50.34 50.66 50.95 49.91 49.90 50.07 49.93 50.18 50.43 51.54 51.79 51.63 50.70 47.95 48.57 48.61 46.17 42.26 31.61 19.74 29.52 32.88 39.07 38.14 38.38 35.62 37.98 38.03 39.40 37.44 33.54 37.12 34.12 30.95 27.86 23.50 35.32 38.21 35.56 32.96 32.72 29.38 19.66 14.79 17.44 20.18
49.80 50.56 50.80 50.62 49.28 50.06 50.06 49.86 49.76 51.21 52.20 50.85 48.85 46.22 45.50 46.29 47.26 44.27 36.75 21.55 25.76 31.04 36.67 36.87 37.41 35.26 34.87 36.83 37.55 36.99 36.04 33.34 35.65 34.93 28.10 24.83 26.52 38.23 38.68 38.74 36.84 31.83 25.54 31.24 22.50 21.23 15.66
50.05 50.42 50.06 50.19 49.17 49.92 49.28 49.79 49.43 51.77 52.10 50.63 41.85 42.86 43.36 48.44 46.41 42.61 33.52 30.41 31.31 34.66 39.70 38.79 31.95 34.38 31.63 33.89 33.90 34.83 34.32 36.69 35.39 37.77 36.63 33.41 25.55 36.55 38.99 40.40 39.88 33.59 35.08 22.95 17.84 10.78 13.44
49.87 49.68 49.19 49.54 48.72 48.13 48.64 49.37 48.94 50.55 51.98 49.30 39.02 38.58 42.91 47.28 45.16 38.12 29.42 32.84 34.46 39.47 40.84 37.01 33.76 32.33 33.75 32.90 33.41 33.23 33.37 36.36 37.84 36.36 38.02 35.31 30.52 31.09 37.87 32.21 30.94 33.19 30.65 28.91 27.07 23.32 18.26
49.35 49.17 48.98 48.30 48.01 48.60 49.02 48.78 48.57 49.55 51.39 45.69 36.10 30.59 42.81 47.41 33.51 36.53 32.97 35.29 35.61 37.19 41.85 39.79 36.83 36.15 34.18 34.96 32.51 32.39 31.49 33.74 38.91 38.28 34.32 37.79 30.82 20.59 30.59 33.86 35.91 33.62 30.75 28.57 17.81 16.54 20.60
49.01 48.80 48.52 48.12 47.90 48.18 48.44 48.30 48.28 48.79 49.77 46.07 33.82 36.62 44.76 44.70 32.42 31.16 37.18 36.48 36.80 40.04 39.97 39.02 35.84 36.75 36.98 33.91 30.75 32.92 34.14 39.06 40.13 39.28 35.87 35.99 26.68 17.86 24.24 29.39 32.70 30.17 32.26 31.65 29.59 29.49 17.30
48.72 48.72 48.18 47.83 47.33 46.83 46.61 46.88 47.57 48.23 49.42 43.18 34.45 26.28 37.13 41.42 40.65 35.93 33.42 35.49 36.91 41.38 40.31 39.35 36.72 38.44 36.90 33.85 35.38 34.24 33.11 38.00 41.48 41.66 44.10 39.69 30.04 24.60 21.04 23.11 27.52 23.34 30.34 31.75 30.90 26.33 22.76
48.08 48.72 47.89 47.82 47.21 46.53 46.09 46.05 46.83 47.97 48.78 46.60 38.66 31.86 35.53 31.09 37.77 38.61 38.73 38.03 36.94 36.76 40.37 40.25 38.28 38.39 37.08 33.42 34.86 33.61 35.21 35.57 39.34 41.58 39.35 34.60 24.22 26.20 28.69 31.70 28.70 28.80 29.76 30.69 25.38 30.31 23.59
47.53 48.57 47.92 47.62 47.05 46.51 45.88 45.68 46.24 47.67 47.63 41.59 37.27 36.92 39.34 38.08 39.86 35.31 36.90 36.06 36.57 37.73 38.00 36.55 36.19 37.94 37.55 35.03 33.90 33.14 34.65 33.74 33.23 35.42 34.06 34.47 22.62 26.11 24.51 31.28 31.20 28.03 30.96 31.17 31.52 32.23 32.51
47.17 48.21 47.77 47.54 47.00 46.30 45.71 45.54 45.65 46.81 45.82 40.56 42.81 43.93 41.01 36.52 35.31 32.90 33.66 35.69 37.67 38.11 40.03 40.94 39.53 38.20 37.43 38.37 39.31 38.07 38.10 37.90 36.94 34.16 33.09 32.43 27.45 23.87 20.91 28.63 28.70 25.82 30.87 32.24 32.71 33.73 34.84
46.78 47.80 47.97 47.34 46.94 45.91 45.72 45.42 45.39 45.69 45.59 42.55 42.52 42.20 38.30 32.61 33.89 34.50 37.66 38.61 38.05 38.17 37.15 40.38 41.53 39.02 41.26 43.26 42.27 41.68 40.75 38.36 37.54 35.75 36.59 31.86 30.37 27.57 20.22 26.06 19.31 35.34 39.56 38.88 34.80 36.81 39.02
46.70 47.49 47.56 46.95 46.98 46.15 45.53 45.15 45.27 45.12 45.89 42.40 43.38 41.99 39.84 34.14 35.07 36.17 38.26 38.28 38.58 39.42 40.05 40.57 41.87 42.22 43.31 41.40 36.13 32.47 33.04 35.44 35.17 36.89 38.28 38.49 35.24 28.51 21.91 22.39 29.10 35.69 38.73 37.78 35.30 35.29 39.32
46.29 47.13 47.82 46.03 46.79 46.26 45.46 45.04 44.75 44.94 45.27 42.93 43.04 45.58 42.10 38.07 33.88 40.44 38.56 38.50 36.12 36.80 37.24 39.88 43.28 44.37 42.59 38.74 34.52 30.07 28.99 32.09 31.79 34.90 39.29 38.79 38.52 31.16 25.80 24.37 23.83 33.26 37.69 40.51 39.77 32.48 39.93
46.24 46.56 47.89 45.92 46.42 46.28 45.51 44.71 44.66 44.73 44.47 42.74 42.25 45.14 41.02 39.08 41.56 40.52 35.38 36.66 40.62 39.51 37.64 41.04 41.62 39.91 40.73 35.58 31.16 28.53 28.53 33.49 29.45 30.84 33.13 34.43 34.22 29.45 28.47 25.61 29.80 36.51 38.59 42.12 31.07 34.26 39.55
46.10 46.28 47.46 45.51 46.01 45.84 45.24 44.78 44.43 44.40 44.31 42.39 41.29 44.91 40.77 39.19 40.87 44.51 45.30 41.49 40.81 40.81 38.03 38.90 39.55 38.99 37.70 33.07 30.80 30.59 30.21 32.27 30.49 32.72 32.68 32.32 30.38 29.76 30.84 28.37 23.90 40.08 40.15 37.72 39.07 39.71 39.34
46.20 45.98 47.01 45.64 45.79 45.93 44.84 45.39 45.26 44.87 43.48 43.90 39.36 44.30 44.60 38.86 40.79 44.18 45.89 47.75 46.73 46.33 42.84 39.46 40.48 37.85 40.46 35.50 33.22 35.01 34.68 33.37 30.86 27.43 34.99 32.01 32.67 32.12 32.76 31.74 37.66 38.66 41.30 43.33 41.00 38.62 37.76

GFSGBSN_sfc_wetblb_045.txt.gz
Wetbulb
55.01 54.90 55.23 55.31 54.32 54.12 54.85 54.62 54.35 54.02 53.90 53.76 53.49 53.34 53.25 53.50 53.22 53.13 52.97 53.08 52.91 52.77 52.50 52.83 54.40 56.49 54.94 46.48 45.84 55.41 61.11 62.82 60.12 59.50 55.59 52.37 48.50 47.01 43.55 44.19 44.40 41.59 43.19 46.29 47.69 47.67 46.18
54.71 54.79 55.68 54.00 53.93 53.89 54.59 54.28 53.82 53.28 53.19 53.14 52.86 52.65 52.48 52.54 52.36 52.20 52.41 52.47 52.51 52.63 52.86 52.77 54.04 55.67 50.38 40.17 52.51 55.23 56.39 58.94 58.70 57.08 54.10 53.58 50.23 49.27 45.59 43.98 43.45 44.56 45.35 45.50 46.01 45.73 45.80
54.63 55.53 54.13 54.13 53.22 54.39 54.02 53.60 52.85 52.59 52.54 52.57 52.36 52.09 51.98 52.06 52.07 51.94 52.09 52.29 52.00 52.19 52.61 52.84 53.42 52.47 48.14 44.78 52.17 54.73 58.35 58.05 58.81 57.64 53.84 54.96 53.26 48.50 46.58 43.45 46.36 44.79 40.95 42.20 43.71 44.57 44.21
54.40 54.23 54.10 54.11 54.07 53.70 53.26 52.64 52.36 52.38 52.27 52.03 51.79 51.59 51.39 51.39 51.58 51.68 51.82 52.11 51.75 51.68 52.06 52.67 53.39 50.94 45.29 53.40 53.90 51.72 52.10 53.81 57.64 57.94 56.41 56.83 55.37 50.83 46.81 46.47 44.04 41.43 40.11 35.67 41.76 44.26 44.67
54.37 53.94 53.87 53.16 53.58 53.23 52.89 52.43 52.03 52.02 51.76 51.60 51.46 51.36 50.90 51.02 51.34 50.98 51.23 51.54 51.69 51.95 52.06 52.36 48.90 47.30 42.74 55.24 49.55 51.56 51.23 49.92 51.56 54.09 56.56 57.53 54.79 48.48 46.43 41.43 36.75 36.86 31.87 34.81 38.49 43.67 42.94
53.43 53.67 53.53 52.91 53.12 52.98 52.81 52.29 52.13 51.81 51.48 51.19 51.03 50.79 50.67 50.67 50.82 50.96 51.36 51.58 51.56 50.38 49.18 49.75 48.73 44.61 46.50 44.55 49.81 51.15 51.01 51.24 50.23 52.14 51.79 52.02 50.12 43.66 42.93 39.05 31.43 32.93 32.45 32.43 34.71 38.72 39.78
53.53 52.55 52.50 53.12 53.03 52.73 52.37 51.98 51.75 51.72 51.43 51.10 50.72 50.54 50.55 50.43 50.86 51.11 49.28 43.38 38.92 37.45 42.28 38.40 41.61 42.52 45.49 49.80 52.34 49.48 50.25 48.64 52.08 48.75 44.31 48.13 43.02 39.78 41.65 41.11 38.28 37.53 36.20 34.86 37.06 39.97 36.04
53.20 52.63 52.16 53.11 52.63 52.20 51.88 51.69 51.60 51.50 51.13 51.01 50.47 49.75 50.18 50.46 50.90 50.99 46.98 40.90 39.84 40.58 33.70 41.32 42.72 45.85 48.55 49.67 44.19 47.38 50.60 44.83 46.43 42.80 44.43 44.05 39.61 43.53 45.57 44.55 42.21 40.34 36.54 33.86 36.36 38.22 35.78
52.34 51.79 51.64 52.19 52.30 51.90 51.36 51.59 51.53 51.03 50.74 50.44 49.92 49.58 49.92 50.43 50.82 46.55 43.34 41.34 45.45 44.34 34.71 38.24 42.78 44.73 46.20 48.07 43.82 44.21 47.47 46.94 43.73 41.88 41.45 38.35 40.73 45.29 43.38 41.83 40.24 37.77 33.65 32.13 32.75 35.55 34.13
51.59 51.12 51.37 51.81 51.95 51.37 50.78 51.15 50.97 50.68 50.55 50.69 50.73 50.80 50.34 50.26 46.39 46.32 42.19 46.84 45.69 45.36 21.63 33.04 37.49 43.83 46.50 47.19 41.48 48.05 50.06 46.93 43.88 39.36 40.38 39.17 40.51 41.97 40.84 39.31 38.97 32.72 37.62 35.94 33.87 31.20 26.10
51.15 51.21 50.86 51.00 51.55 50.32 50.82 50.85 50.62 51.00 51.36 51.25 51.45 51.18 50.81 50.48 44.57 43.49 45.08 47.84 46.62 42.20 2.94 34.39 39.68 50.15 47.60 42.71 42.60 43.48 49.77 46.39 39.97 39.76 38.48 35.54 37.47 37.96 37.97 38.89 39.20 34.67 37.54 34.90 33.13 28.31 25.29
50.66 50.88 51.24 51.61 51.19 49.58 50.62 50.51 50.73 51.19 52.05 52.09 51.93 51.25 50.52 48.38 46.87 47.04 48.72 47.62 41.85 21.36 16.82 33.39 40.48 39.72 39.68 42.03 41.83 44.09 45.20 46.78 45.87 40.75 39.90 36.45 40.79 39.15 37.22 38.43 39.25 39.10 33.67 31.07 29.46 26.28 18.28
50.38 50.64 51.31 51.22 50.30 49.77 50.53 49.95 50.51 51.32 52.24 51.27 51.24 51.30 49.20 48.59 41.22 48.66 47.77 42.69 20.45 12.01 33.60 32.56 35.29 39.56 37.56 38.39 40.23 41.40 39.72 37.57 35.98 32.91 32.70 35.96 35.88 38.96 39.89 35.05 37.28 34.41 29.33 17.97 15.55 14.51 17.67
50.02 50.98 50.68 50.16 50.45 49.59 49.35 50.09 49.85 51.21 52.17 51.25 50.34 49.05 48.32 46.76 48.24 47.34 41.93 29.60 16.73 28.84 30.26 39.24 38.92 38.30 36.41 38.32 39.16 39.44 36.27 34.25 37.43 36.08 31.91 28.33 27.36 34.98 37.17 35.14 32.99 31.15 29.27 20.32 16.07 15.41 19.08
49.80 50.57 49.83 49.72 49.15 48.89 49.53 49.64 49.33 50.24 51.71 51.56 48.82 43.53 43.96 46.89 47.19 45.04 38.50 24.80 25.11 29.48 33.58 37.05 37.77 34.97 34.67 36.85 38.01 37.42 35.99 34.19 35.75 34.68 28.53 25.49 26.22 37.01 38.06 37.96 36.51 31.27 23.60 29.92 22.10 19.43 15.79
49.85 49.98 49.62 49.19 49.10 49.63 49.40 49.34 49.25 49.63 50.91 50.66 40.07 40.42 41.29 46.92 46.66 42.32 33.51 29.41 31.03 33.80 36.16 37.72 32.58 35.17 30.91 33.26 35.39 33.78 34.38 36.91 35.46 36.98 35.94 31.96 26.66 35.98 37.44 39.15 38.29 32.87 34.09 23.93 17.74 9.81 13.39
49.34 49.93 49.28 48.94 48.55 47.97 48.00 48.29 48.80 49.39 50.41 48.43 37.38 34.22 41.37 45.93 43.39 34.74 28.73 31.80 33.86 38.57 41.36 36.55 32.75 32.31 32.36 31.63 34.66 32.72 33.39 35.92 37.42 36.17 36.99 34.45 30.70 32.89 37.28 31.81 31.07 31.39 27.76 27.64 26.31 22.63 16.90
49.09 49.66 49.10 48.76 48.22 47.46 47.19 47.31 48.24 49.01 50.07 46.13 34.95 26.25 41.48 44.62 29.66 34.53 34.07 35.66 36.77 38.25 40.84 38.99 36.44 35.65 32.99 33.05 32.43 33.21 31.86 34.18 38.52 37.82 33.49 34.99 29.86 29.50 31.66 33.29 35.03 33.26 30.19 27.80 18.19 16.70 24.07
48.70 49.27 48.77 48.53 47.98 47.33 46.87 46.91 47.65 48.68 49.39 45.90 32.59 33.05 42.70 41.56 31.42 33.20 35.41 36.33 37.96 39.02 39.14 37.66 34.55 36.01 35.47 32.98 29.80 32.33 33.38 38.51 39.01 37.61 35.11 35.00 25.94 18.09 23.28 29.12 31.75 29.36 31.40 29.87 27.53 24.13 14.65
48.21 48.60 48.71 48.32 47.96 47.20 46.54 46.44 47.01 48.25 49.07 43.79 34.02 27.81 34.30 38.98 40.61 36.38 34.68 35.98 36.01 39.97 38.42 37.80 35.82 37.48 34.98 33.35 34.49 32.44 32.65 37.75 39.64 39.42 43.31 38.76 28.45 24.01 19.23 22.71 27.22 24.01 29.64 30.11 27.25 19.28 21.70
47.68 48.09 49.16 48.14 48.01 47.18 46.48 46.15 46.42 47.57 48.23 43.23 35.24 33.43 38.11 29.20 35.53 37.94 38.42 38.11 35.66 35.18 38.74 38.79 36.33 37.15 35.81 32.64 33.55 32.29 34.05 35.02 39.37 42.35 37.65 34.42 24.21 25.67 28.81 30.93 28.06 28.77 29.63 29.47 24.22 28.86 21.16
47.28 47.54 48.92 47.89 47.91 47.08 46.39 45.95 45.84 46.83 47.13 41.07 37.48 37.35 37.93 34.69 36.18 34.47 35.24 34.50 35.43 36.77 36.90 35.90 35.21 37.69 36.91 33.67 33.07 32.48 33.74 33.00 33.58 36.53 35.65 33.72 23.70 26.36 23.77 30.10 30.00 27.80 29.82 30.34 30.30 30.97 30.63
46.96 47.17 48.41 47.71 47.60 47.14 46.24 45.61 45.59 45.95 45.05 39.09 41.66 42.64 40.64 34.66 33.62 31.99 33.78 37.37 37.56 37.58 40.20 40.55 38.66 37.45 36.53 37.66 37.70 37.64 36.94 36.94 36.11 34.00 32.57 31.69 27.34 23.57 20.60 27.37 28.29 25.22 29.41 30.16 31.00 32.02 33.86
47.06 46.99 48.02 47.47 47.22 47.09 46.22 45.53 45.51 45.18 44.78 40.71 41.94 41.32 37.85 30.82 32.34 33.53 36.63 37.81 37.77 37.54 37.42 40.08 41.42 38.21 40.60 42.41 41.37 40.41 38.56 36.78 36.42 34.77 35.74 30.71 28.35 27.25 20.59 24.97 19.42 30.95 36.38 35.66 33.83 34.78 35.57
46.65 46.63 47.47 48.16 46.31 47.12 46.22 45.45 45.02 44.93 45.06 39.79 42.79 40.63 39.27 34.38 34.06 34.94 36.61 37.39 37.18 37.82 38.65 39.67 41.34 41.42 42.84 40.51 35.65 32.03 33.03 33.33 35.22 36.90 37.43 37.75 34.53 28.91 24.84 19.67 25.93 33.67 37.16 37.01 33.88 34.64 38.16
46.46 46.45 46.75 48.05 46.12 46.61 46.26 45.31 44.79 44.81 44.67 39.38 42.59 44.96 41.10 37.29 34.87 39.76 37.30 36.94 33.77 32.78 35.14 38.66 42.09 43.17 41.61 37.49 34.13 29.84 28.03 30.53 31.85 34.93 39.14 38.27 37.82 32.52 28.26 22.89 22.12 33.02 37.81 40.08 38.91 30.89 38.97
46.30 46.33 46.43 47.59 45.93 46.02 46.17 45.27 44.58 44.24 44.06 39.65 41.63 44.54 39.95 37.85 39.56 40.44 34.42 35.59 38.41 35.87 36.03 40.12 40.85 38.27 39.66 34.19 30.20 27.24 27.99 34.35 28.74 31.11 32.53 34.24 34.58 29.99 28.58 25.21 28.00 35.79 38.98 41.22 29.39 34.70 38.96
45.52 46.27 46.27 46.86 46.15 45.50 46.31 45.12 44.35 44.51 44.07 40.79 40.93 44.76 40.35 37.64 39.66 42.41 44.09 39.16 39.06 38.60 36.71 38.13 38.09 37.42 35.73 31.86 30.05 29.50 28.79 31.50 29.81 33.22 32.68 32.40 31.30 29.65 30.46 26.32 22.56 38.31 40.69 37.40 39.73 40.53 38.55
45.66 45.73 45.90 46.30 45.79 45.06 45.80 45.55 45.77 45.26 44.39 42.88 38.33 43.99 44.17 37.85 39.39 42.97 43.16 44.77 44.43 44.24 42.72 40.86 39.50 39.10 40.46 36.54 32.14 34.28 33.69 34.40 31.98 27.21 34.55 31.50 32.82 31.39 30.39 29.69 37.26 38.62 39.50 42.53 41.99 38.77 37.30

GFSGBSN_sfc_wetblb_048.txt.gz
Wetbulb
55.17 55.24 56.15 55.01 55.28 54.35 54.99 54.81 54.18 53.82 53.47 53.24 53.15 53.17 53.07 53.02 52.90 52.71 52.64 52.66 53.12 53.12 53.08 52.97 52.81 53.22 52.65 45.87 44.85 54.03 59.40 59.24 57.74 58.15 55.49 51.86 48.96 46.28 42.77 43.85 43.96 41.56 42.88 46.15 47.38 47.44 45.91
55.16 55.11 54.58 54.64 54.60 54.69 54.58 54.33 53.37 52.96 53.00 52.85 52.76 52.43 52.37 52.21 52.06 52.11 52.18 52.24 52.29 52.49 52.72 52.83 52.77 52.89 48.76 41.63 52.53 53.50 53.57 58.20 56.40 57.03 55.00 52.73 50.04 48.96 45.68 43.90 42.63 44.47 44.94 44.65 45.47 45.40 45.07
54.70 55.06 54.64 54.24 54.12 53.90 53.96 53.69 53.03 52.80 52.69 52.58 52.45 52.07 51.88 51.57 51.59 51.71 52.08 52.01 51.85 52.16 52.31 52.30 52.47 50.57 46.24 45.35 52.18 52.17 56.29 56.80 57.36 57.40 53.76 53.69 52.51 49.04 46.35 42.94 46.14 43.96 40.54 41.82 43.11 43.99 43.79
55.09 53.98 54.43 53.88 53.52 53.67 53.66 53.31 52.88 52.65 52.54 52.35 51.91 51.75 51.36 51.36 51.31 51.50 51.51 51.58 51.60 51.67 51.88 51.92 52.02 49.27 42.77 53.63 54.68 52.51 51.58 55.74 57.74 57.26 56.21 56.19 54.15 49.57 46.16 46.02 43.29 40.73 39.63 34.80 40.83 43.56 44.32
54.09 54.05 53.31 53.47 54.08 53.82 53.49 52.86 52.39 52.30 52.25 52.16 51.90 51.57 51.22 50.99 51.10 51.14 51.31 51.74 51.93 51.98 52.10 51.50 46.93 46.02 41.69 54.39 49.57 51.78 50.93 52.29 55.19 55.31 56.03 56.56 53.52 47.78 45.51 39.93 36.61 37.87 30.99 33.77 38.33 42.86 41.61
53.32 53.84 52.95 52.63 53.23 53.40 53.18 52.32 52.36 52.19 52.26 51.89 51.56 51.23 50.88 50.75 50.91 50.89 51.20 51.20 51.15 49.66 48.55 49.00 47.41 41.10 46.40 43.93 49.35 50.51 51.33 51.99 50.72 52.20 51.69 50.91 48.25 43.85 40.52 39.12 30.62 34.12 31.84 32.15 34.47 37.93 38.69
53.39 52.82 52.53 52.31 52.61 52.89 52.70 51.86 52.08 52.21 51.76 51.22 50.73 50.51 50.08 49.88 50.65 51.00 49.19 43.78 37.49 36.02 41.06 36.40 38.96 40.88 45.03 48.99 51.51 49.22 49.79 50.06 51.53 49.38 44.81 47.56 43.06 39.06 40.76 40.09 38.14 36.83 35.02 33.72 35.75 39.35 35.57
52.42 52.28 51.95 52.15 52.58 52.52 51.71 51.51 51.78 51.63 51.39 51.36 51.30 50.84 50.55 49.82 50.63 50.91 46.00 39.73 38.31 40.45 33.12 39.81 40.81 42.15 45.23 49.66 43.83 46.80 50.17 45.13 46.14 42.26 45.59 42.59 39.68 44.08 44.05 43.28 40.26 37.94 35.08 32.82 35.98 37.43 34.91
52.16 51.93 51.84 51.77 52.10 52.14 50.49 51.58 51.50 51.51 51.85 52.07 52.07 51.66 51.08 50.63 50.14 45.79 42.17 41.40 44.34 43.41 34.18 37.68 41.84 42.58 45.42 47.87 43.59 43.92 47.26 46.55 43.94 42.34 42.00 39.10 41.59 45.34 43.64 42.15 40.64 39.19 36.92 34.31 32.98 34.49 33.13
51.78 51.38 51.77 52.27 52.32 50.65 50.63 51.41 51.02 51.84 52.09 52.24 51.75 51.87 51.56 50.38 44.97 46.27 41.89 46.69 44.98 46.42 16.48 32.01 36.77 42.99 45.74 47.06 41.14 47.96 48.99 47.21 43.90 40.51 40.74 38.92 43.52 42.97 41.60 40.16 40.94 35.58 38.36 35.85 33.60 31.03 26.37
51.49 51.28 51.91 51.76 51.36 49.95 50.93 50.29 51.63 51.45 52.12 51.65 51.98 52.01 50.73 49.09 44.71 42.69 45.01 47.15 46.78 40.35 1.02 33.41 38.11 49.36 47.51 42.55 43.03 43.83 49.49 46.82 40.87 40.55 40.86 35.80 40.21 40.52 39.33 40.08 41.38 34.98 37.28 34.31 32.16 28.44 24.52
51.19 51.11 51.74 50.66 50.89 49.67 49.46 50.87 50.88 51.32 51.78 51.29 51.33 51.39 50.20 47.44 46.23 46.75 46.82 45.52 40.10 18.69 11.73 31.87 39.88 38.00 39.90 41.30 42.20 44.53 45.15 47.18 45.95 40.50 39.74 37.44 41.39 40.13 38.31 38.37 39.60 37.88 33.16 30.90 28.68 26.23 18.50
50.45 51.14 51.09 50.56 49.81 49.82 50.38 50.41 50.31 50.78 51.26 51.47 50.23 50.03 48.38 47.68 41.19 48.62 47.42 39.26 17.88 13.26 33.24 32.31 34.30 38.56 38.71 38.25 39.68 41.48 39.93 37.47 36.87 32.13 30.33 36.12 36.25 39.60 39.64 34.65 37.19 34.48 31.40 25.94 16.62 15.70 18.13
50.15 50.80 50.50 50.23 49.75 49.23 49.50 49.58 49.70 50.24 50.95 51.98 50.20 49.09 47.88 47.36 48.92 45.08 42.10 29.39 14.36 28.42 30.06 37.17 37.71 38.67 36.33 38.64 38.85 39.25 37.25 34.19 37.25 35.70 30.59 27.12 29.20 36.19 37.41 35.05 32.45 29.48 29.20 20.86 15.55 16.36 19.47
49.91 50.44 50.16 49.89 49.64 48.92 48.63 48.65 49.31 49.44 50.94 51.42 48.11 41.99 44.51 46.74 46.55 43.56 34.27 19.98 20.97 28.53 33.07 34.35 37.11 34.45 34.96 37.79 38.28 37.05 34.42 33.13 35.33 35.82 29.92 26.24 26.47 36.22 37.46 36.97 35.92 30.78 24.11 29.95 21.93 19.31 15.72
49.58 50.32 49.95 49.65 49.39 48.58 48.29 48.34 48.73 49.18 49.98 50.03 39.17 38.06 39.56 46.33 47.11 40.25 27.24 28.20 29.80 34.07 36.79 37.77 32.07 33.42 30.01 34.96 33.95 34.55 34.29 36.03 35.77 37.12 35.31 30.81 26.46 34.50 36.02 37.88 36.89 33.07 33.46 23.27 18.04 13.54 14.62
49.25 49.83 50.23 49.41 49.06 48.30 47.90 47.84 48.35 49.14 49.82 48.35 36.50 33.28 39.97 45.16 42.00 33.93 28.86 31.34 33.79 38.13 39.35 35.25 32.14 31.68 31.73 33.15 33.86 31.85 32.43 35.35 38.09 35.44 36.83 33.75 30.42 32.10 36.77 31.36 30.29 30.25 26.48 27.11 25.75 22.56 17.34
48.95 49.37 50.14 49.13 48.84 48.09 47.64 47.37 47.82 48.88 49.47 44.19 33.94 27.54 40.53 42.81 32.42 34.16 34.06 36.19 38.39 37.87 39.85 36.98 36.18 34.77 32.16 32.35 31.57 31.63 31.31 33.58 38.48 38.10 33.48 34.32 30.99 29.61 30.19 32.46 34.00 32.29 29.35 27.02 18.38 16.91 23.67
48.70 48.89 49.54 49.18 48.66 48.07 47.42 47.03 47.25 48.23 49.09 45.64 32.53 32.30 41.15 40.89 32.79 34.08 35.44 36.29 38.13 38.17 38.35 35.84 34.80 35.76 34.70 31.79 29.34 31.78 33.07 37.87 38.93 37.33 34.53 34.15 25.93 18.73 27.43 31.20 31.96 29.84 31.09 28.82 26.39 22.91 14.58
48.31 48.39 48.97 49.29 48.42 47.87 47.23 46.66 46.70 47.40 48.58 43.13 33.41 29.08 34.85 37.97 40.14 37.29 36.07 36.64 35.82 39.21 37.26 36.50 35.16 36.45 34.49 32.51 33.82 31.86 32.79 37.99 38.59 38.44 42.51 37.68 27.96 24.49 19.82 23.60 27.62 24.57 29.49 28.88 25.97 18.30 20.22
48.23 48.02 48.34 49.46 48.39 47.84 47.17 46.39 46.41 46.58 47.70 41.60 34.30 33.78 38.43 33.58 36.61 37.04 37.77 37.50 34.18 34.10 37.40 37.60 36.05 35.89 34.73 31.29 32.37 31.46 33.65 34.61 38.04 41.67 36.66 33.98 23.50 24.73 28.20 30.01 27.32 28.29 29.44 28.73 22.90 26.62 20.36
47.92 47.72 47.97 49.05 48.02 47.75 47.18 46.26 46.21 46.10 46.70 40.11 36.90 35.43 39.06 35.82 36.34 35.73 35.16 33.76 34.21 35.75 36.06 34.37 34.63 36.19 35.50 33.02 32.24 31.21 33.04 32.47 32.32 35.65 35.14 32.92 25.99 26.17 22.98 29.38 29.57 27.73 29.52 29.80 29.06 29.44 28.94
47.73 47.74 47.68 48.82 47.52 47.40 47.19 46.32 45.70 45.72 43.86 35.39 41.04 42.15 38.82 35.10 31.70 30.50 31.88 35.19 36.30 36.82 39.40 40.13 38.02 36.60 35.52 36.79 36.81 36.17 35.70 35.84 35.42 33.41 32.67 33.04 27.28 23.56 19.16 27.07 27.88 24.87 28.73 29.58 29.40 30.99 32.45
47.06 46.90 47.32 48.05 47.59 46.67 46.89 46.05 45.57 45.41 43.54 38.86 41.38 40.60 35.79 30.38 30.95 32.18 34.67 37.33 37.00 36.42 37.23 40.06 41.41 38.02 39.93 41.68 39.98 39.36 37.37 36.55 35.73 34.39 35.52 30.41 28.21 27.33 20.67 24.51 17.46 29.10 35.01 33.62 32.33 33.28 34.05
46.83 47.00 46.85 47.25 48.59 46.63 46.85 46.25 45.22 45.15 44.98 37.50 40.73 39.98 38.56 33.81 32.58 34.19 36.14 36.01 35.62 37.51 37.70 38.06 39.83 40.08 41.56 38.97 35.36 31.56 31.85 32.64 34.81 36.20 36.21 36.83 33.30 28.01 24.62 19.79 24.62 31.18 34.95 33.54 32.43 35.17 36.80
46.88 46.86 46.99 46.83 48.01 46.80 46.36 46.18 45.13 44.87 44.34 37.34 39.92 43.96 40.55 36.30 32.50 38.50 36.33 35.19 32.80 31.66 34.09 37.13 40.44 42.03 40.22 36.06 32.74 28.84 25.16 28.73 31.30 34.29 38.71 37.93 34.91 28.00 27.73 23.31 20.43 30.99 36.97 39.81 38.09 32.64 38.38
46.53 46.48 46.70 46.97 47.16 47.16 46.11 46.52 44.92 44.68 44.46 39.17 37.28 43.64 39.13 36.12 39.75 40.88 35.00 34.80 36.92 34.39 33.48 36.17 37.73 36.83 38.08 32.06 29.88 25.44 27.09 33.94 28.71 30.54 31.35 32.97 33.55 29.47 28.13 25.87 26.44 34.36 37.72 40.86 31.43 32.83 38.91
46.20 45.93 46.64 46.66 46.45 46.80 45.95 46.05 45.14 44.98 45.19 40.17 36.87 43.80 39.89 36.25 38.64 42.43 44.77 38.08 37.82 37.17 35.98 36.99 36.40 36.39 34.48 30.56 29.04 27.75 26.83 32.28 30.04 32.70 31.91 30.37 29.01 29.30 29.77 26.89 22.20 36.98 40.22 36.88 39.09 40.81 39.36
45.61 45.74 46.38 46.20 45.98 46.89 45.52 45.23 45.17 45.64 44.91 43.23 34.42 41.97 43.91 37.21 38.22 42.89 42.74 43.58 44.13 42.69 40.36 40.65 39.00 38.59 38.63 34.68 30.54 32.33 33.41 34.76 32.64 29.89 34.53 30.25 31.63 28.95 29.43 28.56 35.95 39.03 38.93 40.30 41.26 40.95 39.05

GFSGBSN_sfc_wetblb_051.txt.gz
Wetbulb
55.11 55.23 55.48 54.90 55.33 54.38 54.54 54.66 54.18 54.02 53.87 53.56 53.27 53.15 52.90 52.63 52.55 52.18 52.31 52.38 52.66 52.71 52.78 53.11 53.34 53.03 50.40 47.00 46.61 53.78 57.54 56.38 57.99 56.48 54.65 52.41 49.72 48.98 45.14 45.29 44.94 43.45 44.86 47.04 48.54 48.18 47.90
54.64 55.42 54.60 54.81 54.06 54.13 54.75 54.67 54.12 53.71 53.61 53.39 53.10 52.65 52.24 52.11 52.06 51.63 51.75 52.07 52.28 52.25 52.42 52.66 52.56 52.27 46.35 39.51 52.48 53.70 52.65 54.11 55.81 54.62 54.83 53.34 50.59 50.40 47.26 45.58 44.57 45.80 46.06 46.09 47.10 47.07 47.22
55.01 54.90 54.79 54.06 53.89 54.30 54.46 54.11 53.40 53.01 53.21 52.95 52.92 52.49 52.21 51.75 51.63 51.72 51.75 51.75 51.72 51.79 51.96 52.40 52.12 49.30 44.41 42.68 52.26 53.79 52.86 56.12 56.20 54.80 53.71 54.63 52.97 49.80 47.04 43.87 47.14 45.22 42.29 44.31 45.01 45.56 45.49
54.29 54.30 54.61 53.71 53.50 53.77 53.92 53.50 52.86 52.87 53.04 52.92 52.59 52.32 52.18 51.62 51.46 51.35 51.42 51.61 51.58 51.72 51.91 51.83 51.60 47.60 40.13 52.81 54.54 52.75 52.98 53.82 56.88 58.09 56.85 55.82 54.42 49.88 47.56 47.13 44.61 42.09 42.27 37.53 43.23 44.51 45.39
54.08 53.77 53.35 53.33 53.39 53.63 53.56 52.93 52.27 52.43 52.80 52.59 52.21 51.71 51.38 51.25 50.81 51.20 51.01 51.59 52.05 52.07 52.08 51.58 46.80 43.90 39.31 54.15 49.72 52.58 52.29 49.42 55.24 55.95 55.67 56.12 53.26 49.15 46.98 41.04 38.69 39.59 33.82 35.73 39.36 44.31 43.48
53.69 53.36 52.90 52.94 52.72 53.29 53.43 51.68 52.19 52.49 52.35 52.35 52.25 51.95 51.18 50.55 49.99 50.64 51.11 51.42 51.00 49.06 48.89 49.12 47.05 38.99 43.57 43.81 49.86 51.19 51.25 53.87 52.08 52.47 50.61 50.14 48.48 44.19 42.12 39.45 31.78 34.51 33.98 36.04 35.96 40.27 40.96
53.41 52.86 52.44 52.63 52.85 53.55 51.89 51.44 52.72 52.16 52.53 52.51 52.85 52.35 51.90 50.88 50.01 50.45 48.86 43.54 37.08 35.67 40.72 36.06 37.30 37.99 44.20 49.14 52.20 49.66 50.61 51.72 51.63 48.92 42.47 46.80 41.71 37.51 40.73 40.42 38.83 38.07 36.31 35.65 38.15 40.59 38.64
52.75 52.48 52.39 52.68 52.36 52.65 51.07 52.27 51.74 52.45 52.45 52.43 52.33 52.11 51.96 51.41 50.40 50.18 45.81 38.45 37.68 40.37 32.69 39.30 40.51 40.79 43.13 45.82 44.18 47.21 50.96 46.45 46.57 42.50 41.36 43.02 38.30 42.60 44.05 41.78 39.50 38.22 36.18 35.77 38.08 38.94 38.11
52.14 52.29 52.25 52.78 51.75 51.63 51.18 50.94 52.39 52.25 52.46 52.40 52.18 52.26 52.34 51.36 49.89 45.46 41.59 41.28 45.91 43.32 33.63 36.58 41.41 41.02 41.11 47.01 43.36 43.74 47.26 46.44 44.22 41.34 37.64 36.22 41.17 45.37 43.20 41.64 39.32 38.39 35.84 34.91 35.54 36.56 35.94
52.09 51.95 52.41 51.62 51.51 50.59 50.79 51.78 51.57 51.81 51.75 51.98 51.81 51.80 51.98 50.53 44.30 45.32 40.90 46.53 46.57 45.23 16.37 31.92 37.24 41.32 45.77 47.10 41.47 48.09 48.59 47.34 44.01 40.80 38.88 38.10 44.29 43.13 42.26 40.41 41.36 36.85 40.66 37.13 34.91 33.81 30.11
51.81 51.43 52.16 51.29 50.70 50.54 51.13 51.32 51.13 51.38 51.73 51.85 50.71 51.24 50.44 49.89 44.46 42.60 44.60 47.53 46.53 36.67 6.10 31.40 37.71 48.17 46.83 42.74 42.17 43.45 49.52 47.15 41.09 40.47 41.12 36.35 41.64 40.60 39.02 40.03 42.09 37.08 38.64 35.29 33.55 30.49 30.67
51.46 51.17 51.53 50.99 50.53 49.94 49.67 49.87 50.09 50.72 51.38 52.05 50.68 50.92 50.20 45.13 46.08 45.53 45.81 43.94 38.12 16.79 10.73 30.80 39.11 37.40 39.88 41.31 42.28 44.99 45.67 47.43 46.23 40.66 40.12 37.51 42.23 41.55 39.69 39.75 40.95 37.88 34.09 32.00 30.33 29.43 25.37
51.06 50.84 51.13 50.65 50.42 49.72 49.18 49.37 49.70 50.07 50.83 51.65 51.26 50.03 47.67 47.42 41.00 46.75 46.10 36.78 18.56 18.53 29.59 32.83 34.02 35.00 38.27 38.27 39.83 41.29 40.07 37.98 36.46 32.60 32.17 36.02 36.39 39.39 40.56 36.10 37.97 36.47 33.95 26.53 22.11 21.96 24.04
50.49 50.61 50.93 50.63 50.19 49.59 49.11 49.02 49.36 49.74 50.39 50.77 51.08 48.69 47.83 47.34 45.28 44.32 42.81 25.62 15.76 28.61 30.42 36.57 34.75 38.50 35.29 37.90 38.61 39.38 37.40 34.00 37.23 36.29 32.11 30.31 29.02 36.31 38.76 35.98 33.44 32.68 33.38 27.05 19.67 19.85 22.03
50.21 50.12 50.76 50.40 49.93 49.54 49.04 48.74 48.88 49.31 49.91 50.67 47.81 41.06 42.42 44.62 46.40 42.67 36.10 20.12 19.19 27.60 33.46 34.41 37.50 34.55 35.43 37.43 37.46 36.80 35.65 33.79 35.38 35.73 31.12 27.92 29.17 37.77 37.66 37.89 37.50 32.14 28.28 31.15 23.16 22.07 21.30
50.10 49.99 50.15 50.31 49.86 49.24 48.85 48.47 48.49 48.88 49.77 50.11 38.25 37.27 38.38 44.75 45.05 38.50 27.04 29.33 31.31 35.05 36.56 37.64 31.81 33.73 31.71 34.37 35.20 34.38 33.71 35.46 35.10 37.05 36.31 31.91 27.43 35.81 36.33 38.90 37.13 34.35 33.53 26.74 23.84 18.46 18.39
49.82 49.69 49.91 50.14 49.70 49.00 48.55 48.09 48.18 48.51 49.51 47.88 35.75 32.80 39.12 44.12 40.96 36.78 30.17 32.90 34.26 39.01 38.38 35.32 32.22 31.41 33.61 32.25 33.43 32.50 32.30 35.84 37.57 36.35 36.79 34.29 31.62 32.67 36.54 32.79 30.88 31.62 29.63 28.14 27.30 24.08 20.18
49.39 49.39 49.38 50.57 49.40 48.86 48.29 47.82 47.84 48.03 49.31 45.98 33.33 28.27 40.21 41.66 31.62 33.39 34.23 35.71 38.90 37.50 39.52 36.45 35.43 34.32 32.15 32.08 31.20 31.41 30.93 34.33 38.47 38.63 33.88 34.79 32.19 29.78 30.76 33.64 35.38 33.33 30.19 28.21 22.61 20.75 22.59
49.05 49.04 49.05 49.45 49.22 48.62 48.15 47.66 47.50 47.65 48.66 45.21 32.61 31.72 40.12 40.52 30.89 33.39 37.07 37.11 38.30 37.25 36.84 34.74 33.71 35.11 34.32 31.80 29.78 31.90 32.76 38.05 38.96 37.53 34.31 34.71 28.12 23.55 28.19 31.60 33.16 31.57 30.90 29.32 27.03 25.15 21.67
48.57 48.73 48.64 48.74 49.14 48.35 48.10 47.44 47.06 47.18 48.13 43.72 32.71 28.53 34.14 37.03 38.39 35.30 35.75 34.36 34.58 38.51 36.39 35.96 34.61 35.32 33.72 31.94 33.37 31.42 32.15 37.63 38.36 38.65 41.54 37.51 29.03 26.70 22.27 25.65 29.03 26.41 29.68 29.51 27.63 22.14 22.45
48.07 48.39 48.43 48.52 49.26 48.33 47.97 47.17 46.69 46.79 47.16 40.85 33.42 33.09 37.97 29.03 34.37 35.18 36.61 35.04 32.96 33.24 37.06 37.00 35.07 34.82 33.97 30.89 31.32 30.75 33.22 34.67 37.81 41.18 36.22 34.37 25.86 26.25 29.07 30.70 28.31 29.27 30.01 28.82 24.87 26.89 23.79
47.99 48.10 48.10 47.89 49.12 47.73 47.63 46.86 46.44 46.39 45.99 39.53 36.62 35.77 38.73 35.43 35.84 35.07 35.98 32.34 33.36 34.80 34.92 33.90 33.87 35.37 34.51 32.09 31.65 30.60 32.69 31.78 32.55 34.91 33.72 33.23 28.19 26.87 24.40 30.08 30.01 28.68 30.43 30.29 29.55 29.96 29.17
47.46 47.39 47.69 47.64 48.39 47.75 47.13 46.77 46.12 46.10 43.37 36.30 40.91 41.91 38.77 34.55 30.73 29.11 31.86 34.45 35.50 35.83 38.31 38.81 37.06 35.15 33.75 35.26 35.93 35.53 35.09 35.78 35.61 33.81 32.57 33.17 27.70 24.65 20.46 27.97 28.38 25.44 28.92 30.16 30.16 31.09 32.46
47.47 47.45 47.43 47.21 47.52 48.07 47.03 46.68 45.65 45.59 42.79 37.54 39.74 39.56 36.49 30.13 30.28 31.60 33.97 35.43 36.20 35.99 36.26 39.04 39.65 36.40 38.66 39.75 38.15 38.38 36.79 35.58 35.21 34.19 35.29 30.54 28.55 27.98 23.16 25.41 17.56 29.51 35.05 33.66 32.41 33.03 33.91
47.61 47.40 47.43 47.46 47.23 47.98 46.98 46.75 45.80 45.10 44.76 37.30 37.76 39.21 37.88 32.92 33.17 32.91 34.86 34.67 34.29 36.05 36.49 37.12 39.29 39.27 41.58 37.58 34.37 30.77 32.35 33.61 34.80 35.37 36.12 36.40 31.68 27.39 24.24 22.32 24.78 30.94 33.50 32.21 31.78 35.78 36.06
47.60 47.27 46.97 47.14 47.42 47.23 47.31 46.37 46.35 44.95 44.44 39.19 38.55 43.28 39.60 35.56 32.44 36.66 36.65 33.97 31.78 30.86 33.07 36.22 39.56 40.57 38.58 34.94 31.83 28.73 25.84 28.46 31.01 33.87 38.37 37.01 34.28 27.91 27.30 23.14 20.43 29.62 36.93 38.83 38.68 33.41 39.66
47.21 47.06 46.78 46.84 47.19 46.84 46.92 46.82 46.10 45.36 44.93 39.88 37.49 42.71 38.59 34.54 38.17 40.51 38.05 33.73 35.66 32.79 32.30 34.70 36.34 36.03 36.98 31.03 29.75 25.14 26.66 32.65 28.10 30.19 30.92 33.27 33.52 27.42 28.06 26.02 25.94 33.02 37.73 41.39 32.96 34.37 39.81
46.93 46.83 46.46 46.70 46.98 46.44 46.68 46.09 45.87 45.77 45.26 40.23 36.03 40.54 39.27 35.01 36.83 40.85 43.31 41.48 36.85 35.90 33.26 35.29 35.11 35.54 33.65 30.32 29.12 27.72 26.78 32.75 31.69 32.23 30.15 30.27 29.46 29.41 29.80 26.60 21.15 35.70 40.31 37.32 40.23 40.79 40.77
46.51 46.34 46.22 46.38 46.46 46.55 47.20 46.37 45.31 45.52 45.46 43.74 33.18 39.29 43.10 36.68 35.85 41.29 41.63 42.44 42.34 41.33 40.73 40.44 37.57 38.02 36.74 34.49 30.30 30.88 32.98 35.11 33.22 29.68 35.37 30.03 30.17 28.74 29.18 28.18 34.67 37.18 38.10 41.26 40.54 39.95 39.85

GFSGBSN_sfc_wetblb_054.txt.gz
Wetbulb
55.64 55.72 55.07 55.84 54.99 54.47 54.96 55.25 54.70 54.29 54.19 54.21 54.00 53.65 53.45 52.89 52.68 52.54 52.08 52.26 52.53 52.91 52.60 52.58 52.69 52.67 50.70 43.28 44.10 55.92 56.83 57.14 59.67 57.78 54.55 53.67 51.69 50.55 47.32 48.72 48.96 46.97 47.83 49.44 50.49 50.81 50.65
55.18 55.16 55.39 55.24 54.53 54.50 54.40 54.80 54.25 53.85 53.70 53.86 53.80 53.26 53.19 52.88 52.43 52.25 52.03 51.97 52.42 52.29 52.25 52.33 52.26 51.29 46.38 38.13 52.64 56.06 54.72 54.62 56.50 56.37 53.38 54.99 52.13 53.48 48.91 48.55 47.22 49.07 48.35 48.69 49.94 49.78 49.74
54.78 54.98 54.11 54.46 53.95 53.90 54.21 54.22 53.41 52.94 53.26 53.70 53.44 52.90 52.43 52.59 52.22 51.96 51.77 51.96 52.14 52.16 52.09 52.05 52.05 50.03 44.21 42.08 53.21 54.86 54.41 54.38 57.33 56.33 51.93 56.00 55.65 52.22 51.01 46.91 50.55 48.42 45.30 47.40 48.04 48.61 47.65
54.68 54.23 53.96 53.93 53.49 53.61 54.35 52.77 52.10 53.01 53.49 53.49 53.42 53.07 52.65 51.92 51.74 51.64 51.57 51.53 51.75 52.06 52.13 52.22 51.48 48.61 39.43 50.38 51.68 51.37 54.33 53.91 57.30 57.06 55.92 57.37 57.09 53.03 50.14 50.80 48.15 45.04 44.94 40.32 46.05 47.77 48.34
54.20 54.19 53.60 53.23 53.91 54.01 53.22 52.43 53.48 52.96 53.36 53.45 53.57 53.35 53.15 52.22 51.25 50.71 50.83 51.39 51.97 52.24 51.91 52.09 48.10 44.92 38.08 52.55 48.49 51.88 54.64 51.36 55.40 55.67 56.55 57.07 54.31 50.14 48.67 44.41 41.55 43.39 37.51 38.95 41.72 47.65 46.61
53.86 53.39 52.98 53.62 53.80 53.29 52.57 52.76 52.05 53.16 53.38 53.39 53.09 52.82 52.53 52.20 51.03 50.08 50.92 51.44 51.22 49.86 50.25 50.18 47.81 40.50 42.85 43.35 49.18 52.00 54.47 52.76 52.47 52.18 51.49 51.22 48.91 45.57 45.53 42.40 33.86 37.41 37.78 39.76 39.40 43.98 45.58
53.21 53.24 52.94 53.77 52.36 52.32 51.82 51.83 52.99 53.13 53.23 53.02 52.45 52.63 52.39 51.90 51.17 49.70 50.10 47.84 42.53 41.05 43.83 38.30 38.75 39.67 42.85 46.30 52.42 49.78 50.71 51.78 52.86 49.58 42.97 46.83 41.97 40.62 43.20 43.92 42.29 41.88 39.72 38.56 41.30 43.20 42.65
52.92 52.86 52.91 52.77 52.36 51.65 52.17 52.94 52.71 52.79 52.96 52.85 51.72 52.10 52.63 51.29 50.54 50.56 49.38 42.56 40.91 43.02 35.05 40.99 41.10 41.41 43.10 44.42 43.92 47.70 51.29 47.96 46.86 41.88 44.44 41.68 39.15 44.18 46.45 44.92 42.40 41.00 39.07 38.71 41.25 42.26 42.50
52.39 52.37 52.81 52.29 51.83 51.69 51.07 51.58 51.80 52.34 52.65 52.71 51.57 51.61 52.27 51.64 50.74 48.79 45.53 43.03 46.78 46.26 35.51 37.12 41.54 40.03 40.35 43.96 43.49 43.02 48.09 47.08 44.54 40.74 41.36 38.73 41.47 46.03 44.08 42.70 40.57 40.58 38.49 39.31 38.96 40.07 40.17
52.32 51.96 52.49 51.85 51.62 51.27 50.53 50.52 50.88 51.63 52.12 52.37 51.66 51.71 50.88 49.96 46.85 46.81 42.83 46.87 47.96 46.98 31.43 31.58 36.34 39.08 41.86 44.60 42.10 49.08 49.11 46.66 44.21 36.81 39.02 37.27 44.03 43.47 42.82 40.96 42.34 37.60 42.93 41.04 39.10 38.62 35.74
51.79 51.52 52.22 51.66 51.31 50.77 50.31 50.30 50.62 51.04 51.55 51.42 51.66 51.47 50.38 49.81 46.72 42.73 45.56 48.45 48.41 41.93 18.69 33.34 37.43 46.12 45.76 42.74 43.77 43.25 50.33 47.43 39.83 38.90 39.04 36.55 39.37 41.64 40.85 41.71 44.37 40.02 42.87 39.76 38.36 37.34 36.37
51.62 51.25 51.95 51.35 51.13 50.55 50.21 49.95 50.14 50.55 50.83 51.00 52.02 50.82 49.96 48.58 48.09 47.28 48.87 47.62 44.71 29.79 20.27 33.10 38.55 37.59 39.53 41.73 43.01 44.72 46.08 47.82 46.44 40.86 41.32 39.36 44.14 42.12 39.55 40.82 43.02 41.13 39.09 37.28 37.14 36.35 31.83
51.11 50.79 51.35 51.52 50.86 50.41 50.03 49.68 49.71 49.94 50.34 50.72 51.37 51.26 49.11 48.73 42.66 49.58 49.03 43.54 31.11 25.43 33.77 32.36 35.12 37.50 38.68 38.81 40.59 42.26 40.10 39.52 37.77 34.41 33.84 36.66 36.67 40.85 41.53 35.63 38.85 40.36 37.92 31.08 29.34 30.28 30.73
50.73 50.49 50.74 51.45 50.66 50.36 50.04 49.54 49.45 49.51 49.82 50.53 50.91 49.83 48.77 48.98 49.99 48.90 46.12 36.16 26.74 30.31 31.26 36.66 36.31 38.64 35.99 38.89 39.59 39.08 35.71 36.85 40.18 38.57 35.72 33.06 30.38 36.57 39.96 38.92 36.95 37.97 37.54 33.25 25.23 25.93 28.62
50.52 50.19 50.36 51.10 50.48 50.16 49.67 49.40 49.05 48.96 49.34 50.55 48.60 47.93 47.97 49.33 49.81 48.40 40.32 31.54 28.85 30.59 34.10 34.52 37.70 34.12 35.20 37.68 38.42 37.26 36.76 37.47 38.27 39.69 34.60 33.12 31.51 39.21 39.94 40.64 41.59 35.73 34.95 35.49 30.06 27.93 28.50
50.21 49.93 50.14 50.49 50.59 49.88 49.63 49.26 48.81 48.68 49.83 49.48 46.17 44.52 44.88 47.93 49.32 45.28 39.01 32.39 33.07 35.54 37.19 38.15 32.67 35.82 33.00 34.59 35.76 36.29 36.95 38.82 37.60 39.71 40.50 36.44 31.39 37.00 37.79 40.65 40.06 38.63 38.69 31.77 32.84 25.25 24.86
49.80 49.79 49.80 50.02 50.57 49.77 49.42 49.13 48.71 48.54 49.28 48.53 43.98 41.56 45.28 48.29 47.02 44.33 33.15 34.78 36.13 40.26 39.91 37.72 35.50 35.05 36.24 35.38 36.46 35.08 35.21 38.42 40.42 38.71 40.89 39.18 36.62 33.52 37.90 36.12 35.52 35.36 34.91 33.25 34.36 30.81 27.45
49.41 49.58 49.50 49.43 50.49 49.17 49.08 48.73 48.45 48.32 48.81 47.89 42.80 40.39 46.27 47.75 40.97 40.52 37.01 36.96 39.62 40.04 42.01 39.79 39.74 38.66 36.99 36.88 35.83 35.64 34.95 38.44 41.59 41.57 37.19 38.48 37.27 31.99 33.13 36.65 38.46 37.58 35.83 34.78 31.63 27.57 29.43
49.12 49.12 49.04 48.88 50.09 49.16 48.84 48.43 48.00 48.00 48.21 46.40 39.49 40.50 46.43 46.65 36.47 36.59 38.63 38.50 40.05 39.65 39.41 38.52 37.59 39.34 38.87 36.48 34.32 36.27 36.73 40.58 41.52 40.64 38.75 39.27 34.41 28.60 29.66 33.77 36.19 34.28 34.97 34.35 32.96 32.23 28.49
48.63 48.78 48.74 48.70 49.47 48.68 48.37 47.92 47.62 47.58 47.68 46.26 41.04 38.40 42.86 45.43 43.62 39.92 37.75 37.70 37.81 41.55 39.76 39.51 38.37 39.70 38.12 35.96 37.90 35.19 36.24 39.52 40.94 41.57 41.38 41.08 33.96 31.78 29.16 31.10 34.63 32.02 33.49 34.18 34.64 31.08 30.23
48.10 48.29 48.35 48.37 48.44 48.70 48.09 47.65 47.21 47.03 46.84 45.71 40.78 35.96 37.95 36.63 39.64 39.25 39.83 38.77 36.68 36.55 40.88 41.28 38.76 38.32 37.56 34.43 35.22 34.83 37.28 38.20 40.71 40.88 39.55 39.60 33.16 32.23 32.65 33.58 33.14 32.86 33.25 32.57 30.69 33.32 32.53
47.44 47.89 47.97 48.04 47.84 48.86 48.10 47.57 46.85 46.66 45.86 43.99 37.41 36.71 38.77 36.75 38.52 37.89 38.56 37.58 37.16 38.27 38.89 37.72 37.42 38.63 39.15 36.37 36.84 34.96 37.34 37.71 37.09 39.55 38.48 37.89 32.26 32.27 30.50 32.62 32.76 31.12 33.92 34.33 33.67 34.61 33.49
47.13 47.50 47.66 47.60 47.56 48.21 47.84 47.39 46.56 46.29 44.41 40.63 41.56 41.79 39.03 37.00 36.79 37.14 37.88 38.31 38.43 40.23 41.18 41.27 40.53 39.49 37.96 38.69 40.91 41.17 41.45 41.76 40.85 38.71 37.24 36.80 33.80 32.13 28.99 31.12 31.41 29.27 32.86 33.98 34.61 35.64 35.82
47.02 48.04 47.47 47.92 47.59 47.59 48.10 47.19 46.84 45.89 43.83 42.17 40.45 39.82 36.59 33.95 36.05 36.23 37.06 38.09 39.16 39.84 39.33 41.54 42.34 40.16 40.50 43.57 43.85 43.68 42.46 41.15 40.75 38.75 40.04 35.67 34.70 34.00 30.44 30.20 24.04 33.60 37.81 37.78 35.87 36.75 37.98
47.39 47.98 47.48 47.38 47.49 47.82 47.54 47.49 46.96 46.05 44.54 42.00 41.73 39.78 37.16 33.33 35.28 36.62 38.24 38.31 39.89 41.40 40.80 40.98 42.39 43.37 45.87 42.81 38.63 35.75 35.63 36.21 37.38 39.64 38.89 39.72 36.70 31.70 29.42 28.22 31.53 34.46 35.39 35.21 34.42 36.00 39.78
47.48 48.03 47.55 47.40 47.34 47.51 47.16 47.21 47.03 46.29 45.68 43.09 42.59 43.64 39.26 34.24 34.25 37.91 37.34 39.21 38.73 39.56 39.86 40.99 44.45 45.92 43.72 40.93 37.58 30.57 27.95 32.31 31.12 34.33 39.48 37.78 38.52 34.48 30.44 25.57 24.35 35.26 40.32 42.63 40.25 35.44 43.03
47.97 47.88 47.40 47.26 46.97 47.33 46.80 46.66 46.76 46.38 45.99 43.39 41.68 43.49 38.73 34.08 37.27 39.04 37.34 38.40 40.34 39.41 39.51 41.24 42.09 41.43 42.38 38.67 35.04 32.77 31.66 35.91 30.31 30.53 32.31 33.72 34.05 31.10 30.78 27.55 32.04 38.28 39.30 43.84 34.42 35.62 43.04
48.16 47.58 47.24 46.89 46.71 46.94 46.82 47.24 46.79 46.39 45.55 43.86 41.85 43.45 39.17 34.79 35.60 37.76 38.30 39.34 41.62 41.19 39.13 41.30 40.77 40.60 40.02 36.69 35.23 34.80 34.02 35.39 33.81 35.46 33.83 32.87 31.33 30.77 31.57 27.94 25.33 39.89 41.84 37.30 41.08 44.36 44.16
48.03 47.21 46.85 46.45 46.29 46.50 46.39 46.51 46.83 46.27 45.65 44.45 39.33 41.99 43.57 36.19 35.13 40.23 40.07 40.51 39.76 42.76 43.25 42.83 41.48 40.77 42.41 39.23 37.63 37.34 34.80 36.89 35.42 30.76 37.78 31.92 35.98 34.24 34.72 34.04 39.72 41.30 40.61 43.53 43.82 42.79 43.40

GFSGBSN_sfc_wetblb_057.txt.gz
Wetbulb
55.85 55.75 55.11 55.15 54.90 54.46 54.43 54.82 54.70 53.88 53.97 54.27 54.48 54.31 54.03 53.66 53.39 53.23 52.82 52.63 52.71 52.82 52.89 52.85 52.86 52.76 50.61 44.50 44.48 54.05 58.64 60.98 60.44 58.76 53.92 52.79 50.05 50.57 47.37 49.19 49.12 46.89 49.52 50.68 51.35 51.24 51.04
55.41 55.44 54.73 54.77 54.41 54.43 54.95 54.93 53.57 53.59 54.25 54.49 54.32 54.07 53.61 53.27 53.07 52.72 52.68 52.45 52.62 52.53 52.39 52.18 52.40 52.02 47.02 38.98 51.86 52.57 55.24 55.48 57.76 56.17 53.45 53.83 51.01 53.22 49.99 48.81 47.75 49.54 49.78 49.68 50.74 50.13 50.78
55.41 55.42 54.53 54.23 54.33 54.59 54.15 53.50 53.68 53.76 53.95 54.32 54.35 54.09 53.65 53.32 52.98 52.32 52.21 52.17 52.17 52.21 52.11 52.28 51.82 50.61 44.63 43.05 51.81 56.00 54.26 53.22 55.62 56.51 52.60 54.54 54.24 51.51 51.53 47.36 51.30 49.18 45.99 47.82 48.91 49.53 48.55
54.76 54.29 54.24 54.35 54.81 53.48 53.23 53.04 53.01 53.13 54.07 54.25 54.21 53.76 53.38 53.23 52.84 51.74 51.58 51.30 51.87 51.91 52.22 52.37 52.16 49.19 40.54 50.46 52.41 50.24 52.07 52.79 54.88 57.73 55.89 56.11 55.89 52.65 49.98 50.77 48.71 45.42 46.17 40.38 46.97 48.20 48.87
54.18 54.18 53.93 54.26 53.62 53.43 52.74 52.95 53.26 53.69 53.76 53.88 53.73 53.06 53.17 52.84 52.39 51.46 50.42 50.81 51.58 52.26 52.46 52.21 48.95 46.05 39.14 51.73 46.27 50.43 51.88 51.22 53.52 55.74 55.69 56.08 54.99 50.37 49.58 44.38 41.68 43.31 38.09 39.99 42.62 48.19 47.52
53.99 53.77 53.63 53.97 53.21 52.84 52.62 53.47 53.27 53.22 53.47 53.60 52.99 52.84 53.06 52.63 51.76 50.11 49.71 51.20 51.35 50.83 50.85 50.68 48.71 40.84 43.66 41.53 48.07 49.63 53.48 53.27 50.90 51.94 50.42 50.18 49.03 44.54 44.51 42.35 34.66 37.24 38.33 40.82 40.21 44.99 46.02
53.47 53.48 53.35 53.33 52.95 52.75 52.23 52.07 52.41 52.60 53.12 53.25 52.63 52.49 53.01 52.22 51.24 49.61 50.29 49.24 43.78 42.74 44.97 40.05 40.02 40.31 42.10 46.19 49.41 47.08 53.09 51.38 51.55 48.84 42.52 47.24 42.48 39.33 42.48 44.16 43.70 42.07 40.46 40.01 42.41 45.56 44.03
52.95 52.78 53.18 52.88 52.80 52.33 51.89 51.59 51.90 52.15 52.70 53.04 52.61 52.28 52.30 51.69 50.87 50.32 50.23 43.65 43.09 44.16 36.42 42.01 42.02 42.02 43.62 44.57 40.21 46.94 51.99 46.08 46.74 41.62 44.50 43.61 35.88 43.98 45.97 44.77 43.43 42.06 39.87 39.90 42.78 44.07 43.24
52.70 52.39 52.91 52.75 52.42 52.13 51.69 51.34 51.27 51.81 52.25 52.70 52.62 52.15 51.03 51.03 50.17 49.71 46.64 43.97 47.59 47.05 36.28 38.19 42.10 40.87 40.32 43.79 41.06 45.22 48.80 46.99 43.98 41.51 41.89 39.49 41.09 43.97 43.47 42.52 41.14 40.96 39.14 39.32 39.50 42.01 43.49
51.95 51.81 52.53 52.37 52.03 52.02 51.36 51.05 50.90 51.07 51.37 51.85 52.01 52.06 50.84 50.54 47.17 48.04 43.63 48.10 49.42 48.20 33.29 32.94 37.45 41.01 42.43 43.65 39.62 47.04 49.95 46.02 42.99 40.75 41.83 39.26 44.56 42.06 42.16 41.35 42.35 37.83 43.26 42.06 40.31 38.59 34.26
51.95 51.50 52.01 52.62 51.84 51.50 51.16 50.95 50.61 50.68 50.51 51.07 51.43 52.15 51.10 50.52 47.28 43.85 46.39 49.21 49.49 45.27 21.77 34.49 36.63 45.03 43.65 42.11 42.84 43.48 49.66 47.17 39.58 37.74 40.55 37.75 40.29 41.25 40.08 41.95 44.12 40.43 44.76 42.49 41.15 39.33 38.33
51.48 51.09 51.53 52.17 51.47 51.24 50.93 50.63 50.26 50.12 50.06 50.19 51.16 51.60 51.23 50.15 49.95 47.92 49.75 48.89 44.78 31.64 23.12 33.28 38.98 38.01 40.21 42.51 42.88 45.06 45.02 47.15 45.78 39.29 40.13 39.36 42.44 42.44 42.72 41.24 44.55 45.56 41.74 40.57 39.99 38.15 32.47
51.04 50.71 50.99 51.63 51.41 50.86 50.75 50.40 50.13 49.88 49.69 50.08 50.92 51.41 50.63 50.10 45.41 50.91 50.06 44.48 31.63 26.67 35.12 34.06 35.45 39.70 40.35 39.88 40.91 40.66 39.50 39.13 37.25 32.96 32.30 34.36 34.98 41.23 41.43 37.66 40.74 42.53 39.10 31.64 30.26 30.88 31.22
50.70 50.36 50.79 50.86 51.82 50.99 50.76 50.51 50.08 49.75 49.36 49.85 50.60 50.19 50.62 49.90 51.58 50.47 45.91 37.56 29.18 31.90 32.10 38.03 37.97 39.42 36.39 39.61 39.50 39.69 39.71 37.54 42.42 40.76 35.51 34.00 30.32 35.14 38.88 38.44 37.18 38.76 39.77 34.62 26.96 28.57 31.50
50.45 50.27 50.54 50.48 51.77 50.99 50.45 50.36 49.90 49.33 49.67 50.30 50.27 50.75 48.75 51.15 51.12 49.45 40.76 33.82 30.00 31.99 35.68 35.82 38.96 35.56 35.22 39.31 39.18 37.97 39.09 38.44 40.73 42.03 35.14 33.55 32.68 38.34 39.40 40.76 41.39 37.28 36.02 38.63 32.26 32.43 31.25
50.10 50.00 50.08 50.20 51.07 50.47 50.07 50.07 49.53 49.09 49.85 49.92 47.76 46.89 47.63 50.20 51.11 46.85 40.56 31.87 33.91 36.71 38.55 39.45 34.04 37.53 33.64 35.89 36.93 37.84 38.71 40.91 39.23 41.31 42.75 38.12 31.78 37.42 38.80 41.88 40.91 40.31 41.18 33.88 35.31 26.65 26.13
49.62 49.88 49.80 49.80 50.14 50.11 49.47 49.61 49.25 48.92 49.07 49.72 47.43 43.69 47.99 50.99 49.75 45.59 34.79 35.66 37.47 41.77 41.26 38.89 37.48 36.73 37.36 36.99 38.35 37.44 37.54 40.03 41.96 40.29 43.00 41.80 37.74 34.26 38.97 37.44 36.72 36.88 36.24 36.15 36.00 32.84 29.33
49.39 49.47 49.55 49.50 49.72 49.80 49.19 49.11 48.97 48.68 48.93 48.64 45.99 42.13 49.23 51.67 43.23 44.01 38.85 38.87 39.85 41.64 43.49 41.41 41.74 40.41 38.99 39.31 37.85 37.53 37.29 40.41 43.49 43.25 38.95 40.92 38.41 32.68 34.42 38.77 40.75 40.07 38.66 38.50 33.20 30.23 32.20
48.94 49.14 49.29 49.18 49.01 49.59 48.98 48.69 48.43 48.33 47.72 46.43 40.67 44.08 50.17 50.52 38.15 39.77 40.75 40.70 41.73 40.78 40.64 40.25 39.40 41.18 41.73 39.11 35.97 38.44 38.92 42.24 43.38 42.12 40.16 41.18 36.08 29.35 30.34 35.43 38.33 35.93 38.36 38.26 35.62 35.20 30.94
48.36 48.43 48.71 48.72 48.56 49.36 48.85 48.38 47.99 47.92 47.38 46.88 43.00 38.16 45.19 48.63 46.17 42.24 39.66 39.17 39.18 43.10 41.20 41.32 40.22 41.79 40.36 38.39 40.44 37.53 38.18 41.05 42.73 42.70 42.19 43.41 36.92 33.95 30.57 32.94 36.63 32.79 35.73 36.78 35.66 31.75 32.19
47.88 47.95 48.36 48.49 48.34 48.57 48.72 48.25 47.59 47.32 47.10 46.94 42.85 36.94 39.00 38.09 42.12 41.78 42.08 40.62 38.28 38.00 42.24 42.64 39.97 39.85 39.32 36.36 37.26 36.85 39.42 40.05 42.01 40.70 41.52 41.33 34.29 33.52 34.72 35.67 35.08 34.88 34.53 34.60 32.41 34.86 34.17
47.74 47.53 48.19 47.83 48.14 48.31 48.77 48.00 47.53 46.80 47.43 45.20 37.28 36.71 39.44 37.64 41.23 40.70 39.79 39.44 38.62 39.70 40.40 39.10 38.82 40.28 40.57 37.94 38.59 36.65 39.18 39.66 38.75 41.04 40.18 40.49 33.63 34.22 31.94 34.68 34.73 32.34 35.21 35.96 35.16 35.41 35.67
47.01 47.23 47.61 48.05 48.19 48.08 47.97 47.90 47.57 46.44 46.16 41.20 42.25 42.92 39.29 37.90 40.00 39.28 38.69 40.19 39.87 41.63 42.38 42.90 41.93 40.89 39.45 40.80 42.83 43.50 43.86 43.44 42.52 40.30 39.15 38.36 35.42 33.35 30.70 33.04 33.05 30.06 34.26 35.49 36.21 37.51 37.46
46.97 47.68 48.34 47.97 48.03 48.10 47.91 48.01 47.41 46.42 45.21 42.46 40.99 39.66 36.50 33.39 37.28 37.85 39.13 40.19 40.60 41.75 40.50 42.85 43.79 41.58 41.97 45.99 46.02 45.44 44.29 43.06 42.33 41.08 42.55 37.68 36.14 35.27 31.35 31.99 25.42 35.37 39.48 39.31 37.38 38.42 39.35
47.47 47.52 48.61 48.19 48.03 47.80 47.91 47.48 47.52 46.65 45.26 43.26 43.15 40.27 36.14 30.96 35.81 37.46 38.91 39.51 42.25 43.12 42.22 42.57 43.84 45.08 47.02 44.61 39.45 36.42 36.45 37.14 38.58 40.54 40.36 41.55 37.60 32.72 30.01 29.95 34.31 35.77 36.52 36.53 35.82 36.35 40.79
47.92 47.94 48.25 48.02 47.85 47.50 47.46 47.03 47.14 46.59 46.08 44.42 43.86 44.06 40.01 32.86 34.96 37.66 36.86 39.55 39.01 40.54 41.58 42.41 45.53 47.91 46.02 42.65 38.65 30.84 28.49 32.88 32.00 35.35 40.19 38.97 39.96 34.29 31.82 27.45 26.22 36.91 40.97 42.88 42.01 35.15 43.30
47.93 48.23 48.26 47.79 47.62 47.15 47.27 47.15 47.55 46.90 45.94 44.74 43.63 44.59 39.43 32.88 36.46 37.60 36.74 36.96 41.90 41.18 40.81 42.72 42.93 43.13 44.49 39.57 35.15 32.69 31.35 37.19 31.11 31.23 32.80 33.96 34.85 31.49 30.76 29.03 33.30 40.14 42.90 44.97 34.43 35.93 44.66
48.18 48.37 48.21 47.65 47.05 46.81 46.95 46.74 46.89 46.86 46.69 44.73 42.84 45.13 39.64 34.34 34.40 36.11 37.49 33.98 36.31 41.58 39.26 43.33 41.98 42.09 41.42 37.41 36.42 36.02 34.70 36.03 35.00 36.80 34.35 33.44 31.55 31.08 31.96 28.39 26.37 42.01 41.43 37.48 40.84 45.22 44.94
48.66 48.51 47.65 47.44 46.46 46.24 47.10 46.65 46.79 46.99 46.06 45.56 40.00 44.30 43.57 37.22 35.39 39.43 39.22 41.10 40.47 39.91 38.60 44.13 42.93 42.81 43.66 39.89 39.90 39.58 35.92 37.76 36.12 31.06 39.40 32.63 37.02 34.68 35.76 35.15 41.83 44.49 43.96 45.40 45.43 44.39 44.63

GFSGBSN_sfc_wetblb_060.txt.gz
Wetbulb
56.10 55.95 55.58 55.20 55.04 55.60 54.64 54.85 54.00 54.32 54.59 55.09 55.30 55.23 54.99 54.58 54.49 53.97 53.40 53.19 53.24 52.87 52.81 52.88 53.12 52.44 49.70 42.98 43.16 52.40 58.52 58.52 58.61 58.62 53.64 52.39 48.40 49.32 46.13 47.84 48.41 46.26 47.59 49.09 50.42 49.94 49.10
55.77 55.17 55.25 54.84 55.43 54.22 54.36 53.99 53.85 53.71 54.66 55.11 55.05 54.88 54.22 54.01 53.99 53.72 53.18 52.65 52.78 52.71 52.39 52.31 51.61 51.35 45.88 36.85 50.48 52.38 53.57 54.90 56.07 55.92 53.88 52.80 49.41 51.71 48.38 48.31 46.54 48.15 48.62 48.65 49.27 49.37 49.62
55.30 55.05 55.04 54.85 54.76 54.23 53.62 53.90 54.51 54.63 54.44 54.69 54.78 54.22 53.77 53.44 53.42 53.40 52.87 52.20 52.42 52.23 52.28 51.70 51.79 49.51 43.67 41.14 50.97 55.18 54.07 51.71 54.17 55.62 52.56 53.26 53.07 49.54 50.07 47.04 50.85 48.64 44.49 46.68 46.75 48.20 47.56
55.02 54.62 54.75 54.76 54.20 53.64 53.53 53.18 53.28 53.81 53.89 54.42 54.51 53.74 53.51 53.49 53.27 52.79 51.46 51.45 51.28 51.77 51.92 52.33 51.89 48.52 39.42 49.91 51.08 49.42 52.24 51.15 53.72 54.26 55.16 54.45 54.15 50.67 49.44 50.55 47.99 44.91 43.52 39.15 45.67 47.42 48.01
54.56 54.46 54.35 54.58 54.05 53.58 53.28 52.56 52.98 53.40 53.68 53.88 54.04 53.45 53.40 53.60 52.81 51.27 50.54 50.20 51.19 51.77 52.47 52.48 48.30 45.21 38.19 52.05 45.64 48.40 49.58 47.09 51.11 52.27 55.26 55.98 53.55 48.83 48.39 43.53 40.52 42.13 35.31 37.96 41.54 47.22 46.21
54.09 54.05 53.96 53.97 53.88 53.53 53.04 52.54 52.41 53.12 53.39 53.43 53.50 53.07 53.15 52.85 51.76 50.57 49.85 50.65 51.56 51.06 50.98 50.34 48.32 40.56 43.14 40.65 46.70 48.16 50.54 51.13 48.41 50.66 50.42 49.56 48.26 43.65 43.30 40.92 33.14 35.40 36.53 38.18 38.79 43.93 45.24
53.60 53.63 53.50 53.79 53.34 53.04 52.92 52.40 52.14 52.30 52.78 52.72 52.99 52.77 52.20 52.11 51.35 50.53 50.49 49.04 43.36 42.13 44.62 39.92 39.75 39.53 41.83 45.10 49.71 47.24 50.15 45.99 45.93 48.67 41.72 45.37 40.93 37.09 40.07 41.90 41.76 40.15 38.61 37.62 40.83 45.08 42.91
52.99 53.12 53.20 53.36 52.94 52.77 52.56 52.13 51.78 51.56 51.93 52.09 52.30 52.64 51.84 51.90 51.48 51.24 49.55 42.38 42.76 43.62 35.69 42.88 41.81 41.74 44.15 44.39 39.86 44.65 50.00 42.05 41.24 40.47 43.47 41.32 36.95 42.23 44.60 43.91 42.03 40.13 37.53 37.31 41.00 44.19 42.44
52.64 52.41 52.85 53.16 53.14 52.70 52.18 51.96 51.57 51.38 51.19 51.12 51.77 51.97 52.25 51.30 51.35 50.10 45.54 43.83 48.21 47.35 35.51 38.45 42.13 40.96 41.27 43.06 38.91 41.59 47.56 44.96 40.23 39.56 40.27 37.54 40.11 44.86 43.61 41.80 40.10 38.56 36.46 37.11 37.54 40.51 41.00
52.27 52.16 52.43 52.71 52.60 51.96 51.89 51.48 51.30 51.06 50.83 50.52 50.82 51.65 52.18 51.46 47.53 47.82 43.85 48.18 49.51 47.93 31.65 33.69 37.41 41.14 42.65 40.67 36.66 47.73 49.56 45.97 43.64 38.89 41.42 40.74 43.78 42.26 41.42 40.26 41.36 36.11 41.57 40.91 39.85 36.32 30.59
52.02 51.86 51.80 52.20 52.40 52.00 51.65 51.78 51.26 50.95 50.43 50.21 50.30 51.33 51.88 51.28 47.66 44.28 46.34 49.31 49.33 44.54 19.34 35.44 37.00 45.25 43.62 37.23 41.28 43.14 50.03 46.31 40.18 39.64 40.72 36.55 39.81 40.15 37.88 40.53 42.98 39.17 42.60 40.61 39.49 36.13 34.60
51.62 51.45 51.44 51.76 51.98 52.02 51.61 51.24 51.39 50.79 50.29 49.99 50.14 50.93 51.53 50.38 49.17 48.10 50.01 49.74 45.54 30.65 23.00 32.71 36.46 36.29 37.80 40.67 42.05 44.01 44.98 47.46 46.27 39.48 40.40 38.92 42.58 42.48 40.40 43.16 43.11 44.70 40.29 38.95 37.86 35.83 29.01
51.13 51.06 51.36 51.51 51.50 51.87 51.21 50.74 50.99 50.67 50.20 49.88 50.25 50.73 49.64 49.46 44.90 50.89 49.75 44.12 30.15 25.67 36.11 33.24 34.54 39.03 38.42 38.18 38.14 38.67 38.32 39.40 37.07 32.77 32.41 36.42 35.87 40.22 41.76 39.59 42.92 41.19 35.31 28.08 27.93 27.11 26.66
50.83 50.94 51.12 51.19 51.23 51.64 51.19 50.85 50.60 50.36 49.98 50.55 50.89 50.98 50.64 49.56 51.24 49.60 45.66 36.75 25.57 32.60 32.30 38.54 38.72 39.64 36.13 38.87 37.54 39.44 39.85 37.33 41.16 38.07 33.81 31.73 28.85 35.41 39.12 39.30 36.54 38.60 36.33 28.03 21.86 23.57 25.06
50.50 50.41 50.66 50.87 50.92 51.56 50.86 50.54 50.26 49.82 50.55 50.20 51.12 50.75 49.01 51.26 51.53 48.59 40.43 30.26 28.89 32.00 36.14 35.91 39.26 35.10 35.71 38.84 38.76 39.09 38.41 37.68 40.68 41.00 34.46 32.88 31.18 37.83 39.34 41.40 40.58 37.80 34.20 35.50 28.70 27.26 24.11
50.15 50.24 50.40 50.55 50.49 51.30 50.55 50.23 49.96 49.67 50.16 50.17 46.94 46.78 47.68 50.96 51.34 45.77 39.36 31.03 33.92 37.37 39.04 39.25 34.39 37.84 32.77 36.33 36.77 37.80 37.33 40.69 39.05 41.33 42.60 37.06 30.57 36.29 39.16 41.02 40.34 38.99 41.12 30.11 28.25 18.28 20.91
49.57 49.90 50.10 50.09 50.02 50.38 50.21 49.85 49.71 49.39 49.83 50.43 46.86 43.11 47.49 51.74 49.69 43.16 33.75 35.55 38.10 42.12 41.49 38.42 37.52 36.25 36.62 36.31 38.50 36.79 36.95 39.85 41.23 39.90 41.49 40.40 36.58 34.51 38.03 35.79 34.94 35.49 35.25 33.88 31.96 28.06 21.98
49.22 49.29 49.52 49.32 49.48 49.73 50.08 49.57 49.37 49.11 49.20 48.05 45.23 39.75 48.88 51.07 41.45 43.05 37.99 39.17 40.03 41.65 43.76 41.38 41.06 40.20 38.56 38.38 37.03 36.55 36.35 38.78 42.58 42.29 37.71 39.48 36.35 30.87 33.99 38.43 40.55 38.90 37.22 36.23 31.06 27.45 25.72
48.98 48.93 49.14 49.01 48.83 48.99 49.69 49.26 49.07 48.71 48.05 44.67 39.16 42.61 49.92 49.83 37.66 38.38 40.78 40.79 41.96 40.84 40.74 40.28 39.59 41.14 41.15 38.41 34.73 37.42 38.17 42.53 42.83 41.43 38.21 39.15 32.59 26.05 27.45 33.92 36.88 34.63 37.17 37.22 33.87 32.58 28.22
48.08 48.31 48.51 48.66 48.57 48.68 49.42 49.04 48.80 48.32 47.85 45.44 41.42 35.84 41.06 46.70 44.82 41.11 39.51 39.32 39.37 43.40 41.55 41.67 40.39 41.58 39.44 37.39 39.40 36.33 37.20 41.15 42.33 41.21 43.37 42.14 34.63 30.41 25.04 30.60 34.11 30.24 34.04 35.10 31.43 24.00 27.06
47.70 47.74 47.99 48.15 48.82 48.67 48.50 48.78 48.55 47.81 48.56 44.98 41.07 36.59 38.69 34.93 39.74 39.86 41.18 40.61 38.40 38.24 42.23 42.52 39.69 39.83 39.10 35.23 36.12 35.83 38.39 38.73 41.39 40.75 39.64 38.93 28.91 28.49 32.69 35.35 32.66 32.35 33.18 33.46 25.53 30.76 24.06
47.31 47.16 47.52 48.22 48.50 48.69 48.82 48.62 48.22 47.38 48.25 43.41 36.33 35.85 38.22 36.04 38.92 39.35 39.36 39.41 38.37 40.12 40.03 39.08 38.30 40.18 39.46 36.86 37.04 35.37 37.78 37.20 36.26 38.34 36.80 38.28 28.40 30.05 28.19 34.09 33.75 29.74 33.47 34.25 33.42 33.46 32.84
46.87 46.93 47.99 48.44 48.58 48.58 48.59 48.33 48.02 47.22 46.61 39.44 39.80 40.93 38.46 36.41 37.46 37.71 37.87 38.97 39.44 41.35 42.37 42.80 41.39 39.66 38.41 39.99 41.01 41.12 40.97 40.72 39.97 37.10 35.74 35.50 31.13 27.91 23.68 30.51 30.27 25.79 31.78 33.46 33.88 35.04 34.98
47.36 47.06 48.04 48.96 48.58 48.31 48.40 47.78 47.85 47.45 45.93 41.85 39.97 39.43 35.01 31.81 34.92 35.63 37.74 39.31 39.22 41.02 39.76 42.78 43.41 40.26 40.77 43.76 43.21 41.52 40.63 40.23 39.33 37.73 39.58 34.85 33.30 31.41 26.12 26.71 18.11 33.57 37.50 37.29 35.31 36.88 37.63
47.81 47.34 47.89 48.62 48.28 47.92 47.85 47.53 47.37 47.09 46.77 42.70 41.90 38.42 34.33 29.12 32.89 33.39 36.47 37.73 40.10 42.25 41.09 42.24 43.40 42.53 44.32 41.69 38.13 34.62 34.32 35.97 37.37 37.10 36.91 38.03 34.76 30.13 24.90 24.22 30.68 33.39 35.27 34.94 33.89 34.27 38.63
47.64 47.65 48.32 48.50 48.13 47.49 47.39 47.56 47.74 47.69 46.58 43.84 42.62 42.52 37.89 31.72 31.95 34.18 34.43 36.77 36.35 39.07 39.95 41.86 44.26 45.60 43.37 39.90 36.68 31.19 28.16 31.41 31.40 33.79 37.48 37.40 38.05 31.14 28.38 24.03 23.11 34.77 38.54 40.51 38.99 32.73 39.25
48.06 47.69 48.10 48.47 48.00 47.21 47.03 47.21 46.89 47.24 46.81 44.05 42.16 43.81 37.97 30.91 34.58 34.24 33.66 34.07 38.56 39.58 38.78 41.05 41.30 40.92 41.77 36.88 33.63 29.99 29.78 36.17 29.94 30.44 30.75 30.95 31.32 29.75 29.55 28.07 29.34 39.58 41.01 41.87 32.29 34.24 41.79
48.09 48.20 48.29 48.09 47.57 46.78 46.90 47.14 46.91 47.19 47.03 44.40 41.65 44.52 39.45 33.96 33.84 35.81 35.98 32.95 33.85 36.99 36.54 40.69 39.89 39.84 38.28 35.35 33.10 33.15 30.60 33.96 32.62 33.15 33.53 32.21 30.67 30.35 31.22 28.02 21.42 39.94 38.73 35.93 39.54 42.41 43.26
48.41 48.41 48.18 47.64 46.92 46.45 46.89 47.04 47.40 47.42 46.87 45.52 40.14 43.62 43.69 36.42 34.18 38.96 38.90 38.99 37.60 37.38 35.82 36.63 39.64 41.16 40.79 36.36 35.87 35.42 33.14 33.48 32.24 29.51 34.93 29.02 32.66 31.32 31.30 31.14 38.73 40.18 40.63 42.26 42.90 41.70 41.98

GFSGBSN_sfc_wetblb_063.txt.gz
Wetbulb
56.04 55.91 55.84 55.59 55.67 54.94 54.54 54.22 54.64 55.39 54.95 55.25 55.39 55.50 54.99 54.61 54.18 53.98 53.86 53.62 53.04 52.88 52.65 52.57 52.61 52.23 49.18 42.02 41.23 51.31 56.67 57.11 55.13 56.58 53.55 51.77 47.95 48.83 45.68 47.51 47.51 45.27 46.55 48.62 49.59 48.43 47.97
55.92 55.65 55.68 55.22 55.12 54.64 54.51 53.92 53.84 54.21 54.53 55.01 55.17 54.74 54.36 54.17 54.20 53.68 53.60 53.34 52.11 52.02 52.14 51.81 51.61 51.36 45.76 36.55 49.39 51.34 52.22 52.08 54.11 54.85 52.93 52.49 48.48 49.88 47.19 47.08 45.47 47.26 47.75 48.03 48.76 47.88 47.53
55.55 55.25 55.32 55.17 54.80 54.39 54.19 53.51 53.62 53.57 54.19 54.66 54.95 54.05 53.73 53.89 54.27 53.34 52.80 51.78 51.47 51.31 51.52 51.59 51.56 49.25 43.45 40.33 49.48 51.88 52.87 52.45 54.07 54.16 51.83 52.57 52.35 49.08 48.10 46.24 49.31 47.04 44.01 45.64 46.21 46.80 46.01
55.16 55.00 54.98 54.91 54.30 54.26 53.83 53.21 52.69 53.47 53.74 54.00 54.24 53.87 53.54 53.69 53.31 52.44 51.82 50.94 50.63 50.83 51.16 51.51 51.65 48.00 39.10 49.25 48.13 48.00 49.01 49.92 53.75 54.16 54.47 55.03 53.23 49.84 46.96 49.03 47.07 43.90 42.32 37.96 44.49 46.11 47.10
54.65 54.73 54.52 54.39 54.06 53.97 53.74 53.10 52.77 52.63 53.37 53.39 53.71 53.85 53.25 53.10 52.39 51.79 51.04 50.23 50.18 51.08 51.71 51.93 47.88 44.58 37.39 51.34 45.89 47.34 46.17 45.97 50.66 51.90 52.78 55.00 51.58 47.78 45.99 41.52 39.83 41.77 33.87 35.73 40.41 45.68 45.87
54.28 54.41 54.05 54.15 54.01 53.74 53.44 53.09 52.64 52.29 52.49 52.78 53.00 53.01 52.70 52.63 51.95 51.42 51.45 51.56 51.21 50.28 49.94 50.04 48.14 40.29 42.61 40.58 45.49 47.63 47.88 50.77 48.13 49.10 48.88 49.22 47.11 40.91 41.38 39.24 32.70 35.27 34.05 36.39 36.86 42.00 44.14
53.79 53.70 53.57 53.63 54.20 53.62 53.24 52.78 52.44 52.25 51.80 51.68 52.17 52.36 53.02 52.10 52.22 52.19 49.52 45.73 40.25 39.29 42.99 39.55 39.68 39.14 41.42 44.31 48.22 46.81 49.00 46.41 45.71 44.98 42.78 45.31 40.47 36.21 38.75 41.24 39.90 39.39 37.72 35.77 39.19 43.44 42.00
53.31 53.49 53.28 53.49 53.71 53.29 53.07 52.81 52.40 52.11 51.77 51.21 51.07 51.78 52.34 52.50 52.28 52.39 48.06 41.42 41.98 41.49 34.66 41.91 42.68 41.40 43.64 44.61 39.11 44.28 48.03 40.22 39.42 35.12 43.09 41.45 36.67 40.42 42.51 42.29 40.90 38.57 36.04 36.10 38.75 43.07 42.31
52.91 53.01 52.89 53.22 52.85 53.08 52.48 52.41 52.52 52.28 51.72 51.26 50.55 51.36 51.92 52.53 52.43 47.95 43.72 43.33 46.15 45.74 35.45 38.49 42.10 41.02 41.28 43.10 38.97 41.58 44.40 42.16 37.15 35.85 40.51 37.76 39.43 43.29 42.18 40.17 38.75 37.26 33.46 34.06 35.23 38.86 38.93
52.53 52.69 52.49 52.70 52.69 53.50 52.67 52.00 51.91 52.03 51.41 50.87 50.82 50.87 51.43 52.40 46.37 44.67 42.08 47.13 47.43 46.77 31.19 34.73 37.63 40.29 42.78 40.94 37.60 46.05 44.27 43.19 36.96 37.61 38.87 39.12 42.47 41.31 40.29 38.78 39.11 34.12 39.40 38.94 37.92 34.41 29.52
52.20 52.16 52.10 52.45 52.23 52.89 52.13 51.59 51.52 51.77 51.25 50.69 50.56 50.59 51.16 51.47 44.71 42.09 45.25 47.37 46.09 43.71 19.13 36.06 37.21 45.36 43.31 38.10 40.82 40.26 48.78 44.75 34.89 40.08 38.91 37.67 38.75 39.54 39.28 39.62 41.67 36.81 40.86 39.16 37.14 34.04 32.41
51.88 51.83 51.77 52.07 51.96 51.99 51.97 51.52 51.36 51.26 50.94 50.53 50.04 50.61 50.50 47.92 48.26 48.21 48.60 47.10 45.00 27.56 21.24 32.64 36.75 36.89 36.57 39.57 41.21 44.14 44.92 47.70 45.95 40.78 39.77 39.41 43.46 42.49 39.73 42.16 42.95 43.28 39.37 36.55 35.53 33.46 25.49
51.34 51.45 51.51 51.63 51.74 51.73 51.57 51.36 51.12 51.00 50.64 50.54 50.78 51.06 49.27 49.51 42.69 48.78 48.75 42.39 24.59 21.63 35.33 33.91 34.55 39.04 38.27 37.47 38.13 40.14 39.59 39.16 36.41 30.36 31.91 36.66 36.68 40.19 42.98 39.50 41.40 41.56 33.10 24.33 23.70 21.35 23.08
50.89 50.99 51.15 51.34 51.44 51.39 51.44 51.12 50.89 50.78 50.74 50.70 51.04 51.88 49.76 48.56 47.72 48.50 42.55 32.61 20.18 29.99 31.17 38.20 38.83 38.82 35.43 38.16 37.53 39.64 39.11 36.74 38.68 35.49 32.52 28.48 30.39 37.25 40.05 37.82 38.07 38.95 33.28 24.86 19.11 19.97 23.41
50.53 50.56 50.78 50.89 51.01 50.94 50.99 50.91 50.53 50.39 50.88 50.14 50.31 45.72 44.43 47.18 48.84 45.94 38.67 24.33 28.02 28.40 36.03 35.48 37.25 34.53 34.88 38.82 38.38 38.62 37.37 37.28 37.84 38.33 30.76 29.91 29.02 38.16 39.52 41.69 40.65 37.55 31.42 35.34 26.66 24.72 20.06
49.90 50.18 50.27 50.24 50.56 50.42 50.62 50.68 50.20 50.27 50.32 50.18 42.30 41.91 42.83 48.51 47.82 42.61 32.26 29.72 32.45 36.07 38.35 38.79 33.94 36.94 31.99 34.41 36.36 35.81 34.53 39.26 38.99 41.16 41.00 35.22 28.75 36.86 39.11 41.53 41.33 38.61 39.97 29.97 24.44 18.96 19.27
49.34 49.54 49.64 49.76 49.77 49.81 50.11 50.23 49.91 49.77 49.99 49.21 41.52 38.37 44.59 48.73 45.87 40.75 29.30 28.46 37.62 40.97 40.33 37.84 36.60 35.08 35.30 35.78 36.08 34.61 34.26 37.66 39.54 38.74 41.46 39.73 33.72 33.94 38.37 35.81 35.92 35.45 34.07 32.97 31.30 26.23 20.76
48.91 49.07 49.23 49.28 49.17 49.19 49.76 49.62 49.73 49.56 49.66 44.92 38.06 34.19 45.47 47.07 34.74 37.82 31.91 37.17 40.96 40.64 41.82 40.35 40.69 39.50 36.58 36.35 34.28 34.80 33.91 36.19 40.99 40.67 37.51 39.18 35.82 30.19 34.05 39.36 41.06 38.95 36.26 34.57 26.15 24.73 22.80
48.26 48.48 48.71 48.86 48.70 49.11 49.12 49.39 49.48 49.15 48.60 43.30 37.57 36.23 44.97 45.56 35.44 34.35 37.24 39.66 40.99 39.74 39.06 38.72 37.79 39.01 39.58 37.48 32.78 35.28 36.00 40.80 41.33 39.59 36.73 38.14 31.45 24.94 26.70 32.39 35.94 34.49 36.49 37.89 33.68 30.14 22.60
47.68 47.79 48.20 48.46 48.91 48.96 49.25 49.03 48.88 48.61 48.70 41.69 37.00 31.53 35.85 41.92 40.38 39.08 36.28 36.46 37.99 41.38 40.12 40.12 38.40 38.71 36.64 34.63 36.66 34.22 34.95 39.95 40.81 39.04 43.81 41.38 33.35 29.40 23.10 27.35 32.01 29.01 34.38 34.10 32.08 26.64 27.88
47.51 46.94 47.75 48.59 48.91 48.92 48.99 48.77 48.69 48.55 49.22 40.49 34.82 32.99 37.72 32.44 36.69 34.64 37.57 39.39 36.72 36.58 40.03 40.16 37.44 37.77 36.37 32.68 33.88 33.76 35.95 36.62 39.53 41.27 38.56 37.17 26.95 27.91 32.06 34.77 31.23 31.67 32.72 32.64 27.09 30.36 24.23
47.26 46.72 47.82 48.71 48.83 48.71 48.78 48.36 48.47 47.97 47.83 36.02 32.01 31.50 33.75 34.24 36.02 34.37 38.12 37.79 36.65 39.44 37.80 36.91 35.92 37.93 37.27 34.87 34.01 32.83 35.81 34.73 34.39 35.72 35.01 36.36 26.26 28.00 26.31 33.16 32.26 29.10 32.67 33.66 32.41 32.30 31.41
47.10 46.52 47.72 48.94 48.68 48.42 48.34 47.92 48.05 47.73 44.49 33.37 34.63 35.63 35.75 32.47 35.32 35.23 35.86 36.29 38.12 39.76 40.29 40.82 39.34 37.28 36.43 37.80 37.97 37.37 37.73 37.44 37.53 35.27 33.61 33.69 29.04 25.56 22.33 29.80 29.58 25.39 30.54 31.57 32.63 33.36 33.58
47.46 46.66 47.26 48.69 48.36 48.11 47.86 47.87 47.93 47.88 45.55 36.96 35.39 37.40 32.78 26.94 29.72 31.55 33.01 37.70 37.93 39.35 39.09 42.46 41.45 37.32 39.15 41.62 40.40 39.74 38.46 38.09 37.75 35.85 36.94 32.50 30.32 27.99 21.75 25.64 16.46 29.06 35.82 35.81 34.46 35.21 35.40
47.88 47.47 47.19 48.31 48.25 47.75 47.49 47.74 47.71 47.97 47.14 38.72 37.30 34.15 32.83 25.30 28.75 30.13 32.24 35.29 38.20 39.83 39.03 40.62 41.42 39.94 42.13 39.06 34.51 32.53 32.72 35.18 35.41 36.08 35.07 35.58 32.21 26.70 22.98 19.41 25.84 31.59 33.92 33.59 32.20 32.24 36.88
48.11 47.77 47.41 48.21 47.86 47.20 47.08 47.40 47.09 47.38 46.96 39.67 38.15 38.26 34.15 28.56 27.89 32.43 31.30 33.64 33.43 36.31 39.63 40.05 42.71 43.81 42.15 37.60 34.20 27.23 24.14 29.57 31.00 34.17 36.29 35.75 34.47 28.14 24.78 21.55 22.36 33.39 36.16 38.77 38.25 30.09 37.85
48.27 47.84 47.39 48.15 47.55 46.93 46.81 47.42 46.96 47.48 47.19 41.14 38.23 39.83 34.71 30.59 30.19 30.85 28.26 29.36 36.47 35.44 36.06 40.57 38.82 38.44 40.17 34.31 30.66 26.04 26.33 32.61 28.06 29.97 29.49 30.03 30.36 26.66 28.35 23.78 28.26 38.01 38.68 40.16 30.96 31.91 39.23
48.56 48.15 47.67 47.88 47.20 46.61 46.89 47.10 47.36 47.53 47.47 41.81 37.95 40.60 35.92 30.76 31.19 33.97 33.80 30.41 30.63 32.82 33.98 36.10 37.33 38.52 36.42 32.66 31.76 31.60 28.10 31.53 29.71 32.02 32.26 31.06 29.93 29.65 30.64 27.66 21.94 39.56 37.68 36.56 38.36 40.48 41.51
48.89 48.27 48.14 47.55 46.77 46.43 46.74 46.90 47.08 47.48 47.66 45.86 38.78 40.70 41.04 37.07 32.72 36.51 37.37 37.69 36.00 36.42 33.46 34.64 35.75 39.93 40.52 34.89 33.55 34.18 31.67 31.26 29.46 26.53 32.89 28.09 31.22 31.11 30.40 30.04 36.69 38.60 38.64 40.39 41.70 41.42 42.44

GFSGBSN_sfc_wetblb_066.txt.gz
Wetbulb
56.25 55.89 55.61 55.86 55.69 55.11 54.76 54.19 53.77 54.51 54.65 55.07 55.22 55.23 54.50 54.60 54.75 54.76 53.80 53.85 52.86 52.59 52.32 51.91 51.96 51.67 48.92 41.25 41.08 50.10 55.27 54.13 51.92 54.11 51.95 51.16 45.36 47.62 44.68 46.71 48.55 45.32 47.11 48.85 50.16 50.53 50.38
55.94 55.71 55.19 55.36 55.32 54.95 54.65 54.16 53.38 53.85 54.58 54.67 54.76 54.76 54.05 54.34 54.29 54.09 53.64 52.79 52.12 51.93 51.72 51.31 51.44 51.95 44.83 35.70 47.84 49.77 50.57 52.16 52.23 51.83 51.31 51.88 48.32 49.09 46.64 46.93 46.46 48.16 47.76 48.23 48.57 47.47 48.68
55.43 55.53 55.27 55.22 54.65 54.63 54.19 53.77 53.42 52.87 53.91 54.20 54.25 54.17 53.62 53.55 53.52 53.67 53.08 52.27 51.96 51.82 51.73 52.00 52.22 48.86 43.37 39.18 47.79 49.86 49.49 49.15 53.27 52.06 50.83 52.85 51.59 48.54 47.24 45.07 49.21 46.89 44.06 46.05 46.74 46.71 46.02
55.11 55.07 54.92 54.66 54.86 54.54 54.08 53.42 53.25 53.08 52.81 53.54 53.47 53.84 53.53 52.99 52.66 52.13 51.64 51.08 50.55 50.85 51.22 51.64 51.80 47.58 38.07 48.93 47.34 48.25 49.24 48.68 52.87 54.30 53.76 54.73 53.88 48.85 45.43 47.93 46.05 43.37 42.72 38.84 44.73 45.79 47.06
54.72 54.63 54.36 54.13 54.91 54.00 53.76 53.38 52.99 52.83 52.65 52.53 52.85 53.24 53.40 52.91 52.70 52.10 51.83 51.14 50.56 50.90 51.26 51.71 47.06 43.12 35.92 50.37 45.71 48.03 47.93 45.40 50.20 51.85 53.79 54.78 52.02 45.19 44.97 41.45 39.13 40.76 34.38 35.93 40.32 45.44 45.41
54.20 54.09 53.89 53.76 54.28 53.91 53.76 53.74 53.58 52.77 52.51 51.95 51.69 51.93 52.70 53.23 52.54 52.89 53.26 52.39 51.06 49.90 49.53 50.14 48.11 38.87 41.62 40.01 44.65 46.95 48.28 49.64 46.94 48.51 49.34 49.25 47.48 39.98 41.52 39.50 32.84 35.12 34.42 35.25 37.85 42.20 43.18
54.02 53.91 53.49 53.34 53.21 53.40 53.49 53.51 53.25 53.63 52.72 51.92 51.46 51.42 51.58 52.42 52.87 52.86 50.27 44.34 40.35 37.95 41.01 38.30 38.92 38.43 41.19 44.24 46.48 46.51 48.56 45.99 44.45 43.04 40.27 46.02 40.35 35.69 38.42 40.57 39.84 39.76 36.56 36.88 38.65 42.86 41.20
53.41 53.45 53.21 53.27 53.21 53.06 53.19 52.88 52.75 52.95 52.78 51.82 51.29 50.74 51.33 51.87 52.79 52.95 45.90 41.64 41.67 42.01 34.25 41.21 41.22 41.74 43.74 44.32 38.66 43.87 47.68 39.91 38.20 36.68 41.74 41.80 35.65 39.71 41.95 42.37 40.43 39.83 36.01 35.08 38.47 42.53 41.52
53.02 53.15 52.90 52.84 53.00 52.95 52.70 52.37 52.26 52.12 51.97 51.60 51.03 50.59 51.21 51.67 52.51 46.25 42.93 43.16 46.22 46.14 35.46 37.96 41.93 40.66 40.90 42.70 38.35 40.72 44.42 42.17 37.06 35.85 35.53 37.16 38.03 42.56 41.13 40.01 38.88 36.82 36.21 34.89 34.88 38.22 38.29
52.55 52.75 52.43 52.68 52.69 52.53 52.61 52.27 52.02 52.19 51.80 51.34 50.85 50.64 51.11 51.46 45.66 44.07 41.26 46.27 46.62 45.12 30.47 33.40 37.46 39.73 42.34 41.60 37.35 45.09 45.43 42.73 38.36 35.34 35.48 40.09 41.81 40.53 39.17 38.23 38.53 33.92 38.71 37.76 37.02 34.14 29.83
52.21 52.37 52.07 52.28 52.36 52.25 51.81 51.90 51.99 51.78 51.45 50.97 50.47 50.59 50.99 50.53 44.03 43.81 45.24 46.49 45.37 43.40 20.57 36.03 37.98 45.56 43.10 38.37 40.04 40.04 45.71 42.84 37.19 37.58 37.69 37.20 38.70 38.68 37.77 38.66 39.49 36.04 39.55 37.60 36.34 33.15 30.82
51.65 51.96 51.78 51.83 52.02 51.85 51.65 51.70 51.49 51.42 51.20 50.65 50.19 50.90 50.27 46.92 46.43 47.85 48.81 45.97 44.87 24.55 21.39 32.86 37.50 37.88 37.20 38.83 38.34 40.23 43.66 45.34 43.94 40.49 40.72 39.42 42.80 40.99 39.31 41.66 41.79 42.10 37.13 35.87 35.14 32.76 24.55
51.02 51.42 51.40 51.46 51.64 51.52 51.42 51.12 51.16 51.06 50.83 50.18 50.19 51.13 49.41 48.72 41.73 48.65 48.19 42.51 23.01 22.73 33.68 34.22 35.61 38.80 38.24 35.03 38.02 39.58 36.37 35.10 36.37 31.62 32.38 37.21 37.41 40.76 41.93 37.47 40.13 38.67 32.20 25.76 26.98 27.08 22.54
50.50 50.87 51.02 51.07 51.22 51.11 51.05 50.84 50.98 50.84 50.43 50.63 50.63 50.80 49.73 48.09 46.84 47.15 42.30 30.93 18.74 29.42 30.33 38.26 38.43 38.70 35.40 38.62 38.38 39.04 38.05 35.44 38.15 35.78 33.17 30.96 30.80 37.59 39.87 37.74 38.09 36.64 31.64 23.51 19.65 21.63 23.38
49.98 50.37 50.45 50.40 50.55 50.73 50.59 50.91 50.57 50.42 50.88 50.61 49.43 44.16 43.57 46.10 47.75 44.33 36.86 21.18 21.95 23.42 33.57 35.02 36.67 33.12 35.02 38.35 38.67 38.75 35.55 34.61 38.12 36.80 29.64 28.07 29.79 38.66 40.12 41.44 40.16 36.99 30.37 33.87 24.00 22.35 19.40
49.47 49.64 49.83 49.95 49.91 50.09 50.27 50.23 50.37 50.21 50.44 50.13 40.77 40.71 41.52 47.72 46.52 41.35 29.54 28.94 28.96 35.21 37.15 37.35 32.65 34.42 32.38 35.76 35.66 34.22 34.49 38.61 37.86 39.66 37.92 32.63 28.58 36.31 39.00 41.65 41.20 38.92 38.81 28.08 23.14 17.45 18.10
49.02 49.01 49.38 49.31 49.40 49.60 49.86 50.01 50.09 49.93 50.21 49.09 40.18 38.36 43.58 47.51 45.16 35.95 24.53 25.91 34.54 39.98 39.21 36.61 34.85 33.69 32.91 34.69 35.60 32.69 32.36 36.44 38.31 39.06 38.89 35.58 31.05 33.03 38.19 36.02 35.94 36.57 34.41 31.51 30.57 24.87 20.85
48.74 48.46 48.77 48.77 48.91 49.39 49.86 49.70 49.70 49.63 49.75 44.14 36.14 31.97 44.43 46.15 35.66 33.80 30.64 35.71 40.64 39.42 40.62 38.77 38.56 37.13 34.01 33.75 32.93 32.63 32.47 34.70 39.41 39.67 36.51 38.04 33.50 30.44 32.59 39.23 41.15 38.92 35.81 34.17 25.69 22.36 20.65
48.33 47.87 48.04 48.66 49.03 49.17 49.48 49.38 49.47 49.35 49.07 39.69 35.61 34.66 43.54 44.08 34.78 31.03 36.26 38.55 39.78 38.53 38.39 37.56 36.34 37.69 37.31 34.16 31.22 33.91 34.64 39.36 40.27 38.47 36.03 37.98 29.48 22.54 28.55 33.19 37.20 36.33 35.71 35.91 31.75 26.45 18.59
48.16 47.27 47.56 48.72 48.97 48.93 49.15 48.83 49.06 48.86 49.10 40.61 35.34 27.42 35.02 41.16 40.10 37.84 35.37 36.03 36.93 40.13 39.27 38.82 36.98 37.55 35.72 34.15 35.63 33.31 33.60 38.66 39.57 38.08 44.02 40.48 32.48 26.90 22.36 26.61 31.06 30.49 34.31 34.98 31.78 23.24 25.46
48.28 46.90 47.35 48.70 48.89 48.76 48.72 48.44 48.74 48.52 47.95 38.67 32.89 29.53 35.03 27.41 32.96 34.76 35.58 38.14 37.29 37.11 38.71 38.78 36.53 36.21 34.72 30.78 32.37 32.74 34.81 35.60 38.50 40.57 37.49 35.15 24.44 26.54 31.53 33.37 30.16 30.94 33.23 32.62 28.38 33.38 28.15
48.17 46.84 47.60 48.71 48.67 48.50 48.29 48.19 48.42 48.59 45.66 34.22 30.08 28.59 31.44 30.08 33.67 32.00 37.65 36.35 36.14 38.42 36.91 35.93 34.75 37.15 35.84 32.98 32.92 32.51 34.61 33.48 33.21 34.71 33.97 34.44 25.82 25.96 25.90 32.35 31.04 28.93 32.08 33.35 31.86 31.63 31.33
48.00 46.86 47.52 48.62 48.53 48.18 48.02 48.29 48.45 48.09 42.85 32.62 33.33 34.10 34.30 30.12 32.92 34.51 33.14 33.58 36.61 39.77 39.22 39.65 38.11 36.22 35.08 36.35 36.47 36.05 37.09 37.02 36.31 34.43 32.75 31.95 27.88 24.16 20.56 28.81 27.91 23.89 30.09 31.51 32.53 32.85 33.47
47.87 47.03 47.17 48.21 48.28 47.83 47.71 47.92 47.99 47.74 43.39 35.23 34.32 33.13 27.73 25.49 27.01 28.85 31.12 33.85 36.43 38.02 37.39 41.54 39.95 36.11 37.98 40.19 38.86 37.73 36.94 36.57 36.28 34.16 35.88 31.06 28.34 27.10 21.11 24.73 15.43 28.50 34.17 34.43 33.82 34.02 34.71
48.21 47.69 47.20 48.03 47.86 47.44 47.39 47.61 47.39 47.51 46.65 37.73 36.30 32.64 28.14 22.95 26.90 27.91 29.70 32.15 36.26 38.66 39.33 40.24 41.19 39.17 41.17 38.78 33.32 30.87 30.84 32.14 33.29 34.42 33.72 34.51 30.85 25.87 22.41 18.73 25.14 29.57 33.12 32.44 31.02 31.12 35.54
48.44 48.29 47.62 48.11 47.58 47.00 47.15 47.65 47.36 47.47 47.10 38.37 36.76 36.59 31.77 25.88 25.09 29.78 28.19 31.39 30.47 35.68 37.57 40.13 42.05 43.06 40.42 36.47 32.64 26.52 23.78 27.24 27.99 32.36 34.27 34.78 32.89 27.13 23.11 20.78 21.01 30.86 34.85 37.16 36.45 27.56 36.05
48.67 48.34 47.85 48.26 47.31 46.64 47.06 47.14 47.45 47.69 47.41 40.03 37.15 38.46 33.37 26.14 28.69 29.24 25.64 25.41 31.30 33.72 32.24 38.21 36.29 38.49 39.59 34.08 29.97 26.03 25.52 30.77 26.39 27.63 27.84 31.13 31.90 26.71 24.81 20.77 26.86 34.18 37.13 38.64 27.24 29.46 37.74
48.96 48.58 48.08 48.20 47.12 46.36 46.74 46.98 47.13 47.42 47.62 40.69 37.23 39.39 35.96 31.16 30.23 33.04 33.01 28.88 29.83 31.19 28.65 34.51 36.09 38.01 36.20 33.66 32.55 30.93 27.65 29.60 27.91 29.89 29.46 28.10 28.42 28.39 28.72 25.58 20.88 37.59 36.89 33.58 36.93 39.64 39.30
49.11 48.72 48.59 47.89 46.90 46.08 46.61 46.82 47.28 47.38 47.47 45.14 39.12 41.79 41.98 36.93 31.62 35.42 36.18 36.49 34.65 34.64 32.52 33.80 33.54 34.98 41.38 34.22 33.41 34.07 31.43 30.28 27.97 25.45 30.98 27.87 30.32 28.36 29.18 28.78 35.99 37.68 36.92 40.00 41.13 41.96 41.74

GFSGBSN_sfc_wetblb_069.txt.gz
Wetbulb
55.81 55.42 55.08 55.74 55.22 55.20 55.15 54.68 53.70 53.26 54.22 55.07 55.14 54.92 54.06 53.93 54.31 54.65 54.27 54.02 52.77 52.19 52.17 51.69 51.60 51.66 48.43 40.48 39.95 49.80 53.97 52.53 52.86 51.42 49.92 49.46 46.32 45.68 44.16 44.80 47.36 43.11 47.18 48.99 50.81 50.98 50.47
55.68 55.23 54.84 55.40 54.72 54.86 55.09 53.92 53.56 53.29 53.23 54.41 54.35 54.33 54.37 53.26 53.42 53.41 53.72 53.25 52.76 52.29 51.77 51.22 51.30 51.54 43.91 34.48 46.18 48.82 50.11 49.57 49.03 50.74 50.10 50.63 46.13 46.85 44.78 45.41 45.45 47.43 47.04 47.36 49.20 48.90 48.20
55.44 55.09 54.80 54.71 55.22 54.43 54.44 53.86 53.17 53.06 53.13 53.19 53.95 53.53 53.72 53.04 52.69 52.36 52.10 52.52 52.30 51.98 51.59 51.73 51.67 48.59 42.13 38.21 46.41 47.93 49.15 47.81 49.51 50.49 48.93 51.93 51.31 46.60 45.45 43.37 47.76 46.94 43.48 46.24 46.54 46.87 46.64
55.08 54.85 54.48 54.29 54.64 54.06 54.56 54.23 53.58 53.48 53.01 52.61 52.51 52.97 52.92 53.59 52.61 52.68 52.41 51.16 50.74 50.97 51.25 51.60 51.75 46.45 36.87 48.04 46.60 46.72 49.43 47.88 49.58 53.28 52.63 53.94 53.80 47.33 44.69 45.89 44.83 42.19 42.78 38.49 44.80 46.65 46.86
54.49 54.49 54.10 53.92 53.69 54.09 54.08 53.98 53.58 53.82 53.94 52.45 51.83 51.66 52.48 52.76 53.09 52.74 53.06 53.02 50.80 50.86 51.14 51.48 45.85 41.76 35.25 49.31 45.05 46.51 48.55 45.18 47.30 51.68 53.36 54.22 52.65 44.38 43.76 39.42 36.86 39.87 35.13 36.99 40.32 46.42 45.36
54.30 54.13 53.87 53.54 53.59 53.21 53.94 53.30 53.42 53.55 53.58 52.88 51.51 51.29 51.76 52.14 52.64 53.09 53.09 52.19 51.13 49.43 49.29 49.93 47.72 37.79 40.45 39.25 43.81 45.84 47.87 47.69 46.02 46.37 48.22 48.46 47.99 40.24 39.35 37.54 30.63 34.62 34.58 37.08 37.88 42.62 44.18
53.62 53.72 53.48 53.26 53.26 53.32 53.69 53.42 52.74 52.47 52.62 52.45 51.49 51.05 51.18 51.51 52.28 53.18 49.15 43.03 39.22 37.54 40.76 37.43 38.11 37.52 40.58 43.37 46.05 45.54 48.22 45.42 43.90 42.22 39.98 45.05 38.69 33.87 37.51 38.77 37.47 37.70 36.25 36.28 38.52 43.22 41.97
53.22 53.34 53.26 52.99 53.14 52.94 53.00 52.62 52.51 52.53 52.34 51.68 51.52 50.97 50.54 51.38 51.94 52.82 44.52 39.50 40.09 40.16 33.52 40.44 40.34 40.96 43.33 43.80 37.83 43.43 47.23 39.33 37.16 34.85 41.27 41.92 33.22 38.59 40.98 41.26 39.28 38.25 35.31 35.78 38.99 42.05 42.07
52.75 52.96 52.85 52.63 52.88 52.73 52.61 52.16 52.61 52.24 52.02 51.71 51.46 50.79 50.52 50.95 51.67 45.52 41.95 41.16 44.76 44.19 34.98 37.85 41.30 40.38 40.22 41.92 37.89 40.04 44.31 40.93 35.79 34.06 35.99 36.25 38.98 41.88 40.91 39.28 37.58 35.49 34.18 34.80 36.09 38.61 38.44
52.13 52.55 52.47 52.36 52.41 52.47 52.12 51.76 52.11 51.92 51.54 51.38 51.27 50.79 50.62 50.28 45.34 43.07 40.48 45.56 45.65 44.18 30.38 33.53 37.32 39.23 41.80 41.86 36.94 45.05 44.89 41.93 37.51 34.30 36.77 39.23 41.75 39.71 39.03 37.91 37.67 32.87 38.44 38.01 36.65 34.89 30.82
51.73 52.03 52.20 51.96 52.03 52.12 51.92 51.91 51.64 51.77 51.26 51.34 50.81 50.61 51.00 49.75 42.40 43.16 44.62 45.80 44.76 41.91 13.34 36.67 38.00 45.83 42.66 38.79 39.62 39.34 45.72 43.26 34.71 35.61 35.48 36.27 38.29 37.71 37.07 37.87 38.86 35.04 38.80 37.27 36.22 33.41 31.63
51.30 51.51 51.70 51.62 51.63 51.66 51.57 51.50 51.41 51.57 51.06 51.05 50.43 50.53 50.08 47.23 45.60 47.54 48.57 46.52 44.34 22.21 13.56 32.85 38.61 37.81 37.45 38.78 38.06 39.99 41.01 45.15 43.93 38.07 39.61 39.67 41.99 40.31 38.42 40.85 40.27 40.88 36.37 35.51 34.49 32.21 25.05
50.85 51.08 51.32 51.27 51.31 51.23 51.24 51.15 51.39 51.18 50.98 50.41 50.57 50.84 48.99 47.71 41.08 48.89 48.07 42.83 21.98 21.45 33.42 32.31 35.15 36.62 35.48 34.80 37.15 38.93 37.61 37.12 34.72 31.52 32.10 38.00 38.01 40.85 40.75 37.26 39.56 37.42 31.98 25.25 24.40 25.87 23.33
50.44 50.63 50.84 50.81 50.69 50.76 50.81 50.93 50.85 51.00 50.67 50.95 50.43 49.77 50.13 47.88 46.59 47.60 43.58 28.49 18.36 30.18 31.59 38.36 37.80 38.18 35.31 37.97 37.31 37.39 35.14 34.54 37.68 36.74 32.41 31.56 29.75 37.56 39.28 36.75 34.62 33.63 32.03 23.68 20.07 21.94 23.48
50.17 50.09 50.17 50.20 50.29 50.40 50.50 50.65 50.66 50.51 50.85 50.98 48.66 42.91 43.32 45.29 46.73 44.86 34.79 19.48 21.10 22.54 31.88 34.29 35.90 34.94 33.94 37.67 38.17 38.12 36.78 35.97 37.00 37.98 31.03 29.02 30.45 39.28 41.30 40.53 38.68 34.42 32.89 31.55 23.39 21.16 19.61
49.96 49.45 49.53 49.70 49.70 49.92 50.34 50.41 50.26 50.24 50.59 50.04 40.06 39.97 40.88 46.61 45.81 42.94 27.61 26.24 24.30 33.64 36.15 37.03 30.63 33.96 32.14 35.72 35.39 32.76 35.24 39.09 38.25 39.77 36.98 32.43 29.39 36.63 39.41 41.94 40.08 36.86 37.01 27.88 21.81 15.83 17.91
49.78 48.70 48.92 49.25 49.33 49.69 49.94 50.10 49.99 50.18 49.93 48.62 39.12 37.74 42.92 46.66 44.55 35.61 23.38 24.51 32.82 38.50 38.53 35.57 33.69 32.49 31.77 32.70 33.71 31.29 31.17 35.67 38.39 38.55 37.42 33.76 30.88 32.79 38.71 36.22 35.77 37.20 34.67 31.19 29.41 24.15 20.49
49.47 48.34 48.18 48.67 49.26 49.38 49.71 49.61 49.72 49.71 49.66 43.33 35.56 30.55 43.33 45.25 31.32 30.87 29.47 34.69 40.08 38.16 39.04 37.76 37.64 35.79 32.60 32.65 31.86 31.10 31.54 33.65 38.43 39.66 34.90 35.60 31.78 29.46 33.06 38.12 41.24 39.79 36.78 31.45 23.92 21.71 19.56
49.32 48.05 47.58 48.64 49.09 49.13 49.19 49.11 49.47 49.46 49.06 38.90 34.85 33.89 42.19 42.87 27.45 28.69 34.77 37.40 38.81 37.50 37.42 36.74 35.21 36.60 36.00 32.83 30.62 32.74 33.43 38.38 39.09 38.28 35.69 36.57 30.84 27.03 28.87 33.54 37.85 36.71 37.56 34.61 29.98 25.01 18.21
49.11 47.82 47.35 48.46 48.89 48.81 48.74 48.77 49.16 49.08 48.23 39.54 33.30 27.08 33.82 37.80 36.71 33.23 32.34 34.31 35.57 39.24 38.01 37.66 35.83 36.29 34.40 32.77 34.40 31.84 32.67 37.68 38.49 38.03 43.80 40.76 31.18 26.32 22.39 24.95 31.30 32.77 36.30 34.46 29.59 22.34 23.26
48.93 47.66 47.37 48.30 48.68 48.53 48.53 48.86 48.98 48.37 46.27 37.13 31.13 28.53 31.18 25.39 32.73 34.61 34.08 35.89 34.97 34.74 37.57 37.69 34.90 35.27 33.39 30.19 31.46 31.28 33.81 34.88 37.54 40.06 37.02 35.12 28.52 27.67 30.86 32.38 29.71 30.00 32.98 34.79 27.09 33.31 27.48
48.91 47.73 47.85 48.34 48.44 48.10 48.24 48.49 48.65 48.03 43.87 33.82 28.38 27.04 29.60 27.16 31.52 33.10 35.10 34.24 35.11 36.36 36.25 34.98 33.85 36.50 34.64 31.22 31.53 31.86 33.68 32.51 32.63 33.86 33.11 33.31 24.88 26.24 25.59 31.44 29.98 28.69 31.30 34.13 34.10 33.01 32.82
48.73 47.81 48.33 48.20 48.17 47.64 47.88 47.96 48.34 47.64 41.67 32.03 32.34 32.74 30.68 29.00 27.77 31.46 29.34 32.83 35.34 37.61 40.23 39.23 37.53 35.59 34.05 35.14 35.66 34.88 35.82 36.03 35.18 33.69 32.02 30.91 27.49 23.56 19.81 27.96 27.95 24.31 28.64 30.90 32.27 32.46 33.86
48.64 47.92 48.42 48.22 47.84 47.33 47.70 47.64 47.89 47.98 42.10 34.58 33.01 31.02 26.22 24.83 26.36 26.48 28.98 31.69 34.07 35.53 35.41 39.04 39.39 35.13 37.00 39.79 38.26 37.03 36.35 35.38 35.02 32.90 34.94 29.32 27.01 26.05 19.77 23.57 14.38 28.06 33.17 33.16 32.89 33.43 34.58
48.60 48.14 48.35 48.30 47.68 47.02 47.62 47.46 47.73 47.79 46.52 36.91 34.91 31.02 26.50 21.51 26.33 26.79 28.19 29.81 33.34 36.64 36.98 39.23 41.31 38.70 40.13 37.25 32.46 30.08 29.55 31.34 32.19 33.63 32.42 33.17 29.62 25.36 21.87 18.14 24.40 29.00 31.49 31.42 30.29 30.59 35.66
48.89 48.45 48.60 48.38 47.51 46.85 47.33 47.60 47.75 47.92 47.18 37.67 35.92 35.36 29.96 23.72 23.11 27.80 26.30 28.42 29.60 32.49 35.61 38.24 41.81 41.59 39.40 37.30 33.72 26.19 23.25 26.60 26.23 29.59 33.65 33.44 31.60 26.59 22.87 20.24 19.77 27.67 34.06 35.43 34.26 26.65 36.20
49.12 48.83 48.68 48.52 47.46 46.52 46.94 47.02 47.01 47.48 47.35 39.65 36.40 37.24 31.97 25.71 27.61 27.14 24.04 24.10 28.54 32.27 30.38 34.58 35.41 37.51 39.01 35.31 31.36 25.87 25.55 29.31 25.53 25.83 26.57 30.08 31.69 24.47 24.70 20.24 25.47 32.22 36.14 36.82 25.31 27.93 37.51
49.15 48.80 48.63 48.41 47.25 46.48 46.68 46.72 46.99 47.16 47.36 40.88 39.63 40.75 36.89 28.36 29.62 31.94 31.82 27.08 29.33 29.24 27.02 33.63 34.33 36.91 36.33 34.27 32.90 30.51 26.41 28.48 26.41 28.19 28.10 27.40 27.47 26.53 25.15 22.54 18.96 35.56 36.04 31.57 34.83 38.12 38.09
49.25 48.83 48.88 48.15 47.07 46.41 46.35 46.53 47.16 47.00 47.26 44.18 34.91 41.72 42.06 36.54 32.28 34.68 35.23 35.16 33.35 33.56 31.30 33.51 32.92 33.59 36.46 35.70 33.54 33.83 31.45 30.48 28.08 25.30 29.49 26.26 29.44 27.38 28.28 27.74 34.05 35.92 37.11 38.22 40.15 40.21 40.86

GFSGBSN_sfc_wetblb_072.txt.gz
Wetbulb
55.84 55.47 55.08 55.12 55.03 54.98 54.96 54.46 53.54 53.48 53.73 53.78 54.49 54.53 54.75 54.30 53.09 53.08 54.06 53.90 53.41 52.79 52.39 51.72 51.57 51.65 47.45 39.19 38.18 48.97 53.44 54.63 52.44 52.08 47.17 48.60 47.35 43.37 41.68 44.68 46.08 41.31 45.41 49.82 51.23 50.86 50.21
55.52 55.14 55.05 54.72 54.86 54.17 54.71 54.69 54.15 53.44 53.41 53.37 53.53 53.88 53.73 54.29 53.02 52.58 52.35 53.01 52.81 52.48 51.90 51.62 51.80 51.57 42.97 32.92 44.63 47.51 49.35 49.81 48.92 48.63 48.24 49.48 47.69 46.88 43.44 44.83 44.69 46.06 46.04 48.37 50.54 49.52 47.85
55.33 55.14 55.02 54.55 54.10 54.73 54.42 54.31 54.34 54.17 54.44 53.35 52.96 52.69 52.80 53.52 53.37 53.08 52.80 51.72 52.44 52.18 52.00 51.98 51.57 48.20 41.09 37.35 45.69 46.61 48.82 48.14 48.97 47.80 46.53 50.29 51.09 46.08 44.66 43.11 47.34 46.04 44.11 46.04 47.69 47.45 46.78
55.00 54.95 54.65 54.28 54.21 53.45 54.15 54.06 54.05 53.96 54.15 54.12 52.86 51.82 52.19 52.91 53.16 53.01 53.32 53.43 50.58 50.92 51.43 51.88 52.11 45.12 36.39 46.71 45.76 46.15 47.20 46.86 48.88 49.57 50.39 52.28 53.21 46.87 44.63 45.05 44.36 42.44 42.54 38.17 44.40 46.53 47.12
54.64 54.57 54.50 53.95 53.79 53.83 53.34 53.90 53.36 53.40 53.71 53.71 52.83 51.99 51.35 52.32 52.48 53.13 53.19 53.06 51.52 50.77 51.03 51.47 44.91 40.70 33.91 48.38 44.09 45.23 46.50 44.85 46.45 49.16 52.79 53.36 52.00 44.72 45.18 39.46 35.85 40.13 34.48 35.16 40.54 45.98 45.88
54.38 54.19 54.12 53.65 53.68 53.74 53.58 52.96 52.57 52.87 53.37 53.00 52.38 51.65 50.91 51.76 52.13 52.78 53.28 52.39 51.24 49.03 49.18 49.52 47.25 36.07 39.97 38.66 43.08 44.57 47.09 47.63 44.23 45.64 47.12 47.45 46.52 39.56 38.56 36.14 30.42 33.18 30.71 31.89 37.08 42.63 44.33
54.05 53.64 53.84 53.52 53.32 53.49 53.23 53.02 53.42 52.96 53.16 52.70 52.39 51.70 50.66 51.11 51.62 52.36 48.63 42.20 38.71 37.98 39.97 36.43 37.00 36.73 39.88 43.03 44.87 44.46 47.33 44.93 43.37 43.21 37.65 42.49 36.89 33.42 37.44 36.92 35.77 36.03 34.52 34.25 37.18 43.34 41.64
53.68 53.44 53.51 53.17 53.04 53.21 52.97 52.83 51.89 53.12 52.81 52.49 52.00 51.44 50.66 51.02 50.98 52.13 43.84 37.71 38.48 39.24 32.49 39.84 40.02 39.76 42.55 43.06 37.22 42.57 47.26 38.79 37.36 35.99 37.76 39.91 33.30 37.61 40.46 40.67 37.51 36.95 33.61 32.42 37.87 42.73 41.59
53.25 52.97 53.29 52.95 52.82 52.86 52.74 52.37 52.41 52.34 52.47 52.00 51.59 50.84 50.45 51.45 50.55 44.98 40.90 40.27 44.12 43.76 34.65 37.81 40.74 39.81 39.46 41.26 37.78 39.69 43.37 39.96 35.89 34.43 35.24 35.75 37.42 41.36 40.10 38.71 36.43 33.70 33.06 32.84 34.10 38.35 38.99
52.82 52.57 52.76 52.67 52.49 52.48 52.31 52.02 52.03 51.63 51.65 51.29 50.94 50.76 50.84 50.49 44.98 42.19 39.81 44.84 44.81 43.46 29.51 33.41 36.24 38.65 41.37 41.30 36.05 44.58 44.29 40.59 36.05 34.15 36.43 38.53 40.37 39.60 38.48 37.42 36.99 31.54 37.34 36.80 36.19 34.47 30.82
52.40 52.23 52.24 52.12 52.04 52.05 51.93 51.61 51.50 51.77 51.05 50.88 50.87 50.46 51.09 49.28 40.89 42.60 44.70 45.34 44.01 40.62 18.66 36.10 36.73 45.79 41.89 38.55 38.38 39.19 45.12 41.32 34.58 35.81 35.99 36.80 36.92 38.39 37.41 37.84 38.41 34.69 38.22 36.31 35.22 32.58 31.06
52.07 51.83 51.65 51.74 51.57 51.61 51.46 51.45 51.22 51.10 50.89 50.86 50.58 50.32 50.13 46.98 44.77 47.09 47.99 46.91 43.33 20.22 14.78 32.46 38.65 37.27 36.07 37.70 37.89 39.56 40.69 44.35 42.28 36.88 36.89 37.37 42.95 41.15 38.48 39.62 39.35 38.84 35.73 36.22 34.57 32.09 26.20
51.82 51.26 51.11 51.26 51.01 50.96 51.00 50.95 51.07 50.99 50.97 50.52 50.74 50.58 49.01 46.70 40.59 48.88 47.93 42.51 20.15 18.43 32.09 31.58 33.17 35.70 35.35 35.05 35.42 36.23 36.11 35.23 33.67 30.44 30.74 37.76 38.53 40.84 40.36 37.25 39.36 35.73 31.52 24.12 24.26 23.13 23.43
51.57 50.76 50.55 50.64 50.50 50.56 50.63 50.57 50.86 50.92 50.71 50.29 50.28 49.06 49.27 47.19 47.31 47.73 43.67 29.22 18.20 27.84 28.65 37.78 37.73 37.08 34.42 36.09 36.41 36.57 34.87 33.55 38.12 33.32 32.55 31.97 29.35 37.50 38.70 35.97 34.07 34.98 32.94 22.89 19.06 20.71 22.66
51.40 50.30 49.95 49.90 50.02 50.07 50.27 50.37 50.55 50.50 50.17 50.78 47.87 42.35 44.06 44.69 47.57 45.99 34.84 16.55 21.18 22.97 31.15 33.52 36.16 32.74 34.04 37.26 37.46 36.85 35.14 34.12 36.24 38.24 30.75 30.07 31.50 39.68 41.05 40.01 37.77 33.40 32.48 30.77 22.12 19.34 18.45
50.99 49.89 49.25 49.47 49.63 49.89 50.04 50.29 50.17 50.29 50.06 49.64 39.95 39.15 40.85 47.39 47.22 42.61 26.55 26.42 23.38 31.75 35.07 36.66 29.01 32.94 30.71 34.10 34.40 34.31 35.28 38.79 36.93 38.80 37.12 32.30 30.22 36.93 39.53 40.68 39.18 35.17 35.57 28.95 22.02 15.42 16.62
50.80 49.41 48.68 48.73 49.38 49.51 49.75 49.77 49.90 50.07 49.79 47.66 38.64 36.93 42.31 47.89 46.30 35.49 21.59 25.59 31.82 37.13 37.73 34.75 32.40 31.54 31.26 32.20 32.48 29.72 29.71 35.55 37.90 36.77 36.05 33.26 31.59 33.76 38.10 34.85 32.98 35.90 31.51 29.50 28.79 23.98 20.30
50.58 49.19 48.09 48.41 49.09 49.22 49.30 49.33 49.78 49.65 49.19 42.51 35.51 29.78 42.80 44.91 35.33 29.41 28.62 33.56 39.44 37.26 38.04 36.84 36.49 34.86 31.86 31.52 31.19 31.50 30.64 32.57 38.33 38.68 33.51 34.47 31.13 29.90 33.01 37.92 38.74 37.09 34.51 30.07 22.57 20.33 18.82
50.36 49.23 47.92 48.20 48.83 48.88 48.93 49.42 49.50 49.01 47.87 38.19 33.11 33.40 40.85 41.55 25.79 27.88 33.78 36.50 37.80 36.62 36.52 35.97 34.17 35.52 34.79 31.91 29.79 31.56 32.51 37.43 38.74 38.39 35.32 35.84 28.61 26.25 28.49 32.87 35.71 34.87 36.91 34.16 29.04 25.37 17.76
50.26 48.97 47.99 48.10 48.58 48.48 48.78 49.09 48.90 48.34 46.99 38.36 32.30 27.21 32.81 36.05 34.76 31.26 30.71 33.19 34.67 38.51 37.21 36.88 34.97 35.35 33.39 31.86 33.69 31.10 31.85 36.79 37.71 37.34 43.28 38.81 29.26 25.87 21.98 25.02 30.71 32.12 35.59 36.86 30.89 29.70 25.10
50.01 48.64 48.12 48.08 48.27 48.08 48.38 48.67 48.39 47.50 45.23 36.03 29.87 27.46 29.45 24.66 30.24 31.16 32.39 34.72 34.32 33.96 36.75 37.10 34.06 35.13 32.14 29.34 30.31 30.02 32.80 33.90 36.06 40.47 36.03 34.96 27.71 27.30 28.64 31.21 29.32 29.76 32.80 35.60 33.30 33.47 30.17
49.83 48.63 48.57 48.20 47.86 47.71 48.00 48.46 48.27 47.02 43.08 32.71 27.26 26.32 27.92 26.10 29.73 29.64 33.04 31.16 33.81 35.20 35.50 34.42 33.82 35.84 34.14 30.87 30.47 30.46 32.79 31.14 31.42 33.18 32.85 32.66 26.19 28.71 27.31 31.70 29.93 28.54 30.81 33.65 35.11 35.19 34.57
49.57 48.69 49.14 48.28 47.49 47.33 47.65 47.96 48.16 46.58 40.70 31.04 30.71 31.16 29.40 27.83 26.99 29.62 29.22 29.72 34.15 35.68 38.22 38.59 36.69 34.32 33.50 34.37 35.04 34.66 34.82 35.09 33.67 32.86 31.08 29.90 27.00 24.25 21.00 27.93 27.64 23.70 28.26 30.31 32.57 35.18 35.25
49.27 48.79 49.25 48.44 47.17 47.51 47.23 47.53 47.99 46.60 41.08 34.17 31.87 29.34 24.96 24.14 26.53 26.29 28.28 30.23 32.14 33.16 33.06 37.36 38.22 33.90 36.13 39.65 36.74 35.51 35.15 34.45 34.10 32.47 33.84 28.39 26.27 25.53 19.98 23.44 14.96 28.96 33.40 32.84 32.98 33.85 35.45
49.19 48.94 49.29 48.42 47.14 47.20 47.34 48.06 47.97 47.61 44.65 36.03 33.59 30.33 25.89 21.06 25.79 26.12 26.85 29.04 31.46 34.32 34.53 36.71 40.95 37.99 39.50 35.83 32.20 29.62 28.73 29.91 30.58 31.97 31.10 31.71 28.57 24.86 20.95 17.41 24.10 27.37 30.71 31.13 30.10 30.27 34.24
49.19 48.96 49.32 48.46 47.09 47.27 47.26 47.33 47.63 47.68 45.49 36.83 34.92 33.97 28.88 23.14 22.41 27.31 24.84 26.28 26.23 29.35 32.13 36.29 40.64 38.67 38.07 35.21 33.70 28.23 22.48 26.02 25.56 28.10 31.97 31.84 30.76 26.33 22.70 19.50 18.43 25.67 33.55 34.32 33.24 26.63 34.13
49.22 49.00 49.45 48.54 47.15 47.04 46.89 46.65 46.91 47.29 45.87 38.62 35.41 36.52 30.95 25.72 27.00 26.14 23.62 23.39 26.93 29.07 29.95 34.01 35.03 36.07 37.89 34.10 32.14 30.08 26.37 28.02 24.55 25.25 26.12 28.34 31.00 27.85 26.38 21.30 25.24 30.99 32.68 35.27 24.47 27.29 36.34
49.65 49.11 49.34 48.48 47.16 46.94 46.68 46.87 46.98 46.93 46.58 39.66 36.16 39.60 34.28 28.37 28.23 31.08 30.95 26.17 27.29 27.48 23.73 31.87 33.55 36.25 36.93 33.25 32.53 29.45 25.68 27.00 24.90 26.74 26.87 27.21 25.07 27.23 25.38 25.61 19.85 33.35 34.67 30.36 33.62 36.69 37.48
50.18 49.12 49.27 48.32 47.03 46.84 46.63 47.03 46.59 46.84 46.75 41.64 33.86 39.28 40.66 35.01 31.96 33.89 34.45 34.10 32.96 31.75 28.90 29.22 32.30 32.66 35.45 35.00 34.52 33.21 30.06 28.88 26.91 24.04 27.64 25.67 28.82 26.86 27.86 27.35 33.30 34.22 36.47 36.90 38.58 38.56 38.73

GFSGBSN_sfc_wetblb_075.txt.gz
Wetbulb
56.12 55.67 55.46 55.19 54.55 55.43 54.68 54.76 54.88 54.30 54.72 54.19 53.58 53.65 54.07 54.18 53.95 52.96 52.62 53.61 53.55 53.39 52.71 52.32 51.84 51.88 47.50 39.63 38.27 48.07 53.85 54.42 54.25 52.84 48.69 48.99 47.49 45.36 43.29 46.50 46.96 45.19 47.90 50.07 51.49 51.25 49.95
55.80 55.62 55.30 55.04 54.83 54.23 54.93 54.82 54.57 54.11 54.40 55.15 53.94 52.54 53.36 53.54 53.85 52.99 53.07 52.11 53.08 52.71 52.47 52.26 52.16 50.98 43.33 33.18 44.87 47.69 48.83 50.29 49.77 50.11 47.76 49.63 48.13 46.93 45.36 46.21 45.76 46.94 47.26 48.83 50.78 49.76 48.46
55.98 55.34 55.21 54.97 54.59 54.23 53.66 54.69 54.21 53.96 54.10 54.68 54.28 52.56 52.01 53.14 53.23 53.56 53.30 53.40 51.27 52.00 52.25 52.25 51.29 47.97 41.14 37.58 46.58 46.91 48.17 48.73 48.93 48.36 45.90 49.70 51.20 47.44 46.88 44.78 48.42 47.98 44.45 46.91 48.39 48.43 47.47
56.03 55.25 54.91 54.79 54.29 54.24 54.13 53.87 54.09 53.55 53.53 53.92 53.62 53.20 51.87 51.88 52.85 52.83 53.57 53.29 51.60 50.44 51.10 51.82 51.82 45.29 35.69 46.46 46.37 46.77 47.83 47.43 49.15 49.52 49.31 51.99 52.55 47.70 45.83 47.53 45.94 43.80 43.81 39.88 45.49 47.91 48.04
56.15 55.33 54.78 54.57 54.14 54.19 53.97 53.61 53.39 53.10 53.71 53.77 53.36 52.88 51.78 51.52 52.40 52.23 53.32 53.07 52.32 50.71 51.03 51.34 44.92 41.39 34.57 48.07 43.90 45.19 47.31 44.88 46.80 49.37 51.12 52.66 51.05 45.50 45.04 40.96 39.11 40.73 35.69 36.81 41.43 47.10 46.08
56.00 55.19 54.52 54.22 53.94 53.73 53.59 53.48 53.24 52.73 53.92 53.45 53.03 52.80 52.03 50.77 51.89 52.06 52.84 52.18 51.47 48.93 49.08 49.27 46.99 36.14 40.22 38.78 43.08 44.87 48.20 47.93 44.76 45.21 46.56 46.46 43.52 41.33 40.02 38.50 30.82 34.20 34.99 36.90 38.08 43.35 44.76
55.87 55.01 54.28 53.97 53.57 53.42 53.28 53.08 52.59 52.69 53.28 53.21 52.52 52.40 51.66 50.93 51.61 51.44 48.27 42.62 38.41 37.14 40.81 36.29 36.79 36.95 39.70 43.15 45.08 44.26 47.15 44.45 43.30 41.71 37.28 41.84 36.11 34.78 38.02 38.76 38.14 37.29 36.63 36.79 39.91 44.25 42.63
55.72 54.68 54.00 53.81 53.31 53.19 53.09 52.75 52.36 52.42 52.78 52.82 51.97 51.69 50.90 50.43 51.64 50.94 43.59 37.75 38.10 38.74 31.98 39.41 40.04 39.37 42.36 43.08 37.49 42.75 47.08 38.39 37.34 35.79 39.65 37.71 34.03 38.14 40.98 40.98 38.46 38.32 35.01 35.70 39.34 43.37 42.37
55.61 54.30 53.53 53.43 52.99 52.83 52.69 52.11 51.87 52.33 52.66 52.14 51.50 51.04 50.64 51.69 49.96 44.68 39.97 39.84 43.90 43.25 33.40 37.59 40.56 39.70 39.65 41.30 37.49 39.67 43.13 39.11 35.78 34.80 37.10 35.54 37.21 40.44 40.41 39.26 37.00 35.86 34.58 34.30 35.63 40.23 41.07
55.36 53.80 53.00 53.03 52.48 52.34 52.19 51.74 51.67 51.93 51.81 51.72 50.86 50.61 50.68 50.03 45.75 41.72 39.45 44.23 44.50 43.01 25.47 32.81 35.81 38.77 41.27 41.39 35.91 44.45 44.52 39.96 35.48 34.55 37.50 38.13 41.17 38.44 38.53 37.90 37.73 34.01 38.09 37.63 36.66 36.57 32.23
55.03 53.24 52.41 52.46 52.09 51.79 51.72 51.57 51.44 51.51 51.41 51.15 50.59 50.71 50.45 49.32 41.05 40.85 44.58 45.03 43.81 39.91 13.09 36.19 36.54 45.79 41.60 38.07 37.95 38.80 45.29 41.48 34.65 35.28 37.03 36.13 37.94 37.04 36.94 38.38 39.57 36.27 38.74 37.23 36.58 33.85 34.12
54.65 52.78 51.80 51.67 51.64 51.22 51.03 51.20 50.94 50.96 50.67 50.63 50.47 50.46 50.13 46.49 44.07 46.82 47.39 47.11 41.26 20.82 14.34 32.40 37.91 36.37 35.06 37.10 37.76 39.32 40.40 44.34 41.85 37.86 37.87 37.45 43.11 41.82 39.87 40.70 39.95 38.95 36.85 36.73 34.95 34.61 29.90
54.15 52.33 51.26 51.01 50.97 50.78 50.71 50.77 50.71 50.96 50.47 50.75 50.81 50.47 48.25 46.63 41.04 48.59 47.78 42.18 22.13 18.43 31.36 32.57 32.97 35.96 33.87 32.80 34.46 35.86 36.23 34.65 30.85 30.63 31.61 37.39 38.31 41.48 41.27 38.70 40.09 36.93 33.83 28.45 26.57 27.33 25.57
53.58 51.95 50.89 50.27 50.06 50.31 50.37 50.54 50.84 50.82 50.66 50.45 49.88 50.53 48.38 46.30 47.82 47.73 43.56 28.92 17.00 28.40 31.39 38.27 37.46 35.42 33.50 35.10 35.99 35.35 34.20 31.26 35.68 34.79 34.31 31.17 29.26 38.51 39.93 38.15 35.63 35.05 32.95 26.06 20.83 22.74 25.53
53.14 51.67 50.52 49.54 49.63 49.92 50.20 50.49 50.48 50.50 50.30 50.23 48.17 42.26 43.22 45.02 47.75 46.29 35.41 16.99 19.90 21.86 30.53 34.76 36.45 33.84 34.66 35.65 35.75 35.89 33.91 34.12 35.39 35.47 31.62 32.02 31.26 40.34 40.68 40.51 38.52 35.25 30.28 32.43 24.27 23.13 23.31
52.80 51.32 50.13 49.13 48.87 49.65 49.88 50.05 50.07 50.27 50.01 49.07 39.71 38.74 40.71 47.82 47.66 41.90 28.91 26.70 23.84 31.14 34.78 36.48 31.07 33.81 31.24 33.94 34.76 35.33 34.47 37.13 35.78 38.37 39.06 34.37 31.10 37.36 39.40 40.67 40.00 36.36 36.13 29.24 25.33 19.51 19.75
52.41 51.01 49.86 48.70 48.66 49.20 49.39 49.52 50.01 50.01 49.56 47.65 38.56 36.55 41.82 47.92 46.48 36.56 21.09 26.76 31.62 36.21 37.13 34.60 33.91 32.39 31.95 32.42 32.29 30.42 31.78 36.30 39.03 37.71 37.65 35.50 33.88 34.47 38.46 35.14 34.51 35.16 32.32 30.71 30.34 26.55 22.80
52.06 50.68 49.55 48.70 48.48 48.78 48.92 49.45 49.81 49.44 48.51 42.34 35.63 29.84 42.05 46.66 36.00 31.42 27.97 31.98 38.73 36.81 37.36 36.95 36.35 34.72 31.19 32.03 30.56 30.04 31.12 33.17 39.25 38.58 33.98 35.66 34.04 30.96 33.79 38.26 38.79 37.79 34.11 31.21 26.18 23.20 21.49
51.84 50.55 49.14 48.83 48.43 48.31 48.66 49.13 49.40 48.95 47.02 37.51 32.92 33.41 39.71 44.46 25.35 26.88 32.46 35.67 37.26 36.03 36.07 35.68 33.61 34.80 34.27 31.87 29.74 31.58 32.53 37.48 38.76 37.66 34.99 35.63 28.77 27.37 29.27 33.78 35.15 35.17 36.40 32.52 29.22 26.75 20.92
51.50 50.28 49.08 48.86 48.21 47.79 48.30 48.71 48.85 48.07 47.01 37.42 31.52 27.33 31.90 35.14 33.17 30.35 30.25 31.91 33.23 37.94 36.27 36.31 34.46 34.79 32.63 31.81 33.39 31.64 31.98 36.40 37.90 37.52 42.59 38.39 30.23 26.91 22.47 25.63 30.96 31.37 33.90 33.86 31.59 28.55 26.05
51.12 49.84 49.16 48.93 48.06 47.48 48.02 48.54 48.38 46.72 46.22 35.60 29.15 27.23 29.18 23.98 29.80 29.33 31.17 33.47 33.09 33.15 36.52 36.45 33.41 34.58 31.80 28.72 29.97 29.66 32.96 34.13 36.49 40.83 36.53 34.97 25.92 25.85 29.71 31.04 31.24 31.70 32.69 33.96 31.08 33.01 29.32
50.78 49.52 49.38 48.85 47.75 47.28 47.83 48.12 47.93 45.94 43.07 32.16 27.27 26.76 26.93 25.59 28.24 27.58 31.68 30.71 32.71 34.16 34.32 33.44 33.00 35.06 32.72 30.56 29.79 29.76 32.28 31.74 31.98 33.67 33.01 32.46 25.39 27.51 25.57 31.42 30.74 29.51 31.21 33.25 34.72 34.62 33.64
50.42 49.48 49.77 48.92 47.62 47.44 47.16 47.72 47.32 45.72 39.97 30.12 29.25 30.44 28.95 27.24 26.64 27.34 26.26 28.62 33.91 34.15 37.28 37.10 35.38 33.35 33.14 34.23 34.28 33.81 34.39 34.54 33.92 32.88 31.05 30.15 27.26 26.04 22.26 28.27 28.04 24.65 29.19 30.36 32.82 35.06 35.59
49.89 49.57 49.78 48.80 47.84 47.56 47.23 47.71 47.21 45.54 40.32 33.35 30.94 28.75 25.54 23.73 27.00 26.77 27.41 29.24 31.05 32.15 32.47 35.76 37.42 33.49 35.68 39.18 36.60 34.98 34.63 33.89 33.86 32.24 33.15 28.35 26.64 26.26 21.26 24.90 17.32 29.80 33.94 32.88 32.02 34.00 36.66
49.77 49.99 49.64 48.50 47.93 47.68 47.96 47.70 47.56 45.72 43.96 34.65 32.28 29.46 25.55 22.73 25.49 25.64 26.12 27.52 29.92 32.07 32.69 35.53 39.93 37.18 37.95 34.89 31.43 29.22 28.26 29.98 31.10 31.73 31.16 31.20 28.47 25.49 21.89 18.93 24.70 28.61 31.38 30.97 30.51 31.83 34.54
50.04 50.04 49.57 48.39 47.91 47.55 47.59 47.39 47.52 46.65 44.27 36.09 33.79 32.43 28.33 23.31 23.05 27.16 24.25 24.61 24.50 26.23 29.71 34.70 38.60 38.03 37.78 35.05 33.79 28.70 22.34 25.66 25.45 29.01 31.78 31.19 30.50 26.60 23.97 19.93 18.73 26.01 33.81 35.04 34.10 27.69 35.52
50.51 50.05 49.50 48.28 47.67 47.44 47.12 46.82 47.03 46.78 45.03 37.17 34.91 34.83 30.45 25.56 26.58 25.76 23.11 23.06 26.49 27.10 26.02 31.42 31.28 34.29 36.59 32.45 30.31 29.63 27.17 27.27 24.16 25.23 25.67 27.96 29.82 27.06 28.08 26.02 25.98 31.11 33.05 35.14 25.85 28.25 36.24
50.49 50.44 49.39 48.17 47.51 47.35 46.97 47.00 46.97 46.96 45.24 38.44 36.64 37.30 32.37 27.51 27.97 30.37 30.52 26.05 27.05 25.81 23.11 28.03 31.83 35.47 36.89 31.70 29.79 30.07 26.70 26.86 24.76 26.31 26.60 26.84 24.79 25.14 26.91 26.26 21.73 33.47 34.84 31.33 33.89 36.54 38.65
50.32 50.49 49.25 47.99 47.45 47.27 47.38 47.28 46.76 46.65 46.59 40.78 34.93 38.37 38.93 31.84 30.22 33.25 33.28 33.07 31.40 30.81 27.92 27.13 31.04 31.45 34.96 33.34 34.94 34.12 29.61 27.67 26.26 23.94 27.39 25.64 28.76 26.90 27.61 27.24 33.42 34.32 36.63 37.37 38.28 38.69 39.55

GFSGBSN_sfc_wetblb_078.txt.gz
Wetbulb
57.32 56.53 55.95 55.79 55.33 54.72 54.87 54.76 54.80 54.46 54.68 55.34 55.59 54.11 52.50 53.43 54.05 53.80 53.77 52.77 53.42 53.09 52.31 52.18 51.75 52.19 48.66 41.34 40.91 50.23 53.64 55.09 55.35 53.13 50.20 49.45 48.39 48.16 44.72 48.26 50.27 48.85 50.42 52.16 53.17 53.15 52.90
57.76 56.80 56.09 55.62 55.19 54.67 54.49 54.12 54.98 54.27 54.30 54.82 55.00 54.25 52.80 52.28 53.58 53.76 53.43 53.11 52.64 52.65 52.62 52.41 52.08 50.69 45.20 36.26 48.61 50.75 50.23 51.54 51.04 51.20 49.40 50.18 48.63 49.70 47.40 47.40 47.84 50.39 49.82 51.31 52.03 50.84 51.14
58.07 56.95 56.03 55.62 55.06 54.63 54.24 54.30 54.51 53.52 53.78 54.53 54.58 53.75 52.71 52.16 52.82 53.19 53.63 53.55 51.05 51.55 52.30 52.27 51.16 49.23 42.91 40.73 49.81 51.28 50.21 49.62 49.57 50.74 47.58 49.82 51.51 49.09 49.26 46.45 50.62 50.07 44.96 48.65 49.63 50.95 50.28
58.26 57.26 56.07 55.52 55.07 54.47 54.40 53.97 53.85 53.71 53.92 54.26 54.22 53.57 52.98 51.49 52.09 52.97 52.91 53.95 52.57 50.47 51.28 52.14 51.50 48.18 39.47 48.36 51.86 49.41 49.98 48.77 49.78 50.15 50.24 50.55 52.30 49.63 48.69 50.54 48.68 45.98 46.79 40.70 48.18 49.87 49.43
58.43 57.38 56.18 55.28 54.92 54.34 54.04 53.89 53.74 53.50 53.10 54.19 53.89 53.36 52.91 51.58 51.24 52.43 52.47 53.35 52.48 50.90 51.16 51.69 47.95 45.08 38.19 50.02 45.34 48.44 49.93 46.00 47.52 48.43 50.49 50.95 50.46 46.68 47.90 44.21 41.74 43.93 38.75 40.86 42.87 49.72 47.76
58.75 57.51 56.14 54.87 54.65 54.34 54.04 53.67 53.41 53.01 53.28 53.42 53.37 52.96 52.72 51.55 51.21 51.97 52.31 52.20 52.06 50.98 50.97 50.62 48.85 40.84 43.13 40.54 45.30 46.47 50.00 48.50 45.25 44.12 45.85 45.22 44.07 42.37 43.82 41.35 34.18 37.09 38.95 39.99 40.96 45.66 46.89
59.03 57.39 55.96 54.61 54.25 53.87 53.74 53.43 53.02 52.92 52.70 53.14 52.71 52.29 51.92 51.23 51.07 51.73 51.47 49.31 43.83 42.68 44.85 39.15 39.63 39.11 41.12 45.53 47.22 45.73 47.71 45.31 45.19 42.14 37.86 41.94 36.83 36.18 40.21 42.69 42.44 42.26 39.49 38.12 42.77 45.99 45.29
58.84 57.16 55.67 54.33 53.98 53.53 53.32 53.08 52.57 52.30 52.72 52.79 52.16 51.94 51.56 51.28 51.89 50.61 48.59 43.64 42.22 43.37 36.41 41.98 42.16 41.49 43.59 44.65 39.07 43.50 47.19 39.99 39.67 35.34 39.97 38.39 34.74 40.61 43.66 43.21 41.76 41.87 39.78 39.93 43.01 46.18 45.33
58.72 56.92 55.38 54.11 53.56 53.07 52.85 52.66 52.19 52.18 52.12 51.90 51.88 51.35 51.28 51.41 50.55 49.39 45.25 43.76 48.31 47.23 38.54 38.91 41.73 40.89 41.51 43.06 38.62 39.44 43.40 40.32 36.94 35.04 36.73 36.07 38.14 42.33 42.13 40.95 39.92 40.80 39.40 40.07 40.14 44.25 45.15
58.42 56.68 55.02 53.75 53.08 52.53 52.21 52.10 51.90 51.82 52.02 51.72 51.43 51.13 51.18 50.23 47.09 47.08 44.35 47.41 48.77 47.45 34.76 34.51 37.27 40.26 42.48 42.44 37.24 44.05 44.85 40.73 37.25 35.27 37.86 38.01 40.92 39.71 40.47 39.24 41.48 36.86 42.90 42.54 41.06 40.48 35.52
58.02 56.37 54.39 53.27 52.56 52.00 51.56 51.51 51.53 51.48 51.32 51.04 50.88 50.87 50.80 49.60 47.06 44.65 46.30 49.26 48.43 45.50 24.82 35.90 37.69 46.69 42.96 38.93 39.11 40.08 45.91 42.31 36.19 37.33 39.07 37.06 38.04 37.20 38.08 39.96 42.88 38.80 42.81 41.65 41.26 39.63 38.75
57.50 55.86 53.88 52.85 52.14 51.43 50.94 51.06 51.01 50.87 51.01 50.63 50.40 50.82 50.30 48.53 49.28 48.07 49.26 49.16 46.59 32.01 23.95 32.84 38.27 36.60 35.95 38.18 38.52 40.35 41.21 44.49 43.24 39.65 39.58 39.37 42.74 40.07 41.21 42.98 42.80 43.32 41.48 40.51 40.21 38.02 32.07
56.75 55.22 53.44 52.39 51.70 50.84 50.37 50.56 50.64 50.71 50.45 50.59 50.85 50.34 49.80 49.43 45.21 49.32 49.51 45.49 32.46 28.71 34.78 32.83 33.77 36.31 34.63 33.36 35.56 36.59 37.07 36.52 35.27 32.71 32.27 37.70 37.65 42.03 42.97 40.41 42.04 42.47 39.43 31.53 29.21 29.76 29.92
56.49 54.52 52.93 51.99 51.19 50.27 49.84 50.12 50.43 50.43 50.61 50.53 50.43 50.68 49.03 48.95 49.60 49.29 46.90 36.73 30.06 32.16 33.95 38.58 36.45 34.64 31.02 35.02 35.03 35.71 34.94 33.22 38.19 37.72 35.42 32.96 30.01 37.54 42.92 40.93 38.58 40.32 39.42 33.32 24.76 26.75 30.93
56.03 53.85 52.43 51.52 50.57 49.85 49.56 49.70 49.83 50.08 50.24 49.58 49.42 49.43 48.38 48.14 49.33 48.32 40.23 32.82 32.03 33.49 36.04 36.93 36.08 33.34 33.55 35.32 35.80 35.98 35.40 34.85 36.83 38.01 33.92 33.04 32.09 40.37 42.01 42.90 41.96 37.56 36.08 37.14 32.09 30.31 31.68
55.39 53.34 52.00 51.06 50.31 49.66 49.09 49.09 49.48 49.97 49.66 48.95 47.55 46.38 46.35 48.71 48.90 44.06 37.18 32.22 34.00 34.62 38.05 38.50 32.82 35.85 32.39 34.63 34.37 34.32 36.14 38.79 37.72 39.22 40.69 37.27 31.98 38.40 40.63 42.36 42.55 40.69 40.59 33.59 34.63 26.28 25.27
54.76 52.98 51.59 50.71 49.87 49.22 48.64 48.65 49.37 49.61 49.01 48.31 46.59 43.05 45.70 48.71 47.82 39.42 35.03 33.45 35.98 38.90 39.67 37.08 35.56 35.14 35.48 34.90 36.17 35.15 35.84 38.21 39.93 39.37 41.26 38.99 37.38 34.53 39.89 37.43 37.98 38.24 37.10 36.97 36.43 33.09 29.09
54.57 52.64 51.30 50.20 49.71 49.00 48.36 48.72 48.98 48.90 48.01 45.99 44.97 39.66 45.09 47.37 37.77 36.00 37.41 36.65 39.90 39.93 40.45 39.59 39.83 38.35 37.06 37.70 35.74 35.51 35.52 37.73 42.75 41.75 37.08 39.02 37.81 33.10 35.28 39.99 41.67 40.74 38.41 39.19 33.35 30.31 31.60
54.05 52.30 51.00 50.10 49.46 48.71 48.27 48.26 48.61 48.25 47.94 44.70 42.19 40.71 44.42 45.03 36.31 37.65 38.72 38.96 40.26 39.58 39.56 38.87 37.63 38.90 39.27 37.24 34.46 36.49 37.27 40.58 43.24 41.09 38.75 39.84 35.83 30.26 31.38 35.97 38.72 37.34 39.47 38.67 36.82 34.79 31.49
53.78 51.86 50.44 50.01 49.25 48.37 47.94 48.09 48.16 47.32 47.80 44.75 40.55 36.54 39.05 40.68 39.81 38.23 37.15 37.16 37.64 41.44 39.88 39.87 38.74 39.65 38.30 36.83 38.18 36.00 36.86 39.55 42.21 41.57 42.25 42.25 36.45 33.87 30.85 33.23 37.06 33.96 36.37 38.54 36.83 33.19 33.51
53.29 51.46 50.27 49.90 49.15 48.34 47.97 47.82 47.51 46.05 48.11 43.02 38.17 35.89 36.96 35.66 36.51 37.26 37.80 37.57 36.62 36.41 40.53 40.83 38.65 38.18 36.98 35.17 36.01 35.83 37.70 38.20 40.37 41.93 40.37 40.29 34.51 33.28 33.99 34.27 35.54 35.00 35.62 36.91 34.07 36.05 32.95
52.33 50.80 50.38 49.80 48.83 48.38 48.01 47.56 46.67 45.83 45.53 39.74 36.20 34.43 34.88 34.58 34.25 36.33 35.78 36.33 35.98 36.93 38.21 37.72 37.37 37.75 38.11 36.01 36.08 35.52 38.11 38.44 38.23 39.43 39.26 38.24 34.87 33.91 32.46 34.99 34.58 33.04 35.99 36.97 37.52 37.58 37.28
52.43 50.58 50.39 49.67 48.66 48.31 47.73 47.69 46.19 45.42 42.53 38.08 36.15 37.34 39.07 31.56 33.76 36.30 34.45 33.94 35.06 36.80 39.70 39.72 39.34 38.54 37.70 37.95 39.54 40.07 41.12 40.34 40.69 39.42 37.88 36.66 35.21 32.47 30.06 32.08 32.68 29.64 34.62 36.00 37.01 38.95 38.42
50.95 50.38 50.32 49.29 48.72 48.02 48.01 47.61 46.11 44.21 42.22 39.84 37.70 37.94 36.79 31.31 34.69 33.67 32.09 33.16 34.25 34.63 34.73 38.63 41.44 39.04 40.70 43.68 42.19 41.02 41.01 39.80 40.20 38.28 39.61 35.93 34.91 33.80 30.62 30.20 23.56 33.90 37.84 37.40 36.55 38.06 40.00
50.65 50.64 50.21 49.08 48.69 48.40 48.27 47.82 46.06 45.21 42.97 39.64 37.47 36.97 35.77 30.99 32.62 30.54 30.78 31.90 33.61 35.60 36.57 36.87 41.59 42.21 42.82 40.86 37.96 35.02 35.23 35.55 35.90 36.89 37.55 37.94 36.38 32.04 29.07 28.05 32.27 34.36 34.59 34.51 33.46 35.12 39.53
51.11 50.74 49.89 49.10 48.59 48.73 48.31 47.88 46.83 45.29 43.98 40.58 38.42 38.47 36.83 32.75 30.28 32.10 30.83 30.86 32.55 33.87 35.17 37.03 41.04 41.34 42.74 40.54 37.38 30.45 29.57 31.26 30.99 33.62 36.52 35.77 36.98 34.16 30.21 25.48 23.75 32.64 38.48 39.31 38.70 32.23 40.89
51.60 51.03 49.71 48.86 48.53 48.53 48.19 47.82 47.24 46.19 44.22 41.87 39.50 39.16 37.87 32.89 32.76 32.19 31.26 30.98 32.16 32.56 33.42 34.94 34.57 38.45 42.05 38.66 34.19 31.81 30.35 33.79 29.93 30.23 31.55 33.42 34.20 31.50 31.21 28.04 31.23 38.15 39.13 40.05 30.22 33.97 41.78
51.45 50.95 49.81 48.69 48.37 48.15 47.68 47.47 47.51 45.55 44.39 42.43 40.15 41.83 38.95 34.55 33.10 33.60 33.81 31.64 32.66 32.29 30.97 32.48 34.96 36.95 38.03 35.84 34.93 34.37 32.76 33.91 32.31 33.60 32.93 32.79 31.74 31.11 31.93 28.68 25.03 39.27 37.93 34.80 40.03 42.52 43.46
51.11 50.57 49.57 48.99 48.06 47.80 47.63 47.61 47.36 47.22 44.80 42.64 39.37 42.26 42.10 38.50 34.56 37.06 37.32 37.53 36.06 35.45 34.16 33.07 32.73 32.56 35.21 34.61 36.07 36.15 34.64 34.17 33.02 29.66 34.41 31.25 35.59 34.38 34.51 34.21 40.01 40.41 42.61 43.87 42.92 43.01 43.68

GFSGBSN_sfc_wetblb_081.txt.gz
Wetbulb
58.88 58.22 57.35 56.48 56.20 55.75 55.23 54.86 54.66 55.14 54.58 54.84 55.17 54.95 54.44 52.84 52.98 54.23 54.30 53.99 53.68 52.89 52.57 52.63 51.91 51.98 50.23 43.15 42.77 50.69 53.14 54.53 55.12 53.70 49.53 49.61 48.70 48.37 45.14 47.69 49.70 48.07 50.01 52.42 53.37 54.27 54.17
59.78 58.76 57.72 56.78 55.99 55.58 55.34 54.85 54.60 54.38 54.05 54.15 55.05 54.50 53.92 52.83 52.42 53.42 53.72 53.93 51.87 52.66 52.86 52.24 51.94 51.68 47.18 38.52 49.62 51.64 51.20 52.11 52.62 51.54 49.53 49.00 48.61 50.26 47.47 47.63 47.53 50.06 50.40 50.78 52.81 52.88 53.44
60.35 59.11 58.30 56.97 56.08 55.48 55.11 54.95 54.38 54.23 54.16 54.28 54.82 54.26 53.75 52.95 51.60 52.79 53.42 53.87 52.72 51.38 52.61 52.65 52.26 50.31 44.85 42.33 50.89 51.88 51.18 50.56 51.34 51.08 47.72 49.37 50.49 48.46 48.56 46.52 50.71 49.77 46.60 49.59 51.03 51.82 51.12
60.85 59.76 58.66 57.28 56.06 55.40 54.80 54.64 54.23 54.00 53.66 53.93 54.46 54.00 53.43 53.08 51.83 51.83 53.11 53.27 53.30 51.15 51.76 52.36 52.08 49.42 41.43 49.98 52.69 50.15 50.85 49.53 50.69 49.55 49.76 50.36 51.12 48.94 48.80 49.81 48.53 46.25 46.60 42.08 48.42 50.72 50.92
61.32 60.23 58.80 57.55 56.01 55.33 54.85 54.43 54.05 53.82 53.51 53.52 53.80 53.67 53.17 52.73 51.72 51.67 52.38 53.20 53.03 51.74 51.55 52.14 49.71 46.23 39.48 50.77 46.36 49.04 50.99 46.58 47.78 47.91 49.47 50.67 49.24 46.20 48.52 44.10 41.63 43.48 38.58 40.98 44.13 50.47 49.27
61.86 60.49 58.90 57.52 55.80 55.20 54.70 54.29 53.86 53.41 53.13 53.00 53.42 52.91 52.52 51.90 51.60 51.48 52.09 52.56 52.08 51.39 51.32 50.70 49.01 41.99 43.74 41.77 46.12 47.11 50.52 48.71 45.60 43.97 44.55 44.54 43.43 39.82 43.60 41.59 34.03 37.81 39.43 41.87 41.89 46.52 47.82
62.21 60.64 58.93 57.45 55.55 54.98 54.36 54.01 53.51 53.10 52.65 52.84 52.98 52.49 52.16 51.38 51.52 52.11 51.11 49.93 44.98 43.25 45.74 41.10 40.98 40.33 42.04 46.27 48.18 46.23 48.36 45.78 45.07 40.09 37.89 40.38 36.25 34.65 40.97 43.20 42.88 42.29 40.99 40.29 43.88 47.56 45.83
62.38 60.71 58.74 57.30 55.51 54.79 54.11 53.60 53.10 52.68 52.42 52.45 52.27 52.09 51.48 51.48 51.97 51.33 50.91 45.11 44.42 45.93 38.76 43.15 43.19 42.57 44.41 45.83 39.48 43.90 47.89 40.49 39.80 34.62 40.31 37.75 34.71 40.53 44.05 44.11 42.77 42.26 40.27 39.61 43.51 46.34 45.60
61.97 60.54 58.59 57.13 55.37 54.61 53.85 53.08 52.67 52.22 52.07 52.26 51.82 51.57 51.28 51.30 50.33 49.63 47.92 45.26 49.52 48.10 39.90 40.25 42.75 41.87 42.42 44.19 39.33 39.75 44.26 40.89 37.74 34.29 36.32 36.30 37.98 42.80 42.58 41.76 41.11 41.27 39.90 40.52 40.54 43.89 45.83
61.68 60.17 58.39 56.78 55.11 54.21 53.30 52.55 52.15 51.87 51.70 51.44 51.40 51.02 51.14 50.35 46.90 49.20 45.66 48.47 50.58 49.40 35.03 35.31 38.17 40.99 43.12 43.26 37.93 43.29 44.43 41.20 38.43 34.05 36.80 38.32 40.79 40.80 40.80 39.88 41.88 37.96 43.90 43.16 42.13 40.43 35.47
61.29 59.84 57.93 56.30 54.62 53.64 52.80 51.93 51.61 51.31 51.05 51.09 50.91 50.60 51.11 50.15 48.87 45.56 47.73 50.35 50.16 46.54 25.66 36.57 38.64 47.28 43.89 39.30 39.76 38.71 45.08 42.37 36.35 36.20 37.96 36.37 37.71 38.42 38.35 40.27 42.96 39.84 44.27 42.94 42.67 40.75 39.59
60.83 59.49 57.49 55.55 54.14 53.07 52.19 51.41 51.05 50.81 50.59 50.56 50.56 50.95 50.48 48.87 50.53 49.41 50.80 50.22 47.82 32.25 24.10 32.93 39.16 37.24 37.24 39.32 39.21 41.08 41.87 43.88 43.83 39.60 40.96 39.44 43.13 40.98 41.79 43.84 43.98 44.34 42.36 41.65 41.44 39.49 32.03
60.37 58.84 56.69 54.92 53.62 52.55 51.61 50.94 50.64 50.42 50.47 50.54 50.79 50.36 50.27 51.43 45.44 50.88 51.07 45.84 32.24 29.67 36.53 32.85 33.36 36.63 35.74 35.30 36.90 37.81 37.67 37.93 35.41 32.08 32.58 36.90 37.47 40.90 43.79 40.46 43.66 42.44 38.61 31.31 29.50 30.00 30.05
59.55 57.80 55.99 54.36 53.13 52.14 51.10 50.60 50.41 49.87 50.06 50.05 51.01 50.93 49.53 50.73 51.12 50.82 48.05 37.98 29.85 34.48 34.84 38.37 35.70 35.69 33.45 36.74 35.94 37.26 36.37 35.77 39.73 37.69 35.13 32.72 29.64 38.87 43.57 41.38 39.11 39.92 39.26 32.87 24.94 27.05 30.93
58.50 57.39 55.46 53.73 52.70 51.63 50.75 50.38 50.00 49.48 49.42 49.66 50.49 51.38 50.34 49.45 50.91 50.04 41.26 33.50 33.02 35.33 38.78 36.13 35.67 33.16 33.33 35.43 36.58 36.64 36.32 36.37 38.86 40.63 34.48 33.24 32.14 39.95 42.47 44.14 43.34 39.57 36.81 39.87 34.50 35.30 32.98
57.89 56.62 54.57 53.30 52.33 51.28 50.56 50.16 49.56 49.46 49.02 49.91 49.65 48.22 47.52 49.99 49.97 46.72 38.30 33.45 36.12 39.03 40.67 40.25 34.02 37.08 32.55 35.01 34.87 35.36 36.20 39.93 38.59 40.97 43.28 38.88 32.11 38.43 41.75 43.91 43.58 41.36 43.41 33.88 36.15 26.88 25.63
57.54 55.90 54.03 52.88 51.76 50.84 50.27 49.75 49.56 49.20 48.85 50.00 48.79 42.70 46.91 49.69 49.89 41.83 35.34 37.32 38.79 41.19 41.86 38.08 37.39 35.73 37.15 36.29 36.73 35.88 36.89 39.41 41.12 40.34 42.19 41.09 38.28 35.09 40.45 37.55 38.20 38.83 37.16 38.68 38.28 34.71 29.45
57.00 55.53 53.73 52.33 51.18 50.47 49.91 49.63 49.52 48.76 49.14 47.88 47.25 38.63 46.48 49.00 38.93 38.26 39.52 39.90 41.36 41.25 42.55 41.19 41.54 40.67 39.09 39.43 38.01 37.30 36.34 39.46 43.22 42.42 37.99 41.08 38.68 32.80 35.21 41.75 43.36 42.42 40.02 39.79 33.56 31.19 33.90
56.38 55.13 53.23 51.84 50.75 50.13 49.60 49.64 49.41 49.05 49.60 48.48 44.25 40.75 44.42 45.81 36.01 38.86 41.07 40.57 42.10 41.12 41.20 40.45 39.55 40.99 41.45 39.33 36.26 38.64 39.05 42.53 44.33 41.97 39.44 41.39 36.79 30.23 32.40 38.01 41.01 38.60 40.72 40.85 40.23 37.15 34.42
55.62 54.44 52.70 51.23 50.49 49.81 49.35 49.20 49.01 48.38 49.37 47.97 44.31 36.77 40.91 41.12 43.14 39.91 39.29 38.96 38.68 42.77 41.43 41.63 40.76 41.59 40.19 38.50 40.54 37.97 38.46 41.47 44.50 43.38 43.57 43.04 38.42 35.29 31.57 34.42 39.04 35.17 38.07 40.14 37.87 33.73 33.78
55.15 53.76 52.23 51.00 50.29 49.54 49.11 49.04 48.23 47.60 48.76 46.63 42.40 41.10 42.34 36.34 39.41 40.80 40.78 40.31 38.52 37.66 42.06 42.48 40.40 40.32 39.55 36.45 37.58 37.49 39.80 40.18 42.50 43.00 42.33 41.70 35.69 35.11 35.96 36.18 37.13 36.50 37.12 38.03 35.41 36.53 33.53
54.74 53.03 51.54 50.83 50.12 49.39 49.05 48.64 47.42 47.65 48.03 43.37 39.33 38.60 39.09 39.82 39.69 40.37 38.02 39.10 38.67 39.13 40.13 39.16 39.02 39.78 40.50 38.12 38.26 37.33 39.74 40.43 39.67 42.24 41.57 42.20 36.21 35.74 33.43 37.17 36.25 33.89 36.77 37.50 38.06 38.51 38.09
53.89 52.33 51.31 50.64 49.88 49.28 48.81 48.17 46.83 48.11 46.37 42.27 41.20 41.05 41.53 36.41 38.90 39.06 38.82 39.13 39.02 40.47 41.27 42.26 41.32 40.68 39.47 39.38 41.10 42.00 43.20 42.96 42.77 41.18 40.19 39.35 37.57 34.18 31.48 34.07 34.28 30.43 35.37 37.14 38.21 39.86 39.34
53.31 51.72 51.13 50.45 49.50 49.06 48.56 47.37 45.99 47.59 45.34 44.37 42.70 42.75 40.35 34.52 37.83 38.58 37.09 38.79 38.52 38.56 38.95 41.40 42.96 41.01 42.15 45.65 44.75 43.58 43.42 42.26 42.14 41.17 42.52 38.66 37.45 36.35 32.04 32.40 24.54 36.14 39.46 38.96 37.69 40.18 41.76
52.85 51.71 51.01 50.03 49.36 48.74 48.52 47.14 46.11 45.82 45.00 43.44 41.28 41.02 41.29 36.00 38.32 35.01 35.81 37.35 37.64 38.68 39.40 39.70 42.89 43.27 45.24 43.04 39.43 36.26 36.66 37.12 38.60 39.68 40.01 40.70 38.52 33.81 29.92 29.78 33.82 36.16 37.48 36.17 34.88 36.04 41.07
52.46 51.59 50.62 49.72 49.05 48.71 48.48 47.08 46.24 45.16 44.29 43.23 41.68 42.01 41.90 37.09 35.15 37.54 35.82 36.34 37.01 37.81 37.81 39.56 42.98 44.03 44.90 41.90 38.24 32.25 30.38 33.76 32.36 35.05 39.23 38.59 39.23 35.19 32.03 26.76 24.89 35.25 39.66 41.34 40.38 32.25 42.74
52.41 51.78 50.11 49.59 48.86 48.85 48.46 47.51 46.42 45.52 44.73 44.67 41.21 42.08 42.45 35.62 35.70 35.95 34.75 34.32 35.81 36.69 38.05 38.37 38.06 41.48 44.36 39.33 34.42 32.70 32.15 36.16 30.89 31.26 32.30 33.90 34.29 31.38 31.21 28.87 32.72 39.56 40.82 41.91 30.35 34.51 42.49
51.93 51.33 50.28 49.32 49.15 48.78 48.32 47.74 46.87 45.82 45.23 44.89 41.26 43.97 42.95 37.61 35.48 36.70 36.29 34.61 34.64 35.28 34.73 35.63 37.14 39.27 40.05 35.97 34.73 34.75 33.76 35.52 33.66 35.94 34.57 33.80 32.39 32.10 33.06 29.16 26.13 41.04 39.16 34.24 40.54 43.77 43.98
51.63 50.66 50.16 49.60 49.55 48.75 48.12 47.89 46.26 45.70 44.95 44.63 40.60 43.78 45.59 40.64 36.70 39.66 39.71 39.85 37.90 37.32 36.72 36.42 35.50 35.15 36.22 36.86 38.19 37.75 35.43 36.87 34.94 30.44 37.94 31.48 36.63 34.49 35.57 35.37 41.67 42.50 42.37 44.77 45.28 43.56 44.30

GFSGBSN_sfc_wetblb_084.txt.gz
Wetbulb
61.12 60.68 59.49 58.57 57.60 56.93 56.50 55.90 55.29 54.88 54.69 54.57 54.77 55.57 54.85 54.43 53.11 52.86 54.29 54.53 53.85 53.56 53.59 53.37 52.94 52.78 49.47 43.23 42.31 50.29 52.61 53.18 53.68 52.46 49.08 47.84 46.06 46.21 43.38 44.73 46.92 46.21 48.72 50.54 51.36 52.28 51.90
62.01 61.51 60.26 59.30 58.07 57.06 56.51 55.90 55.54 54.88 54.61 54.61 54.48 55.31 54.25 54.25 53.24 52.30 53.49 53.92 54.35 52.88 53.16 53.32 52.36 51.81 46.33 37.85 49.52 51.23 50.74 51.44 51.54 50.69 48.56 48.61 47.06 48.74 46.23 45.33 44.89 48.69 48.68 50.01 51.06 49.41 51.30
62.88 62.01 61.20 59.85 58.58 57.09 56.58 55.83 55.41 54.86 54.48 54.06 54.52 54.55 54.15 53.90 53.34 52.02 52.60 53.86 53.95 53.40 52.24 53.42 53.73 50.75 44.05 42.08 50.27 51.12 51.09 50.76 50.52 50.49 46.90 49.20 49.92 45.76 46.74 44.71 48.52 48.60 44.85 47.85 49.01 49.01 49.41
63.83 63.00 61.72 60.43 59.04 57.30 56.37 55.66 55.18 54.78 54.36 53.96 53.75 54.02 53.80 53.03 52.85 51.99 51.85 53.14 53.43 53.52 51.96 52.58 53.19 48.81 40.37 49.98 51.07 49.25 50.58 49.70 50.10 49.71 48.32 50.88 50.53 46.08 45.56 48.19 46.98 44.57 44.56 39.71 47.24 48.69 49.95
64.05 64.21 62.27 60.82 59.40 57.76 56.38 55.66 55.07 54.72 53.99 53.59 53.33 53.72 53.23 52.60 52.08 51.75 51.53 52.70 53.47 53.13 51.83 52.19 48.69 46.24 39.03 50.56 46.25 48.17 49.77 46.25 47.49 47.98 48.29 49.78 47.57 43.78 45.16 40.98 39.78 41.98 36.53 38.93 42.68 48.98 48.18
63.98 63.67 62.98 60.67 59.45 57.88 56.41 55.63 54.97 54.60 53.91 52.95 53.15 53.22 52.55 51.97 51.72 51.59 52.21 52.26 52.14 51.01 50.81 50.23 48.01 40.71 43.83 41.51 45.77 46.99 49.80 48.34 45.23 44.29 43.91 42.65 41.75 37.08 40.83 39.03 32.00 35.24 36.90 38.83 39.26 45.13 46.97
63.51 63.35 62.91 60.60 59.32 57.59 56.23 55.36 54.73 54.32 53.45 52.85 52.83 52.52 52.24 51.29 51.60 51.87 51.19 48.97 44.24 42.69 45.25 40.99 40.60 40.01 42.15 45.83 47.83 45.81 47.85 45.64 44.64 41.11 35.70 39.27 34.52 33.22 38.57 41.01 41.39 40.98 38.78 38.20 41.98 46.44 44.81
63.22 63.22 62.96 60.59 59.04 57.38 56.02 55.09 54.43 53.85 53.01 52.67 52.53 52.25 51.60 51.56 51.75 51.42 49.71 44.53 44.01 45.27 38.61 43.36 43.27 42.69 44.39 45.32 39.42 43.57 47.60 40.42 39.31 33.98 35.87 37.09 33.61 39.46 43.05 43.08 41.57 40.99 38.36 38.08 42.53 46.32 44.91
62.41 62.44 62.77 60.61 58.95 57.20 55.77 54.77 53.96 53.38 52.75 52.09 51.97 51.64 51.07 51.40 50.45 49.11 47.31 45.74 49.77 48.27 38.54 40.54 42.87 41.71 42.12 43.89 38.86 39.67 43.33 41.13 37.49 34.20 36.91 35.36 37.37 41.15 41.40 40.08 38.73 39.37 37.21 37.98 39.31 42.94 43.35
62.58 62.40 62.45 60.42 58.82 56.66 55.36 54.29 53.30 52.70 52.21 51.61 51.20 50.88 50.74 50.49 46.73 48.58 45.12 48.89 50.59 49.85 34.21 35.21 38.38 41.43 43.43 43.07 37.65 43.64 44.86 41.29 37.87 35.37 37.23 37.25 40.11 39.22 40.07 39.01 41.30 36.56 42.66 42.11 41.04 37.79 32.75
62.37 62.36 61.90 60.05 58.35 56.12 54.94 53.78 52.76 52.10 51.61 51.06 50.69 50.19 50.99 50.59 47.72 45.10 47.46 50.27 50.34 45.88 22.31 36.78 38.57 46.60 44.41 39.59 38.93 40.11 44.87 42.84 35.83 36.06 37.64 35.49 37.93 38.44 38.39 39.98 42.85 38.97 43.77 42.42 41.20 37.76 37.05
62.16 61.98 61.39 59.44 57.58 55.51 54.32 53.22 52.17 51.56 51.01 50.66 50.42 50.93 50.30 48.20 49.75 49.06 50.78 50.63 47.21 32.02 21.41 32.17 38.75 37.42 37.42 39.56 39.57 41.17 41.84 43.66 43.33 38.90 40.13 38.70 42.71 40.68 40.19 43.41 43.26 43.74 40.98 40.36 38.71 36.20 25.67
61.56 61.61 60.65 58.83 56.85 54.94 53.76 52.58 51.69 51.08 50.57 50.32 50.66 50.84 49.85 50.82 45.40 51.10 50.90 45.62 31.85 27.30 36.56 32.21 33.02 36.98 36.72 35.79 36.92 38.60 37.52 36.99 35.13 31.02 31.95 36.15 37.07 40.66 42.84 39.66 42.10 40.49 36.07 26.54 24.27 21.92 23.83
61.18 61.19 60.47 58.13 55.76 54.46 53.24 51.99 51.34 50.76 50.00 49.69 50.95 51.00 49.56 50.60 51.15 51.14 47.84 37.62 28.25 33.77 34.33 37.15 35.91 36.27 33.86 36.95 36.16 37.98 37.34 35.19 39.00 37.65 32.91 30.91 28.46 37.68 42.65 40.37 37.26 37.21 35.84 27.77 20.83 21.37 24.81
60.82 60.55 58.92 57.11 55.27 53.99 52.79 51.69 51.23 50.39 50.05 50.36 51.10 50.04 49.28 49.07 51.03 49.92 41.28 31.63 31.50 34.90 37.95 35.78 35.32 33.26 33.02 35.77 36.41 36.84 36.23 35.25 38.46 39.56 33.92 32.04 30.96 40.27 42.58 43.59 41.86 36.33 31.47 36.07 31.10 29.90 25.69
60.32 59.86 57.97 56.36 54.75 53.58 52.34 51.56 51.09 50.49 50.09 50.72 48.53 47.69 46.76 50.22 50.62 46.72 38.20 32.90 34.35 40.29 41.41 39.23 33.71 35.83 31.00 33.49 33.93 34.61 35.76 39.04 38.36 40.91 41.12 36.99 29.56 37.56 41.69 43.44 42.83 40.07 40.19 30.18 30.71 20.45 19.87
56.65 58.97 57.58 55.55 54.60 53.20 51.80 51.32 50.76 50.64 50.06 50.34 47.03 42.72 46.33 50.10 49.46 41.48 34.32 36.58 39.10 41.91 42.55 38.80 37.25 35.94 35.16 34.40 35.27 34.22 35.93 38.77 40.56 39.55 41.03 39.15 35.07 34.80 39.91 36.24 35.63 36.77 34.68 35.89 34.50 29.69 23.04
57.98 58.42 56.90 55.21 53.99 52.77 51.36 50.88 50.73 50.43 49.87 48.80 46.04 37.78 46.90 49.31 39.03 38.59 37.20 40.19 40.94 40.92 42.67 41.35 41.11 40.16 37.74 37.56 35.79 36.36 35.71 38.52 42.27 41.61 37.06 39.01 36.35 29.75 33.54 40.29 42.06 40.37 37.66 35.97 27.26 26.37 27.13
58.90 57.74 56.27 54.81 53.16 52.21 51.09 50.51 50.65 50.22 50.45 47.70 42.27 40.43 45.51 46.42 35.06 37.00 40.36 40.23 42.25 40.82 40.95 40.55 39.87 41.05 40.90 38.36 35.00 37.56 37.97 42.90 43.56 41.06 38.52 38.80 35.18 29.57 29.41 34.91 38.51 36.13 38.76 39.30 36.99 32.71 26.19
54.09 56.90 55.81 53.91 52.61 51.76 51.14 50.42 50.31 50.18 50.90 46.82 42.94 35.09 39.63 41.33 41.10 38.48 38.43 38.53 38.36 43.04 41.84 42.14 40.85 41.39 39.52 37.52 39.16 36.88 37.46 41.49 43.46 42.76 44.03 41.47 36.12 31.39 25.34 29.08 34.84 31.91 35.82 37.47 34.20 27.50 29.24
56.00 56.76 55.36 53.29 51.77 51.47 50.83 50.20 50.01 49.70 50.03 46.21 41.50 38.80 39.79 33.93 37.25 39.12 40.79 40.04 38.13 36.90 41.83 42.28 39.87 39.97 38.64 34.78 36.44 36.46 38.71 39.44 42.13 43.06 40.06 38.89 31.47 29.38 32.86 34.72 34.74 34.19 35.05 35.78 31.01 33.74 27.12
54.00 54.99 54.63 52.88 51.53 50.65 50.16 49.88 49.47 48.85 49.99 42.55 37.70 37.52 38.77 38.90 40.20 39.00 38.81 38.27 37.99 38.93 39.95 38.68 38.60 40.15 39.48 36.43 36.60 35.47 38.24 37.64 36.88 39.85 37.43 39.04 30.89 31.85 28.69 35.77 34.46 31.50 34.63 34.96 35.70 36.50 36.21
53.97 55.38 54.06 52.53 51.26 50.36 49.82 49.93 48.70 49.14 48.29 41.19 40.15 40.53 38.39 37.95 37.33 37.22 37.41 38.63 39.32 40.95 41.33 42.46 41.17 39.51 38.38 38.91 39.60 39.57 40.34 41.02 39.71 38.53 36.87 36.56 33.45 28.70 24.86 31.67 31.47 26.47 33.10 34.69 35.44 36.86 36.68
52.74 54.51 53.37 52.08 50.65 50.20 49.62 49.06 48.17 49.82 48.30 43.14 41.06 40.19 37.00 31.49 35.49 36.60 38.73 39.68 39.45 39.80 39.08 41.77 42.49 39.75 41.20 43.85 42.92 41.14 39.20 39.11 38.72 37.64 39.85 35.47 33.76 31.93 24.60 26.43 17.10 32.32 37.53 36.92 34.86 36.53 38.92
52.45 54.05 52.86 51.53 50.39 49.84 49.30 48.40 47.62 49.14 48.86 42.35 40.81 39.12 37.77 32.44 34.88 35.16 37.06 38.27 37.97 38.05 39.01 40.78 42.33 41.54 43.53 40.84 36.21 33.27 33.02 33.90 36.18 36.89 36.74 37.15 33.74 28.98 24.35 23.31 29.17 32.93 34.33 33.58 31.54 32.72 37.70
52.32 53.79 52.32 50.92 49.89 49.37 48.72 47.63 47.17 48.49 47.77 42.26 40.67 40.86 38.44 35.01 31.84 37.40 35.50 36.71 34.48 35.34 36.17 39.26 42.25 41.88 42.36 39.35 35.55 27.73 26.51 30.41 30.02 32.63 36.78 37.14 35.48 29.87 27.15 23.32 21.28 31.52 36.60 38.68 36.56 26.72 39.46
53.18 53.18 51.81 50.48 49.69 49.10 48.15 47.42 46.83 46.63 45.99 43.60 40.12 41.62 39.68 32.07 32.99 34.40 32.23 32.09 34.42 35.25 35.95 38.72 37.27 39.28 41.99 36.12 32.38 29.01 28.10 32.62 26.81 27.30 28.01 30.02 31.07 26.45 27.03 26.86 29.40 35.81 38.26 38.87 24.93 28.93 38.50
53.21 52.53 51.31 50.14 49.44 49.81 47.95 47.19 46.53 46.12 46.41 44.51 40.61 43.00 40.66 33.30 33.18 36.37 36.74 32.60 32.12 32.80 31.45 33.43 35.15 37.57 37.03 33.84 33.73 31.49 29.33 30.88 28.85 30.95 29.72 29.67 28.29 28.08 28.05 24.01 22.98 37.31 35.89 30.97 36.35 38.87 39.71
52.72 51.88 50.92 49.98 49.95 49.66 48.58 47.69 47.25 46.47 46.24 45.92 39.35 43.43 43.46 37.20 34.26 39.33 39.01 38.81 36.94 36.05 33.75 34.92 34.98 35.17 35.79 34.24 34.32 34.22 31.87 31.42 29.82 24.95 34.19 27.70 32.33 29.47 31.15 31.20 37.96 38.75 37.96 39.83 40.15 40.04 40.29

GFSGBSN_sfc_wetblb_087.txt.gz
Wetbulb
62.31 62.15 61.75 61.28 60.07 58.97 58.06 57.11 56.42 56.05 55.72 55.27 54.85 54.95 55.67 54.42 54.38 53.56 52.75 54.46 54.53 54.33 53.34 53.81 52.97 52.91 48.99 42.51 41.59 50.40 53.48 52.83 52.43 51.45 48.05 46.52 43.69 43.59 41.49 43.15 45.43 45.71 47.13 49.09 51.13 52.48 51.60
63.65 63.48 62.81 62.00 60.53 59.80 58.43 57.40 56.60 55.97 55.57 55.35 54.71 54.93 54.97 54.71 53.91 53.70 52.32 53.24 54.35 54.67 52.95 53.27 53.44 53.16 44.96 37.09 46.93 49.24 49.60 51.20 50.26 49.85 47.63 47.13 44.40 46.43 44.24 43.97 43.19 45.89 48.14 48.41 50.43 50.44 50.36
63.85 63.74 63.77 62.81 61.50 60.34 58.69 57.53 56.67 55.77 55.52 55.18 54.66 54.15 54.40 54.14 53.58 53.43 52.10 52.57 53.75 54.09 53.40 52.34 53.26 50.42 44.13 41.03 47.47 48.11 51.05 50.24 50.37 49.23 46.07 48.47 47.83 45.71 45.44 43.74 46.47 46.48 44.03 46.90 48.63 49.07 48.19
63.94 63.87 63.97 63.98 62.46 60.67 58.81 57.41 56.60 55.74 55.37 54.98 54.28 53.83 54.22 53.38 52.78 52.64 51.92 51.76 53.15 53.62 53.59 52.15 52.69 47.50 38.80 49.51 47.38 47.69 48.66 48.79 49.71 49.81 46.95 48.22 50.29 45.50 44.03 46.07 44.96 42.31 43.49 38.88 46.53 47.60 48.28
63.91 63.78 63.85 63.73 63.40 61.01 59.14 57.62 56.63 55.76 55.27 54.75 53.70 53.54 53.94 52.79 52.31 51.40 51.28 52.62 53.30 53.46 53.07 51.54 46.89 44.22 37.72 50.59 45.82 46.30 47.85 45.77 47.22 48.10 47.81 47.48 47.54 42.89 44.31 40.37 38.30 41.01 35.65 37.52 42.37 47.82 47.10
62.73 63.57 63.44 63.28 63.14 61.39 59.70 57.94 56.62 55.63 55.00 54.20 53.48 53.10 53.02 52.02 51.40 51.59 51.80 52.70 52.52 51.28 49.97 49.38 47.93 39.42 42.77 40.99 45.05 46.21 48.71 48.24 44.74 44.82 42.67 41.25 41.08 36.08 38.89 38.65 31.44 34.76 36.16 38.18 39.36 44.09 45.06
61.58 62.70 63.14 62.59 62.52 61.36 59.76 57.71 56.47 55.38 54.58 53.75 52.92 52.90 52.22 51.57 51.33 52.08 50.25 46.91 41.54 40.19 43.34 39.23 39.66 39.52 41.56 45.08 47.00 45.85 47.19 45.00 44.15 41.28 34.89 37.37 35.20 32.27 35.07 37.48 38.81 39.51 38.44 37.67 41.25 45.98 44.23
59.72 61.04 62.79 62.46 62.36 61.24 59.27 57.52 56.27 55.06 54.00 53.01 52.46 52.45 51.69 51.16 51.39 51.20 49.14 43.21 42.77 42.09 37.70 43.01 43.00 42.68 44.30 45.21 39.40 43.32 46.45 40.21 39.46 33.82 35.18 36.17 33.13 38.13 40.65 39.89 40.08 40.29 37.98 37.30 42.35 44.90 42.58
58.55 60.75 61.61 62.13 61.73 61.26 59.01 57.14 55.97 54.72 53.61 52.63 51.87 51.58 50.67 51.02 50.57 47.24 44.96 45.42 47.07 45.88 37.36 40.41 42.89 41.50 42.06 43.85 38.48 39.72 42.90 41.45 36.61 34.40 34.98 32.80 37.31 41.92 41.13 39.52 38.75 38.29 36.56 37.02 38.42 42.74 43.94
57.15 58.86 60.58 61.74 61.77 60.91 58.50 56.67 55.50 54.27 52.93 51.89 51.18 50.32 50.21 50.88 46.05 47.13 45.06 47.17 47.63 46.01 32.09 34.98 38.55 41.21 43.12 42.10 36.66 43.59 44.95 41.31 37.28 34.91 37.25 35.53 40.35 40.52 38.98 37.79 38.49 33.92 40.75 40.44 40.46 38.10 32.81
56.69 59.02 59.98 61.29 61.27 60.20 57.89 56.24 55.03 53.70 52.31 51.47 50.75 49.85 50.25 51.21 46.90 44.87 47.08 47.61 46.40 41.93 10.63 36.89 38.05 46.48 44.41 39.37 38.96 38.37 44.93 42.69 36.85 37.14 38.09 35.66 37.72 38.15 38.24 39.32 41.31 37.32 42.37 40.65 41.06 37.51 36.46
56.47 58.02 59.77 60.87 60.73 59.46 57.11 55.78 54.44 53.06 51.93 50.91 50.12 50.37 50.83 47.32 47.75 48.13 47.84 46.59 43.62 25.56 17.18 30.20 38.32 37.41 37.47 39.54 39.64 41.08 42.00 43.45 42.68 39.56 39.37 37.79 42.55 40.15 39.80 42.40 42.04 43.32 40.91 40.30 38.81 34.15 24.63
54.87 58.34 57.69 60.52 60.42 58.38 56.45 55.07 53.73 52.43 51.48 50.58 50.25 51.07 49.38 50.16 44.73 47.48 47.48 42.17 29.03 17.52 34.28 31.26 30.03 37.33 36.46 35.69 37.54 38.38 37.10 37.02 34.74 25.87 29.48 34.75 35.64 39.23 42.33 37.60 41.26 41.22 33.15 27.07 25.38 22.37 23.43
54.53 56.26 57.61 59.37 59.76 57.82 56.00 54.44 53.12 52.06 51.18 50.24 51.26 51.14 49.87 49.51 47.56 47.45 43.80 31.89 18.02 31.51 31.01 36.33 35.17 35.09 31.74 36.13 36.02 37.54 36.24 34.34 36.59 35.42 32.97 25.91 22.61 37.11 40.74 39.05 36.64 37.56 34.84 24.35 20.24 20.40 23.24
55.26 56.28 57.05 58.97 59.18 57.06 55.45 53.82 52.51 51.71 50.84 51.13 51.57 46.67 46.17 46.95 48.21 45.94 39.42 21.42 23.66 29.04 35.50 33.96 34.51 30.05 30.12 34.49 34.84 34.27 32.96 33.71 36.82 37.34 28.50 26.96 30.65 40.12 41.95 42.10 40.26 34.83 27.74 34.81 28.05 26.44 22.07
55.56 55.83 56.55 59.62 58.12 56.43 54.83 53.15 52.10 51.38 50.79 51.84 44.93 46.24 44.67 48.59 47.29 42.84 34.98 29.98 29.67 38.13 39.75 37.96 30.93 33.17 27.65 30.81 31.02 31.24 32.65 36.80 36.90 39.13 38.83 33.77 30.54 37.36 40.61 41.57 41.69 38.60 38.89 28.05 25.13 20.12 19.67
54.35 55.68 57.09 59.15 57.07 55.58 53.86 52.57 51.96 51.37 50.91 51.81 44.96 42.15 45.97 49.32 46.42 40.47 30.24 30.12 36.84 40.88 41.36 38.23 34.37 33.18 30.96 31.02 32.17 30.91 33.24 36.76 38.51 37.79 38.26 36.72 32.21 33.29 38.93 34.58 35.21 35.95 33.69 34.51 32.44 28.33 23.06
53.93 54.77 55.27 57.74 55.87 54.75 53.11 52.14 51.67 51.40 50.98 48.64 43.76 36.19 46.08 47.91 37.03 36.23 30.99 37.21 41.51 39.30 40.72 39.54 38.34 37.73 34.03 34.00 31.69 32.33 33.64 36.49 39.92 39.35 34.79 36.68 32.91 30.34 31.08 38.57 40.15 38.42 37.02 35.12 24.82 25.34 24.46
54.23 54.29 56.75 56.54 54.93 53.82 52.85 52.35 51.77 51.23 51.01 44.36 40.68 39.34 45.00 45.56 30.14 30.79 36.73 39.07 40.88 39.39 38.96 39.09 38.16 38.87 39.63 36.32 33.74 34.83 36.17 41.38 41.43 39.13 35.55 36.73 29.70 22.02 28.33 32.48 36.34 34.57 36.88 37.56 34.47 30.35 24.54
53.50 53.58 55.10 55.70 54.27 53.09 52.47 52.03 52.03 51.47 51.87 45.36 38.52 33.66 39.40 40.96 38.63 32.90 34.61 35.99 36.85 40.86 40.18 40.37 38.35 38.69 36.56 34.59 36.60 34.76 35.40 41.00 41.74 40.69 44.07 40.46 33.24 26.95 20.82 26.66 32.75 30.14 34.82 36.62 32.79 24.42 27.93
52.89 53.86 55.26 55.44 53.90 52.45 52.04 51.74 51.79 51.33 51.90 43.80 38.80 34.05 36.68 32.54 32.75 34.52 36.16 37.81 36.16 35.39 39.44 39.86 37.15 37.62 35.66 32.02 33.86 35.50 37.64 37.77 40.51 42.92 39.03 37.19 28.16 26.39 31.30 33.58 32.82 32.58 33.50 34.20 28.30 32.11 26.79
51.98 53.26 52.82 54.26 53.63 52.11 51.61 51.59 51.41 51.24 51.38 40.57 34.84 35.47 36.03 34.12 36.76 34.65 36.42 35.25 36.06 37.48 37.41 36.33 35.86 37.93 36.79 33.57 33.23 34.33 36.04 35.10 35.18 37.18 35.75 36.81 28.19 28.87 26.46 33.52 32.53 30.22 32.92 33.24 33.66 34.24 33.91
51.57 52.32 51.73 54.57 53.34 51.67 51.54 51.19 51.07 50.92 47.51 38.53 37.66 37.15 35.89 35.13 34.06 32.94 33.44 36.02 39.06 38.86 39.39 40.66 38.72 36.95 36.09 37.02 36.95 36.43 36.37 37.74 38.42 37.30 34.98 34.64 31.02 26.20 22.16 29.95 29.54 25.27 30.60 32.96 33.19 34.69 34.84
51.72 51.64 53.56 54.68 52.66 51.10 51.35 50.97 50.70 50.52 46.73 39.99 38.11 37.13 32.93 30.30 32.10 33.81 36.50 37.94 39.58 38.03 36.60 40.10 40.35 37.51 38.91 41.38 39.91 38.42 36.81 36.94 37.09 36.03 39.02 34.78 33.71 30.97 22.53 24.77 15.23 29.90 35.24 35.37 34.46 35.89 36.70
50.51 51.67 52.13 53.45 52.05 50.86 50.57 50.69 49.68 50.39 49.26 39.75 38.05 37.21 33.31 29.08 31.62 33.62 36.09 35.40 35.79 36.48 36.80 39.45 40.07 39.00 40.84 38.85 33.81 30.92 30.84 31.93 33.49 35.12 34.47 34.98 31.98 27.37 23.15 20.89 26.50 29.98 32.81 32.99 31.07 31.60 35.90
51.01 50.70 51.81 53.16 51.52 50.33 50.00 50.27 49.63 50.35 49.73 39.70 37.52 38.22 35.32 32.38 28.32 31.61 33.52 33.65 31.35 31.19 33.40 37.33 39.83 39.59 40.19 37.42 33.34 26.35 23.73 27.72 27.43 30.28 34.95 35.45 33.18 27.83 24.81 21.89 20.48 29.16 34.71 36.89 34.77 25.26 37.36
51.45 51.34 51.06 52.27 51.03 50.33 49.83 49.51 49.31 50.07 48.30 40.43 37.73 39.64 34.80 29.18 29.75 31.40 30.00 30.28 31.84 32.61 32.07 35.26 35.16 37.53 39.45 33.51 29.70 25.37 26.71 30.85 25.73 26.13 26.93 28.08 28.32 24.28 24.85 21.91 27.54 34.03 35.87 37.20 23.37 26.56 37.50
50.72 51.16 53.11 51.87 50.71 49.72 48.74 47.62 48.76 50.07 47.06 41.23 37.64 40.45 36.17 29.75 30.52 33.92 33.85 29.77 29.79 29.83 30.16 31.99 33.97 35.14 34.86 30.95 31.07 29.59 26.56 28.67 26.71 28.45 29.16 27.86 24.75 25.09 25.55 21.95 20.19 36.09 34.10 28.69 33.66 37.67 38.98
49.79 53.39 52.16 51.20 50.01 48.95 48.13 47.37 47.43 47.34 46.81 43.50 36.49 41.26 40.76 34.00 32.51 36.92 36.82 36.47 34.97 33.89 31.69 32.91 31.64 33.80 35.45 31.30 31.39 31.58 29.56 28.90 27.09 23.32 31.42 26.00 29.76 27.32 29.56 29.51 36.16 37.38 37.18 39.68 39.86 37.32 38.46

GFSGBSN_sfc_wetblb_090.txt.gz
Wetbulb
63.89 63.72 63.60 63.16 63.01 62.15 60.65 59.20 57.98 57.10 56.36 55.80 55.32 54.81 55.21 55.14 55.12 54.28 53.53 52.73 54.26 54.67 53.76 53.01 53.51 53.14 48.22 41.35 40.92 49.79 53.33 52.12 52.50 50.90 46.44 44.17 41.96 41.87 38.67 41.09 43.97 43.37 45.91 47.51 50.26 52.15 51.25
63.25 63.88 63.77 63.69 63.75 63.07 61.54 60.02 58.40 57.32 56.46 55.85 55.27 54.36 54.19 54.60 54.58 54.04 53.47 52.46 53.03 54.39 54.22 52.35 53.42 53.49 44.13 35.46 46.54 48.18 48.53 50.27 49.65 48.43 45.99 45.82 43.53 44.60 41.35 41.65 41.53 44.65 46.57 46.98 49.92 50.23 50.19
61.13 62.06 63.62 63.82 63.54 63.64 62.40 60.78 58.69 57.50 56.37 55.65 55.12 54.22 53.78 54.26 53.69 53.09 53.24 52.34 52.29 53.63 53.97 53.08 52.34 50.18 43.28 40.15 46.59 46.97 51.72 49.63 49.96 48.37 44.98 45.41 47.20 43.72 44.40 41.46 45.19 44.81 43.56 45.07 47.81 49.33 48.66
59.31 60.44 61.32 63.23 63.40 63.20 63.13 60.90 58.66 57.49 56.47 55.65 54.78 53.59 53.64 54.06 53.09 52.48 51.81 51.65 52.54 53.10 53.69 53.41 51.99 46.69 38.58 48.82 46.13 46.45 47.68 48.52 49.54 49.49 47.00 47.94 47.13 43.49 43.94 45.44 42.89 41.65 42.94 39.47 46.35 47.80 48.81
56.31 58.39 60.29 60.83 62.49 63.10 63.06 61.01 58.83 57.61 56.55 55.47 54.70 53.00 53.11 52.94 52.02 51.73 51.33 51.53 52.83 53.14 52.89 52.30 45.80 43.15 36.81 50.06 45.73 45.65 45.26 45.62 47.04 47.83 47.93 47.79 46.05 42.18 43.02 39.49 36.35 39.75 34.85 37.59 42.93 47.40 46.53
55.27 56.34 58.70 59.95 61.29 62.84 62.74 61.84 59.21 57.68 56.46 55.20 53.89 52.92 52.82 51.73 51.75 51.43 51.76 52.27 52.13 51.40 49.58 49.47 47.25 37.70 41.00 40.26 44.02 45.23 46.86 47.24 44.73 44.18 42.93 41.94 41.64 36.75 36.66 36.37 29.09 34.36 35.06 37.26 38.68 43.95 44.61
54.42 55.04 57.24 58.89 59.15 61.32 62.55 62.17 59.58 57.65 56.30 54.89 53.39 52.52 52.16 50.97 50.63 51.33 49.54 45.54 40.90 39.32 42.51 38.41 38.61 38.92 41.03 44.17 46.45 45.02 46.36 44.32 43.87 41.39 34.36 38.23 34.59 31.82 34.63 38.34 37.34 38.23 36.78 36.07 41.11 44.50 42.18
53.65 54.26 55.68 57.40 58.86 60.65 62.06 61.89 59.36 57.53 55.95 54.53 53.03 52.34 50.89 50.55 50.59 50.90 47.62 41.96 41.34 41.16 36.49 42.48 41.83 41.89 43.53 44.45 39.16 42.93 46.16 39.82 39.09 34.08 36.25 36.01 31.81 36.82 37.65 39.08 38.56 37.94 36.72 37.05 42.29 44.23 42.76
52.43 53.34 55.01 56.73 57.98 59.38 61.37 61.48 59.28 57.31 55.56 54.17 52.76 51.88 50.84 49.79 50.44 46.70 43.67 44.63 46.13 44.62 35.95 40.12 42.24 40.99 41.68 43.32 38.54 39.13 42.91 41.08 36.25 34.00 34.60 34.31 36.89 40.65 38.95 38.66 38.06 38.24 36.94 37.39 38.20 42.48 42.98
52.58 52.49 54.23 55.55 57.05 57.46 60.39 60.69 58.44 56.87 54.98 53.46 52.29 51.25 50.49 50.50 45.85 46.92 43.71 46.94 46.58 45.16 24.15 33.07 37.63 40.49 42.97 42.33 36.00 43.18 44.47 40.98 36.79 33.46 36.62 37.16 40.64 39.25 38.30 37.60 38.60 34.60 40.97 40.55 39.98 38.15 33.91
51.49 52.15 53.58 54.42 56.64 56.75 59.21 59.99 57.96 56.31 54.21 52.80 51.77 51.23 50.48 50.68 45.78 43.90 45.51 46.70 45.56 39.36 9.02 33.47 36.80 45.84 43.93 38.97 38.52 37.57 44.41 42.42 37.35 37.66 38.25 34.45 38.96 38.44 37.21 38.41 40.48 37.00 42.64 41.17 40.43 37.23 35.42
50.61 51.22 51.81 53.87 53.28 55.18 57.17 59.24 57.43 55.54 53.57 52.35 51.42 50.76 50.84 47.81 47.19 47.05 46.67 45.94 42.47 20.94 11.14 26.28 37.34 37.02 37.10 39.18 39.46 40.87 41.68 43.48 42.72 38.72 38.54 37.97 41.47 40.45 38.85 41.69 41.82 42.87 40.51 39.86 39.47 36.08 29.18
49.86 49.86 51.28 52.19 52.70 54.43 55.69 58.33 56.66 54.77 53.03 51.81 51.25 51.11 49.04 48.52 44.13 46.40 46.65 40.57 22.11 15.60 31.72 27.53 28.98 36.28 36.00 35.17 37.39 37.94 37.24 36.41 34.74 27.12 29.26 34.98 35.96 39.93 41.76 38.67 41.52 40.42 35.18 28.64 27.16 26.10 24.61
49.42 49.92 50.05 51.26 52.78 55.63 57.24 57.58 55.83 54.13 52.51 51.65 51.12 51.29 49.49 49.30 46.99 46.97 42.54 28.80 16.20 28.95 28.64 35.19 34.09 33.97 30.39 34.86 34.18 36.65 35.62 32.90 37.69 34.51 31.88 25.77 27.26 36.90 40.75 38.54 36.66 37.07 34.93 27.18 22.08 21.01 22.87
49.33 49.53 49.67 51.95 54.05 56.61 57.56 56.88 54.97 53.04 52.35 51.26 51.87 46.10 45.51 46.46 47.32 45.16 37.02 18.68 22.23 27.98 33.77 32.57 33.05 28.66 29.33 33.32 33.68 33.17 31.72 32.86 35.58 36.43 28.43 25.05 27.95 39.89 40.75 40.74 40.10 36.38 29.29 34.02 26.65 24.86 21.93
49.04 49.36 50.37 52.59 54.73 55.95 57.81 56.29 53.82 52.54 52.00 52.25 44.98 44.33 43.57 47.57 46.51 41.33 30.24 27.43 28.16 36.43 37.85 36.15 29.14 31.34 25.91 29.29 29.71 30.48 31.14 35.80 35.90 38.31 37.07 32.17 25.45 35.39 39.11 39.59 39.86 36.42 37.07 27.24 25.27 18.86 19.15
48.88 49.41 51.54 53.57 55.31 56.35 56.43 55.03 53.02 51.94 52.63 50.99 44.35 39.82 44.49 47.90 45.23 37.47 23.84 27.27 35.16 39.74 39.97 36.31 33.39 31.63 29.74 29.43 30.52 29.71 32.20 36.11 38.12 37.39 38.18 35.09 30.68 31.33 36.18 32.76 33.08 34.79 31.88 32.28 29.85 26.19 20.89
48.77 50.30 52.03 54.60 54.23 55.77 55.21 53.88 53.02 52.46 52.74 48.07 42.23 35.48 45.82 46.26 35.52 34.54 29.41 35.68 40.73 38.46 39.73 38.42 37.14 36.18 31.58 32.44 30.26 31.50 32.55 35.18 39.05 38.12 33.70 35.62 31.51 26.39 29.91 37.00 39.23 37.21 34.28 32.88 23.01 22.95 22.04
49.11 50.40 52.94 54.22 56.11 55.38 54.07 53.34 52.85 52.98 52.43 44.18 38.40 39.35 45.05 44.02 30.60 29.46 34.33 37.77 39.54 37.76 37.52 37.87 36.99 37.85 36.73 34.03 31.51 33.90 35.03 40.16 40.68 38.41 34.60 35.76 28.13 26.63 26.50 31.62 35.25 33.42 35.46 36.66 32.72 28.25 21.99
49.17 50.47 52.76 53.71 54.25 54.31 53.24 52.65 52.30 52.89 51.63 43.65 38.05 34.00 39.58 40.94 39.22 32.23 33.39 34.89 35.89 39.94 38.97 39.41 37.02 37.63 35.51 33.33 35.87 33.43 34.19 39.38 40.52 39.29 43.71 39.61 31.26 25.68 20.48 25.80 30.85 29.20 33.18 35.18 31.71 22.66 27.28
48.48 50.94 52.03 54.23 55.31 53.57 52.68 52.25 52.11 52.50 51.90 44.03 37.78 31.99 37.04 32.09 32.16 33.74 34.61 36.67 35.17 34.73 38.22 38.58 35.71 36.23 34.34 31.16 32.74 34.44 36.25 36.81 39.47 41.62 37.58 36.00 27.22 24.95 30.34 32.52 31.85 31.49 32.43 32.83 27.90 31.28 26.67
48.88 51.04 52.35 52.75 54.19 53.07 52.32 51.95 51.85 52.15 50.51 40.82 35.50 33.73 34.31 31.82 34.44 33.20 34.75 34.70 34.59 36.04 36.33 34.99 34.85 36.70 35.54 32.55 32.38 32.39 35.34 33.75 34.43 36.04 34.36 35.35 26.64 27.07 25.82 32.00 31.45 29.63 31.78 32.07 32.62 32.70 32.66
49.28 51.12 51.72 52.42 53.87 53.01 51.98 51.80 51.69 51.77 48.49 38.43 37.09 36.22 35.74 34.12 32.74 32.22 32.87 35.00 36.84 37.97 38.41 39.30 37.61 35.65 34.42 35.26 36.25 35.91 35.51 36.75 38.55 36.01 33.93 33.39 29.45 25.47 21.90 29.01 28.13 24.56 29.70 30.87 31.48 32.83 33.48
49.50 50.78 51.20 52.14 54.31 52.64 51.50 51.70 51.62 51.56 46.00 39.68 37.21 35.91 32.45 30.27 32.33 33.55 35.94 37.07 37.37 36.70 36.14 38.94 38.75 36.60 38.59 40.73 39.77 37.70 35.61 36.19 36.38 34.62 36.76 32.30 31.10 28.28 20.89 24.12 14.78 28.63 33.99 33.98 33.02 34.54 34.62
49.55 50.69 51.69 51.95 52.98 52.06 51.15 51.25 50.98 51.51 46.56 39.05 38.33 36.42 32.39 28.97 30.40 33.19 35.98 35.06 35.69 36.94 36.51 38.27 38.36 38.49 40.32 37.43 32.61 30.05 29.59 31.23 32.25 33.71 33.77 33.66 30.99 26.40 22.62 20.15 25.22 28.62 31.51 31.25 28.98 30.12 34.89
49.34 50.72 51.96 51.61 52.12 51.47 51.26 51.03 50.98 51.26 46.60 38.87 37.96 38.80 35.91 31.88 28.26 30.97 32.93 33.81 31.41 30.92 32.83 36.31 38.15 39.10 38.69 35.24 32.13 25.79 23.41 27.06 26.36 28.46 33.93 33.37 31.66 27.34 23.40 21.05 19.89 27.65 33.87 35.35 33.01 24.63 34.97
49.63 50.01 51.15 51.38 52.25 51.19 50.69 49.68 50.19 50.61 47.22 40.01 37.36 39.99 35.07 27.74 28.93 30.30 30.90 31.01 33.28 32.70 31.50 33.93 34.55 36.33 37.77 31.86 28.55 24.89 25.30 29.93 25.44 25.40 25.49 27.28 27.23 24.04 24.38 23.05 26.37 32.64 35.06 35.42 22.89 25.75 35.66
49.12 49.71 50.76 51.00 51.85 50.71 50.11 49.75 49.97 50.29 46.97 39.71 38.36 40.93 35.10 29.60 31.49 33.36 33.22 29.79 30.09 32.13 30.64 32.27 33.91 34.68 33.91 30.28 28.37 27.37 25.68 27.83 25.39 27.63 27.93 26.90 24.00 24.07 24.49 21.13 19.08 34.31 33.47 28.14 31.96 36.19 37.41
49.50 50.44 52.09 52.54 51.40 50.49 49.62 48.64 48.85 50.37 46.72 43.48 37.49 40.71 39.64 34.00 32.97 36.28 36.63 36.26 34.75 33.34 32.30 31.73 30.93 32.69 32.73 30.32 29.72 29.98 29.04 27.34 25.51 22.43 29.48 25.19 28.68 26.15 28.21 27.43 34.53 34.95 33.39 36.37 37.07 35.56 35.99

GFSGBSN_sfc_wetblb_093.txt.gz
Wetbulb
60.49 60.80 61.71 61.97 63.28 63.46 63.52 63.49 61.68 59.55 58.57 57.58 56.62 55.71 55.12 54.51 54.84 54.72 53.58 53.55 53.09 53.80 54.60 52.60 53.12 53.72 47.19 40.10 40.02 48.42 53.44 51.21 51.66 49.93 45.32 42.92 41.02 40.19 36.93 38.54 40.58 41.45 43.96 45.35 48.04 49.67 50.83
58.26 58.41 58.95 60.46 61.47 62.23 63.25 63.35 63.25 60.19 58.81 57.73 56.85 55.76 54.83 53.88 54.38 53.66 53.54 53.05 52.40 53.08 54.03 52.44 52.21 52.87 43.37 32.99 45.33 46.34 47.21 48.78 48.96 47.15 45.46 44.72 41.83 42.80 39.41 39.70 39.20 42.14 44.01 45.68 46.79 48.28 50.19
56.09 56.84 57.24 57.32 59.50 60.91 61.70 62.54 62.74 61.21 59.06 57.87 56.72 55.73 54.44 53.84 54.13 52.98 52.23 52.66 51.91 52.28 53.45 53.46 51.78 49.79 42.27 38.71 45.88 46.18 50.07 48.33 48.81 47.78 43.84 45.70 46.41 42.41 40.92 39.16 42.83 42.52 40.63 44.28 43.87 47.35 48.70
54.44 54.61 55.40 56.13 57.52 58.29 60.04 61.26 62.02 61.24 59.24 57.94 56.59 55.42 53.73 53.53 52.87 52.20 51.97 51.20 51.42 52.71 53.41 53.44 51.89 45.86 38.71 47.74 45.51 45.68 48.36 47.81 49.07 48.92 47.15 47.45 47.40 43.90 41.49 42.95 41.90 38.60 40.16 36.34 44.04 45.99 48.00
53.59 53.66 54.13 54.53 55.28 56.70 58.37 59.96 61.05 61.60 59.35 57.92 56.54 55.26 53.49 53.19 51.91 50.72 51.06 50.88 52.19 52.79 52.47 52.24 45.02 41.94 36.58 49.10 44.61 44.90 44.13 44.76 46.63 47.26 47.73 47.85 45.27 41.06 40.66 35.73 35.51 36.27 32.63 35.52 40.04 45.10 44.05
52.98 53.15 53.24 53.52 54.04 55.44 57.13 59.07 59.91 61.78 59.51 57.67 56.31 54.59 53.30 52.51 51.45 50.45 51.21 51.74 51.79 50.80 49.24 49.30 46.61 37.44 39.90 39.29 43.22 44.48 45.59 46.08 43.62 43.22 42.68 41.77 40.66 35.03 34.30 34.98 27.59 30.91 34.19 36.84 37.61 43.82 43.19
52.24 52.16 52.52 52.92 53.19 54.20 55.39 57.39 58.78 61.15 59.22 57.33 55.74 53.82 52.78 52.02 50.30 50.16 48.94 44.65 40.53 38.29 41.75 37.49 37.78 38.25 40.25 43.31 45.43 43.97 45.52 43.33 43.52 40.34 35.41 37.99 34.17 30.49 33.22 37.15 35.46 35.88 34.85 35.37 38.90 43.75 40.85
52.37 51.94 51.81 51.64 53.16 53.03 54.47 56.51 58.05 58.30 59.08 56.87 55.12 53.40 52.64 51.45 50.40 51.54 46.85 41.20 40.42 40.48 35.21 42.05 41.07 40.65 42.75 43.46 38.41 42.13 45.76 39.11 38.62 33.47 36.51 35.12 31.20 35.59 37.75 36.76 36.52 36.84 34.88 34.66 40.57 43.42 41.33
51.99 51.84 51.41 51.19 51.91 52.80 53.56 55.01 57.24 57.62 58.63 56.39 54.50 53.13 52.04 50.83 50.96 46.63 43.02 43.53 45.17 43.17 34.99 39.18 41.41 39.86 40.35 42.67 38.11 38.96 42.93 40.14 36.56 34.04 34.90 32.72 35.64 38.53 35.98 35.28 36.40 35.60 35.92 37.30 37.49 41.54 41.49
51.73 51.21 51.15 50.80 51.07 52.03 52.65 54.36 54.98 56.41 57.87 55.60 53.96 52.76 51.55 51.16 45.55 44.82 42.09 47.05 45.48 43.61 20.66 30.14 36.46 39.35 42.45 42.24 34.63 42.83 44.26 40.16 35.84 33.85 36.40 37.23 39.91 36.76 34.88 37.02 37.46 33.37 40.39 40.97 39.27 37.63 34.34
51.10 50.88 51.32 50.61 50.46 50.58 51.70 53.29 53.48 54.94 56.98 54.81 53.56 52.25 51.28 50.81 44.83 42.66 45.13 45.74 44.29 37.50 7.23 31.57 35.92 44.89 42.79 38.94 38.93 38.79 44.86 42.09 36.27 37.85 37.85 35.13 37.92 35.68 35.87 38.06 39.33 36.33 42.04 39.96 39.02 36.25 35.55
51.12 50.40 50.92 50.31 50.21 50.39 50.89 52.06 52.86 54.93 56.35 53.88 52.80 51.85 51.28 48.38 45.67 46.06 45.96 45.27 40.76 18.38 8.67 24.89 36.12 35.86 36.52 38.79 39.08 41.22 41.74 43.75 42.51 39.13 39.76 38.16 41.77 40.34 38.88 41.03 41.69 42.71 39.70 38.62 38.06 35.70 27.80
50.63 50.28 50.32 50.40 49.69 50.02 50.87 51.50 52.61 54.75 55.24 53.15 52.22 51.37 49.37 48.09 42.30 45.86 45.70 39.34 22.06 10.91 30.09 25.78 28.40 34.82 34.38 34.03 36.51 37.53 37.10 36.84 34.95 31.43 30.15 35.91 36.34 40.23 40.97 37.88 41.61 39.89 35.43 28.96 26.51 26.74 26.39
50.69 50.33 50.26 50.51 49.55 50.26 50.66 51.30 52.76 54.94 54.09 52.34 51.53 51.54 49.29 48.40 46.04 46.36 40.78 28.47 11.36 26.67 25.70 33.90 33.08 33.43 29.20 33.68 33.40 35.56 33.54 31.59 36.65 33.91 28.39 28.91 23.33 37.27 40.11 37.92 36.56 35.14 33.49 27.37 22.40 21.52 22.71
50.76 50.27 49.60 49.56 49.04 49.46 51.04 52.36 53.20 55.64 53.01 52.00 51.56 46.71 45.16 45.66 46.85 44.46 34.10 17.95 19.37 26.45 31.76 31.37 32.19 28.16 28.32 32.39 32.64 32.60 31.27 31.86 34.69 36.27 29.67 26.16 30.10 39.19 40.94 40.81 39.61 34.53 32.00 33.43 26.57 25.26 22.17
50.56 50.14 49.55 49.49 49.93 50.85 51.89 53.73 56.35 53.83 52.63 52.13 46.00 44.09 43.42 46.75 45.60 40.45 29.03 27.14 26.63 34.18 35.89 34.35 27.90 29.62 24.83 27.87 28.55 29.39 30.50 34.76 35.08 36.86 35.35 30.55 27.31 34.85 39.48 41.23 41.03 35.46 36.88 28.45 28.12 23.08 18.12
50.34 50.03 49.90 49.66 49.86 50.92 53.51 54.57 54.89 52.64 52.52 50.92 44.88 38.63 44.55 46.70 44.59 36.93 24.52 26.59 33.11 38.82 38.26 34.17 31.32 29.99 29.34 28.42 29.39 28.87 31.18 35.26 36.82 36.32 36.34 33.23 29.05 29.79 35.33 32.97 33.60 35.30 31.68 30.76 29.37 25.01 20.48
50.03 49.94 49.95 49.50 50.44 52.36 53.16 55.13 53.62 52.71 52.34 49.02 41.96 34.28 45.24 45.27 35.14 33.01 28.57 33.06 39.68 37.38 38.84 37.17 36.65 34.79 30.15 30.77 29.93 30.37 30.74 33.59 38.75 37.41 32.57 34.00 30.48 23.14 28.60 35.87 37.87 35.88 33.20 30.01 22.54 22.62 20.58
49.54 49.64 49.82 51.09 51.65 52.52 53.68 53.85 52.56 53.05 52.26 44.63 39.32 38.70 45.21 44.65 26.11 27.80 32.07 36.41 37.75 36.66 36.41 36.62 35.78 37.05 35.47 32.44 30.38 32.70 33.55 39.48 39.84 37.43 33.25 34.07 27.20 18.24 23.60 29.04 34.06 32.52 33.82 33.49 30.25 27.37 21.36
49.01 49.13 49.22 51.81 51.62 53.11 54.23 52.44 52.26 52.95 52.19 44.23 38.19 33.94 39.45 41.16 38.97 31.23 32.75 33.92 34.70 39.07 37.58 38.44 35.94 36.33 34.21 32.85 34.30 32.32 32.89 38.34 39.83 38.57 42.78 38.40 29.21 25.22 19.80 24.93 29.66 28.75 31.20 33.58 30.03 20.61 25.04
48.90 48.44 49.84 51.69 51.93 54.66 53.15 51.88 52.26 52.82 52.48 43.54 36.84 32.38 35.98 31.87 34.18 34.68 33.21 35.55 34.28 33.99 37.20 37.44 34.73 35.11 33.74 30.39 31.42 32.35 34.66 35.24 38.67 40.72 36.70 34.67 26.81 24.27 29.37 30.90 30.93 30.80 31.00 31.79 25.46 30.24 26.54
48.71 48.58 50.75 51.28 53.15 53.75 52.45 51.70 52.46 52.66 50.29 40.53 35.71 33.17 33.31 31.28 33.84 32.48 32.08 33.73 34.14 34.81 35.19 33.94 33.83 35.33 34.30 32.14 32.51 31.93 34.51 32.12 32.09 35.68 33.55 34.14 25.68 26.05 25.94 30.71 29.80 29.01 30.35 30.70 31.16 31.57 31.77
47.82 49.09 50.91 52.03 52.96 53.06 51.50 51.57 52.43 52.27 47.53 38.31 36.12 36.90 35.59 33.62 30.94 31.20 31.26 33.91 35.72 37.19 37.90 37.85 36.46 34.40 33.43 34.42 35.15 35.47 34.76 36.27 35.48 34.45 32.78 32.15 28.37 25.05 21.57 27.45 27.45 22.98 27.84 28.93 30.02 31.33 31.82
47.83 49.51 50.86 51.44 52.23 52.16 51.14 50.94 52.12 51.88 45.02 39.46 36.05 36.04 33.92 30.21 32.02 32.71 34.84 36.17 36.55 36.08 35.57 37.59 37.43 35.31 37.11 39.64 38.69 36.64 35.43 35.34 35.52 33.37 35.37 31.75 29.52 27.51 20.43 23.83 13.93 27.54 31.65 32.41 31.62 32.56 33.59
48.17 49.60 51.17 52.07 53.61 52.17 51.37 50.73 51.70 51.07 46.08 39.17 37.09 35.35 33.40 29.24 31.42 32.71 35.14 34.87 35.56 35.62 36.33 36.95 37.28 37.05 39.48 36.51 31.99 29.46 28.67 30.36 31.25 32.67 32.47 33.22 29.88 25.55 22.13 19.52 24.09 27.25 30.27 29.82 28.01 29.18 33.82
48.76 49.71 50.42 51.21 52.05 51.66 51.59 51.72 51.28 51.61 46.33 39.74 37.27 36.72 34.85 32.85 28.40 29.94 32.59 33.05 31.42 30.61 32.32 35.34 37.27 39.03 38.34 34.06 30.85 25.34 22.78 25.93 25.23 27.32 32.58 32.03 30.77 28.20 23.14 20.19 18.82 25.94 32.92 34.20 31.56 24.35 32.69
48.96 49.81 49.87 50.45 52.47 51.47 51.23 50.22 49.73 51.18 45.99 40.10 37.68 38.91 33.55 27.59 28.80 29.91 30.86 31.68 33.10 32.38 31.25 32.65 34.02 35.72 36.43 30.58 28.26 24.69 24.71 28.73 24.71 24.86 25.01 26.67 26.59 23.78 24.18 22.41 25.59 31.21 33.79 33.96 22.15 24.52 33.49
49.15 49.78 49.96 50.35 52.26 51.60 51.00 50.70 50.89 50.10 45.40 40.76 38.68 40.03 34.51 29.46 30.31 32.65 32.40 29.97 31.46 33.14 31.28 32.62 33.84 34.43 32.98 29.68 27.69 26.83 24.94 26.73 23.97 26.10 26.01 26.12 23.34 23.41 23.44 20.68 18.77 32.75 32.51 26.42 30.74 34.32 35.00
48.91 50.14 52.08 51.48 51.44 51.44 49.93 49.67 50.64 49.36 46.43 43.20 37.32 40.13 39.90 33.49 32.21 35.45 35.57 35.29 34.24 33.10 32.56 31.18 30.69 31.38 32.78 30.21 28.94 28.97 28.20 26.15 24.50 22.25 27.16 25.27 28.12 26.04 27.02 26.36 33.65 34.30 32.76 36.18 36.15 35.26 35.55

GFSGBSN_sfc_wetblb_096.txt.gz
Wetbulb
55.83 56.06 56.55 57.27 57.57 58.03 58.69 59.68 60.75 61.89 62.93 60.81 58.97 58.23 56.80 55.94 54.75 54.99 54.73 53.37 52.90 52.98 53.80 54.13 52.36 53.39 46.27 39.07 39.45 47.67 53.13 51.10 51.04 49.03 44.38 42.00 39.88 38.66 35.36 36.78 39.41 38.07 40.62 44.57 46.33 49.12 48.62
54.88 54.87 54.89 55.04 55.31 56.31 56.73 57.40 58.97 60.33 61.56 61.33 59.16 57.80 56.71 55.44 54.39 54.52 52.92 53.41 52.73 52.13 53.09 53.50 51.81 52.19 42.55 32.22 42.98 45.62 46.22 47.62 48.29 46.16 43.66 43.47 40.44 41.20 38.53 36.91 37.66 39.29 40.55 42.03 46.02 46.46 47.18
53.94 54.00 54.20 54.22 54.23 54.64 54.78 55.73 57.77 58.54 60.61 61.53 59.30 57.61 56.50 54.92 54.36 54.45 52.71 52.08 51.76 51.28 52.44 53.44 52.02 49.10 41.51 36.36 44.60 45.85 48.07 47.30 47.37 46.39 42.94 44.65 44.56 41.42 39.45 36.91 40.92 40.85 37.76 39.77 42.51 45.85 44.19
53.46 53.50 53.64 53.70 53.85 53.54 54.16 55.25 56.80 57.96 59.15 60.32 59.42 57.31 56.41 54.36 54.11 53.13 52.08 51.36 50.67 51.83 52.58 53.37 52.12 44.96 35.49 46.46 45.07 44.78 47.89 46.91 47.90 47.99 46.68 47.30 47.05 43.39 40.87 41.35 39.32 35.95 38.18 33.73 40.69 44.76 45.57
53.55 53.40 53.16 53.06 52.95 52.85 53.61 53.71 55.45 56.23 57.88 59.01 59.69 57.03 56.07 53.81 53.84 52.02 50.62 51.01 51.14 52.35 52.07 52.11 44.16 40.83 35.79 48.17 43.26 44.98 44.64 43.30 45.57 46.70 46.92 47.55 44.57 40.05 39.66 35.66 32.42 34.57 27.27 32.27 39.07 44.24 42.91
53.14 53.20 53.11 52.95 52.60 52.62 52.32 53.16 53.60 55.36 56.82 58.34 59.77 56.97 55.06 53.63 52.80 51.77 50.93 51.32 51.55 50.39 49.15 48.64 46.04 36.83 38.95 38.27 42.30 43.37 44.75 45.09 42.50 42.57 42.10 41.61 38.07 35.99 35.55 33.17 24.34 27.39 29.58 32.67 34.81 42.08 41.71
52.94 52.85 52.76 52.58 52.16 52.11 52.17 52.14 53.06 53.72 55.61 57.35 58.68 56.27 54.43 53.51 52.10 50.88 49.09 44.73 40.04 38.25 41.02 36.70 36.67 37.26 39.54 42.66 44.48 42.98 44.66 42.36 42.13 39.53 34.47 37.64 31.86 29.79 31.19 34.31 33.41 32.69 32.77 33.70 38.27 43.10 39.81
52.66 52.64 52.56 52.03 51.89 51.82 51.68 51.52 52.17 52.90 54.69 56.46 57.55 55.23 53.75 53.26 51.35 51.20 46.53 40.36 40.43 39.87 34.15 41.23 40.98 39.84 41.90 42.55 37.94 42.21 45.65 37.62 37.62 32.41 35.29 34.29 30.37 35.22 36.19 37.33 35.57 33.94 33.60 35.60 40.20 41.68 39.94
52.49 52.32 52.31 51.84 51.43 51.42 51.36 51.01 51.37 51.87 53.83 54.77 56.56 54.57 53.31 52.34 51.12 47.77 43.04 43.08 44.65 42.24 34.13 38.02 40.40 39.18 39.61 41.77 38.26 39.03 41.93 39.30 35.27 33.60 31.76 31.05 34.30 37.81 36.31 35.54 35.31 33.59 34.32 36.56 36.59 39.64 41.79
52.02 51.98 51.76 51.76 51.66 50.75 50.96 50.73 50.75 51.49 52.52 53.51 55.69 53.91 52.75 51.53 45.91 43.83 41.66 45.96 45.04 41.45 19.64 28.13 35.43 38.77 41.57 41.82 34.50 43.26 44.38 39.92 35.67 33.25 35.61 35.43 38.21 35.44 34.19 35.63 37.19 31.97 38.10 39.12 37.96 36.62 32.71
51.61 51.69 51.57 50.78 51.39 50.61 50.63 50.73 50.98 51.02 52.17 53.31 55.29 53.26 52.39 51.27 44.63 41.81 44.51 44.89 43.13 36.52 6.85 29.88 34.88 43.94 42.05 38.13 38.02 38.75 45.10 41.99 35.60 37.11 36.72 34.76 35.95 35.05 34.23 37.45 37.90 34.85 40.82 39.16 38.14 36.18 35.78
51.55 51.36 51.55 50.58 50.70 50.46 49.86 50.58 50.04 51.11 51.77 52.62 55.02 52.82 51.96 48.81 46.25 45.10 45.25 44.10 39.75 18.83 7.72 23.51 35.11 34.80 35.52 38.43 38.94 41.33 41.65 43.70 42.69 38.75 40.01 36.75 36.61 37.30 38.83 40.37 40.65 41.13 37.92 36.90 36.83 34.03 26.65
51.41 51.63 51.17 51.02 51.09 50.02 50.41 49.58 50.15 50.47 51.32 52.57 54.08 52.28 50.54 49.05 42.59 45.25 44.60 37.98 21.96 10.11 28.10 25.28 28.30 33.83 32.93 32.90 35.31 37.52 37.22 37.22 33.50 28.43 29.46 35.34 37.25 40.94 40.66 36.91 40.89 38.39 31.80 24.57 23.94 25.33 23.88
51.29 51.50 51.45 51.50 50.84 50.45 49.50 49.49 50.29 50.73 51.34 52.54 52.64 51.85 49.51 48.04 46.33 45.03 39.46 29.47 12.52 25.08 24.43 32.98 32.10 32.59 28.83 32.70 32.43 34.03 33.45 31.93 34.85 31.02 25.12 20.88 26.11 37.08 40.62 38.59 36.89 35.73 32.47 24.23 21.58 22.49 23.66
51.29 50.95 51.25 50.89 50.64 50.01 49.71 49.97 50.23 51.01 52.05 52.87 51.88 47.90 46.22 45.57 46.12 42.48 34.12 19.35 18.80 24.68 30.48 30.78 31.05 27.47 27.61 31.20 31.35 31.20 30.44 30.68 33.37 34.74 25.56 25.74 30.96 38.93 40.08 41.07 39.33 35.86 27.49 31.85 25.06 24.90 22.72
51.08 51.22 50.92 50.71 50.33 49.83 49.48 49.24 50.45 52.43 54.35 52.26 46.29 44.98 44.08 46.85 44.73 38.96 29.89 26.64 26.35 32.46 34.46 32.84 26.94 28.12 24.13 27.64 28.75 28.71 29.36 33.68 34.36 36.04 33.74 29.60 29.96 35.62 39.36 40.86 39.72 35.91 35.08 26.31 25.21 18.97 17.51
51.19 50.76 50.52 50.27 50.40 49.69 49.39 51.35 52.55 54.27 52.42 50.87 45.32 40.01 45.09 46.50 43.47 36.51 26.75 25.61 32.05 37.33 36.90 32.92 29.77 28.04 27.64 26.96 27.81 27.53 29.49 34.27 36.30 35.89 34.62 31.54 29.01 30.98 33.76 33.19 32.96 32.80 31.20 29.96 28.45 24.63 21.10
50.41 49.94 49.92 50.01 49.30 49.71 51.80 52.17 54.49 52.74 51.76 48.35 42.33 33.72 45.24 45.83 35.27 35.22 30.49 31.58 38.60 36.50 38.04 36.16 35.11 32.36 29.26 29.33 29.08 28.80 29.16 32.16 37.80 36.58 32.06 33.63 29.20 26.84 28.38 35.46 36.94 35.27 32.36 28.89 23.24 22.95 20.19
49.81 49.82 49.32 49.76 50.18 51.27 51.88 53.74 52.91 52.70 51.45 45.52 38.68 38.45 45.50 44.31 28.95 30.28 30.96 35.13 36.77 35.84 35.79 35.69 34.67 35.74 33.79 30.68 29.20 31.45 32.45 38.52 38.92 36.61 32.11 32.78 26.50 17.96 23.25 28.66 32.93 31.08 32.81 31.27 28.67 25.96 20.51
49.02 49.15 49.11 49.55 51.49 52.11 53.60 52.89 52.30 52.64 50.59 45.60 39.43 33.45 38.38 41.25 37.69 29.20 30.86 32.60 33.66 37.84 36.67 37.42 34.83 35.17 33.25 31.57 33.51 30.83 31.64 37.74 39.19 38.02 41.83 37.35 28.11 24.52 19.09 24.58 28.85 28.61 31.21 31.86 28.28 20.34 23.95
48.74 49.03 48.99 50.95 52.39 53.94 53.78 52.36 52.31 51.77 50.08 44.71 37.90 32.79 35.02 31.57 34.09 33.49 31.42 34.39 33.25 33.26 36.49 36.63 33.93 33.87 32.88 28.59 29.09 30.95 33.33 34.87 37.98 39.73 35.54 33.36 26.20 23.53 28.53 30.12 30.37 30.81 31.03 30.06 24.43 27.55 24.34
49.02 48.44 50.37 51.92 53.69 53.37 52.46 52.11 52.52 51.75 49.43 41.68 34.64 32.31 33.29 30.84 34.13 34.75 34.53 32.36 33.18 34.09 34.66 33.08 32.69 33.73 33.20 31.21 30.92 30.80 33.19 30.55 30.66 34.91 31.88 33.12 25.17 25.29 25.38 29.14 29.82 28.53 29.44 29.38 30.15 30.71 30.39
48.39 49.54 50.58 52.04 53.66 52.69 52.23 52.20 52.61 50.66 46.91 39.50 35.31 36.36 34.45 35.06 30.44 33.76 30.39 33.34 34.89 36.52 36.74 36.53 35.49 33.57 32.80 33.53 34.75 35.07 33.12 35.41 34.46 32.14 31.57 30.72 27.69 24.44 21.00 26.52 26.08 22.26 27.26 27.95 29.16 29.77 30.49
48.55 49.88 50.65 51.59 52.60 52.28 52.37 52.15 51.97 48.17 44.57 39.36 35.47 35.87 32.41 31.16 30.93 31.73 33.80 35.20 35.58 35.24 34.96 36.10 36.29 34.15 35.82 38.32 36.80 35.31 34.67 34.14 34.00 32.44 34.11 30.60 27.76 26.85 19.91 22.72 13.02 26.21 30.36 31.05 30.32 31.27 32.00
49.06 50.03 50.77 51.55 51.78 51.70 52.22 52.07 50.57 47.76 46.27 38.55 36.27 34.31 33.14 31.26 31.27 30.99 34.41 34.24 34.92 35.12 35.05 35.43 36.19 35.82 38.07 34.70 31.36 28.93 28.17 29.44 30.91 31.36 30.98 32.28 28.66 25.04 21.18 18.32 22.65 26.05 29.14 29.14 27.96 28.08 31.97
49.32 49.96 50.57 50.90 51.83 51.20 51.27 51.63 51.40 48.94 46.54 39.05 37.28 36.46 34.62 33.36 29.96 28.40 31.96 32.42 31.02 30.14 31.78 33.85 37.28 38.56 36.80 32.82 29.80 24.46 21.91 25.04 24.13 26.49 31.34 31.14 29.93 26.06 22.85 19.35 17.17 24.38 31.51 33.64 31.45 22.94 31.95
49.31 49.57 50.47 50.84 52.46 51.32 50.68 50.93 51.13 49.91 46.03 40.14 38.07 37.85 33.39 27.96 28.81 29.37 30.65 31.41 32.36 31.84 30.83 31.88 33.25 34.96 35.30 30.17 27.89 24.23 23.92 26.49 23.74 23.35 23.42 25.97 25.61 23.92 23.96 21.53 24.45 29.53 32.75 33.44 21.57 23.44 32.82
48.77 49.45 50.18 51.64 51.80 50.96 50.77 50.39 49.77 49.08 46.85 42.05 37.59 38.59 33.91 29.40 30.74 32.69 32.34 29.39 31.94 32.53 31.51 32.57 33.72 33.89 32.19 29.21 27.48 26.21 24.34 25.96 23.28 24.69 24.52 25.53 22.67 22.65 22.77 19.87 17.66 31.89 30.84 25.74 30.16 32.68 34.39
48.77 49.85 51.85 53.19 51.57 51.31 50.53 49.86 50.37 48.71 47.00 43.96 36.34 39.54 39.01 33.13 31.97 35.21 34.79 34.66 33.18 32.21 32.26 30.75 30.93 30.96 32.86 29.76 28.14 28.32 27.46 24.78 22.94 21.84 25.71 24.43 26.86 25.24 26.12 25.72 32.20 32.74 33.35 34.92 34.88 33.44 33.39

GFSGBSN_sfc_wetblb_099.txt.gz
Wetbulb
54.56 54.04 53.95 54.45 54.64 54.64 54.57 54.79 54.92 55.77 57.46 58.65 60.40 61.52 59.50 57.88 56.97 54.76 55.09 54.80 53.90 53.60 52.91 54.49 52.51 52.98 46.99 40.03 39.48 47.78 53.22 51.43 50.65 48.76 44.83 42.37 40.15 39.16 34.54 37.04 39.07 38.30 40.18 42.55 45.42 46.08 47.30
54.40 54.28 53.64 53.76 54.00 53.99 53.95 54.16 54.03 54.43 55.61 57.30 58.97 60.54 59.14 57.43 56.23 54.79 54.94 52.97 53.47 53.30 52.22 53.67 51.99 51.74 43.41 31.95 42.66 46.71 46.42 47.79 48.66 46.79 44.22 43.77 40.94 41.48 37.73 36.83 36.86 39.09 39.21 40.22 42.50 45.04 46.98
53.63 54.27 54.21 54.08 53.86 53.55 53.34 53.02 53.71 53.88 54.20 55.58 57.16 59.38 59.04 57.27 55.97 54.96 54.72 52.90 52.24 52.37 51.94 53.23 52.47 48.59 41.95 36.70 45.26 46.41 47.04 47.54 47.65 46.51 43.02 44.62 44.05 39.41 39.64 36.08 40.44 39.35 36.25 39.48 40.27 42.03 44.60
53.48 53.23 53.19 53.64 53.27 53.16 52.68 52.92 52.49 53.13 53.81 54.63 56.82 58.29 58.62 56.68 55.45 54.35 53.20 52.23 51.40 51.75 52.63 53.13 52.63 45.29 36.08 45.77 45.85 45.87 48.35 47.15 48.28 47.93 46.22 46.79 46.72 41.48 38.78 40.77 38.35 35.01 35.75 32.43 38.73 41.18 44.84
53.85 53.84 53.68 53.38 53.12 53.03 52.71 52.59 52.53 52.40 53.15 53.71 54.84 57.16 58.54 55.85 53.97 53.70 50.90 50.78 51.00 52.51 52.20 52.93 44.69 41.31 35.41 48.03 43.38 45.36 46.24 43.73 45.69 46.48 46.73 47.29 44.62 38.89 39.21 34.97 30.83 33.30 28.09 32.53 36.44 42.20 42.16
53.77 53.64 53.49 53.23 53.19 52.90 52.67 52.45 52.27 52.09 52.13 53.05 54.51 56.27 57.94 54.96 53.73 53.12 51.26 50.91 51.47 50.27 49.31 47.96 45.73 37.19 38.86 38.38 42.73 43.57 44.46 44.92 42.82 42.61 41.87 41.33 39.07 35.40 35.31 33.26 23.12 27.99 28.68 32.91 34.77 40.55 40.63
53.72 53.56 53.26 52.98 52.82 52.95 52.61 52.12 51.88 51.64 51.60 51.89 54.26 55.67 55.65 54.37 53.50 52.64 49.92 46.26 41.07 39.21 41.72 36.28 36.94 37.10 39.34 42.88 44.63 42.59 45.00 42.85 42.28 39.64 32.82 37.57 31.39 28.99 30.52 32.86 33.14 33.72 31.46 31.78 37.37 42.35 39.51
53.14 53.02 52.87 52.65 52.56 52.49 52.65 52.23 51.18 51.51 51.12 51.52 52.90 54.70 55.12 53.55 53.02 51.89 47.79 41.57 41.01 40.20 33.95 41.06 40.56 40.06 41.73 42.55 37.73 41.57 45.56 37.65 37.45 31.38 35.22 32.91 30.29 35.33 35.62 34.64 33.54 31.33 31.14 33.91 38.80 41.83 40.25
52.76 52.59 52.44 52.18 52.31 52.51 51.86 52.01 51.38 51.22 51.17 51.28 52.09 54.00 54.28 53.40 51.96 49.76 44.71 43.50 45.54 42.05 33.86 37.41 40.36 39.23 39.56 41.32 37.74 38.96 41.77 39.06 34.97 31.37 31.87 30.16 33.65 37.95 35.53 34.04 32.37 29.89 32.08 34.88 35.08 39.83 40.99
52.56 52.55 52.56 52.24 52.19 51.97 51.43 51.14 50.82 50.90 51.00 50.48 51.08 52.80 53.37 52.38 47.82 45.43 42.56 46.39 45.49 41.41 19.85 28.27 35.34 38.89 41.33 41.62 35.08 43.13 44.12 40.42 36.56 32.88 34.79 33.59 37.20 36.65 34.14 32.77 35.28 30.72 37.69 38.58 37.64 36.76 32.77
52.20 52.21 51.84 52.29 52.02 51.78 51.43 51.28 50.45 50.25 50.56 50.30 51.62 52.70 52.73 50.89 45.16 42.75 45.09 46.00 42.72 36.65 7.55 29.43 34.77 43.66 41.99 38.95 39.47 40.02 45.22 41.01 35.60 35.37 34.40 34.20 35.96 33.33 34.44 35.11 38.51 34.29 40.36 38.93 38.56 36.43 35.73
51.72 51.77 51.88 51.98 51.50 51.46 51.34 51.13 50.27 49.76 49.77 50.08 51.04 52.93 52.39 48.45 47.29 46.38 45.65 43.30 38.84 19.57 7.73 23.58 35.00 34.71 35.74 38.72 39.03 41.66 41.17 43.14 42.23 36.21 35.54 34.31 38.50 38.04 38.46 40.45 39.66 41.31 38.26 37.83 37.47 34.91 28.13
51.44 51.90 51.40 51.85 51.97 51.73 51.27 50.83 50.28 49.68 49.72 50.09 50.94 53.38 50.73 49.47 43.60 46.06 44.19 37.44 22.04 11.35 27.37 25.68 28.60 33.66 33.10 33.17 35.73 37.83 37.11 36.50 33.01 28.87 29.77 34.96 35.57 40.66 41.32 38.24 40.40 37.74 32.75 26.49 24.80 25.65 25.70
51.48 51.49 51.64 51.20 51.36 51.37 50.86 49.97 49.41 49.70 50.12 50.34 51.37 52.65 50.29 48.89 47.69 45.16 39.12 28.96 12.91 24.58 23.94 32.30 31.82 31.91 29.12 32.76 32.82 33.79 32.93 30.48 34.87 31.13 29.03 28.72 29.58 36.88 40.92 38.71 36.26 35.41 32.34 25.59 21.09 23.52 25.54
51.47 51.05 50.77 51.29 51.32 50.90 50.61 49.80 49.27 49.32 48.79 49.55 51.35 47.99 46.59 46.75 46.93 42.88 33.57 17.64 19.28 24.06 29.94 30.56 30.85 27.63 27.85 30.92 31.69 31.25 30.54 31.12 33.41 34.43 27.77 30.39 31.30 39.62 40.87 41.36 39.79 34.71 29.23 33.42 26.34 26.76 26.50
50.29 50.28 50.58 50.75 50.79 50.54 50.09 49.30 49.36 49.08 49.47 49.79 46.48 44.53 44.35 47.11 45.37 39.42 28.29 26.12 26.07 30.87 33.51 32.13 26.58 28.01 25.12 28.04 28.77 29.15 29.33 34.10 34.01 35.54 35.06 32.23 31.25 36.56 38.88 41.10 40.77 36.95 36.15 27.95 27.67 21.04 19.60
49.66 49.99 50.33 50.44 49.97 49.95 49.71 49.73 50.89 51.41 51.47 51.19 44.43 38.39 45.01 47.28 44.55 34.53 22.61 25.70 31.38 36.04 35.74 31.76 28.80 27.97 26.52 26.76 28.27 28.27 29.95 34.10 35.91 35.70 34.76 31.97 31.24 32.23 36.05 34.06 33.86 34.73 32.49 29.95 28.91 25.77 23.65
49.47 49.76 49.66 49.80 49.59 49.84 50.25 51.09 52.61 53.57 52.88 48.14 42.43 33.49 45.66 45.86 32.73 31.10 29.79 30.60 37.81 35.39 37.18 35.52 34.53 31.65 29.09 29.08 28.79 28.97 29.68 32.77 37.94 36.43 32.06 33.59 30.09 28.04 30.69 35.25 37.02 35.50 33.21 29.25 25.21 24.39 21.82
49.60 49.63 49.66 49.04 49.41 50.18 51.63 53.11 53.07 51.87 50.70 44.74 37.49 38.83 45.92 43.87 29.52 30.27 31.30 33.83 35.88 35.05 34.77 34.95 34.05 34.96 32.60 30.53 28.93 30.91 32.32 38.23 38.46 36.45 32.80 33.61 26.99 20.31 25.04 29.52 33.26 32.56 33.71 31.01 29.11 27.67 23.00
49.63 49.47 49.36 50.87 52.35 52.88 53.10 52.38 51.99 51.99 50.83 45.71 39.30 32.27 38.12 41.23 36.27 29.23 30.25 31.66 32.34 36.87 35.82 36.92 34.28 34.81 32.82 31.06 33.05 30.54 31.48 37.42 38.97 37.87 41.16 36.82 28.40 24.71 19.59 25.40 29.87 30.01 32.35 32.57 28.83 24.10 26.16
49.41 49.05 51.42 52.74 54.86 54.05 52.33 52.24 51.24 50.86 49.89 44.98 39.28 34.86 36.72 31.02 33.87 29.68 30.07 32.84 32.24 32.12 35.62 35.81 33.19 33.31 31.72 28.40 29.21 30.45 33.12 34.24 37.02 38.83 35.17 33.28 26.67 24.38 28.46 30.83 30.87 31.77 31.84 31.76 25.46 29.35 26.14
49.78 51.05 52.71 54.77 54.61 52.75 52.46 51.95 51.12 50.25 49.11 41.76 36.07 34.27 34.08 32.68 35.81 31.23 34.94 30.72 31.79 32.73 33.84 31.75 32.38 33.29 32.56 30.12 29.74 30.55 32.81 30.81 30.77 34.65 32.37 32.59 25.91 25.74 25.96 29.21 29.40 29.48 30.19 30.40 31.49 31.94 31.71
50.87 51.84 53.67 54.00 53.57 53.19 52.24 50.33 48.77 48.38 47.16 40.27 37.14 35.64 34.02 35.10 33.65 33.73 32.64 31.94 34.32 35.54 35.96 35.77 34.66 33.11 32.57 33.15 34.15 33.72 33.64 34.12 33.78 32.26 31.60 30.34 27.85 25.01 22.03 26.95 27.06 23.89 28.10 29.19 30.32 31.48 31.86
50.83 51.37 53.27 53.26 53.23 52.91 51.26 49.31 48.95 47.12 44.94 40.05 36.26 35.02 31.20 30.72 33.09 33.98 33.84 33.83 34.77 33.91 34.14 34.87 35.62 33.42 34.67 37.09 34.89 34.58 33.93 33.53 33.39 31.83 33.17 30.14 27.66 27.13 20.82 22.46 13.82 26.90 30.69 31.03 30.66 29.77 31.48
50.04 50.46 51.47 52.53 52.82 52.52 51.35 49.84 49.41 47.33 45.75 37.82 35.36 33.94 32.57 30.49 32.23 31.29 32.42 33.56 33.69 34.13 33.93 34.16 35.40 35.27 37.27 33.98 30.98 28.77 27.96 29.62 30.16 30.74 30.61 31.48 28.27 24.98 21.50 18.78 22.44 26.77 29.86 29.74 28.53 27.98 32.03
49.30 50.09 50.53 51.62 52.31 52.87 52.50 51.44 50.21 48.08 45.63 38.28 36.07 35.44 34.86 33.20 31.13 27.57 31.45 30.10 30.63 29.44 30.89 33.18 37.03 37.74 35.46 31.70 29.34 24.07 21.38 24.71 24.13 27.11 31.21 31.04 29.34 26.38 23.01 19.32 17.06 24.79 31.47 33.52 31.48 24.33 32.70
49.27 49.86 50.54 51.95 52.26 52.52 52.11 51.76 50.91 49.51 46.73 39.54 36.35 36.64 33.52 28.00 27.76 27.61 29.92 30.88 31.89 30.99 30.29 31.28 32.24 33.96 33.87 29.95 27.71 24.11 23.43 25.60 23.45 23.57 23.78 25.94 25.52 23.81 24.26 20.47 24.38 29.61 32.30 33.31 23.62 24.47 33.31
49.52 50.43 51.45 52.82 52.01 51.88 51.96 51.49 49.69 48.67 47.73 40.62 36.52 37.98 34.18 29.49 30.20 31.52 31.64 28.83 31.71 32.09 31.27 32.53 33.15 33.53 31.55 29.13 27.60 25.73 24.01 25.58 23.35 24.26 24.73 25.38 22.80 23.18 23.34 20.82 17.26 32.60 31.10 28.03 30.58 33.32 34.03
49.15 50.19 52.19 52.55 51.89 50.92 51.42 50.87 49.89 48.75 47.55 43.21 35.50 38.98 38.29 33.10 31.64 34.55 34.02 33.60 32.46 31.57 32.12 30.45 31.03 30.69 32.39 29.48 27.78 27.78 26.80 23.81 22.71 21.75 25.43 24.02 26.57 25.06 26.33 26.12 31.40 33.06 32.66 34.48 34.65 32.63 33.71

GFSGBSN_sfc_wetblb_102.txt.gz
Wetbulb
54.93 54.80 54.78 54.92 54.88 54.72 54.33 54.02 53.76 53.95 54.64 54.80 55.08 56.78 59.11 60.72 59.08 57.03 54.32 54.91 54.29 53.92 53.06 53.62 53.35 53.12 48.89 41.95 41.42 50.61 53.59 54.45 52.69 49.92 45.40 44.21 41.49 40.25 36.37 38.21 39.68 38.67 40.42 42.79 44.71 45.21 45.94
55.19 54.69 54.41 54.36 54.48 54.52 54.26 53.94 53.67 53.28 53.53 54.12 54.72 55.92 58.10 59.92 58.55 56.05 53.71 54.57 52.74 53.51 52.46 52.92 53.15 52.26 44.90 35.84 47.28 50.73 49.65 49.98 49.43 48.37 46.36 46.03 42.62 43.25 39.55 38.41 37.56 39.84 40.22 40.76 43.32 43.90 45.54
54.09 54.44 54.37 53.99 53.63 53.79 53.72 53.58 52.98 53.12 53.20 53.14 54.32 54.94 55.80 59.13 57.49 55.85 54.36 54.60 52.12 52.18 52.12 52.84 53.59 50.18 43.66 41.07 48.92 50.32 49.30 49.02 50.03 48.55 44.56 46.99 46.72 42.27 40.77 37.04 41.55 40.05 36.27 39.78 41.11 41.90 42.93
54.76 54.42 54.38 54.45 53.95 53.56 53.46 52.66 52.50 52.80 52.87 52.75 53.52 53.88 56.49 57.02 56.82 55.22 54.33 53.31 52.16 51.26 52.47 53.66 53.52 48.71 39.93 47.84 50.84 48.95 49.92 48.91 50.33 50.05 48.22 48.29 48.07 43.47 39.96 41.49 38.72 36.54 36.62 31.45 39.32 42.32 43.32
54.38 54.43 54.37 54.16 54.04 53.77 53.48 53.26 52.37 52.21 52.55 52.36 52.57 53.53 55.73 57.30 55.69 54.10 52.55 51.19 51.72 51.41 52.94 53.50 48.86 44.77 37.82 49.25 45.84 48.95 49.67 45.56 47.42 48.27 48.65 48.41 46.38 40.29 37.89 34.33 33.45 34.76 28.66 30.46 34.70 42.78 42.61
54.19 54.08 53.84 53.63 53.47 53.45 53.29 53.19 52.89 52.38 51.77 51.71 51.90 52.99 55.80 56.63 54.27 53.52 51.90 51.94 52.09 51.08 50.79 49.77 47.67 40.75 43.49 40.63 45.45 46.36 48.13 46.57 44.11 44.09 42.95 42.44 40.49 34.95 35.85 32.43 26.36 28.37 29.50 31.90 32.80 39.54 42.08
53.81 53.74 53.56 53.02 52.60 52.87 53.00 52.99 52.74 52.51 51.55 51.11 51.63 51.85 54.71 54.41 54.20 52.94 51.04 48.46 42.07 41.82 44.52 40.21 40.72 40.05 41.24 45.27 46.90 44.59 46.80 44.68 43.74 40.83 33.94 37.33 32.75 30.31 32.93 35.68 35.23 33.31 32.37 32.31 37.34 40.69 40.47
53.34 53.48 53.24 52.99 52.89 52.91 52.85 52.73 52.13 51.96 51.45 51.35 51.19 51.42 53.15 54.43 53.14 52.21 48.60 42.27 43.05 43.91 38.35 43.52 43.21 42.66 44.60 45.13 39.62 42.84 47.35 39.64 38.52 33.87 36.31 33.77 30.30 35.41 36.86 36.15 34.77 32.99 32.46 33.54 38.78 41.89 41.25
52.87 52.88 52.73 52.71 52.50 52.54 52.71 52.35 51.77 51.34 50.99 50.99 50.91 51.13 53.03 53.71 52.60 50.06 46.19 44.67 48.31 46.38 38.79 39.93 42.95 42.13 42.50 43.71 39.57 40.64 43.25 40.24 36.26 33.74 33.65 30.79 33.26 36.16 36.10 32.86 31.83 32.56 32.19 34.91 36.19 40.52 42.62
52.52 52.51 52.54 52.36 52.26 52.22 52.13 52.04 51.48 51.13 50.37 50.52 50.63 51.56 54.54 52.53 47.76 46.83 44.40 48.41 48.87 46.45 34.67 34.22 38.20 41.54 42.93 43.14 38.30 44.15 44.13 40.59 36.85 33.74 35.05 34.09 36.78 35.58 34.92 32.64 34.32 30.26 36.52 38.53 38.40 38.55 34.24
51.86 51.87 52.16 51.99 52.08 51.98 52.09 51.98 51.33 50.59 49.79 49.65 50.08 51.03 53.47 51.03 46.29 43.46 46.14 49.24 47.23 44.34 23.40 33.72 37.71 45.90 43.73 40.66 40.84 41.05 45.35 40.74 34.34 34.48 33.85 34.14 34.45 33.68 32.48 34.55 37.27 35.18 39.07 39.89 39.90 37.65 37.92
51.43 51.42 51.42 52.07 51.51 52.03 51.88 51.60 51.08 49.99 49.76 49.54 49.94 50.76 52.24 48.38 47.48 47.26 48.43 46.83 44.76 32.04 21.40 32.86 38.18 37.56 37.92 39.99 39.80 42.36 41.56 42.92 41.50 34.72 37.13 35.40 39.98 38.83 38.90 40.37 39.66 41.98 38.63 38.94 39.52 37.50 30.87
51.05 51.42 51.39 51.81 51.78 51.51 51.28 50.93 49.44 49.72 49.68 49.93 50.26 51.12 50.50 49.85 43.94 48.05 46.93 43.25 32.18 26.20 31.61 31.44 33.64 36.65 36.88 36.09 36.97 38.78 38.49 37.90 35.37 32.48 31.52 34.82 37.00 40.13 42.30 38.50 41.66 40.61 36.72 30.04 28.19 29.46 27.33
50.00 50.70 50.43 50.64 50.70 51.16 51.02 50.45 49.42 49.13 48.84 48.70 49.82 51.30 49.74 48.84 48.24 46.79 45.12 36.87 26.50 28.32 30.38 35.26 35.45 35.72 34.80 36.41 36.31 36.93 37.30 36.97 39.59 36.15 34.32 32.91 30.83 37.34 41.50 39.80 37.70 38.23 36.25 31.43 23.72 25.92 29.14
50.08 50.02 49.99 50.41 50.83 50.56 49.58 48.92 49.16 48.82 48.53 48.43 49.44 48.50 47.27 46.92 47.51 45.80 39.95 31.73 30.94 31.10 34.57 34.70 34.86 33.46 33.59 35.41 35.45 36.30 36.11 36.58 38.11 38.57 33.79 33.81 32.64 39.80 41.42 42.77 41.96 37.65 33.89 35.77 31.77 33.55 31.77
50.30 49.99 49.91 50.21 50.30 49.90 49.43 49.33 48.31 48.37 48.42 48.36 46.73 44.95 44.70 47.45 46.80 44.10 38.25 31.30 33.27 34.01 36.47 35.77 31.90 33.99 32.03 34.19 34.55 35.38 35.44 38.67 38.03 39.94 39.94 36.08 32.67 37.40 39.16 43.00 42.63 39.73 38.93 33.30 34.71 27.50 25.05
50.17 50.20 49.89 49.89 49.74 49.86 49.10 49.16 49.48 49.94 50.14 49.75 44.84 39.27 44.84 47.66 46.10 40.26 33.37 33.00 35.38 38.45 38.66 36.26 33.95 33.43 33.92 33.70 34.90 34.64 35.00 38.13 40.26 39.94 40.41 37.82 37.28 35.06 38.54 37.53 36.40 38.50 36.60 34.85 34.38 32.69 30.20
49.42 49.44 49.61 49.46 48.83 48.87 49.43 50.00 50.83 51.59 51.58 48.75 42.91 34.54 45.96 46.83 36.59 37.82 34.70 34.52 38.85 37.72 40.51 39.56 38.73 36.72 35.63 35.29 35.14 35.21 34.72 37.74 42.18 40.62 36.84 38.48 37.44 33.01 34.94 39.17 39.74 39.19 36.55 35.12 33.68 29.32 30.14
50.57 52.27 53.78 54.01 51.42 50.27 51.04 51.62 52.11 53.35 51.73 45.63 39.25 39.08 46.43 46.10 32.20 33.16 35.28 36.19 38.72 38.00 38.81 38.98 37.90 38.80 38.28 36.30 33.95 36.21 37.18 42.03 42.39 40.57 38.00 38.52 34.50 31.64 32.79 36.37 38.51 37.28 37.88 37.20 35.06 35.68 29.70
52.28 53.92 55.45 54.68 54.03 53.36 53.84 54.06 53.66 52.87 51.32 48.73 41.21 33.33 39.43 41.99 39.23 35.08 34.16 36.05 35.67 40.54 39.79 40.12 38.83 39.86 38.12 36.53 38.32 35.71 36.75 40.80 42.43 41.09 40.78 40.35 34.93 32.01 30.15 31.56 35.08 33.78 36.11 37.53 35.38 35.37 33.15
52.21 55.12 54.07 53.39 52.85 52.50 52.07 51.87 51.80 51.52 50.49 49.03 41.97 36.45 38.44 33.26 35.29 35.90 36.29 37.52 35.45 35.75 40.01 40.29 38.55 38.48 37.52 34.71 35.59 35.64 38.05 39.10 41.02 40.42 40.04 39.91 32.81 32.18 33.72 34.64 35.12 35.41 35.42 36.22 34.08 34.44 33.85
52.08 54.36 53.87 53.30 52.35 51.93 51.64 51.45 51.31 50.77 49.79 44.75 38.63 37.66 39.01 36.44 37.76 35.44 36.57 36.91 35.97 36.88 38.35 37.26 37.44 37.90 38.86 36.36 36.37 35.14 37.54 37.84 37.26 40.67 38.63 38.85 33.53 32.70 32.17 34.54 35.03 33.10 34.35 34.91 35.52 35.68 36.07
51.62 52.47 53.74 52.28 51.30 51.04 50.72 50.08 49.81 49.50 48.97 43.14 41.85 41.67 41.27 35.81 35.05 34.57 36.37 37.44 37.67 39.67 39.29 39.67 39.60 39.29 38.30 38.09 40.26 40.24 40.77 39.96 39.32 38.61 37.18 36.48 35.18 33.00 29.25 32.27 32.46 30.91 32.29 33.94 34.75 36.11 35.91
50.99 51.44 52.83 52.16 51.01 50.45 50.04 49.55 48.92 47.45 46.86 43.31 41.84 42.62 38.70 32.09 34.45 35.61 37.32 38.07 38.65 38.67 38.29 38.80 40.18 39.93 39.76 41.97 41.74 41.94 41.27 40.44 40.37 38.43 39.01 36.02 34.56 34.10 30.81 30.69 24.26 32.25 36.02 35.46 34.25 34.31 36.53
49.75 50.54 51.53 52.63 51.66 50.95 50.48 49.70 48.36 46.95 45.51 41.97 40.68 41.96 39.49 32.98 35.85 36.46 36.95 38.31 39.17 39.46 38.05 38.33 39.53 40.47 43.11 40.62 38.68 35.05 35.82 36.25 36.36 36.92 37.36 38.58 36.00 31.52 29.50 28.53 29.32 32.06 34.77 34.64 33.60 33.07 36.47
49.36 50.23 51.32 52.59 52.44 51.08 51.40 50.74 49.00 47.45 45.18 42.13 40.31 40.83 42.24 35.99 35.05 34.49 37.96 38.51 38.36 38.06 38.34 38.56 42.42 43.58 41.74 39.13 36.45 30.11 29.15 30.86 31.00 33.69 37.17 36.92 37.50 35.03 30.62 25.60 24.07 32.59 36.89 38.69 37.73 31.51 37.28
49.27 50.06 51.16 52.85 52.65 52.59 51.96 51.02 50.44 48.35 46.29 44.27 40.65 40.28 40.56 35.12 34.18 33.61 37.65 38.29 38.76 38.55 38.16 39.40 40.14 40.94 40.85 38.47 34.53 32.46 31.22 32.42 30.09 29.66 31.21 33.47 34.06 31.33 31.19 29.12 31.37 36.25 37.65 38.73 29.40 31.57 37.79
49.05 50.07 51.16 53.04 52.84 52.82 52.54 50.41 49.70 49.30 46.54 45.36 40.62 41.47 40.76 35.22 34.44 35.09 35.10 36.96 38.23 39.65 38.82 38.96 39.23 39.53 39.03 36.38 35.18 34.16 32.79 33.61 32.03 32.53 32.24 31.97 31.09 31.22 30.86 28.41 25.71 38.05 36.59 33.58 37.18 38.43 37.56
48.85 50.54 52.43 53.13 52.46 52.26 52.62 50.55 49.60 48.87 47.97 45.56 41.44 41.70 41.84 38.17 35.73 38.20 38.04 38.38 37.08 37.06 39.39 37.58 37.70 37.72 40.36 38.05 36.24 35.62 33.49 32.66 31.72 30.73 33.51 30.79 34.36 33.55 33.85 34.19 36.78 39.47 38.31 39.25 39.30 37.47 37.00

GFSGBSN_sfc_wetblb_105.txt.gz
Wetbulb
55.13 55.17 54.89 54.84 54.48 54.31 54.36 54.47 54.33 53.52 54.07 53.69 53.92 54.73 54.80 56.82 58.00 59.68 56.72 54.90 55.30 53.92 53.33 52.77 54.32 53.43 49.62 43.48 43.14 52.68 54.39 55.75 54.20 50.78 46.37 44.49 42.27 41.18 37.33 38.92 40.17 38.56 40.75 43.36 44.95 45.24 45.48
54.74 55.31 55.17 55.11 54.88 54.65 54.44 54.21 54.00 53.46 53.32 53.74 53.37 53.47 54.26 55.65 57.71 58.37 55.08 55.13 53.88 53.22 52.86 52.59 53.50 52.53 46.00 38.55 48.61 51.82 52.50 51.96 49.89 48.24 46.22 46.01 43.35 44.04 40.58 39.39 38.24 40.13 40.00 40.48 42.14 42.80 44.68
55.09 55.13 55.23 55.01 54.83 54.72 54.38 53.98 53.52 53.03 53.09 53.30 53.15 53.23 53.26 55.25 57.35 56.12 54.52 55.30 53.47 52.47 52.28 52.13 53.53 51.33 45.47 43.74 49.05 51.17 50.44 49.22 49.87 48.57 45.03 46.88 46.76 42.90 42.05 38.41 42.20 40.58 36.74 38.84 39.43 41.38 41.78
54.76 54.97 55.03 54.92 54.65 54.44 54.44 54.01 53.52 52.85 52.99 52.61 52.72 52.65 52.93 54.77 55.97 55.08 55.34 54.64 52.53 51.50 51.59 52.25 53.72 49.66 42.32 49.07 50.77 49.30 50.07 48.73 50.46 50.17 48.42 48.65 48.24 44.24 41.35 41.88 39.72 35.68 36.60 31.71 38.27 39.60 41.68
54.36 54.48 54.39 54.41 54.31 53.98 53.73 53.66 53.55 53.30 52.87 52.35 52.01 52.31 52.52 53.61 55.11 55.07 54.50 52.73 51.47 51.39 52.73 53.42 50.03 47.04 39.81 50.02 45.53 48.51 49.62 46.53 47.75 48.82 48.94 48.74 46.55 41.42 39.96 34.20 31.24 34.04 28.97 31.42 34.52 39.63 40.76
53.88 53.99 53.94 53.85 53.90 53.67 53.48 53.22 53.19 52.94 52.52 52.30 51.50 51.79 52.22 54.75 55.91 53.90 52.01 52.04 52.58 53.04 51.71 50.78 48.55 41.21 43.91 41.74 46.55 47.61 49.78 48.22 44.97 44.87 43.74 43.12 41.46 35.86 35.18 31.37 25.14 28.97 29.82 32.42 31.86 36.38 39.41
53.32 53.32 53.30 53.22 53.09 53.05 53.16 53.05 52.86 52.51 52.05 52.06 51.43 51.32 51.69 55.50 53.79 52.37 51.53 49.43 43.14 42.27 44.82 40.77 42.00 41.53 42.33 46.21 48.21 46.01 48.23 45.89 44.87 41.56 35.50 39.05 33.49 30.04 32.70 34.71 34.74 33.91 32.83 31.13 34.66 37.79 38.39
52.77 52.78 52.98 52.82 53.00 52.81 52.81 52.77 52.55 51.97 51.60 51.52 51.20 51.44 50.76 52.78 53.08 52.13 49.78 43.15 44.18 46.16 38.84 43.78 43.84 43.80 46.11 46.75 40.99 44.15 47.80 40.64 39.10 34.03 37.29 33.86 29.93 35.50 37.69 36.89 35.82 34.60 31.59 31.96 36.24 38.96 39.27
52.55 52.60 52.48 52.52 52.07 52.44 52.36 52.52 51.86 51.77 50.79 50.91 50.92 51.06 51.22 52.70 52.76 50.20 46.45 44.85 49.33 47.54 40.19 40.94 43.88 43.34 44.11 45.10 40.90 41.81 44.49 41.57 38.15 35.15 34.97 32.03 34.39 37.03 35.99 35.52 33.37 33.76 32.12 32.56 32.02 38.97 41.26
51.37 51.56 51.60 51.52 51.38 51.22 51.62 51.61 52.02 51.18 50.89 50.53 50.31 50.91 53.12 53.73 47.97 47.89 44.26 48.56 49.98 48.45 36.91 35.95 39.48 43.16 44.32 43.27 39.32 46.74 45.13 41.68 37.65 34.10 35.58 34.61 37.10 35.55 34.98 33.82 35.10 31.00 37.38 33.81 35.51 36.33 32.54
50.89 50.75 50.60 51.15 51.77 51.70 51.52 51.77 51.16 50.31 50.28 48.95 49.62 50.27 52.86 50.90 47.85 45.35 46.62 50.29 49.55 45.42 26.22 36.88 39.47 47.68 45.15 40.57 42.83 42.99 46.28 40.64 35.22 35.97 34.21 34.49 34.54 34.28 33.83 34.70 36.95 34.58 40.44 36.84 38.99 37.53 38.00
51.11 51.13 50.63 50.94 51.15 50.99 51.45 50.97 50.45 50.58 50.11 49.27 49.56 50.74 52.43 49.03 48.26 47.58 49.28 49.98 45.57 35.41 24.55 34.23 40.39 39.54 39.18 42.10 42.22 44.25 42.31 42.72 40.26 36.10 37.18 36.12 39.99 38.02 37.82 40.88 39.60 39.61 38.01 36.59 38.05 37.08 31.14
51.08 50.97 50.46 50.46 50.71 50.97 51.18 51.07 49.61 50.14 49.46 49.81 49.98 50.56 49.86 49.83 44.34 48.57 48.55 44.52 34.09 30.30 33.88 33.23 35.51 38.94 39.62 38.50 39.61 40.51 39.78 37.92 36.17 32.47 33.33 36.43 37.24 40.70 42.30 37.76 38.95 35.60 35.60 30.84 29.49 29.24 28.10
50.84 50.63 50.44 50.37 50.70 50.69 50.41 49.70 49.47 49.71 49.79 49.42 50.27 51.14 51.04 48.94 48.99 47.47 46.38 37.76 30.07 31.65 32.82 37.74 37.97 38.33 36.19 38.73 38.96 39.34 39.25 36.72 38.91 37.74 36.14 33.25 29.69 36.30 42.31 39.79 37.02 34.24 36.94 30.85 24.81 26.17 29.24
49.68 49.59 50.60 50.50 50.51 50.58 49.85 50.17 49.90 49.91 49.31 49.20 50.44 48.90 47.24 46.97 47.80 46.73 41.19 34.32 32.66 33.51 36.72 36.64 37.22 36.00 35.98 37.97 37.72 38.74 38.78 37.63 39.44 40.04 34.45 33.82 32.94 41.26 42.64 43.89 42.45 38.40 33.80 37.56 33.86 36.20 30.94
50.84 50.50 48.97 49.22 49.19 49.84 50.18 49.17 48.29 47.74 48.55 49.59 47.27 45.86 43.92 47.77 47.80 45.26 40.00 33.05 35.21 36.99 38.58 38.71 34.11 37.01 34.26 36.20 36.77 37.65 37.97 40.76 39.13 41.77 41.12 37.96 31.68 39.11 41.82 44.45 44.32 39.41 40.19 34.51 36.80 28.44 25.07
53.37 55.32 53.09 49.38 49.09 48.76 49.35 48.13 48.12 48.72 49.38 50.03 46.06 40.08 45.02 48.16 47.33 41.18 35.96 35.72 37.37 40.02 40.46 38.27 36.56 36.02 36.91 36.15 37.64 37.04 37.06 40.51 41.81 41.14 42.60 39.59 37.93 36.62 41.02 38.55 36.36 38.68 37.14 37.50 36.48 34.46 30.15
54.94 55.86 55.28 50.20 49.43 49.09 48.95 49.56 50.66 50.58 50.75 48.50 44.27 35.32 46.12 47.68 38.05 39.38 37.63 37.10 39.34 39.38 42.71 41.13 40.92 39.56 38.21 38.08 37.18 36.96 36.63 39.52 43.67 42.63 38.42 40.79 38.74 33.86 35.49 41.06 41.18 40.47 38.31 38.22 34.41 31.60 35.21
54.45 54.22 55.45 52.66 49.92 49.78 49.46 50.35 50.93 51.83 50.90 47.09 39.81 39.24 46.91 46.43 34.75 36.82 38.44 38.65 39.99 39.51 40.65 40.66 39.56 40.88 41.25 38.42 35.79 38.27 38.78 43.37 43.92 42.14 39.12 39.82 36.42 32.10 34.01 38.35 40.81 38.07 39.56 39.66 38.00 38.99 32.49
54.43 53.85 53.55 54.74 51.83 50.98 50.46 50.96 51.97 52.42 51.78 48.46 42.27 34.31 39.44 43.57 42.20 38.41 36.66 37.11 36.43 42.22 41.55 41.78 40.74 42.14 40.21 38.63 40.48 37.40 38.24 42.08 43.76 42.44 41.61 42.86 37.82 35.07 31.61 32.84 36.88 35.37 37.53 38.96 37.76 36.23 34.72
53.99 53.47 53.04 52.92 53.68 54.50 53.73 53.30 52.89 53.15 52.38 50.64 45.33 37.16 40.13 34.41 37.12 38.46 37.60 38.98 36.47 36.89 41.96 42.43 40.31 40.63 39.26 36.20 37.44 37.21 39.65 40.71 42.46 43.09 42.28 42.42 33.97 34.47 36.05 37.02 36.67 36.29 36.21 37.59 34.79 37.49 34.16
52.09 53.52 52.92 53.05 52.66 52.37 52.20 51.97 51.80 51.55 51.33 48.52 43.18 40.00 41.60 38.39 39.72 38.26 37.42 38.28 37.18 38.42 40.13 38.64 39.01 40.48 41.28 37.88 38.21 36.95 39.16 39.71 38.99 42.61 40.80 41.68 34.55 34.96 33.66 36.78 36.95 34.03 36.44 37.67 37.34 37.97 37.68
51.62 52.64 52.89 52.20 51.77 51.55 51.22 50.79 50.91 50.93 51.14 48.26 46.17 46.27 44.76 37.77 38.44 37.20 38.49 39.22 38.72 41.01 41.20 41.76 41.76 41.14 39.59 39.77 42.77 43.26 43.79 43.02 41.94 40.72 39.68 39.10 37.16 35.11 30.93 34.69 34.57 32.00 33.47 35.62 36.26 37.34 37.36
50.70 52.02 53.15 51.92 51.72 50.96 50.35 50.01 49.15 48.54 50.25 49.97 47.21 46.76 41.92 34.71 37.33 37.80 39.13 40.37 39.94 40.83 39.83 41.10 42.81 41.75 41.75 45.14 44.62 44.75 43.90 42.95 42.60 41.62 42.27 37.99 36.89 36.39 32.39 32.91 25.57 34.00 38.20 37.50 36.13 36.50 38.50
50.00 51.27 52.64 52.49 51.81 51.25 50.86 49.90 48.44 47.45 48.07 47.77 46.37 46.31 43.35 36.48 38.79 38.62 38.96 40.50 41.50 41.78 40.50 40.93 41.82 42.93 45.14 43.09 40.40 36.71 37.37 37.58 38.34 39.77 40.18 41.21 38.01 33.49 30.73 30.13 31.91 33.26 35.35 35.53 34.81 35.25 38.78
49.61 50.48 51.55 52.94 52.54 51.47 51.75 50.97 48.94 47.20 46.40 46.92 44.58 45.45 45.84 39.35 37.78 40.61 40.19 42.05 40.23 40.76 40.64 40.66 43.69 45.64 44.39 41.88 38.56 31.98 30.95 32.50 32.70 35.34 40.01 39.64 39.99 35.70 32.41 27.64 26.04 35.30 38.46 40.95 39.72 32.17 39.70
49.32 50.07 51.19 52.32 53.31 52.57 51.75 50.72 49.61 47.95 47.91 47.44 44.24 44.54 45.69 39.93 38.30 39.49 40.30 40.17 42.77 42.49 41.43 41.43 41.72 42.38 43.62 40.44 36.23 34.17 33.18 35.00 31.67 31.22 32.90 34.92 35.49 32.70 32.93 30.93 33.58 38.83 40.01 40.94 30.63 33.51 40.23
49.04 50.18 51.51 52.84 53.39 52.74 50.91 50.36 50.00 49.13 47.74 47.41 44.02 45.36 44.21 40.75 38.01 38.25 38.23 40.19 41.94 42.93 40.54 42.19 41.22 41.76 41.52 37.51 36.80 36.59 34.62 35.97 33.76 35.71 34.42 33.58 32.57 32.79 33.24 30.03 27.74 40.42 38.26 34.45 38.70 40.99 40.65
49.02 51.21 53.29 53.14 53.02 52.62 52.00 50.09 49.54 49.43 49.25 48.90 45.01 44.75 45.51 42.58 39.01 40.89 40.38 40.40 39.10 39.34 41.67 41.89 40.78 41.31 43.22 40.35 39.50 39.06 35.76 36.59 34.58 32.41 36.94 32.36 36.48 35.06 35.32 35.91 39.32 41.76 40.91 41.81 42.57 40.88 39.66

GFSGBSN_sfc_wetblb_108.txt.gz
Wetbulb
56.06 55.84 55.61 55.83 55.78 55.65 55.21 55.19 54.57 54.46 54.45 53.49 54.07 53.70 53.72 53.83 55.27 57.53 59.08 57.30 56.23 55.09 53.91 53.35 54.25 53.92 50.27 43.82 43.16 54.32 55.97 55.94 54.71 50.86 45.98 43.62 41.12 39.89 35.67 37.31 38.32 35.99 38.34 40.80 42.28 43.53 43.54
55.91 55.44 55.21 55.38 55.44 55.31 55.14 55.15 54.58 54.13 53.97 53.73 53.15 53.54 53.32 53.40 54.83 56.69 57.89 56.08 56.33 54.98 54.13 53.81 54.53 53.71 47.01 38.47 48.55 53.03 52.36 52.15 50.05 47.95 45.70 45.41 42.47 43.11 38.84 37.67 36.18 38.29 38.27 38.45 40.00 40.18 41.11
55.19 54.88 54.51 54.75 54.85 54.81 54.70 54.76 54.22 54.07 53.84 53.56 53.38 53.00 53.02 53.12 54.33 57.05 56.59 55.88 54.78 54.45 53.62 53.37 54.22 51.53 45.44 42.45 49.06 50.54 50.76 48.96 49.65 48.05 44.20 46.75 46.41 42.06 41.28 36.97 40.89 39.08 34.66 37.30 38.23 39.30 37.98
54.38 54.18 54.01 53.84 53.89 53.62 53.94 53.94 54.19 53.43 53.79 53.52 53.43 52.82 52.61 52.77 53.49 56.24 56.09 55.21 53.76 52.70 52.40 52.91 54.19 50.17 42.26 49.43 50.33 48.93 49.45 47.85 49.90 49.69 47.74 48.33 48.12 43.10 39.96 41.20 38.00 34.47 34.17 28.35 36.51 38.87 39.14
53.02 53.05 53.26 53.65 53.63 53.40 53.35 53.27 53.46 53.55 53.22 53.39 53.35 52.57 52.40 52.37 52.85 53.93 55.59 53.89 52.40 52.21 53.07 53.62 50.65 47.38 39.88 49.26 44.50 47.62 48.40 45.59 47.36 48.12 48.41 48.02 46.01 40.44 40.00 33.55 30.12 32.27 25.03 28.32 32.36 39.38 38.27
52.82 52.60 52.68 52.88 53.16 53.22 53.22 53.19 53.00 53.11 52.92 52.78 52.71 52.28 52.19 51.98 54.45 55.17 53.39 52.59 52.94 53.59 52.50 51.81 49.03 41.47 43.50 41.91 46.14 47.57 49.40 48.29 44.62 44.89 43.00 42.23 40.63 35.50 35.24 31.83 19.39 24.34 27.69 30.93 29.95 36.13 37.30
52.87 52.60 52.26 51.94 52.34 52.42 52.44 53.19 52.77 52.59 52.68 52.49 52.07 51.72 51.88 53.93 55.85 52.97 51.69 49.81 44.87 42.72 45.38 40.41 41.57 41.39 42.86 46.31 48.22 45.48 47.65 45.34 44.07 40.92 33.72 38.21 31.52 27.60 30.58 32.86 32.41 31.14 30.70 28.98 33.18 37.91 34.71
52.75 52.81 51.73 51.80 52.09 51.41 51.58 51.33 51.25 52.08 52.20 51.66 51.48 51.09 51.32 52.08 53.18 53.03 49.63 43.69 44.12 45.87 37.32 43.49 43.97 43.69 45.86 46.94 41.08 44.17 47.71 39.75 38.68 33.31 36.15 34.11 29.67 34.59 35.94 35.32 33.86 32.93 30.04 29.40 34.20 37.00 35.98
52.19 52.36 51.88 51.70 52.02 51.89 51.52 51.29 51.53 51.54 51.70 50.74 50.80 50.72 50.83 50.88 52.77 50.14 46.57 45.61 49.79 48.24 39.87 40.27 43.29 43.41 44.30 45.20 40.90 41.89 44.15 41.55 37.70 35.80 35.36 32.37 34.15 37.63 35.49 33.45 31.75 32.47 30.08 30.17 30.70 34.95 36.69
51.70 52.10 51.38 51.57 51.69 51.70 51.28 50.72 49.18 50.87 50.99 50.13 50.05 50.59 51.60 53.57 48.34 47.66 45.13 48.89 50.29 48.64 35.67 34.84 39.23 42.83 44.41 44.07 39.21 46.70 46.04 41.55 38.12 34.34 35.75 34.39 36.91 35.48 34.28 32.59 33.73 28.34 36.33 34.67 32.15 31.02 27.66
51.38 51.77 51.34 51.13 51.17 51.21 51.29 50.63 51.48 50.85 50.85 49.76 50.04 52.49 52.72 51.87 47.41 44.21 47.26 49.89 50.06 44.87 24.78 37.45 39.33 47.76 45.60 40.53 42.41 41.96 46.12 40.54 35.81 35.95 34.60 33.87 35.40 33.37 31.41 33.96 36.70 31.68 37.07 37.21 33.88 33.23 32.38
50.45 50.33 51.42 51.07 51.49 51.29 50.99 51.21 51.34 51.22 50.43 50.16 51.03 52.01 51.40 49.15 48.82 47.94 49.29 50.05 45.76 32.16 19.06 31.31 40.34 39.65 39.03 40.80 41.86 42.71 41.56 42.98 41.51 36.63 36.69 35.56 40.43 38.02 36.77 39.89 40.06 39.72 36.61 35.80 33.52 32.51 28.54
50.66 49.73 49.80 51.10 51.14 51.59 51.71 51.14 51.32 51.04 50.99 50.97 50.87 51.97 50.42 49.84 44.43 48.99 48.21 44.13 31.95 26.40 34.04 31.93 34.93 39.03 38.53 38.78 39.92 40.99 39.49 37.69 35.40 31.75 30.20 36.15 36.70 39.91 41.10 37.56 39.26 36.52 32.63 27.75 27.18 27.26 27.26
55.14 49.57 48.41 50.53 50.50 50.91 50.19 50.11 51.17 50.79 50.94 51.69 51.61 51.46 49.33 48.60 48.79 48.15 45.70 37.56 25.27 31.51 32.59 38.97 38.60 38.58 36.02 39.11 39.10 40.02 38.55 35.93 39.60 37.40 33.46 30.41 24.43 36.85 42.07 37.83 34.17 35.40 35.27 29.20 23.38 25.55 28.72
55.39 52.21 49.65 49.38 50.80 50.34 50.54 50.59 51.08 50.09 50.52 51.18 51.48 48.88 46.70 47.40 48.42 48.21 40.65 32.37 29.30 32.65 37.63 36.96 37.33 34.45 35.08 38.07 37.52 38.42 37.15 36.81 38.40 38.62 33.00 33.49 30.97 40.62 41.61 42.69 41.58 37.16 32.00 36.33 32.22 32.12 28.39
55.51 53.52 50.35 50.06 51.06 51.13 50.84 50.76 49.61 49.51 50.42 50.98 48.01 44.62 44.04 48.27 48.61 45.31 38.57 33.15 33.55 38.15 39.78 39.12 33.15 36.26 33.11 35.36 35.76 36.25 36.65 39.24 38.51 40.51 39.74 36.83 31.27 39.30 41.39 43.74 43.29 39.11 39.72 30.81 31.98 26.04 23.71
55.43 52.53 50.84 50.27 50.82 50.05 49.70 49.28 49.49 50.20 51.09 50.30 47.14 39.52 45.49 48.46 48.24 40.23 34.80 34.29 37.39 40.58 41.34 37.96 36.61 35.65 35.81 35.22 36.20 35.09 35.77 39.21 40.62 39.89 40.30 37.89 36.57 34.82 40.18 36.62 34.73 36.37 33.65 35.04 33.25 30.87 24.33
54.82 51.40 51.03 49.98 50.23 49.78 49.11 49.05 49.92 50.80 50.77 50.24 44.58 34.91 46.00 48.70 38.60 38.78 35.40 37.09 39.72 39.94 43.27 41.35 40.49 38.94 37.10 37.40 35.70 35.14 35.01 37.89 42.35 41.54 36.94 38.21 35.74 30.20 32.57 38.27 39.13 38.00 35.08 34.34 26.65 27.36 28.07
54.26 52.41 50.40 50.00 49.51 48.84 49.67 50.87 50.60 51.22 51.03 46.99 39.86 39.43 47.06 45.46 35.27 34.98 38.36 38.82 40.24 40.40 40.67 40.49 39.50 40.86 40.70 37.22 34.15 36.90 37.38 42.51 42.97 40.62 36.48 37.84 32.65 25.70 28.12 33.75 37.24 35.36 36.97 36.87 35.96 33.64 27.13
54.22 54.02 53.31 51.17 49.68 49.38 49.61 50.49 51.81 51.82 51.63 49.03 41.61 34.42 39.85 41.88 41.48 36.76 36.38 37.13 36.68 42.50 41.75 41.94 40.61 41.64 39.13 37.01 38.79 36.02 37.08 41.41 42.40 40.83 42.37 40.88 34.28 30.06 23.31 27.56 33.60 30.52 34.77 36.36 34.18 27.20 29.16
54.35 53.94 53.59 53.81 52.89 51.10 50.64 51.54 52.83 52.64 52.50 49.19 44.26 36.72 39.43 34.43 36.19 37.92 37.96 38.81 36.69 37.18 41.57 41.91 39.56 39.86 38.10 34.44 35.63 35.54 37.89 38.90 41.26 43.15 39.63 38.92 29.54 29.26 32.37 35.06 33.48 32.80 33.65 34.81 31.39 33.38 27.86
53.22 53.66 53.02 52.96 52.96 53.80 53.18 52.70 53.05 53.18 52.39 46.99 41.99 38.64 39.84 37.68 38.84 37.63 36.67 37.30 37.15 38.55 39.35 38.10 38.07 40.08 39.36 35.81 36.54 34.95 37.28 36.50 35.83 39.61 36.80 38.93 29.97 30.00 27.17 34.50 33.80 30.41 33.57 34.50 34.50 35.56 34.02
51.92 53.46 52.27 52.53 52.16 51.94 51.37 50.74 50.70 51.23 50.54 47.12 45.20 45.41 41.73 38.54 36.84 35.57 36.69 38.57 38.65 40.41 40.89 41.51 40.47 39.49 37.79 38.49 40.35 40.03 39.47 39.78 37.39 36.70 36.19 35.31 32.37 28.86 24.18 31.54 31.22 26.68 30.49 32.71 32.96 34.28 34.34
50.59 52.14 52.26 51.57 52.01 52.01 51.51 50.47 49.38 49.05 49.85 48.46 45.89 45.03 39.37 32.76 35.71 36.82 39.58 40.65 39.48 40.39 39.07 40.89 41.51 39.64 39.93 42.84 42.36 41.44 39.66 39.01 38.54 37.86 38.99 34.69 32.96 30.65 23.93 27.04 17.27 30.20 35.40 34.97 34.00 35.47 36.18
49.71 50.73 52.11 51.41 51.80 51.83 51.94 51.22 49.37 49.12 49.75 47.28 45.44 43.84 40.58 33.95 36.75 37.55 38.62 39.69 40.27 39.96 39.41 40.57 41.18 41.29 42.51 39.97 36.58 33.19 33.15 33.42 34.86 35.68 35.98 36.76 33.45 27.11 23.84 22.03 26.58 30.09 33.08 32.94 31.00 31.79 36.59
49.02 49.88 50.87 52.00 52.64 51.59 51.47 51.18 50.15 49.74 49.91 46.43 43.75 43.85 43.36 36.63 34.58 39.88 38.07 39.89 37.02 36.92 37.70 39.79 42.09 43.00 41.53 38.53 35.04 26.19 23.92 27.50 27.66 30.53 36.04 37.26 35.57 29.39 26.07 21.99 20.02 29.78 35.13 37.66 35.38 26.11 36.79
48.65 49.46 50.31 51.28 52.15 53.09 51.90 50.75 50.24 49.10 48.78 46.24 43.22 44.42 42.28 37.34 36.62 37.96 37.80 37.79 40.00 38.82 37.39 38.42 38.84 39.09 40.03 35.70 31.23 28.06 26.97 30.69 26.21 25.46 26.74 29.59 29.67 25.89 26.60 22.79 27.73 34.81 36.87 36.88 23.85 28.81 37.07
48.36 49.59 51.05 52.37 52.55 53.31 51.81 50.46 49.77 49.81 49.88 47.24 42.49 44.42 41.57 38.42 36.42 38.69 39.02 38.07 39.38 39.28 36.73 39.00 37.83 38.40 37.42 32.85 31.34 30.64 28.35 30.55 27.86 30.25 28.89 28.50 26.07 26.11 26.93 22.61 20.19 36.90 34.95 29.64 34.19 36.66 37.50
48.40 50.08 52.78 53.36 53.06 52.88 51.16 50.48 49.96 50.06 49.43 49.29 43.57 43.81 43.82 39.34 36.68 40.56 39.96 39.62 38.69 38.47 37.80 39.46 38.00 38.53 38.71 35.49 33.44 32.67 30.00 30.50 29.61 25.08 31.92 26.25 31.07 28.63 29.83 30.17 36.07 37.23 35.72 37.90 38.57 36.54 36.01

GFSGBSN_sfc_wetblb_111.txt.gz
Wetbulb
55.67 54.88 54.97 55.20 54.94 54.99 54.96 55.08 54.85 54.52 54.54 54.24 54.14 53.62 53.70 53.59 53.77 54.85 57.06 58.25 58.51 56.90 55.56 54.46 54.87 54.74 49.82 42.23 41.33 54.68 57.46 57.49 53.73 51.15 45.54 42.87 39.07 36.98 32.57 33.91 35.77 32.00 35.27 38.57 40.02 40.44 40.02
55.42 54.65 53.99 53.75 54.13 54.25 54.26 54.33 54.15 53.89 53.89 53.97 53.92 53.68 53.19 53.39 53.56 54.39 55.53 58.41 57.13 55.85 54.74 54.41 55.33 53.90 45.46 35.08 50.46 53.25 53.21 52.49 50.19 48.07 44.76 43.64 41.12 41.24 36.02 35.04 33.21 35.69 36.70 37.23 39.16 38.93 39.30
54.63 54.61 53.79 53.53 53.33 53.93 53.31 53.37 53.77 53.42 53.17 53.69 53.70 53.53 53.20 52.96 53.23 55.40 57.25 57.56 56.90 55.23 54.61 55.10 54.77 51.00 44.45 38.79 47.14 50.72 50.68 48.35 48.28 47.58 44.02 45.89 45.08 40.24 38.69 34.69 38.61 36.93 32.58 35.17 36.57 38.01 37.55
54.04 54.04 53.84 53.54 53.04 52.94 53.10 52.13 52.88 52.53 53.41 53.52 53.65 53.55 52.85 52.72 52.72 54.28 57.29 56.02 55.19 54.52 54.07 54.46 54.49 48.63 39.63 48.80 46.62 47.99 47.54 46.83 48.50 48.56 47.02 46.64 46.22 41.64 37.75 38.12 36.81 32.75 31.37 25.54 34.34 37.29 38.17
53.77 53.82 53.54 53.19 52.85 52.48 52.67 52.21 51.98 52.32 53.21 53.26 52.73 53.05 52.63 52.55 52.51 53.79 55.65 54.14 53.03 53.11 53.24 53.71 48.86 44.78 37.54 49.11 43.95 46.20 46.20 45.18 45.99 46.39 47.12 47.57 44.98 38.20 37.82 31.21 29.16 29.06 21.56 25.82 30.23 37.46 36.53
53.78 53.62 53.08 52.19 52.27 52.22 51.45 52.08 52.47 52.45 52.82 52.61 52.17 52.26 52.44 52.47 53.07 54.95 53.43 53.14 53.58 52.94 51.69 52.05 49.35 38.97 42.25 41.31 44.70 45.81 46.08 47.21 43.97 43.63 43.07 41.30 37.55 31.44 32.01 31.54 19.33 18.57 24.90 27.92 28.15 34.06 35.54
53.09 53.13 52.88 52.15 52.20 52.15 51.07 49.52 50.51 51.57 51.72 51.91 51.76 51.77 52.09 56.16 55.65 53.29 52.42 50.60 45.09 43.01 44.69 38.84 40.02 40.27 42.33 45.48 47.59 45.19 46.81 44.45 43.12 39.05 31.49 36.86 30.45 25.91 28.19 31.28 30.85 29.53 27.78 26.45 30.27 35.86 33.83
52.35 52.97 52.61 52.14 52.36 52.39 51.20 50.78 51.02 50.62 51.46 51.28 51.55 51.43 51.99 54.41 53.79 52.77 49.11 44.44 42.61 42.67 36.19 43.24 43.46 43.48 45.72 46.53 40.69 43.82 46.85 38.45 37.33 30.66 34.61 32.37 28.61 32.96 34.83 34.39 32.48 31.79 29.89 28.73 31.97 35.08 34.52
52.29 52.02 52.63 51.89 52.28 52.11 51.68 50.41 50.86 51.19 51.58 51.39 50.89 50.76 51.90 53.82 52.24 49.57 46.84 45.99 49.47 46.19 36.18 39.68 42.81 43.24 43.70 44.66 40.77 40.33 43.08 40.35 36.50 34.87 34.12 30.17 32.32 37.60 35.41 33.78 31.75 30.76 28.86 29.34 27.05 33.22 35.07
51.75 51.30 51.76 51.94 51.78 52.17 51.43 50.33 50.75 51.95 51.49 50.75 51.65 51.00 51.42 52.88 48.35 47.81 45.61 49.18 49.17 46.17 30.48 34.37 38.60 42.50 43.89 43.58 39.22 45.40 45.37 41.70 37.96 33.08 35.78 33.15 37.08 35.07 34.55 32.98 33.61 27.53 33.98 34.24 33.02 29.47 19.85
51.47 50.76 50.52 51.36 51.78 51.73 51.50 51.77 51.95 51.76 50.68 51.17 52.36 53.85 53.39 52.23 46.39 44.42 47.52 49.98 48.08 42.40 15.79 36.23 39.39 47.78 44.83 40.39 41.72 41.39 45.93 40.57 36.45 36.10 35.11 33.45 35.00 34.61 31.58 31.96 34.92 31.15 36.02 33.87 33.33 31.57 29.98
55.59 50.20 49.33 51.27 51.63 51.95 52.11 52.22 52.02 50.99 51.06 52.36 52.21 52.21 51.54 48.64 48.19 47.83 49.47 48.11 43.63 28.26 11.71 27.42 39.57 38.29 38.39 40.22 41.65 41.72 41.06 43.23 42.11 36.84 37.02 35.57 40.47 37.18 36.30 38.37 39.15 40.20 35.47 35.26 34.33 32.03 24.88
54.49 50.69 50.17 51.51 52.29 52.20 52.03 52.03 51.40 51.61 51.33 51.71 52.55 52.22 50.34 50.07 43.78 47.95 46.45 41.70 25.82 15.50 31.43 29.34 32.04 38.39 37.59 37.19 38.76 40.04 38.63 37.10 35.25 30.54 26.19 35.26 35.37 38.34 39.73 37.05 39.74 37.12 32.07 26.04 23.49 23.59 25.80
53.36 50.51 51.08 51.69 51.30 51.14 51.94 51.58 51.54 51.49 52.07 53.07 51.08 49.72 48.33 47.61 48.25 46.74 43.12 31.22 16.66 29.11 28.80 37.74 37.44 37.09 33.31 37.57 37.13 39.37 37.94 35.65 39.52 37.35 29.47 29.51 21.88 35.45 41.73 37.74 34.26 33.95 33.71 28.36 22.82 23.68 27.77
51.74 50.83 51.68 51.30 51.39 51.35 51.86 51.24 51.34 51.78 51.97 51.39 50.10 45.16 45.74 47.18 47.98 44.69 36.24 22.55 22.33 28.92 35.75 35.09 35.71 30.85 31.57 36.07 34.93 35.47 34.25 34.48 35.73 35.55 29.20 31.06 28.24 39.48 40.77 42.17 41.00 36.73 33.42 36.36 31.74 32.37 25.91
51.85 51.38 51.85 51.95 51.81 51.66 51.50 50.37 50.24 51.41 52.08 51.50 44.23 42.24 44.11 47.26 46.16 40.92 31.22 29.00 28.90 36.89 38.38 37.33 29.47 32.96 28.54 32.16 32.29 34.96 33.21 36.68 36.84 38.96 38.07 35.29 30.08 38.56 41.31 43.04 42.37 39.55 39.94 30.57 30.46 24.52 23.40
52.22 50.66 51.66 51.44 50.67 50.28 50.11 49.94 50.12 51.19 51.40 51.52 41.75 39.41 44.63 46.86 43.98 35.84 25.89 28.35 35.26 39.71 40.33 36.38 33.52 32.53 32.34 32.01 33.34 31.81 33.06 36.90 38.75 38.46 37.92 36.32 35.89 33.09 38.52 35.11 33.30 33.94 32.98 33.24 31.96 29.98 25.51
51.46 51.07 50.57 50.75 50.33 50.02 49.53 49.80 50.49 51.09 51.17 47.05 40.34 34.40 43.19 45.55 32.48 32.52 29.60 34.96 39.79 38.30 40.78 39.47 37.44 36.17 33.81 34.36 32.93 31.92 32.51 35.41 40.33 39.21 35.29 36.94 33.68 25.36 30.74 37.74 38.32 35.66 34.04 32.84 25.08 25.47 27.40
54.10 51.32 50.68 50.42 50.04 50.29 51.33 50.80 50.60 51.04 51.71 41.57 37.29 38.50 42.97 42.98 26.62 28.42 34.26 37.21 38.96 38.58 38.78 38.50 37.16 38.54 37.48 34.11 31.51 33.89 34.89 40.95 40.84 38.54 34.26 35.87 29.62 22.18 25.99 30.81 34.39 33.37 35.37 34.81 34.09 29.58 24.04
53.62 53.58 51.63 50.68 50.52 50.39 50.99 51.54 51.51 51.66 52.40 44.99 37.60 32.60 35.58 37.16 36.33 30.09 32.39 33.73 34.74 40.01 39.58 39.88 38.30 38.62 36.06 33.75 36.02 33.28 34.39 39.79 40.66 38.96 43.32 39.86 31.78 27.51 21.95 26.92 31.86 29.26 33.09 34.01 30.65 22.87 26.35
54.06 52.92 53.47 52.48 51.91 51.17 51.15 52.10 52.50 53.07 53.28 46.03 38.97 31.46 34.38 26.30 31.96 32.96 33.44 35.65 34.34 34.87 38.99 39.35 36.79 37.23 35.11 31.29 32.64 32.73 35.30 36.43 39.47 42.11 38.23 36.47 27.71 26.39 30.76 33.58 32.07 30.32 31.80 32.31 27.25 30.24 23.78
52.62 53.43 52.44 53.08 53.71 52.10 51.85 52.49 52.63 52.73 52.04 44.57 39.12 33.68 35.29 33.00 34.98 32.49 34.20 33.63 34.37 36.11 36.67 35.99 35.47 37.20 36.40 32.91 33.04 31.76 34.39 33.55 32.95 37.15 35.18 36.01 28.02 29.06 26.23 32.02 31.12 28.55 31.32 32.68 32.71 32.96 31.66
51.42 52.59 52.97 51.76 51.65 51.69 51.33 50.53 50.41 50.77 49.81 44.44 43.94 39.78 36.92 34.23 32.08 30.31 32.11 34.83 36.16 37.95 38.43 39.05 37.77 36.16 34.79 36.19 37.25 36.96 36.56 37.52 36.12 33.66 33.69 32.86 29.88 25.97 23.28 28.96 28.40 24.74 28.64 30.06 30.56 32.51 32.72
50.37 51.34 52.73 52.36 52.43 51.60 50.94 50.29 50.00 49.91 49.41 45.63 44.32 39.87 33.81 29.50 31.44 32.87 36.87 37.98 37.02 37.83 36.25 38.54 38.97 36.50 37.95 40.14 39.61 38.19 37.02 37.46 35.81 34.68 36.01 32.21 30.29 27.74 20.66 23.52 15.42 29.03 33.54 33.28 32.38 33.79 34.26
49.26 50.34 51.19 52.45 52.59 52.48 51.21 50.32 50.20 50.36 50.51 42.05 40.78 39.39 35.76 30.02 32.49 33.74 35.68 36.52 37.14 37.11 36.72 38.25 39.07 39.41 39.87 38.09 33.71 30.25 30.17 30.91 33.36 34.41 33.88 34.11 30.82 25.38 22.16 19.75 24.22 27.83 31.50 31.71 30.43 30.34 35.42
48.36 49.24 50.03 50.86 51.96 52.62 51.90 51.23 50.45 49.87 50.07 41.78 39.29 39.81 38.20 32.60 29.66 34.92 34.56 35.88 33.59 31.94 34.45 37.80 40.44 40.75 39.32 36.21 32.34 24.47 21.94 25.78 26.09 28.93 34.63 35.05 32.84 27.36 24.13 20.78 19.50 27.58 33.30 35.65 33.85 24.61 35.30
48.05 48.66 49.79 50.59 51.61 52.32 52.88 51.48 50.00 50.49 49.68 42.20 39.13 40.52 38.45 32.85 33.10 34.85 33.18 34.19 37.05 34.94 33.66 35.29 36.33 37.11 38.40 32.69 29.06 25.49 24.70 28.79 24.32 24.10 25.76 26.95 26.92 24.13 24.17 20.16 26.11 33.01 35.35 36.00 23.42 26.94 35.40
48.19 48.50 49.92 51.77 52.58 52.35 52.95 51.59 50.17 50.55 50.20 43.22 39.54 40.84 39.06 34.21 33.45 35.82 36.81 33.32 35.19 36.29 33.62 36.46 35.22 35.81 34.91 30.65 29.03 28.20 26.04 28.45 25.05 27.88 27.40 26.67 23.79 23.71 23.97 21.78 19.06 35.25 34.15 28.66 31.50 34.27 36.02
48.34 48.40 50.88 52.76 53.03 52.72 52.92 51.35 50.41 50.50 49.34 47.95 39.21 41.27 41.46 37.04 36.01 38.05 37.91 38.58 36.90 36.08 34.32 36.43 35.33 35.53 36.64 32.49 30.80 29.62 28.27 27.36 26.48 23.07 29.81 25.39 29.24 27.00 28.04 27.70 33.98 35.19 34.34 36.02 36.80 35.40 35.38

GFSGBSN_sfc_wetblb_114.txt.gz
Wetbulb
56.07 54.96 54.56 54.43 54.20 53.95 53.78 53.98 53.97 54.22 54.60 54.45 54.09 54.16 53.25 52.82 53.30 53.85 54.87 56.29 59.36 58.76 56.91 55.52 55.63 55.38 48.83 41.42 41.60 52.60 57.82 55.85 51.75 49.02 43.95 41.78 38.00 35.71 31.26 32.70 34.68 31.00 34.25 37.86 39.20 39.42 38.73
54.42 54.36 54.18 54.08 54.20 53.59 53.24 53.31 52.84 53.14 52.93 53.27 54.01 53.57 53.41 52.90 52.98 53.59 54.71 56.19 59.05 57.57 55.96 55.38 55.86 54.03 44.76 34.96 49.79 53.19 52.43 51.95 49.06 46.50 43.52 42.57 40.06 39.85 34.79 33.75 31.85 34.13 35.33 35.66 37.89 37.75 38.56
54.41 54.54 54.57 54.09 53.56 53.26 52.98 52.63 51.85 52.31 52.13 53.18 53.60 53.36 53.15 52.75 53.03 54.29 57.09 58.25 57.13 55.71 55.14 55.90 55.39 50.53 43.11 38.37 46.52 51.15 51.12 47.53 47.33 46.36 43.08 44.91 43.91 39.29 37.13 33.43 37.58 35.79 31.13 33.54 34.77 36.35 35.88
54.30 54.23 54.18 53.83 52.79 52.31 52.10 52.04 51.14 51.38 51.70 53.07 53.07 52.41 52.54 52.78 52.67 54.56 57.92 57.25 55.97 55.19 55.52 55.52 54.71 47.63 38.01 47.54 46.74 47.32 46.76 45.94 47.55 47.45 45.95 45.58 45.21 40.39 36.33 36.89 35.46 31.39 29.79 24.60 32.42 36.09 37.33
54.14 53.68 53.92 53.29 52.66 52.73 51.29 51.44 51.60 51.14 51.68 52.27 52.41 52.30 51.94 52.17 52.47 53.82 56.24 55.56 55.00 54.84 55.07 54.91 48.24 43.96 36.49 48.54 44.00 44.81 45.38 44.56 44.93 45.24 45.94 47.44 43.94 36.92 36.56 29.26 24.03 27.41 20.46 23.29 28.64 36.73 35.96
53.96 53.21 53.31 52.63 53.02 52.96 51.17 51.25 51.36 52.19 52.39 52.62 52.47 51.66 51.92 51.88 53.05 54.68 54.01 53.76 54.01 53.12 52.05 51.76 48.80 37.96 41.45 40.34 43.27 44.71 44.58 46.07 43.67 42.72 42.06 40.35 36.01 29.14 29.61 23.16 15.76 17.98 18.79 24.82 25.52 31.77 33.32
53.56 52.53 52.91 52.35 53.03 52.46 51.20 50.13 51.21 51.85 52.52 52.47 51.97 52.32 55.16 56.32 54.33 53.95 53.06 49.79 43.59 42.10 43.60 38.66 39.25 39.36 41.48 44.69 46.54 44.13 45.85 43.57 42.11 38.20 31.12 35.73 28.51 25.03 25.89 30.32 28.95 27.20 26.36 25.31 29.04 33.79 31.97
53.25 52.05 52.46 52.51 52.92 52.69 51.88 50.92 51.57 51.81 52.36 52.11 51.92 53.81 55.21 54.72 54.33 53.80 49.79 43.70 42.54 43.27 36.01 42.27 42.71 42.56 44.37 45.29 39.89 42.97 45.90 37.81 36.31 29.00 33.41 29.91 27.28 31.19 33.84 32.70 31.07 29.95 28.63 27.61 30.79 34.37 32.81
53.22 51.67 52.10 52.92 53.12 52.46 52.30 52.00 52.45 52.67 52.02 51.29 51.64 52.15 53.97 53.48 52.27 48.91 46.33 45.61 48.15 44.84 34.86 39.08 42.09 42.43 42.68 44.14 40.32 40.19 43.23 39.52 35.40 33.82 33.98 29.80 30.41 37.08 34.90 32.73 30.43 30.23 27.81 27.85 26.92 32.11 34.06
52.17 51.50 52.34 52.71 52.64 52.45 52.40 52.69 52.30 51.54 51.64 52.32 51.43 52.07 53.00 52.50 48.25 47.94 45.50 48.58 47.47 44.87 25.70 33.35 38.28 42.10 43.61 43.25 38.23 44.76 46.12 41.29 37.96 33.18 34.39 33.47 35.56 34.08 33.87 32.51 32.66 27.17 33.27 32.39 30.89 31.21 20.88
52.60 51.69 52.66 52.88 52.65 52.96 52.53 52.50 51.41 51.72 52.62 54.19 51.84 51.70 52.39 51.32 44.80 45.19 47.67 48.43 46.86 41.13 12.88 35.58 39.12 47.05 44.20 40.09 40.57 41.46 45.73 41.50 36.29 35.66 34.31 31.02 33.45 33.75 32.30 32.28 34.77 30.45 35.73 33.92 33.60 33.18 30.71
52.03 52.67 53.24 53.13 52.92 52.84 52.59 51.75 51.73 52.71 52.72 53.12 53.22 53.01 51.89 47.96 45.92 46.55 49.09 46.95 42.65 24.23 12.73 27.12 38.99 37.62 37.74 40.05 40.79 41.41 41.13 43.51 42.42 37.21 36.54 35.01 39.54 36.64 35.77 37.51 37.33 38.27 36.68 35.08 35.18 31.96 22.50
52.71 52.94 52.65 52.42 52.88 52.61 52.10 52.02 51.82 51.82 52.89 52.63 51.84 51.42 48.95 48.64 41.52 47.19 45.53 40.23 24.15 16.72 30.53 28.53 31.45 37.60 36.47 36.47 38.61 39.30 38.28 36.74 34.79 28.61 23.60 33.82 35.02 37.32 39.19 35.69 39.75 37.73 31.98 24.97 22.63 22.05 21.45
53.04 52.39 52.26 52.19 52.80 52.32 52.15 52.23 51.72 52.14 52.84 51.33 50.50 49.21 48.55 47.52 46.22 45.19 41.23 29.12 17.16 28.15 27.82 36.06 36.11 36.17 32.40 36.58 36.64 39.06 36.85 33.66 37.41 37.05 29.75 28.87 22.43 35.14 40.37 38.00 33.44 34.02 32.89 27.99 21.82 21.87 26.48
52.80 52.75 52.40 52.17 52.55 52.08 51.61 52.16 52.21 52.38 51.31 50.97 49.52 43.86 44.33 45.21 46.37 43.17 34.01 21.14 22.13 28.86 34.10 33.88 34.56 29.69 30.51 35.17 35.18 36.89 33.94 32.84 34.88 34.93 27.74 28.69 26.18 38.64 40.10 42.16 39.56 37.08 33.38 36.53 31.33 32.81 24.83
52.34 52.31 51.72 51.52 51.85 51.30 51.09 51.22 51.95 51.98 52.39 51.92 41.55 40.90 40.87 45.73 44.84 39.57 30.44 28.29 28.61 35.54 37.39 36.36 28.64 31.59 27.34 31.02 30.86 31.94 31.94 35.54 35.74 37.68 37.15 35.05 29.41 37.38 40.66 42.25 41.37 38.96 39.65 30.53 29.83 24.24 19.77
51.32 51.92 51.52 51.00 50.40 50.26 50.65 51.06 51.70 52.07 52.21 51.49 40.32 35.79 41.98 44.94 42.58 34.62 25.80 27.44 33.96 38.56 39.22 35.26 32.20 30.79 30.60 30.21 31.64 31.14 31.66 35.80 37.29 37.03 37.93 35.23 33.84 32.99 36.87 33.46 32.67 33.69 32.78 32.96 32.37 31.35 24.01
50.97 51.11 50.87 50.71 51.07 50.90 50.46 50.94 51.44 51.96 52.97 45.04 38.53 29.88 42.10 44.07 32.62 29.85 29.38 33.97 39.64 37.58 39.63 38.14 36.12 34.85 32.24 32.68 31.28 30.81 31.41 34.35 38.74 38.29 33.66 34.77 32.06 26.23 30.72 35.56 36.30 34.29 32.41 31.66 25.46 25.99 27.64
52.18 50.84 50.92 50.63 50.58 51.36 51.73 51.50 51.71 52.33 52.99 41.22 34.79 34.43 41.86 40.68 26.93 27.85 33.30 35.93 37.73 37.72 37.66 37.29 35.95 37.05 36.13 32.78 29.82 32.42 33.57 39.83 40.10 37.34 33.42 34.98 28.83 21.29 24.01 29.46 33.75 31.92 33.21 32.96 31.20 27.72 24.32
53.39 53.73 51.27 50.98 50.82 51.20 51.60 52.39 52.85 52.70 53.27 42.79 35.02 27.91 33.53 35.41 34.53 29.32 30.65 32.24 33.40 38.89 38.41 38.57 37.06 37.19 34.58 32.80 34.77 32.00 33.11 38.36 39.36 38.11 43.44 38.86 30.29 26.50 18.49 25.89 30.17 28.67 31.22 31.94 28.16 20.87 24.19
53.41 53.05 53.68 51.82 51.34 51.35 51.62 52.45 52.93 52.92 53.16 43.78 35.50 30.63 33.09 26.76 31.44 32.42 31.86 34.09 33.27 33.80 37.79 38.33 35.64 35.91 33.82 29.67 31.48 31.74 34.01 35.28 37.87 40.07 36.93 35.08 27.32 25.05 29.79 32.15 31.37 28.80 29.48 30.59 26.89 27.57 23.48
52.40 53.24 52.56 53.65 51.78 51.89 51.99 52.38 52.37 51.93 51.32 43.13 35.57 35.52 34.31 31.83 33.23 32.61 33.54 31.93 32.93 34.74 35.49 34.78 34.16 36.20 35.14 31.66 31.73 30.51 33.26 32.57 31.91 35.80 33.81 34.50 27.04 28.30 26.63 31.29 30.01 28.03 30.04 31.40 31.09 31.32 30.39
50.99 52.37 52.69 51.88 52.05 52.90 51.98 50.98 50.69 51.05 49.14 41.58 43.42 39.64 35.74 33.37 30.75 29.38 30.62 34.58 35.44 36.99 37.22 37.85 36.63 35.27 33.50 35.17 36.29 35.87 35.66 35.43 34.83 32.64 32.62 31.64 28.48 25.42 23.25 27.15 27.72 24.57 28.14 28.56 29.38 31.25 31.55
49.42 50.78 52.17 52.15 52.59 51.48 50.68 50.37 50.08 50.10 47.87 42.61 40.72 38.48 33.33 29.60 30.58 31.77 34.10 37.04 36.45 37.07 35.21 37.46 37.23 34.99 36.53 39.21 38.65 36.85 35.57 35.78 35.31 34.62 34.63 31.39 28.58 26.89 20.16 22.79 14.44 27.43 32.09 31.83 31.17 33.04 33.77
48.24 49.40 50.40 51.36 52.13 52.20 51.60 51.18 51.07 50.67 49.13 41.26 39.22 38.35 34.47 29.57 31.00 32.07 33.86 35.31 36.41 36.67 36.23 37.30 38.14 38.59 38.59 36.56 32.25 28.70 27.59 28.95 31.87 33.74 33.07 32.88 28.86 24.18 20.71 19.03 23.46 26.43 30.63 30.72 29.01 29.23 34.63
48.36 48.37 49.31 50.23 50.95 51.98 52.23 51.38 50.84 50.73 48.42 40.15 38.16 38.72 37.20 31.95 29.59 34.07 32.70 33.69 32.76 30.74 33.61 36.99 39.89 40.07 38.98 35.18 30.71 24.29 21.60 24.65 25.01 27.59 32.87 33.07 30.49 26.20 22.47 19.16 18.81 25.86 31.00 34.26 31.94 23.78 33.95
48.79 48.30 48.74 49.88 50.79 51.70 52.18 52.19 51.05 50.63 49.70 40.76 37.97 39.39 37.63 32.02 32.93 33.31 32.53 33.74 35.18 33.20 32.41 34.22 35.96 35.79 36.85 31.45 28.64 25.15 24.45 27.80 23.00 23.56 24.25 26.05 26.10 23.20 22.93 20.02 25.18 30.25 33.85 34.23 22.54 25.61 33.81
48.62 48.44 48.55 50.06 51.46 51.69 52.17 52.71 51.36 50.12 50.09 42.74 39.08 39.80 38.58 33.43 33.32 36.04 36.46 33.97 34.68 35.01 32.85 35.33 34.12 34.03 33.93 29.85 28.73 27.30 25.02 26.82 24.65 26.18 25.69 25.34 23.27 22.75 22.97 21.00 18.94 33.57 33.02 28.42 30.52 32.90 34.67
48.47 48.48 48.49 50.67 52.40 52.79 52.10 52.71 51.71 50.48 50.22 46.21 38.90 40.70 40.72 36.28 35.33 37.49 37.84 37.97 37.04 37.40 35.62 34.49 34.22 34.15 35.18 31.44 29.73 28.63 27.65 26.25 25.14 22.96 28.04 25.47 28.27 25.83 27.07 26.85 32.41 34.91 32.47 34.72 35.55 34.69 34.42

GFSGBSN_sfc_wetblb_117.txt.gz
Wetbulb
55.21 55.03 54.93 54.77 54.24 54.12 53.79 53.09 53.09 53.24 53.54 53.43 54.71 54.37 53.76 52.39 52.01 53.10 54.03 55.22 57.15 60.02 57.83 56.47 56.64 55.62 48.67 40.84 42.05 51.57 56.91 54.88 49.61 47.53 42.99 40.85 37.31 34.47 30.18 31.52 33.64 29.66 33.19 36.72 38.06 38.42 38.11
55.60 54.88 54.51 54.36 53.72 53.36 53.17 52.68 52.26 52.69 52.64 53.69 52.93 53.63 53.36 52.46 52.65 53.10 54.11 55.15 56.52 58.73 56.65 56.35 56.56 54.04 43.94 36.61 49.16 52.61 52.18 49.72 47.30 45.66 43.23 41.72 38.99 38.41 34.09 32.76 30.80 33.42 34.36 34.42 36.48 36.58 37.05
55.34 54.67 54.24 53.63 53.10 52.83 52.62 52.40 51.62 51.79 52.17 52.90 53.23 53.16 52.87 52.30 52.74 53.59 56.10 56.65 58.28 57.08 56.19 56.57 55.48 49.83 40.88 41.12 47.31 50.38 49.87 46.02 46.22 45.74 42.15 43.53 42.72 38.35 35.92 32.37 36.50 34.98 30.18 32.20 33.17 34.71 34.61
55.78 54.21 54.02 53.46 53.60 53.23 52.08 52.36 51.68 51.64 52.41 52.36 52.38 52.26 52.36 52.56 52.92 55.02 57.88 57.42 56.36 56.42 56.56 55.69 53.87 45.06 37.32 46.79 47.74 48.43 46.10 45.14 46.71 46.59 45.05 44.65 44.11 39.46 35.22 35.57 34.29 30.47 28.32 24.04 31.07 34.58 35.97
55.31 53.60 53.94 53.65 53.70 53.04 52.43 52.48 51.98 51.58 52.12 52.67 52.40 52.48 52.10 52.22 52.61 55.32 56.06 55.61 55.86 56.32 55.74 54.51 47.49 41.73 35.73 48.21 43.65 43.85 44.95 43.59 44.05 44.65 45.56 47.22 43.05 36.04 35.63 27.94 22.94 26.23 19.51 22.20 27.46 35.24 34.78
54.83 53.17 53.74 53.63 53.69 52.73 52.11 52.64 52.61 52.29 52.51 52.72 51.90 51.42 51.65 54.73 56.11 56.28 56.18 55.44 55.46 53.82 52.08 49.73 47.48 36.16 40.43 38.79 42.44 44.15 43.71 45.93 42.69 41.93 40.86 39.55 34.47 28.28 27.38 22.33 15.07 17.31 16.58 22.75 24.62 30.52 32.24
53.59 53.39 54.04 53.79 53.61 52.48 52.23 52.56 52.45 53.23 52.75 52.20 53.31 53.68 53.28 54.61 54.58 54.80 53.40 49.85 44.25 41.96 43.59 38.69 38.38 38.22 40.61 43.65 45.58 42.95 44.99 42.74 41.21 37.54 30.69 34.84 25.16 24.51 24.84 28.08 28.24 26.46 24.47 25.29 28.42 32.80 30.83
53.10 53.60 53.52 53.33 52.91 52.84 52.55 52.64 52.90 52.97 52.26 52.97 55.01 56.28 54.62 54.77 54.81 53.25 49.88 42.18 42.89 42.73 35.11 41.55 41.78 41.64 43.38 44.36 38.96 41.74 44.89 36.99 35.49 28.54 32.58 30.32 26.75 30.32 32.40 31.84 29.83 27.67 27.66 26.53 29.76 33.12 31.23
53.63 53.68 53.60 53.46 53.31 53.27 53.27 53.40 52.82 52.32 52.01 52.78 54.42 54.70 54.25 54.20 52.55 49.39 46.11 44.37 46.97 42.98 34.15 38.57 41.59 41.56 41.72 43.36 39.06 39.54 42.49 40.83 36.25 33.61 33.87 30.56 29.04 36.27 34.35 32.61 30.93 30.17 27.93 28.18 26.99 31.11 32.56
54.08 54.01 53.70 53.63 53.02 53.36 52.51 52.21 52.73 53.34 52.98 52.05 53.64 53.83 53.18 52.84 47.80 46.82 44.35 47.97 46.62 42.72 26.83 33.04 37.50 40.97 42.66 42.37 37.23 44.76 46.28 40.91 37.42 33.36 34.62 32.85 34.68 33.70 32.18 31.31 32.06 26.73 32.76 32.23 30.58 29.63 24.00
53.92 53.27 53.52 53.53 53.37 52.86 52.25 52.25 53.28 53.66 53.93 52.12 52.40 53.12 52.34 50.84 43.99 43.89 46.07 47.16 46.31 38.53 15.25 34.26 38.03 46.06 43.08 39.59 39.75 41.28 45.25 39.74 34.17 34.45 34.10 27.64 32.24 33.49 32.29 32.69 34.22 28.92 35.55 34.14 34.42 32.31 31.81
53.08 53.32 53.42 53.35 52.86 52.54 52.50 52.51 53.39 53.41 53.10 53.33 53.34 52.56 51.31 46.87 44.66 45.47 46.75 45.45 40.10 22.81 10.91 27.03 38.02 36.81 37.20 40.02 40.31 41.61 41.62 43.97 42.35 37.85 37.10 35.94 39.14 37.08 35.38 36.74 36.87 37.17 34.81 34.92 35.31 32.31 21.73
53.05 52.97 53.56 53.03 52.69 52.76 52.46 52.27 52.80 53.43 52.50 51.57 51.13 50.57 48.00 47.40 41.78 46.57 45.36 39.22 23.36 17.40 30.23 28.38 31.18 36.81 35.55 36.94 38.54 39.23 38.16 37.04 34.90 29.31 24.87 34.51 34.28 36.46 38.18 34.91 39.21 37.27 31.99 21.54 18.32 16.34 19.91
53.10 52.91 53.13 52.88 52.22 52.38 52.74 52.95 53.27 52.49 51.56 52.13 50.44 48.80 47.54 46.41 44.75 43.71 38.87 29.61 18.04 27.92 27.62 34.88 34.81 35.19 31.36 35.63 37.12 38.56 38.00 35.30 36.90 36.97 32.50 27.30 23.38 33.44 38.65 36.78 34.59 34.59 33.04 27.54 20.07 21.86 22.36
52.45 52.65 52.69 52.30 51.82 51.84 52.34 52.64 52.29 51.95 52.52 52.79 48.53 43.07 42.20 44.17 45.50 41.97 33.21 21.10 22.02 28.50 32.88 32.83 33.51 29.31 29.58 34.02 34.71 37.15 34.09 31.75 34.41 35.44 28.16 26.71 26.91 36.39 38.78 41.03 39.66 36.00 33.28 36.83 30.77 32.30 22.30
52.04 51.55 51.38 51.42 51.38 51.36 51.66 52.01 52.42 52.45 53.28 52.29 40.87 39.51 39.97 44.31 43.68 38.30 30.46 27.30 28.41 33.80 36.30 35.11 28.46 30.32 26.43 29.60 29.69 30.65 30.68 35.17 35.21 37.42 36.32 32.40 28.49 35.45 38.79 40.87 40.23 38.70 39.56 30.93 28.97 23.09 20.30
51.51 51.55 51.17 50.91 50.64 50.65 50.91 51.73 52.23 52.82 53.34 48.96 39.38 35.32 41.27 43.82 41.56 34.38 26.01 26.81 33.12 37.72 38.07 34.13 31.28 29.68 30.00 29.47 30.50 29.82 31.07 35.70 37.21 36.64 36.07 33.64 31.38 30.45 34.95 32.07 31.39 32.17 31.56 33.21 31.80 30.53 22.99
50.37 50.60 50.54 51.19 51.13 50.74 50.81 51.43 52.04 52.88 52.84 44.25 36.89 30.05 41.45 42.34 32.02 28.96 29.06 33.05 39.48 36.98 38.63 37.08 35.22 33.70 31.67 31.70 30.25 29.47 30.39 33.52 38.14 37.27 32.50 34.24 30.50 25.15 29.32 34.16 35.44 33.33 31.63 30.23 23.79 25.88 26.29
52.88 50.79 50.31 50.11 50.82 51.21 51.86 52.25 52.41 52.68 51.78 39.62 33.96 33.73 40.71 39.18 26.75 28.01 33.06 34.91 36.51 36.45 36.23 35.91 34.55 35.78 35.04 31.97 29.16 32.13 32.77 38.37 38.79 36.36 32.85 33.70 27.30 20.13 23.92 27.63 31.88 30.87 31.62 31.28 30.23 29.56 24.20
53.43 53.65 51.31 50.78 50.53 51.62 51.98 52.27 52.37 52.87 53.02 40.83 34.02 28.66 34.23 34.78 33.38 29.10 30.46 31.50 32.35 37.89 37.13 37.25 35.60 35.91 33.49 31.33 32.82 30.99 32.14 36.85 38.32 37.16 43.43 38.20 28.87 25.43 18.66 25.32 29.00 27.71 28.90 30.23 27.46 19.75 24.16
53.20 52.91 53.66 51.77 51.55 51.27 51.97 51.82 52.15 52.39 52.25 41.94 34.42 30.71 32.71 26.59 31.12 29.64 29.79 32.80 32.46 32.27 36.31 36.64 33.95 34.60 32.55 28.67 30.60 30.15 32.56 34.20 36.50 39.12 36.30 33.89 26.78 24.31 28.76 30.32 30.31 29.16 28.45 29.18 24.10 26.62 22.97
51.86 52.96 52.22 53.23 52.31 51.92 52.01 52.07 52.15 51.89 50.52 41.16 34.59 32.71 32.45 30.75 31.85 30.30 32.06 30.82 31.79 33.99 34.48 33.62 32.96 35.15 33.73 29.98 30.71 29.03 31.77 30.55 30.53 34.61 32.57 33.07 26.81 27.81 26.65 29.41 28.48 27.96 29.24 29.55 29.36 29.45 28.82
50.66 51.69 52.45 51.76 51.45 52.05 51.40 50.18 50.25 50.38 48.32 40.02 39.38 37.56 34.97 32.10 29.60 28.39 29.36 32.94 34.11 35.80 36.16 36.72 35.91 34.46 32.79 33.91 35.47 35.74 35.21 34.76 33.89 30.89 31.51 30.58 27.89 25.35 22.62 26.15 26.22 23.07 26.91 28.72 28.89 30.54 30.67
49.27 50.48 51.44 51.95 52.06 51.28 50.87 51.05 51.03 49.95 46.76 41.16 39.15 37.11 32.46 29.47 29.78 30.92 33.20 34.09 35.10 35.43 34.22 36.54 36.49 33.33 36.29 38.30 37.66 35.35 33.52 34.21 33.57 33.34 33.65 30.15 27.31 26.41 20.95 22.19 13.82 26.01 30.68 30.45 30.16 31.33 32.72
48.91 49.38 50.19 50.94 51.86 51.86 51.60 51.48 51.44 50.89 48.13 40.53 38.23 37.55 33.62 28.69 29.95 31.34 31.99 33.43 34.18 34.08 34.60 36.27 37.75 38.55 37.82 35.50 31.78 28.09 26.58 28.40 30.37 31.73 31.25 31.83 27.79 24.15 19.75 17.82 23.01 24.54 29.23 29.71 28.88 28.75 33.45
49.33 49.06 49.37 50.14 50.83 51.54 52.02 51.74 51.45 50.93 47.81 39.24 37.34 38.01 36.34 31.22 29.36 32.81 31.93 32.09 31.19 29.72 31.95 35.10 38.28 39.01 36.27 33.66 29.70 24.10 21.15 23.67 24.02 26.36 31.31 31.17 29.19 25.30 22.09 18.29 18.20 24.72 29.80 33.12 30.58 23.49 31.02
49.41 49.45 49.00 49.43 50.41 51.14 51.76 52.10 51.90 50.62 49.80 40.34 37.33 38.41 36.78 31.41 32.53 32.91 31.49 31.95 34.11 31.65 31.66 32.90 33.85 34.26 35.38 30.63 28.52 25.13 24.33 26.15 22.74 22.09 22.95 25.69 25.42 23.11 22.31 19.78 24.07 28.02 32.55 32.79 21.15 25.71 31.10
49.58 49.37 49.28 48.93 49.89 51.25 51.14 51.91 52.29 51.29 48.77 42.62 38.83 39.30 37.98 32.50 33.16 35.15 36.00 33.65 34.11 33.92 32.39 34.40 33.09 33.11 32.66 29.27 28.68 26.72 24.40 25.85 23.75 25.83 24.59 24.89 22.35 22.03 22.23 19.87 18.69 32.24 31.38 28.03 30.17 31.25 33.18
49.83 49.23 49.31 49.11 50.06 51.57 52.34 51.69 52.20 52.07 50.38 45.41 39.31 39.86 40.03 36.04 34.81 36.85 37.37 36.80 36.88 36.46 36.07 33.99 33.07 33.31 34.29 30.40 28.80 28.13 27.75 25.23 24.00 23.06 25.79 24.05 27.65 25.01 26.16 26.02 31.72 33.31 32.70 34.02 33.45 34.51 33.49